<?xml version="1.0" encoding="UTF-8" standalone="no" ?>
<gpx xmlns="http://www.topografix.com/GPX/1/1" xmlns:xsi="http://www.w3.org/2001/XMLSchema-instance" xsi:schemaLocation="http://www.topografix.com/GPX/1/1 http://www.topografix.com/GPX/1/1/gpx.xsd" version="1.1" creator="VisuGPX - https://www.visugpx.com">
  <metadata>
    <name>Remake Raid VTT AVY 30KM Raccourci à22km</name>
    <desc><![CDATA[parcours VTT RAID AVY 30km 2017 refait en juillet 2020, raccourci à la fin]]></desc>
  </metadata>
  <wpt lat="43.65129" lon="3.78824">
    <ele>62.5</ele>
  </wpt>
  <trk>
    <name><![CDATA[Remake Raid VTT AVY 30KM Raccourci à22km_2]]></name>
    <extensions>
      <line xmlns="http://www.topografix.com/GPX/gpx_style/0/2">
        <color>00FF00</color>
        <width>4</width>
          <extensions>
            <sens>1</sens>
          </extensions>
      </line>
    </extensions>
    <trkseg>
      <trkpt lat="43.65065" lon="3.78923">
        <ele>63.9</ele>
        <time>2020-06-28T07:55:13Z</time>
      </trkpt>
      <trkpt lat="43.65068" lon="3.78929">
        <ele>78.934052</ele>
        <time>2020-06-28T07:55:15Z</time>
      </trkpt>
      <trkpt lat="43.65069" lon="3.7893">
        <ele>78.281036</ele>
        <time>2020-06-28T07:55:17Z</time>
      </trkpt>
      <trkpt lat="43.65205" lon="3.78755">
        <ele>65</ele>
        <time>2020-06-28T07:56:27.992Z</time>
      </trkpt>
      <trkpt lat="43.65344" lon="3.78658">
        <ele>66</ele>
        <time>2020-06-28T07:57:27.482Z</time>
      </trkpt>
      <trkpt lat="43.65427" lon="3.78598">
        <ele>65</ele>
        <time>2020-06-28T07:58:03.267Z</time>
      </trkpt>
      <trkpt lat="43.65449" lon="3.78464">
        <ele>69</ele>
        <time>2020-06-28T07:58:41.248Z</time>
      </trkpt>
      <trkpt lat="43.65532" lon="3.78334">
        <ele>74</ele>
        <time>2020-06-28T07:59:29.172Z</time>
      </trkpt>
      <trkpt lat="43.65563" lon="3.78237">
        <ele>77</ele>
        <time>2020-06-28T07:59:58.483Z</time>
      </trkpt>
      <trkpt lat="43.65532" lon="3.78133">
        <ele>78</ele>
        <time>2020-06-28T08:00:29.574Z</time>
      </trkpt>
      <trkpt lat="43.65528" lon="3.78033">
        <ele>76</ele>
        <time>2020-06-28T08:00:57.257Z</time>
      </trkpt>
      <trkpt lat="43.65488" lon="3.77936">
        <ele>74</ele>
        <time>2020-06-28T08:01:28.118Z</time>
      </trkpt>
      <trkpt lat="43.65504" lon="3.77542">
        <ele>82</ele>
        <time>2020-06-28T08:03:17.198Z</time>
      </trkpt>
      <trkpt lat="43.65554" lon="3.77353">
        <ele>86</ele>
        <time>2020-06-28T08:04:12.823Z</time>
      </trkpt>
      <trkpt lat="43.65583" lon="3.77099">
        <ele>92</ele>
        <time>2020-06-28T08:05:23.901Z</time>
      </trkpt>
      <trkpt lat="43.65618" lon="3.76874">
        <ele>95</ele>
        <time>2020-06-28T08:06:27.516Z</time>
      </trkpt>
      <trkpt lat="43.6569" lon="3.7675">
        <ele>89</ele>
        <time>2020-06-28T08:07:11.464Z</time>
      </trkpt>
      <trkpt lat="43.65698" lon="3.76651">
        <ele>95.623009</ele>
        <time>2020-06-28T08:07:39Z</time>
      </trkpt>
      <trkpt lat="43.65695" lon="3.76635">
        <ele>95.463966</ele>
        <time>2020-06-28T08:07:43Z</time>
      </trkpt>
      <trkpt lat="43.65693" lon="3.76626">
        <ele>95.365211</ele>
        <time>2020-06-28T08:07:45Z</time>
      </trkpt>
      <trkpt lat="43.65693" lon="3.76618">
        <ele>95.311516</ele>
        <time>2020-06-28T08:07:47Z</time>
      </trkpt>
      <trkpt lat="43.65692" lon="3.76609">
        <ele>95.195129</ele>
        <time>2020-06-28T08:07:49Z</time>
      </trkpt>
      <trkpt lat="43.65691" lon="3.766">
        <ele>95.124992</ele>
        <time>2020-06-28T08:07:51Z</time>
      </trkpt>
      <trkpt lat="43.65691" lon="3.76592">
        <ele>95.113991</ele>
        <time>2020-06-28T08:07:53Z</time>
      </trkpt>
      <trkpt lat="43.65691" lon="3.76583">
        <ele>95.114777</ele>
        <time>2020-06-28T08:07:55Z</time>
      </trkpt>
      <trkpt lat="43.65691" lon="3.76574">
        <ele>95.157143</ele>
        <time>2020-06-28T08:07:57Z</time>
      </trkpt>
      <trkpt lat="43.65692" lon="3.76565">
        <ele>95.178894</ele>
        <time>2020-06-28T08:07:59Z</time>
      </trkpt>
      <trkpt lat="43.65693" lon="3.76556">
        <ele>95.178894</ele>
        <time>2020-06-28T08:08:01Z</time>
      </trkpt>
      <trkpt lat="43.65694" lon="3.76547">
        <ele>95.168953</ele>
        <time>2020-06-28T08:08:03Z</time>
      </trkpt>
      <trkpt lat="43.65695" lon="3.76539">
        <ele>95.169922</ele>
        <time>2020-06-28T08:08:05Z</time>
      </trkpt>
      <trkpt lat="43.65696" lon="3.76531">
        <ele>95.176308</ele>
        <time>2020-06-28T08:08:07Z</time>
      </trkpt>
      <trkpt lat="43.65697" lon="3.76524">
        <ele>95.19651</ele>
        <time>2020-06-28T08:08:09Z</time>
      </trkpt>
      <trkpt lat="43.65699" lon="3.76517">
        <ele>95.286049</ele>
        <time>2020-06-28T08:08:11Z</time>
      </trkpt>
      <trkpt lat="43.65699" lon="3.7651">
        <ele>95.466797</ele>
        <time>2020-06-28T08:08:13Z</time>
      </trkpt>
      <trkpt lat="43.657" lon="3.76503">
        <ele>95.646484</ele>
        <time>2020-06-28T08:08:15Z</time>
      </trkpt>
      <trkpt lat="43.65701" lon="3.76495">
        <ele>95.791664</ele>
        <time>2020-06-28T08:08:17Z</time>
      </trkpt>
      <trkpt lat="43.65702" lon="3.76487">
        <ele>95.922447</ele>
        <time>2020-06-28T08:08:19Z</time>
      </trkpt>
      <trkpt lat="43.65701" lon="3.76478">
        <ele>96.052734</ele>
        <time>2020-06-28T08:08:21Z</time>
      </trkpt>
      <trkpt lat="43.65701" lon="3.76468">
        <ele>96.185188</ele>
        <time>2020-06-28T08:08:23Z</time>
      </trkpt>
      <trkpt lat="43.65701" lon="3.7646">
        <ele>96.248436</ele>
        <time>2020-06-28T08:08:25Z</time>
      </trkpt>
      <trkpt lat="43.65699" lon="3.76451">
        <ele>96.377312</ele>
        <time>2020-06-28T08:08:27Z</time>
      </trkpt>
      <trkpt lat="43.65698" lon="3.76442">
        <ele>96.500648</ele>
        <time>2020-06-28T08:08:29Z</time>
      </trkpt>
      <trkpt lat="43.65696" lon="3.76434">
        <ele>96.615295</ele>
        <time>2020-06-28T08:08:31Z</time>
      </trkpt>
      <trkpt lat="43.65695" lon="3.76427">
        <ele>96.71228</ele>
        <time>2020-06-28T08:08:33Z</time>
      </trkpt>
      <trkpt lat="43.65692" lon="3.76419">
        <ele>96.794914</ele>
        <time>2020-06-28T08:08:35Z</time>
      </trkpt>
      <trkpt lat="43.6569" lon="3.76411">
        <ele>96.871651</ele>
        <time>2020-06-28T08:08:37Z</time>
      </trkpt>
      <trkpt lat="43.65686" lon="3.76403">
        <ele>96.975746</ele>
        <time>2020-06-28T08:08:39Z</time>
      </trkpt>
      <trkpt lat="43.65683" lon="3.76396">
        <ele>97.192101</ele>
        <time>2020-06-28T08:08:41Z</time>
      </trkpt>
      <trkpt lat="43.6568" lon="3.76387">
        <ele>97.520409</ele>
        <time>2020-06-28T08:08:43Z</time>
      </trkpt>
      <trkpt lat="43.65678" lon="3.76379">
        <ele>97.722778</ele>
        <time>2020-06-28T08:08:45Z</time>
      </trkpt>
      <trkpt lat="43.65678" lon="3.76371">
        <ele>98.134499</ele>
        <time>2020-06-28T08:08:47Z</time>
      </trkpt>
      <trkpt lat="43.65679" lon="3.76363">
        <ele>98.515137</ele>
        <time>2020-06-28T08:08:49Z</time>
      </trkpt>
      <trkpt lat="43.65681" lon="3.76357">
        <ele>98.81678</ele>
        <time>2020-06-28T08:08:51Z</time>
      </trkpt>
      <trkpt lat="43.65682" lon="3.76351">
        <ele>99.012199</ele>
        <time>2020-06-28T08:08:53Z</time>
      </trkpt>
      <trkpt lat="43.65684" lon="3.76346">
        <ele>99.074524</ele>
        <time>2020-06-28T08:08:55Z</time>
      </trkpt>
      <trkpt lat="43.65686" lon="3.7634">
        <ele>99.175606</ele>
        <time>2020-06-28T08:08:57Z</time>
      </trkpt>
      <trkpt lat="43.65688" lon="3.76334">
        <ele>99.268074</ele>
        <time>2020-06-28T08:08:59Z</time>
      </trkpt>
      <trkpt lat="43.65691" lon="3.76327">
        <ele>99.364113</ele>
        <time>2020-06-28T08:09:01Z</time>
      </trkpt>
      <trkpt lat="43.65693" lon="3.76319">
        <ele>99.472046</ele>
        <time>2020-06-28T08:09:03Z</time>
      </trkpt>
      <trkpt lat="43.65696" lon="3.7631">
        <ele>99.532684</ele>
        <time>2020-06-28T08:09:05Z</time>
      </trkpt>
      <trkpt lat="43.65699" lon="3.76301">
        <ele>99.680153</ele>
        <time>2020-06-28T08:09:07Z</time>
      </trkpt>
      <trkpt lat="43.65701" lon="3.76291">
        <ele>99.781548</ele>
        <time>2020-06-28T08:09:09Z</time>
      </trkpt>
      <trkpt lat="43.65705" lon="3.7628">
        <ele>100.016167</ele>
        <time>2020-06-28T08:09:11Z</time>
      </trkpt>
      <trkpt lat="43.65708" lon="3.7627">
        <ele>100.14637</ele>
        <time>2020-06-28T08:09:13Z</time>
      </trkpt>
      <trkpt lat="43.65711" lon="3.7626">
        <ele>100.412636</ele>
        <time>2020-06-28T08:09:15Z</time>
      </trkpt>
      <trkpt lat="43.65715" lon="3.7625">
        <ele>100.642647</ele>
        <time>2020-06-28T08:09:17Z</time>
      </trkpt>
      <trkpt lat="43.65718" lon="3.7624">
        <ele>100.8256</ele>
        <time>2020-06-28T08:09:19Z</time>
      </trkpt>
      <trkpt lat="43.65721" lon="3.76229">
        <ele>100.996429</ele>
        <time>2020-06-28T08:09:21Z</time>
      </trkpt>
      <trkpt lat="43.65723" lon="3.76218">
        <ele>101.179993</ele>
        <time>2020-06-28T08:09:23Z</time>
      </trkpt>
      <trkpt lat="43.65723" lon="3.76206">
        <ele>101.400414</ele>
        <time>2020-06-28T08:09:25Z</time>
      </trkpt>
      <trkpt lat="43.65724" lon="3.76195">
        <ele>101.526604</ele>
        <time>2020-06-28T08:09:27Z</time>
      </trkpt>
      <trkpt lat="43.65724" lon="3.76184">
        <ele>101.808098</ele>
        <time>2020-06-28T08:09:29Z</time>
      </trkpt>
      <trkpt lat="43.65725" lon="3.76173">
        <ele>102.171417</ele>
        <time>2020-06-28T08:09:31Z</time>
      </trkpt>
      <trkpt lat="43.65725" lon="3.76163">
        <ele>102.545738</ele>
        <time>2020-06-28T08:09:33Z</time>
      </trkpt>
      <trkpt lat="43.65725" lon="3.76152">
        <ele>102.918297</ele>
        <time>2020-06-28T08:09:35Z</time>
      </trkpt>
      <trkpt lat="43.65725" lon="3.76142">
        <ele>103.231934</ele>
        <time>2020-06-28T08:09:37Z</time>
      </trkpt>
      <trkpt lat="43.65726" lon="3.76131">
        <ele>103.543129</ele>
        <time>2020-06-28T08:09:39Z</time>
      </trkpt>
      <trkpt lat="43.65727" lon="3.7612">
        <ele>103.700989</ele>
        <time>2020-06-28T08:09:41Z</time>
      </trkpt>
      <trkpt lat="43.65727" lon="3.7611">
        <ele>104.037148</ele>
        <time>2020-06-28T08:09:43Z</time>
      </trkpt>
      <trkpt lat="43.65728" lon="3.761">
        <ele>104.464195</ele>
        <time>2020-06-28T08:09:45Z</time>
      </trkpt>
      <trkpt lat="43.65728" lon="3.7609">
        <ele>104.911743</ele>
        <time>2020-06-28T08:09:47Z</time>
      </trkpt>
      <trkpt lat="43.65728" lon="3.7608">
        <ele>105.358543</ele>
        <time>2020-06-28T08:09:49Z</time>
      </trkpt>
      <trkpt lat="43.65729" lon="3.76071">
        <ele>105.737526</ele>
        <time>2020-06-28T08:09:51Z</time>
      </trkpt>
      <trkpt lat="43.65729" lon="3.76061">
        <ele>106.119179</ele>
        <time>2020-06-28T08:09:53Z</time>
      </trkpt>
      <trkpt lat="43.6573" lon="3.76051">
        <ele>106.522026</ele>
        <time>2020-06-28T08:09:55Z</time>
      </trkpt>
      <trkpt lat="43.6573" lon="3.76042">
        <ele>106.730965</ele>
        <time>2020-06-28T08:09:57Z</time>
      </trkpt>
      <trkpt lat="43.65731" lon="3.76032">
        <ele>107.199951</ele>
        <time>2020-06-28T08:09:59Z</time>
      </trkpt>
      <trkpt lat="43.65731" lon="3.76022">
        <ele>107.716553</ele>
        <time>2020-06-28T08:10:01Z</time>
      </trkpt>
      <trkpt lat="43.65731" lon="3.76013">
        <ele>108.232422</ele>
        <time>2020-06-28T08:10:03Z</time>
      </trkpt>
      <trkpt lat="43.65731" lon="3.76004">
        <ele>108.704346</ele>
        <time>2020-06-28T08:10:05Z</time>
      </trkpt>
      <trkpt lat="43.65731" lon="3.75995">
        <ele>108.914551</ele>
        <time>2020-06-28T08:10:07Z</time>
      </trkpt>
      <trkpt lat="43.65731" lon="3.75986">
        <ele>109.118896</ele>
        <time>2020-06-28T08:10:09Z</time>
      </trkpt>
      <trkpt lat="43.65731" lon="3.75977">
        <ele>109.538879</ele>
        <time>2020-06-28T08:10:11Z</time>
      </trkpt>
      <trkpt lat="43.65729" lon="3.75969">
        <ele>109.776581</ele>
        <time>2020-06-28T08:10:13Z</time>
      </trkpt>
      <trkpt lat="43.65727" lon="3.7596">
        <ele>110.246979</ele>
        <time>2020-06-28T08:10:15Z</time>
      </trkpt>
      <trkpt lat="43.65725" lon="3.75951">
        <ele>110.696472</ele>
        <time>2020-06-28T08:10:17Z</time>
      </trkpt>
      <trkpt lat="43.65723" lon="3.75943">
        <ele>111.029198</ele>
        <time>2020-06-28T08:10:19Z</time>
      </trkpt>
      <trkpt lat="43.65722" lon="3.75934">
        <ele>111.303436</ele>
        <time>2020-06-28T08:10:21Z</time>
      </trkpt>
      <trkpt lat="43.6572" lon="3.75925">
        <ele>111.560242</ele>
        <time>2020-06-28T08:10:23Z</time>
      </trkpt>
      <trkpt lat="43.65719" lon="3.75917">
        <ele>111.711555</ele>
        <time>2020-06-28T08:10:25Z</time>
      </trkpt>
      <trkpt lat="43.65717" lon="3.75909">
        <ele>112.075844</ele>
        <time>2020-06-28T08:10:27Z</time>
      </trkpt>
      <trkpt lat="43.65715" lon="3.75902">
        <ele>112.592384</ele>
        <time>2020-06-28T08:10:29Z</time>
      </trkpt>
      <trkpt lat="43.65713" lon="3.75895">
        <ele>112.871582</ele>
        <time>2020-06-28T08:10:31Z</time>
      </trkpt>
      <trkpt lat="43.65711" lon="3.75889">
        <ele>113.409851</ele>
        <time>2020-06-28T08:10:33Z</time>
      </trkpt>
      <trkpt lat="43.65709" lon="3.75883">
        <ele>113.946625</ele>
        <time>2020-06-28T08:10:35Z</time>
      </trkpt>
      <trkpt lat="43.65708" lon="3.75878">
        <ele>114.415154</ele>
        <time>2020-06-28T08:10:37Z</time>
      </trkpt>
      <trkpt lat="43.65707" lon="3.75872">
        <ele>114.859032</ele>
        <time>2020-06-28T08:10:39Z</time>
      </trkpt>
      <trkpt lat="43.65705" lon="3.75867">
        <ele>115.216301</ele>
        <time>2020-06-28T08:10:41Z</time>
      </trkpt>
      <trkpt lat="43.65705" lon="3.75861">
        <ele>115.57251</ele>
        <time>2020-06-28T08:10:43Z</time>
      </trkpt>
      <trkpt lat="43.65704" lon="3.75856">
        <ele>115.916603</ele>
        <time>2020-06-28T08:10:45Z</time>
      </trkpt>
      <trkpt lat="43.65704" lon="3.75851">
        <ele>116.242462</ele>
        <time>2020-06-28T08:10:47Z</time>
      </trkpt>
      <trkpt lat="43.65704" lon="3.75847">
        <ele>116.536865</ele>
        <time>2020-06-28T08:10:49Z</time>
      </trkpt>
      <trkpt lat="43.65704" lon="3.75842">
        <ele>116.678894</ele>
        <time>2020-06-28T08:10:51Z</time>
      </trkpt>
      <trkpt lat="43.65704" lon="3.75836">
        <ele>116.977142</ele>
        <time>2020-06-28T08:10:53Z</time>
      </trkpt>
      <trkpt lat="43.65705" lon="3.75831">
        <ele>117.298317</ele>
        <time>2020-06-28T08:10:55Z</time>
      </trkpt>
      <trkpt lat="43.65705" lon="3.75827">
        <ele>117.622597</ele>
        <time>2020-06-28T08:10:57Z</time>
      </trkpt>
      <trkpt lat="43.65705" lon="3.75821">
        <ele>117.927429</ele>
        <time>2020-06-28T08:10:59Z</time>
      </trkpt>
      <trkpt lat="43.65705" lon="3.75816">
        <ele>118.206299</ele>
        <time>2020-06-28T08:11:01Z</time>
      </trkpt>
      <trkpt lat="43.65705" lon="3.7581">
        <ele>118.487823</ele>
        <time>2020-06-28T08:11:03Z</time>
      </trkpt>
      <trkpt lat="43.65704" lon="3.75805">
        <ele>118.629547</ele>
        <time>2020-06-28T08:11:05Z</time>
      </trkpt>
      <trkpt lat="43.65704" lon="3.75799">
        <ele>118.774605</ele>
        <time>2020-06-28T08:11:07Z</time>
      </trkpt>
      <trkpt lat="43.65704" lon="3.75794">
        <ele>119.130737</ele>
        <time>2020-06-28T08:11:09Z</time>
      </trkpt>
      <trkpt lat="43.65705" lon="3.75788">
        <ele>119.337578</ele>
        <time>2020-06-28T08:11:11Z</time>
      </trkpt>
      <trkpt lat="43.65705" lon="3.75782">
        <ele>119.785515</ele>
        <time>2020-06-28T08:11:13Z</time>
      </trkpt>
      <trkpt lat="43.65705" lon="3.75776">
        <ele>120.235619</ele>
        <time>2020-06-28T08:11:15Z</time>
      </trkpt>
      <trkpt lat="43.65705" lon="3.7577">
        <ele>120.638588</ele>
        <time>2020-06-28T08:11:17Z</time>
      </trkpt>
      <trkpt lat="43.65705" lon="3.75764">
        <ele>120.997719</ele>
        <time>2020-06-28T08:11:19Z</time>
      </trkpt>
      <trkpt lat="43.65705" lon="3.75758">
        <ele>121.346031</ele>
        <time>2020-06-28T08:11:21Z</time>
      </trkpt>
      <trkpt lat="43.65705" lon="3.75751">
        <ele>121.703697</ele>
        <time>2020-06-28T08:11:23Z</time>
      </trkpt>
      <trkpt lat="43.65704" lon="3.75744">
        <ele>122.068848</ele>
        <time>2020-06-28T08:11:25Z</time>
      </trkpt>
      <trkpt lat="43.65703" lon="3.75736">
        <ele>122.447021</ele>
        <time>2020-06-28T08:11:27Z</time>
      </trkpt>
      <trkpt lat="43.65702" lon="3.75729">
        <ele>122.847168</ele>
        <time>2020-06-28T08:11:29Z</time>
      </trkpt>
      <trkpt lat="43.65701" lon="3.75721">
        <ele>123.058754</ele>
        <time>2020-06-28T08:11:31Z</time>
      </trkpt>
      <trkpt lat="43.65699" lon="3.75714">
        <ele>123.540749</ele>
        <time>2020-06-28T08:11:33Z</time>
      </trkpt>
      <trkpt lat="43.65698" lon="3.75707">
        <ele>124.081024</ele>
        <time>2020-06-28T08:11:35Z</time>
      </trkpt>
      <trkpt lat="43.65697" lon="3.75699">
        <ele>124.622353</ele>
        <time>2020-06-28T08:11:37Z</time>
      </trkpt>
      <trkpt lat="43.65696" lon="3.75691">
        <ele>125.118492</ele>
        <time>2020-06-28T08:11:39Z</time>
      </trkpt>
      <trkpt lat="43.65696" lon="3.75684">
        <ele>125.565735</ele>
        <time>2020-06-28T08:11:41Z</time>
      </trkpt>
      <trkpt lat="43.65696" lon="3.75676">
        <ele>126.019875</ele>
        <time>2020-06-28T08:11:43Z</time>
      </trkpt>
      <trkpt lat="43.65696" lon="3.75668">
        <ele>126.477303</ele>
        <time>2020-06-28T08:11:45Z</time>
      </trkpt>
      <trkpt lat="43.65696" lon="3.7566">
        <ele>126.940651</ele>
        <time>2020-06-28T08:11:47Z</time>
      </trkpt>
      <trkpt lat="43.65696" lon="3.75653">
        <ele>127.400169</ele>
        <time>2020-06-28T08:11:49Z</time>
      </trkpt>
      <trkpt lat="43.65696" lon="3.75646">
        <ele>127.855812</ele>
        <time>2020-06-28T08:11:51Z</time>
      </trkpt>
      <trkpt lat="43.65696" lon="3.75639">
        <ele>128.302292</ele>
        <time>2020-06-28T08:11:53Z</time>
      </trkpt>
      <trkpt lat="43.65697" lon="3.75632">
        <ele>128.522736</ele>
        <time>2020-06-28T08:11:55Z</time>
      </trkpt>
      <trkpt lat="43.65698" lon="3.75626">
        <ele>128.989059</ele>
        <time>2020-06-28T08:11:57Z</time>
      </trkpt>
      <trkpt lat="43.65698" lon="3.7562">
        <ele>129.471802</ele>
        <time>2020-06-28T08:11:59Z</time>
      </trkpt>
      <trkpt lat="43.65698" lon="3.75613">
        <ele>129.927124</ele>
        <time>2020-06-28T08:12:01Z</time>
      </trkpt>
      <trkpt lat="43.65698" lon="3.75606">
        <ele>130.339279</ele>
        <time>2020-06-28T08:12:03Z</time>
      </trkpt>
      <trkpt lat="43.65698" lon="3.756">
        <ele>130.723465</ele>
        <time>2020-06-28T08:12:05Z</time>
      </trkpt>
      <trkpt lat="43.65698" lon="3.75593">
        <ele>130.921906</ele>
        <time>2020-06-28T08:12:07Z</time>
      </trkpt>
      <trkpt lat="43.65698" lon="3.75587">
        <ele>131.121353</ele>
        <time>2020-06-28T08:12:09Z</time>
      </trkpt>
      <trkpt lat="43.65699" lon="3.7558">
        <ele>131.5504</ele>
        <time>2020-06-28T08:12:11Z</time>
      </trkpt>
      <trkpt lat="43.65699" lon="3.75574">
        <ele>132.062698</ele>
        <time>2020-06-28T08:12:13Z</time>
      </trkpt>
      <trkpt lat="43.65699" lon="3.75568">
        <ele>132.314911</ele>
        <time>2020-06-28T08:12:15Z</time>
      </trkpt>
      <trkpt lat="43.657" lon="3.75561">
        <ele>132.843643</ele>
        <time>2020-06-28T08:12:17Z</time>
      </trkpt>
      <trkpt lat="43.657" lon="3.75555">
        <ele>133.087784</ele>
        <time>2020-06-28T08:12:19Z</time>
      </trkpt>
      <trkpt lat="43.65701" lon="3.75548">
        <ele>133.510788</ele>
        <time>2020-06-28T08:12:21Z</time>
      </trkpt>
      <trkpt lat="43.65701" lon="3.75541">
        <ele>133.995544</ele>
        <time>2020-06-28T08:12:23Z</time>
      </trkpt>
      <trkpt lat="43.65702" lon="3.75534">
        <ele>134.429642</ele>
        <time>2020-06-28T08:12:25Z</time>
      </trkpt>
      <trkpt lat="43.65702" lon="3.75528">
        <ele>134.874695</ele>
        <time>2020-06-28T08:12:27Z</time>
      </trkpt>
      <trkpt lat="43.65703" lon="3.75521">
        <ele>135.264084</ele>
        <time>2020-06-28T08:12:29Z</time>
      </trkpt>
      <trkpt lat="43.65703" lon="3.75514">
        <ele>135.643112</ele>
        <time>2020-06-28T08:12:31Z</time>
      </trkpt>
      <trkpt lat="43.65703" lon="3.75507">
        <ele>135.986008</ele>
        <time>2020-06-28T08:12:33Z</time>
      </trkpt>
      <trkpt lat="43.65704" lon="3.755">
        <ele>136.143219</ele>
        <time>2020-06-28T08:12:35Z</time>
      </trkpt>
      <trkpt lat="43.65704" lon="3.75494">
        <ele>136.427933</ele>
        <time>2020-06-28T08:12:37Z</time>
      </trkpt>
      <trkpt lat="43.65705" lon="3.75486">
        <ele>136.737961</ele>
        <time>2020-06-28T08:12:39Z</time>
      </trkpt>
      <trkpt lat="43.65705" lon="3.75479">
        <ele>137.040573</ele>
        <time>2020-06-28T08:12:41Z</time>
      </trkpt>
      <trkpt lat="43.65705" lon="3.75472">
        <ele>137.342453</ele>
        <time>2020-06-28T08:12:43Z</time>
      </trkpt>
      <trkpt lat="43.65705" lon="3.75464">
        <ele>137.605392</ele>
        <time>2020-06-28T08:12:45Z</time>
      </trkpt>
      <trkpt lat="43.65706" lon="3.75457">
        <ele>137.87735</ele>
        <time>2020-06-28T08:12:47Z</time>
      </trkpt>
      <trkpt lat="43.65706" lon="3.7545">
        <ele>138.015579</ele>
        <time>2020-06-28T08:12:49Z</time>
      </trkpt>
      <trkpt lat="43.65707" lon="3.75442">
        <ele>138.248276</ele>
        <time>2020-06-28T08:12:51Z</time>
      </trkpt>
      <trkpt lat="43.65707" lon="3.75435">
        <ele>138.347488</ele>
        <time>2020-06-28T08:12:53Z</time>
      </trkpt>
      <trkpt lat="43.65707" lon="3.75428">
        <ele>138.347488</ele>
        <time>2020-06-28T08:12:55Z</time>
      </trkpt>
      <trkpt lat="43.65708" lon="3.75421">
        <ele>138.312271</ele>
        <time>2020-06-28T08:12:57Z</time>
      </trkpt>
      <trkpt lat="43.65708" lon="3.75413">
        <ele>138.184143</ele>
        <time>2020-06-28T08:12:59Z</time>
      </trkpt>
      <trkpt lat="43.65709" lon="3.75405">
        <ele>138.115219</ele>
        <time>2020-06-28T08:13:01Z</time>
      </trkpt>
      <trkpt lat="43.65709" lon="3.75397">
        <ele>137.970749</ele>
        <time>2020-06-28T08:13:03Z</time>
      </trkpt>
      <trkpt lat="43.65708" lon="3.75391">
        <ele>137.776489</ele>
        <time>2020-06-28T08:13:05Z</time>
      </trkpt>
      <trkpt lat="43.65708" lon="3.75386">
        <ele>137.681747</ele>
        <time>2020-06-28T08:13:07Z</time>
      </trkpt>
      <trkpt lat="43.65708" lon="3.7538">
        <ele>137.597946</ele>
        <time>2020-06-28T08:13:09Z</time>
      </trkpt>
      <trkpt lat="43.65709" lon="3.75374">
        <ele>137.523697</ele>
        <time>2020-06-28T08:13:11Z</time>
      </trkpt>
      <trkpt lat="43.65711" lon="3.75367">
        <ele>137.317184</ele>
        <time>2020-06-28T08:13:13Z</time>
      </trkpt>
      <trkpt lat="43.65709" lon="3.7536">
        <ele>136.988968</ele>
        <time>2020-06-28T08:13:15Z</time>
      </trkpt>
      <trkpt lat="43.65706" lon="3.75355">
        <ele>136.768936</ele>
        <time>2020-06-28T08:13:17Z</time>
      </trkpt>
      <trkpt lat="43.65699" lon="3.7535">
        <ele>136.575623</ele>
        <time>2020-06-28T08:13:19Z</time>
      </trkpt>
      <trkpt lat="43.65696" lon="3.75345">
        <ele>136.539154</ele>
        <time>2020-06-28T08:13:21Z</time>
      </trkpt>
      <trkpt lat="43.65689" lon="3.75338">
        <ele>136.539154</ele>
        <time>2020-06-28T08:13:23Z</time>
      </trkpt>
      <trkpt lat="43.65683" lon="3.75331">
        <ele>136.578644</ele>
        <time>2020-06-28T08:13:25Z</time>
      </trkpt>
      <trkpt lat="43.65676" lon="3.75325">
        <ele>136.978134</ele>
        <time>2020-06-28T08:13:27Z</time>
      </trkpt>
      <trkpt lat="43.65669" lon="3.75321">
        <ele>137.790329</ele>
        <time>2020-06-28T08:13:29Z</time>
      </trkpt>
      <trkpt lat="43.65661" lon="3.75317">
        <ele>138.581955</ele>
        <time>2020-06-28T08:13:31Z</time>
      </trkpt>
      <trkpt lat="43.65648" lon="3.75312">
        <ele>138.986984</ele>
        <time>2020-06-28T08:13:33Z</time>
      </trkpt>
      <trkpt lat="43.65638" lon="3.75304">
        <ele>139.858871</ele>
        <time>2020-06-28T08:13:35Z</time>
      </trkpt>
      <trkpt lat="43.65635" lon="3.75292">
        <ele>141.20134</ele>
        <time>2020-06-28T08:13:37Z</time>
      </trkpt>
      <trkpt lat="43.65637" lon="3.7528">
        <ele>142.60907</ele>
        <time>2020-06-28T08:13:39Z</time>
      </trkpt>
      <trkpt lat="43.65637" lon="3.75264">
        <ele>143.188538</ele>
        <time>2020-06-28T08:13:41Z</time>
      </trkpt>
      <trkpt lat="43.6564" lon="3.75247">
        <ele>143.808563</ele>
        <time>2020-06-28T08:13:43Z</time>
      </trkpt>
      <trkpt lat="43.65642" lon="3.75228">
        <ele>143.808563</ele>
        <time>2020-06-28T08:13:45Z</time>
      </trkpt>
      <trkpt lat="43.65648" lon="3.75211">
        <ele>143.796097</ele>
        <time>2020-06-28T08:13:47Z</time>
      </trkpt>
      <trkpt lat="43.65651" lon="3.7519">
        <ele>143.46666</ele>
        <time>2020-06-28T08:13:49Z</time>
      </trkpt>
      <trkpt lat="43.65654" lon="3.7517">
        <ele>143.147614</ele>
        <time>2020-06-28T08:13:51Z</time>
      </trkpt>
      <trkpt lat="43.65658" lon="3.75148">
        <ele>142.484985</ele>
        <time>2020-06-28T08:13:53Z</time>
      </trkpt>
      <trkpt lat="43.65662" lon="3.75128">
        <ele>141.910721</ele>
        <time>2020-06-28T08:13:55Z</time>
      </trkpt>
      <trkpt lat="43.65665" lon="3.75106">
        <ele>141.414734</ele>
        <time>2020-06-28T08:13:57Z</time>
      </trkpt>
      <trkpt lat="43.65672" lon="3.75084">
        <ele>141.106216</ele>
        <time>2020-06-28T08:13:59Z</time>
      </trkpt>
      <trkpt lat="43.65678" lon="3.75062">
        <ele>140.971848</ele>
        <time>2020-06-28T08:14:01Z</time>
      </trkpt>
      <trkpt lat="43.65685" lon="3.75044">
        <ele>140.569809</ele>
        <time>2020-06-28T08:14:03Z</time>
      </trkpt>
      <trkpt lat="43.65694" lon="3.75032">
        <ele>139.70285</ele>
        <time>2020-06-28T08:14:05Z</time>
      </trkpt>
      <trkpt lat="43.65709" lon="3.75024">
        <ele>139.117722</ele>
        <time>2020-06-28T08:14:07Z</time>
      </trkpt>
      <trkpt lat="43.65723" lon="3.75019">
        <ele>139.117722</ele>
        <time>2020-06-28T08:14:09Z</time>
      </trkpt>
      <trkpt lat="43.65735" lon="3.75015">
        <ele>137.46553</ele>
        <time>2020-06-28T08:14:11Z</time>
      </trkpt>
      <trkpt lat="43.65742" lon="3.75013">
        <ele>135.826385</ele>
        <time>2020-06-28T08:14:13Z</time>
      </trkpt>
      <trkpt lat="43.65744" lon="3.75009">
        <ele>132.507401</ele>
        <time>2020-06-28T08:14:15Z</time>
      </trkpt>
      <trkpt lat="43.65741" lon="3.75004">
        <ele>130.706207</ele>
        <time>2020-06-28T08:14:17Z</time>
      </trkpt>
      <trkpt lat="43.65736" lon="3.75001">
        <ele>129.173843</ele>
        <time>2020-06-28T08:14:19Z</time>
      </trkpt>
      <trkpt lat="43.65731" lon="3.75">
        <ele>128.016754</ele>
        <time>2020-06-28T08:14:21Z</time>
      </trkpt>
      <trkpt lat="43.65726" lon="3.75">
        <ele>127.881165</ele>
        <time>2020-06-28T08:14:23Z</time>
      </trkpt>
      <trkpt lat="43.65721" lon="3.74997">
        <ele>127.881165</ele>
        <time>2020-06-28T08:14:25Z</time>
      </trkpt>
      <trkpt lat="43.65717" lon="3.74994">
        <ele>128.505203</ele>
        <time>2020-06-28T08:14:27Z</time>
      </trkpt>
      <trkpt lat="43.65712" lon="3.74989">
        <ele>130.042068</ele>
        <time>2020-06-28T08:14:29Z</time>
      </trkpt>
      <trkpt lat="43.65709" lon="3.74984">
        <ele>131.290588</ele>
        <time>2020-06-28T08:14:31Z</time>
      </trkpt>
      <trkpt lat="43.65705" lon="3.74979">
        <ele>131.870834</ele>
        <time>2020-06-28T08:14:33Z</time>
      </trkpt>
      <trkpt lat="43.65702" lon="3.74975">
        <ele>132.799881</ele>
        <time>2020-06-28T08:14:35Z</time>
      </trkpt>
      <trkpt lat="43.65699" lon="3.7497">
        <ele>133.780502</ele>
        <time>2020-06-28T08:14:37Z</time>
      </trkpt>
      <trkpt lat="43.65696" lon="3.74965">
        <ele>134.670135</ele>
        <time>2020-06-28T08:14:39Z</time>
      </trkpt>
      <trkpt lat="43.65694" lon="3.74959">
        <ele>135.499527</ele>
        <time>2020-06-28T08:14:41Z</time>
      </trkpt>
      <trkpt lat="43.65691" lon="3.74954">
        <ele>136.180237</ele>
        <time>2020-06-28T08:14:43Z</time>
      </trkpt>
      <trkpt lat="43.65688" lon="3.74948">
        <ele>136.813187</ele>
        <time>2020-06-28T08:14:45Z</time>
      </trkpt>
      <trkpt lat="43.65684" lon="3.74941">
        <ele>137.575226</ele>
        <time>2020-06-28T08:14:47Z</time>
      </trkpt>
      <trkpt lat="43.65682" lon="3.74933">
        <ele>138.539963</ele>
        <time>2020-06-28T08:14:49Z</time>
      </trkpt>
      <trkpt lat="43.65682" lon="3.74926">
        <ele>139.759842</ele>
        <time>2020-06-28T08:14:51Z</time>
      </trkpt>
      <trkpt lat="43.65681" lon="3.7492">
        <ele>140.862488</ele>
        <time>2020-06-28T08:14:53Z</time>
      </trkpt>
      <trkpt lat="43.6568" lon="3.74913">
        <ele>141.694641</ele>
        <time>2020-06-28T08:14:55Z</time>
      </trkpt>
      <trkpt lat="43.65679" lon="3.74906">
        <ele>142.332535</ele>
        <time>2020-06-28T08:14:57Z</time>
      </trkpt>
      <trkpt lat="43.65677" lon="3.749">
        <ele>142.913986</ele>
        <time>2020-06-28T08:14:59Z</time>
      </trkpt>
      <trkpt lat="43.65675" lon="3.74894">
        <ele>143.199509</ele>
        <time>2020-06-28T08:15:01Z</time>
      </trkpt>
      <trkpt lat="43.65673" lon="3.74888">
        <ele>143.869797</ele>
        <time>2020-06-28T08:15:03Z</time>
      </trkpt>
      <trkpt lat="43.65673" lon="3.74881">
        <ele>144.666428</ele>
        <time>2020-06-28T08:15:05Z</time>
      </trkpt>
      <trkpt lat="43.65673" lon="3.74875">
        <ele>145.082443</ele>
        <time>2020-06-28T08:15:07Z</time>
      </trkpt>
      <trkpt lat="43.65673" lon="3.74868">
        <ele>145.506424</ele>
        <time>2020-06-28T08:15:09Z</time>
      </trkpt>
      <trkpt lat="43.65675" lon="3.74862">
        <ele>146.091721</ele>
        <time>2020-06-28T08:15:11Z</time>
      </trkpt>
      <trkpt lat="43.65676" lon="3.74856">
        <ele>146.133865</ele>
        <time>2020-06-28T08:15:13Z</time>
      </trkpt>
      <trkpt lat="43.65677" lon="3.7485">
        <ele>146.133865</ele>
        <time>2020-06-28T08:15:15Z</time>
      </trkpt>
      <trkpt lat="43.65679" lon="3.74845">
        <ele>146.078781</ele>
        <time>2020-06-28T08:15:17Z</time>
      </trkpt>
      <trkpt lat="43.6568" lon="3.74839">
        <ele>145.707275</ele>
        <time>2020-06-28T08:15:19Z</time>
      </trkpt>
      <trkpt lat="43.6568" lon="3.74834">
        <ele>145.193924</ele>
        <time>2020-06-28T08:15:21Z</time>
      </trkpt>
      <trkpt lat="43.65682" lon="3.7483">
        <ele>144.809753</ele>
        <time>2020-06-28T08:15:23Z</time>
      </trkpt>
      <trkpt lat="43.65685" lon="3.74827">
        <ele>144.485672</ele>
        <time>2020-06-28T08:15:25Z</time>
      </trkpt>
      <trkpt lat="43.65687" lon="3.74828">
        <ele>144.31279</ele>
        <time>2020-06-28T08:15:27Z</time>
      </trkpt>
      <trkpt lat="43.6569" lon="3.7483">
        <ele>143.424911</ele>
        <time>2020-06-28T08:15:29Z</time>
      </trkpt>
      <trkpt lat="43.65692" lon="3.74832">
        <ele>142.928696</ele>
        <time>2020-06-28T08:15:31Z</time>
      </trkpt>
      <trkpt lat="43.65694" lon="3.74835">
        <ele>142.469238</ele>
        <time>2020-06-28T08:15:33Z</time>
      </trkpt>
      <trkpt lat="43.65696" lon="3.74839">
        <ele>141.329575</ele>
        <time>2020-06-28T08:15:35Z</time>
      </trkpt>
      <trkpt lat="43.65698" lon="3.74843">
        <ele>140.839096</ele>
        <time>2020-06-28T08:15:37Z</time>
      </trkpt>
      <trkpt lat="43.657" lon="3.74846">
        <ele>140.239578</ele>
        <time>2020-06-28T08:15:39Z</time>
      </trkpt>
      <trkpt lat="43.65701" lon="3.7485">
        <ele>139.798325</ele>
        <time>2020-06-28T08:15:41Z</time>
      </trkpt>
      <trkpt lat="43.65701" lon="3.74856">
        <ele>139.680771</ele>
        <time>2020-06-28T08:15:43Z</time>
      </trkpt>
      <trkpt lat="43.65703" lon="3.74862">
        <ele>139.580948</ele>
        <time>2020-06-28T08:15:45Z</time>
      </trkpt>
      <trkpt lat="43.65708" lon="3.74868">
        <ele>139.34407</ele>
        <time>2020-06-28T08:15:47Z</time>
      </trkpt>
      <trkpt lat="43.65712" lon="3.74876">
        <ele>139.20784</ele>
        <time>2020-06-28T08:15:49Z</time>
      </trkpt>
      <trkpt lat="43.65719" lon="3.74884">
        <ele>138.867935</ele>
        <time>2020-06-28T08:15:51Z</time>
      </trkpt>
      <trkpt lat="43.65722" lon="3.74887">
        <ele>138.216431</ele>
        <time>2020-06-28T08:15:53Z</time>
      </trkpt>
      <trkpt lat="43.65725" lon="3.7489">
        <ele>137.366989</ele>
        <time>2020-06-28T08:15:55Z</time>
      </trkpt>
      <trkpt lat="43.65729" lon="3.7489">
        <ele>136.527969</ele>
        <time>2020-06-28T08:15:57Z</time>
      </trkpt>
      <trkpt lat="43.65736" lon="3.74889">
        <ele>135.928528</ele>
        <time>2020-06-28T08:15:59Z</time>
      </trkpt>
      <trkpt lat="43.65743" lon="3.74889">
        <ele>135.446594</ele>
        <time>2020-06-28T08:16:01Z</time>
      </trkpt>
      <trkpt lat="43.65748" lon="3.74888">
        <ele>134.910721</ele>
        <time>2020-06-28T08:16:03Z</time>
      </trkpt>
      <trkpt lat="43.65752" lon="3.74888">
        <ele>134.277618</ele>
        <time>2020-06-28T08:16:05Z</time>
      </trkpt>
      <trkpt lat="43.65756" lon="3.74889">
        <ele>133.649216</ele>
        <time>2020-06-28T08:16:07Z</time>
      </trkpt>
      <trkpt lat="43.6576" lon="3.74891">
        <ele>133.37468</ele>
        <time>2020-06-28T08:16:09Z</time>
      </trkpt>
      <trkpt lat="43.65765" lon="3.74891">
        <ele>133.095367</ele>
        <time>2020-06-28T08:16:11Z</time>
      </trkpt>
      <trkpt lat="43.65769" lon="3.74891">
        <ele>132.491409</ele>
        <time>2020-06-28T08:16:13Z</time>
      </trkpt>
      <trkpt lat="43.65772" lon="3.74888">
        <ele>131.840393</ele>
        <time>2020-06-28T08:16:15Z</time>
      </trkpt>
      <trkpt lat="43.65776" lon="3.74884">
        <ele>131.290283</ele>
        <time>2020-06-28T08:16:17Z</time>
      </trkpt>
      <trkpt lat="43.65778" lon="3.74881">
        <ele>131.066284</ele>
        <time>2020-06-28T08:16:19Z</time>
      </trkpt>
      <trkpt lat="43.65781" lon="3.74877">
        <ele>131.066284</ele>
        <time>2020-06-28T08:16:21Z</time>
      </trkpt>
      <trkpt lat="43.65783" lon="3.74871">
        <ele>131.086746</ele>
        <time>2020-06-28T08:16:23Z</time>
      </trkpt>
      <trkpt lat="43.65787" lon="3.74867">
        <ele>131.248199</ele>
        <time>2020-06-28T08:16:25Z</time>
      </trkpt>
      <trkpt lat="43.6579" lon="3.74863">
        <ele>131.60527</ele>
        <time>2020-06-28T08:16:27Z</time>
      </trkpt>
      <trkpt lat="43.65792" lon="3.74861">
        <ele>132.01918</ele>
        <time>2020-06-28T08:16:29Z</time>
      </trkpt>
      <trkpt lat="43.65793" lon="3.74857">
        <ele>132.423935</ele>
        <time>2020-06-28T08:16:31Z</time>
      </trkpt>
      <trkpt lat="43.65797" lon="3.74851">
        <ele>132.712234</ele>
        <time>2020-06-28T08:16:33Z</time>
      </trkpt>
      <trkpt lat="43.658" lon="3.74847">
        <ele>133.063904</ele>
        <time>2020-06-28T08:16:35Z</time>
      </trkpt>
      <trkpt lat="43.65802" lon="3.74842">
        <ele>133.51387</ele>
        <time>2020-06-28T08:16:37Z</time>
      </trkpt>
      <trkpt lat="43.65805" lon="3.74837">
        <ele>134.044495</ele>
        <time>2020-06-28T08:16:39Z</time>
      </trkpt>
      <trkpt lat="43.65806" lon="3.74832">
        <ele>134.629013</ele>
        <time>2020-06-28T08:16:41Z</time>
      </trkpt>
      <trkpt lat="43.6581" lon="3.74827">
        <ele>135.286331</ele>
        <time>2020-06-28T08:16:43Z</time>
      </trkpt>
      <trkpt lat="43.65812" lon="3.74821">
        <ele>136.026413</ele>
        <time>2020-06-28T08:16:45Z</time>
      </trkpt>
      <trkpt lat="43.65816" lon="3.74816">
        <ele>136.77359</ele>
        <time>2020-06-28T08:16:47Z</time>
      </trkpt>
      <trkpt lat="43.65819" lon="3.74811">
        <ele>137.166641</ele>
        <time>2020-06-28T08:16:49Z</time>
      </trkpt>
      <trkpt lat="43.6582" lon="3.74806">
        <ele>138.053146</ele>
        <time>2020-06-28T08:16:51Z</time>
      </trkpt>
      <trkpt lat="43.65821" lon="3.748">
        <ele>139.036163</ele>
        <time>2020-06-28T08:16:53Z</time>
      </trkpt>
      <trkpt lat="43.65822" lon="3.74795">
        <ele>140.060181</ele>
        <time>2020-06-28T08:16:55Z</time>
      </trkpt>
      <trkpt lat="43.65824" lon="3.74791">
        <ele>141.01683</ele>
        <time>2020-06-28T08:16:57Z</time>
      </trkpt>
      <trkpt lat="43.65825" lon="3.74786">
        <ele>141.891464</ele>
        <time>2020-06-28T08:16:59Z</time>
      </trkpt>
      <trkpt lat="43.65827" lon="3.74782">
        <ele>142.718979</ele>
        <time>2020-06-28T08:17:01Z</time>
      </trkpt>
      <trkpt lat="43.65829" lon="3.74777">
        <ele>143.518127</ele>
        <time>2020-06-28T08:17:03Z</time>
      </trkpt>
      <trkpt lat="43.65832" lon="3.74772">
        <ele>144.344254</ele>
        <time>2020-06-28T08:17:05Z</time>
      </trkpt>
      <trkpt lat="43.65834" lon="3.74768">
        <ele>145.186081</ele>
        <time>2020-06-28T08:17:07Z</time>
      </trkpt>
      <trkpt lat="43.65836" lon="3.74762">
        <ele>145.552277</ele>
        <time>2020-06-28T08:17:09Z</time>
      </trkpt>
      <trkpt lat="43.65836" lon="3.74757">
        <ele>145.860336</ele>
        <time>2020-06-28T08:17:11Z</time>
      </trkpt>
      <trkpt lat="43.65836" lon="3.74752">
        <ele>146.447281</ele>
        <time>2020-06-28T08:17:13Z</time>
      </trkpt>
      <trkpt lat="43.65839" lon="3.74746">
        <ele>146.84967</ele>
        <time>2020-06-28T08:17:15Z</time>
      </trkpt>
      <trkpt lat="43.65842" lon="3.74739">
        <ele>147.790878</ele>
        <time>2020-06-28T08:17:17Z</time>
      </trkpt>
      <trkpt lat="43.65844" lon="3.74732">
        <ele>148.855225</ele>
        <time>2020-06-28T08:17:19Z</time>
      </trkpt>
      <trkpt lat="43.65845" lon="3.74724">
        <ele>149.645538</ele>
        <time>2020-06-28T08:17:21Z</time>
      </trkpt>
      <trkpt lat="43.65847" lon="3.74717">
        <ele>150.396347</ele>
        <time>2020-06-28T08:17:23Z</time>
      </trkpt>
      <trkpt lat="43.65849" lon="3.7471">
        <ele>151.270233</ele>
        <time>2020-06-28T08:17:25Z</time>
      </trkpt>
      <trkpt lat="43.65852" lon="3.74701">
        <ele>152.218048</ele>
        <time>2020-06-28T08:17:27Z</time>
      </trkpt>
      <trkpt lat="43.65853" lon="3.74692">
        <ele>153.136673</ele>
        <time>2020-06-28T08:17:29Z</time>
      </trkpt>
      <trkpt lat="43.65857" lon="3.74683">
        <ele>154.056992</ele>
        <time>2020-06-28T08:17:31Z</time>
      </trkpt>
      <trkpt lat="43.65859" lon="3.74674">
        <ele>155.081314</ele>
        <time>2020-06-28T08:17:33Z</time>
      </trkpt>
      <trkpt lat="43.6586" lon="3.74664">
        <ele>155.926834</ele>
        <time>2020-06-28T08:17:35Z</time>
      </trkpt>
      <trkpt lat="43.65863" lon="3.74655">
        <ele>156.768799</ele>
        <time>2020-06-28T08:17:37Z</time>
      </trkpt>
      <trkpt lat="43.65865" lon="3.74645">
        <ele>157.20369</ele>
        <time>2020-06-28T08:17:39Z</time>
      </trkpt>
      <trkpt lat="43.65867" lon="3.74634">
        <ele>158.194168</ele>
        <time>2020-06-28T08:17:41Z</time>
      </trkpt>
      <trkpt lat="43.65868" lon="3.74623">
        <ele>159.362869</ele>
        <time>2020-06-28T08:17:43Z</time>
      </trkpt>
      <trkpt lat="43.65869" lon="3.74617">
        <ele>160.618179</ele>
        <time>2020-06-28T08:17:45Z</time>
      </trkpt>
      <trkpt lat="43.65872" lon="3.74612">
        <ele>161.839966</ele>
        <time>2020-06-28T08:17:47Z</time>
      </trkpt>
      <trkpt lat="43.65875" lon="3.74605">
        <ele>162.806107</ele>
        <time>2020-06-28T08:17:49Z</time>
      </trkpt>
      <trkpt lat="43.65879" lon="3.74599">
        <ele>163.34079</ele>
        <time>2020-06-28T08:17:51Z</time>
      </trkpt>
      <trkpt lat="43.65885" lon="3.74593">
        <ele>163.441132</ele>
        <time>2020-06-28T08:17:53Z</time>
      </trkpt>
      <trkpt lat="43.65893" lon="3.74586">
        <ele>163.459641</ele>
        <time>2020-06-28T08:17:55Z</time>
      </trkpt>
      <trkpt lat="43.65899" lon="3.74582">
        <ele>163.376175</ele>
        <time>2020-06-28T08:17:57Z</time>
      </trkpt>
      <trkpt lat="43.65908" lon="3.74575">
        <ele>163.094955</ele>
        <time>2020-06-28T08:17:59Z</time>
      </trkpt>
      <trkpt lat="43.65917" lon="3.74566">
        <ele>162.537933</ele>
        <time>2020-06-28T08:18:01Z</time>
      </trkpt>
      <trkpt lat="43.65925" lon="3.74557">
        <ele>161.66214</ele>
        <time>2020-06-28T08:18:03Z</time>
      </trkpt>
      <trkpt lat="43.65933" lon="3.74547">
        <ele>161.171524</ele>
        <time>2020-06-28T08:18:05Z</time>
      </trkpt>
      <trkpt lat="43.65942" lon="3.74536">
        <ele>160.152328</ele>
        <time>2020-06-28T08:18:07Z</time>
      </trkpt>
      <trkpt lat="43.65949" lon="3.74527">
        <ele>159.430069</ele>
        <time>2020-06-28T08:18:09Z</time>
      </trkpt>
      <trkpt lat="43.65955" lon="3.74518">
        <ele>159.192719</ele>
        <time>2020-06-28T08:18:11Z</time>
      </trkpt>
      <trkpt lat="43.65963" lon="3.7451">
        <ele>159.153656</ele>
        <time>2020-06-28T08:18:13Z</time>
      </trkpt>
      <trkpt lat="43.6597" lon="3.74502">
        <ele>159.153656</ele>
        <time>2020-06-28T08:18:15Z</time>
      </trkpt>
      <trkpt lat="43.65979" lon="3.74494">
        <ele>159.232193</ele>
        <time>2020-06-28T08:18:17Z</time>
      </trkpt>
      <trkpt lat="43.65989" lon="3.74487">
        <ele>159.335251</ele>
        <time>2020-06-28T08:18:19Z</time>
      </trkpt>
      <trkpt lat="43.65993" lon="3.74482">
        <ele>159.211227</ele>
        <time>2020-06-28T08:18:21Z</time>
      </trkpt>
      <trkpt lat="43.65999" lon="3.74477">
        <ele>159.102219</ele>
        <time>2020-06-28T08:18:23Z</time>
      </trkpt>
      <trkpt lat="43.66009" lon="3.74472">
        <ele>158.66246</ele>
        <time>2020-06-28T08:18:25Z</time>
      </trkpt>
      <trkpt lat="43.66021" lon="3.74465">
        <ele>158.180527</ele>
        <time>2020-06-28T08:18:27Z</time>
      </trkpt>
      <trkpt lat="43.6603" lon="3.74458">
        <ele>157.452377</ele>
        <time>2020-06-28T08:18:29Z</time>
      </trkpt>
      <trkpt lat="43.66041" lon="3.74452">
        <ele>156.54863</ele>
        <time>2020-06-28T08:18:31Z</time>
      </trkpt>
      <trkpt lat="43.66051" lon="3.74446">
        <ele>156.015198</ele>
        <time>2020-06-28T08:18:33Z</time>
      </trkpt>
      <trkpt lat="43.66058" lon="3.7444">
        <ele>154.831711</ele>
        <time>2020-06-28T08:18:35Z</time>
      </trkpt>
      <trkpt lat="43.66065" lon="3.74435">
        <ele>153.436295</ele>
        <time>2020-06-28T08:18:37Z</time>
      </trkpt>
      <trkpt lat="43.6607" lon="3.74429">
        <ele>151.946381</ele>
        <time>2020-06-28T08:18:39Z</time>
      </trkpt>
      <trkpt lat="43.66077" lon="3.74424">
        <ele>150.707687</ele>
        <time>2020-06-28T08:18:41Z</time>
      </trkpt>
      <trkpt lat="43.66083" lon="3.74415">
        <ele>150.014709</ele>
        <time>2020-06-28T08:18:43Z</time>
      </trkpt>
      <trkpt lat="43.66086" lon="3.74406">
        <ele>149.282043</ele>
        <time>2020-06-28T08:18:45Z</time>
      </trkpt>
      <trkpt lat="43.66089" lon="3.74397">
        <ele>148.908035</ele>
        <time>2020-06-28T08:18:47Z</time>
      </trkpt>
      <trkpt lat="43.66094" lon="3.74391">
        <ele>148.750748</ele>
        <time>2020-06-28T08:18:49Z</time>
      </trkpt>
      <trkpt lat="43.661" lon="3.74385">
        <ele>148.529297</ele>
        <time>2020-06-28T08:18:51Z</time>
      </trkpt>
      <trkpt lat="43.66107" lon="3.74379">
        <ele>148.471497</ele>
        <time>2020-06-28T08:18:53Z</time>
      </trkpt>
      <trkpt lat="43.66112" lon="3.7437">
        <ele>148.122604</ele>
        <time>2020-06-28T08:18:55Z</time>
      </trkpt>
      <trkpt lat="43.66114" lon="3.74364">
        <ele>147.227158</ele>
        <time>2020-06-28T08:18:57Z</time>
      </trkpt>
      <trkpt lat="43.66118" lon="3.74362">
        <ele>146.427414</ele>
        <time>2020-06-28T08:18:59Z</time>
      </trkpt>
      <trkpt lat="43.66119" lon="3.74362">
        <ele>146.12233</ele>
        <time>2020-06-28T08:19:01Z</time>
      </trkpt>
      <trkpt lat="43.66133" lon="3.74363">
        <ele>143.550049</ele>
        <time>2020-06-28T08:19:35Z</time>
      </trkpt>
      <trkpt lat="43.66138" lon="3.74363">
        <ele>142.94136</ele>
        <time>2020-06-28T08:19:39Z</time>
      </trkpt>
      <trkpt lat="43.6614" lon="3.74363">
        <ele>142.303726</ele>
        <time>2020-06-28T08:19:41Z</time>
      </trkpt>
      <trkpt lat="43.66143" lon="3.74361">
        <ele>140.564163</ele>
        <time>2020-06-28T08:19:43Z</time>
      </trkpt>
      <trkpt lat="43.66145" lon="3.74356">
        <ele>138.683151</ele>
        <time>2020-06-28T08:19:45Z</time>
      </trkpt>
      <trkpt lat="43.66146" lon="3.7435">
        <ele>138.005203</ele>
        <time>2020-06-28T08:19:47Z</time>
      </trkpt>
      <trkpt lat="43.66149" lon="3.74344">
        <ele>137.199158</ele>
        <time>2020-06-28T08:19:49Z</time>
      </trkpt>
      <trkpt lat="43.66151" lon="3.74337">
        <ele>137.046036</ele>
        <time>2020-06-28T08:19:51Z</time>
      </trkpt>
      <trkpt lat="43.66153" lon="3.74331">
        <ele>136.906738</ele>
        <time>2020-06-28T08:19:53Z</time>
      </trkpt>
      <trkpt lat="43.66155" lon="3.74323">
        <ele>136.893799</ele>
        <time>2020-06-28T08:19:55Z</time>
      </trkpt>
      <trkpt lat="43.66156" lon="3.74316">
        <ele>136.911194</ele>
        <time>2020-06-28T08:19:57Z</time>
      </trkpt>
      <trkpt lat="43.66158" lon="3.74308">
        <ele>136.934219</ele>
        <time>2020-06-28T08:19:59Z</time>
      </trkpt>
      <trkpt lat="43.66159" lon="3.74301">
        <ele>137.083862</ele>
        <time>2020-06-28T08:20:01Z</time>
      </trkpt>
      <trkpt lat="43.66162" lon="3.74293">
        <ele>137.207397</ele>
        <time>2020-06-28T08:20:03Z</time>
      </trkpt>
      <trkpt lat="43.66164" lon="3.74285">
        <ele>137.518417</ele>
        <time>2020-06-28T08:20:05Z</time>
      </trkpt>
      <trkpt lat="43.66165" lon="3.74279">
        <ele>137.674149</ele>
        <time>2020-06-28T08:20:07Z</time>
      </trkpt>
      <trkpt lat="43.66167" lon="3.74272">
        <ele>137.772278</ele>
        <time>2020-06-28T08:20:09Z</time>
      </trkpt>
      <trkpt lat="43.66169" lon="3.74265">
        <ele>137.847748</ele>
        <time>2020-06-28T08:20:11Z</time>
      </trkpt>
      <trkpt lat="43.66171" lon="3.74258">
        <ele>137.847748</ele>
        <time>2020-06-28T08:20:13Z</time>
      </trkpt>
      <trkpt lat="43.66172" lon="3.74251">
        <ele>137.834457</ele>
        <time>2020-06-28T08:20:15Z</time>
      </trkpt>
      <trkpt lat="43.66174" lon="3.74244">
        <ele>137.806183</ele>
        <time>2020-06-28T08:20:17Z</time>
      </trkpt>
      <trkpt lat="43.66175" lon="3.74237">
        <ele>137.798111</ele>
        <time>2020-06-28T08:20:19Z</time>
      </trkpt>
      <trkpt lat="43.66177" lon="3.74229">
        <ele>137.7836</ele>
        <time>2020-06-28T08:20:21Z</time>
      </trkpt>
      <trkpt lat="43.66179" lon="3.74222">
        <ele>137.78508</ele>
        <time>2020-06-28T08:20:23Z</time>
      </trkpt>
      <trkpt lat="43.66181" lon="3.74213">
        <ele>137.78508</ele>
        <time>2020-06-28T08:20:25Z</time>
      </trkpt>
      <trkpt lat="43.66183" lon="3.74204">
        <ele>137.745041</ele>
        <time>2020-06-28T08:20:27Z</time>
      </trkpt>
      <trkpt lat="43.66185" lon="3.74195">
        <ele>137.745041</ele>
        <time>2020-06-28T08:20:29Z</time>
      </trkpt>
      <trkpt lat="43.66188" lon="3.74187">
        <ele>137.607559</ele>
        <time>2020-06-28T08:20:31Z</time>
      </trkpt>
      <trkpt lat="43.6619" lon="3.74178">
        <ele>137.447037</ele>
        <time>2020-06-28T08:20:33Z</time>
      </trkpt>
      <trkpt lat="43.66192" lon="3.74169">
        <ele>137.018616</ele>
        <time>2020-06-28T08:20:35Z</time>
      </trkpt>
      <trkpt lat="43.66195" lon="3.74161">
        <ele>136.809586</ele>
        <time>2020-06-28T08:20:37Z</time>
      </trkpt>
      <trkpt lat="43.66202" lon="3.74162">
        <ele>136.576797</ele>
        <time>2020-06-28T08:20:39Z</time>
      </trkpt>
      <trkpt lat="43.66209" lon="3.74165">
        <ele>136.007446</ele>
        <time>2020-06-28T08:20:41Z</time>
      </trkpt>
      <trkpt lat="43.66217" lon="3.74169">
        <ele>135.32608</ele>
        <time>2020-06-28T08:20:43Z</time>
      </trkpt>
      <trkpt lat="43.66224" lon="3.74172">
        <ele>134.438797</ele>
        <time>2020-06-28T08:20:45Z</time>
      </trkpt>
      <trkpt lat="43.66232" lon="3.74175">
        <ele>133.069443</ele>
        <time>2020-06-28T08:20:47Z</time>
      </trkpt>
      <trkpt lat="43.66238" lon="3.74177">
        <ele>129.23497</ele>
        <time>2020-06-28T08:20:49Z</time>
      </trkpt>
      <trkpt lat="43.66242" lon="3.74172">
        <ele>126.836647</ele>
        <time>2020-06-28T08:20:51Z</time>
      </trkpt>
      <trkpt lat="43.66245" lon="3.74165">
        <ele>124.677238</ele>
        <time>2020-06-28T08:20:53Z</time>
      </trkpt>
      <trkpt lat="43.66248" lon="3.74157">
        <ele>120.565636</ele>
        <time>2020-06-28T08:20:55Z</time>
      </trkpt>
      <trkpt lat="43.6625" lon="3.74149">
        <ele>118.111061</ele>
        <time>2020-06-28T08:20:57Z</time>
      </trkpt>
      <trkpt lat="43.66253" lon="3.74141">
        <ele>116.9692</ele>
        <time>2020-06-28T08:20:59Z</time>
      </trkpt>
      <trkpt lat="43.66255" lon="3.74133">
        <ele>116.816566</ele>
        <time>2020-06-28T08:21:01Z</time>
      </trkpt>
      <trkpt lat="43.66257" lon="3.74125">
        <ele>116.798241</ele>
        <time>2020-06-28T08:21:03Z</time>
      </trkpt>
      <trkpt lat="43.66259" lon="3.74117">
        <ele>116.798241</ele>
        <time>2020-06-28T08:21:05Z</time>
      </trkpt>
      <trkpt lat="43.66262" lon="3.74107">
        <ele>116.835297</ele>
        <time>2020-06-28T08:21:07Z</time>
      </trkpt>
      <trkpt lat="43.66264" lon="3.74097">
        <ele>116.874992</ele>
        <time>2020-06-28T08:21:09Z</time>
      </trkpt>
      <trkpt lat="43.66267" lon="3.74087">
        <ele>116.924072</ele>
        <time>2020-06-28T08:21:11Z</time>
      </trkpt>
      <trkpt lat="43.6627" lon="3.74078">
        <ele>116.93499</ele>
        <time>2020-06-28T08:21:13Z</time>
      </trkpt>
      <trkpt lat="43.66272" lon="3.74068">
        <ele>116.951569</ele>
        <time>2020-06-28T08:21:15Z</time>
      </trkpt>
      <trkpt lat="43.66275" lon="3.74059">
        <ele>116.963318</ele>
        <time>2020-06-28T08:21:17Z</time>
      </trkpt>
      <trkpt lat="43.66278" lon="3.7405">
        <ele>116.994469</ele>
        <time>2020-06-28T08:21:19Z</time>
      </trkpt>
      <trkpt lat="43.6628" lon="3.7404">
        <ele>117.049011</ele>
        <time>2020-06-28T08:21:21Z</time>
      </trkpt>
      <trkpt lat="43.66282" lon="3.74031">
        <ele>117.13485</ele>
        <time>2020-06-28T08:21:23Z</time>
      </trkpt>
      <trkpt lat="43.66285" lon="3.74022">
        <ele>117.238365</ele>
        <time>2020-06-28T08:21:25Z</time>
      </trkpt>
      <trkpt lat="43.66287" lon="3.74012">
        <ele>117.33667</ele>
        <time>2020-06-28T08:21:27Z</time>
      </trkpt>
      <trkpt lat="43.6629" lon="3.74003">
        <ele>117.41642</ele>
        <time>2020-06-28T08:21:29Z</time>
      </trkpt>
      <trkpt lat="43.66292" lon="3.73994">
        <ele>117.466164</ele>
        <time>2020-06-28T08:21:31Z</time>
      </trkpt>
      <trkpt lat="43.66295" lon="3.73985">
        <ele>117.481903</ele>
        <time>2020-06-28T08:21:33Z</time>
      </trkpt>
      <trkpt lat="43.66297" lon="3.73978">
        <ele>117.481903</ele>
        <time>2020-06-28T08:21:35Z</time>
      </trkpt>
      <trkpt lat="43.66299" lon="3.73975">
        <ele>117.477379</ele>
        <time>2020-06-28T08:21:37Z</time>
      </trkpt>
      <trkpt lat="43.66302" lon="3.73971">
        <ele>117.384453</ele>
        <time>2020-06-28T08:21:39Z</time>
      </trkpt>
      <trkpt lat="43.66305" lon="3.73968">
        <ele>117.223633</ele>
        <time>2020-06-28T08:21:41Z</time>
      </trkpt>
      <trkpt lat="43.66306" lon="3.73967">
        <ele>116.900757</ele>
        <time>2020-06-28T08:21:43Z</time>
      </trkpt>
      <trkpt lat="43.66295" lon="3.73971">
        <ele>116.097168</ele>
        <time>2020-06-28T08:22:01Z</time>
      </trkpt>
      <trkpt lat="43.66292" lon="3.73965">
        <ele>116.615547</ele>
        <time>2020-06-28T08:22:05Z</time>
      </trkpt>
      <trkpt lat="43.6629" lon="3.73959">
        <ele>117.44857</ele>
        <time>2020-06-28T08:22:07Z</time>
      </trkpt>
      <trkpt lat="43.66288" lon="3.73953">
        <ele>118.255562</ele>
        <time>2020-06-28T08:22:09Z</time>
      </trkpt>
      <trkpt lat="43.66285" lon="3.73947">
        <ele>118.987755</ele>
        <time>2020-06-28T08:22:11Z</time>
      </trkpt>
      <trkpt lat="43.66284" lon="3.73942">
        <ele>119.70105</ele>
        <time>2020-06-28T08:22:13Z</time>
      </trkpt>
      <trkpt lat="43.66282" lon="3.73936">
        <ele>120.06118</ele>
        <time>2020-06-28T08:22:15Z</time>
      </trkpt>
      <trkpt lat="43.66279" lon="3.7393">
        <ele>120.395424</ele>
        <time>2020-06-28T08:22:17Z</time>
      </trkpt>
      <trkpt lat="43.66277" lon="3.73926">
        <ele>121.020409</ele>
        <time>2020-06-28T08:22:19Z</time>
      </trkpt>
      <trkpt lat="43.66275" lon="3.73921">
        <ele>121.578011</ele>
        <time>2020-06-28T08:22:21Z</time>
      </trkpt>
      <trkpt lat="43.66272" lon="3.73918">
        <ele>122.050941</ele>
        <time>2020-06-28T08:22:23Z</time>
      </trkpt>
      <trkpt lat="43.6627" lon="3.73921">
        <ele>122.450371</ele>
        <time>2020-06-28T08:22:25Z</time>
      </trkpt>
      <trkpt lat="43.66273" lon="3.73926">
        <ele>122.822144</ele>
        <time>2020-06-28T08:22:27Z</time>
      </trkpt>
      <trkpt lat="43.66278" lon="3.73931">
        <ele>122.951813</ele>
        <time>2020-06-28T08:22:29Z</time>
      </trkpt>
      <trkpt lat="43.66283" lon="3.73939">
        <ele>122.951813</ele>
        <time>2020-06-28T08:22:31Z</time>
      </trkpt>
      <trkpt lat="43.66288" lon="3.7395">
        <ele>122.706505</ele>
        <time>2020-06-28T08:22:33Z</time>
      </trkpt>
      <trkpt lat="43.66293" lon="3.73963">
        <ele>122.040627</ele>
        <time>2020-06-28T08:22:35Z</time>
      </trkpt>
      <trkpt lat="43.66298" lon="3.73978">
        <ele>121.602272</ele>
        <time>2020-06-28T08:22:37Z</time>
      </trkpt>
      <trkpt lat="43.66299" lon="3.73994">
        <ele>120.527588</ele>
        <time>2020-06-28T08:22:39Z</time>
      </trkpt>
      <trkpt lat="43.66295" lon="3.74008">
        <ele>118.894287</ele>
        <time>2020-06-28T08:22:41Z</time>
      </trkpt>
      <trkpt lat="43.66291" lon="3.74021">
        <ele>117.408516</ele>
        <time>2020-06-28T08:22:43Z</time>
      </trkpt>
      <trkpt lat="43.66288" lon="3.74033">
        <ele>116.845642</ele>
        <time>2020-06-28T08:22:45Z</time>
      </trkpt>
      <trkpt lat="43.66285" lon="3.74045">
        <ele>116.286621</ele>
        <time>2020-06-28T08:22:47Z</time>
      </trkpt>
      <trkpt lat="43.66282" lon="3.74057">
        <ele>116.225868</ele>
        <time>2020-06-28T08:22:49Z</time>
      </trkpt>
      <trkpt lat="43.66279" lon="3.74067">
        <ele>116.177429</ele>
        <time>2020-06-28T08:22:51Z</time>
      </trkpt>
      <trkpt lat="43.66276" lon="3.74077">
        <ele>116.110023</ele>
        <time>2020-06-28T08:22:53Z</time>
      </trkpt>
      <trkpt lat="43.66273" lon="3.74086">
        <ele>116.053955</ele>
        <time>2020-06-28T08:22:55Z</time>
      </trkpt>
      <trkpt lat="43.6627" lon="3.74095">
        <ele>116.005394</ele>
        <time>2020-06-28T08:22:57Z</time>
      </trkpt>
      <trkpt lat="43.66268" lon="3.74105">
        <ele>115.966187</ele>
        <time>2020-06-28T08:22:59Z</time>
      </trkpt>
      <trkpt lat="43.66266" lon="3.74115">
        <ele>115.933983</ele>
        <time>2020-06-28T08:23:01Z</time>
      </trkpt>
      <trkpt lat="43.66263" lon="3.74126">
        <ele>115.917999</ele>
        <time>2020-06-28T08:23:03Z</time>
      </trkpt>
      <trkpt lat="43.6626" lon="3.74136">
        <ele>115.905739</ele>
        <time>2020-06-28T08:23:05Z</time>
      </trkpt>
      <trkpt lat="43.66257" lon="3.74147">
        <ele>115.866554</ele>
        <time>2020-06-28T08:23:07Z</time>
      </trkpt>
      <trkpt lat="43.66254" lon="3.74159">
        <ele>115.782616</ele>
        <time>2020-06-28T08:23:09Z</time>
      </trkpt>
      <trkpt lat="43.6625" lon="3.74172">
        <ele>115.689751</ele>
        <time>2020-06-28T08:23:11Z</time>
      </trkpt>
      <trkpt lat="43.66247" lon="3.74184">
        <ele>115.645348</ele>
        <time>2020-06-28T08:23:13Z</time>
      </trkpt>
      <trkpt lat="43.66244" lon="3.74197">
        <ele>115.645348</ele>
        <time>2020-06-28T08:23:15Z</time>
      </trkpt>
      <trkpt lat="43.6624" lon="3.7421">
        <ele>115.649605</ele>
        <time>2020-06-28T08:23:17Z</time>
      </trkpt>
      <trkpt lat="43.66237" lon="3.74224">
        <ele>115.661621</ele>
        <time>2020-06-28T08:23:19Z</time>
      </trkpt>
      <trkpt lat="43.66234" lon="3.74237">
        <ele>115.774391</ele>
        <time>2020-06-28T08:23:21Z</time>
      </trkpt>
      <trkpt lat="43.6623" lon="3.74251">
        <ele>116.038338</ele>
        <time>2020-06-28T08:23:23Z</time>
      </trkpt>
      <trkpt lat="43.66227" lon="3.74264">
        <ele>116.367317</ele>
        <time>2020-06-28T08:23:25Z</time>
      </trkpt>
      <trkpt lat="43.66223" lon="3.74277">
        <ele>116.692848</ele>
        <time>2020-06-28T08:23:27Z</time>
      </trkpt>
      <trkpt lat="43.6622" lon="3.74289">
        <ele>116.932068</ele>
        <time>2020-06-28T08:23:29Z</time>
      </trkpt>
      <trkpt lat="43.66217" lon="3.74301">
        <ele>117.198433</ele>
        <time>2020-06-28T08:23:31Z</time>
      </trkpt>
      <trkpt lat="43.66214" lon="3.74312">
        <ele>117.494881</ele>
        <time>2020-06-28T08:23:33Z</time>
      </trkpt>
      <trkpt lat="43.66212" lon="3.74323">
        <ele>117.645332</ele>
        <time>2020-06-28T08:23:35Z</time>
      </trkpt>
      <trkpt lat="43.66213" lon="3.74335">
        <ele>117.858368</ele>
        <time>2020-06-28T08:23:37Z</time>
      </trkpt>
      <trkpt lat="43.66216" lon="3.74346">
        <ele>117.858368</ele>
        <time>2020-06-28T08:23:39Z</time>
      </trkpt>
      <trkpt lat="43.66219" lon="3.74355">
        <ele>117.559227</ele>
        <time>2020-06-28T08:23:41Z</time>
      </trkpt>
      <trkpt lat="43.66221" lon="3.74365">
        <ele>116.547668</ele>
        <time>2020-06-28T08:23:43Z</time>
      </trkpt>
      <trkpt lat="43.66222" lon="3.74377">
        <ele>115.031502</ele>
        <time>2020-06-28T08:23:45Z</time>
      </trkpt>
      <trkpt lat="43.66222" lon="3.74389">
        <ele>113.596626</ele>
        <time>2020-06-28T08:23:47Z</time>
      </trkpt>
      <trkpt lat="43.66222" lon="3.74402">
        <ele>112.530144</ele>
        <time>2020-06-28T08:23:49Z</time>
      </trkpt>
      <trkpt lat="43.66222" lon="3.74415">
        <ele>111.739967</ele>
        <time>2020-06-28T08:23:51Z</time>
      </trkpt>
      <trkpt lat="43.66222" lon="3.74428">
        <ele>111.119453</ele>
        <time>2020-06-28T08:23:53Z</time>
      </trkpt>
      <trkpt lat="43.66221" lon="3.74442">
        <ele>110.809059</ele>
        <time>2020-06-28T08:23:55Z</time>
      </trkpt>
      <trkpt lat="43.66221" lon="3.74456">
        <ele>110.168701</ele>
        <time>2020-06-28T08:23:57Z</time>
      </trkpt>
      <trkpt lat="43.66219" lon="3.7447">
        <ele>109.528893</ele>
        <time>2020-06-28T08:23:59Z</time>
      </trkpt>
      <trkpt lat="43.66218" lon="3.74484">
        <ele>108.871666</ele>
        <time>2020-06-28T08:24:01Z</time>
      </trkpt>
      <trkpt lat="43.66219" lon="3.74498">
        <ele>108.324196</ele>
        <time>2020-06-28T08:24:03Z</time>
      </trkpt>
      <trkpt lat="43.66219" lon="3.74511">
        <ele>107.751228</ele>
        <time>2020-06-28T08:24:05Z</time>
      </trkpt>
      <trkpt lat="43.66219" lon="3.74524">
        <ele>107.130867</ele>
        <time>2020-06-28T08:24:07Z</time>
      </trkpt>
      <trkpt lat="43.66219" lon="3.74538">
        <ele>106.487968</ele>
        <time>2020-06-28T08:24:09Z</time>
      </trkpt>
      <trkpt lat="43.66219" lon="3.74552">
        <ele>105.9263</ele>
        <time>2020-06-28T08:24:11Z</time>
      </trkpt>
      <trkpt lat="43.66219" lon="3.74566">
        <ele>105.677124</ele>
        <time>2020-06-28T08:24:13Z</time>
      </trkpt>
      <trkpt lat="43.66218" lon="3.74581">
        <ele>105.422691</ele>
        <time>2020-06-28T08:24:15Z</time>
      </trkpt>
      <trkpt lat="43.66217" lon="3.74595">
        <ele>105.11869</ele>
        <time>2020-06-28T08:24:17Z</time>
      </trkpt>
      <trkpt lat="43.66217" lon="3.74611">
        <ele>104.429993</ele>
        <time>2020-06-28T08:24:19Z</time>
      </trkpt>
      <trkpt lat="43.66216" lon="3.74625">
        <ele>103.499962</ele>
        <time>2020-06-28T08:24:21Z</time>
      </trkpt>
      <trkpt lat="43.66216" lon="3.74639">
        <ele>102.578255</ele>
        <time>2020-06-28T08:24:23Z</time>
      </trkpt>
      <trkpt lat="43.66217" lon="3.74651">
        <ele>101.708031</ele>
        <time>2020-06-28T08:24:25Z</time>
      </trkpt>
      <trkpt lat="43.66225" lon="3.74654">
        <ele>101.017761</ele>
        <time>2020-06-28T08:24:27Z</time>
      </trkpt>
      <trkpt lat="43.66232" lon="3.7465">
        <ele>100.700989</ele>
        <time>2020-06-28T08:24:29Z</time>
      </trkpt>
      <trkpt lat="43.66239" lon="3.74643">
        <ele>100.404945</ele>
        <time>2020-06-28T08:24:31Z</time>
      </trkpt>
      <trkpt lat="43.66245" lon="3.74641">
        <ele>99.95594</ele>
        <time>2020-06-28T08:24:33Z</time>
      </trkpt>
      <trkpt lat="43.66252" lon="3.74641">
        <ele>99.95594</ele>
        <time>2020-06-28T08:24:35Z</time>
      </trkpt>
      <trkpt lat="43.66256" lon="3.74641">
        <ele>99.701714</ele>
        <time>2020-06-28T08:24:37Z</time>
      </trkpt>
      <trkpt lat="43.66258" lon="3.74639">
        <ele>99.368752</ele>
        <time>2020-06-28T08:24:39Z</time>
      </trkpt>
      <trkpt lat="43.66258" lon="3.74635">
        <ele>99.042717</ele>
        <time>2020-06-28T08:24:41Z</time>
      </trkpt>
      <trkpt lat="43.66261" lon="3.74631">
        <ele>98.749336</ele>
        <time>2020-06-28T08:24:43Z</time>
      </trkpt>
      <trkpt lat="43.66265" lon="3.74628">
        <ele>98.67794</ele>
        <time>2020-06-28T08:24:45Z</time>
      </trkpt>
      <trkpt lat="43.66269" lon="3.74624">
        <ele>98.636414</ele>
        <time>2020-06-28T08:24:47Z</time>
      </trkpt>
      <trkpt lat="43.66273" lon="3.7462">
        <ele>98.544991</ele>
        <time>2020-06-28T08:24:49Z</time>
      </trkpt>
      <trkpt lat="43.66278" lon="3.74613">
        <ele>98.38504</ele>
        <time>2020-06-28T08:24:51Z</time>
      </trkpt>
      <trkpt lat="43.66282" lon="3.74602">
        <ele>98.169853</ele>
        <time>2020-06-28T08:24:53Z</time>
      </trkpt>
      <trkpt lat="43.66286" lon="3.74589">
        <ele>98.066139</ele>
        <time>2020-06-28T08:24:55Z</time>
      </trkpt>
      <trkpt lat="43.66289" lon="3.74575">
        <ele>97.869957</ele>
        <time>2020-06-28T08:24:57Z</time>
      </trkpt>
      <trkpt lat="43.66293" lon="3.74564">
        <ele>97.738976</ele>
        <time>2020-06-28T08:24:59Z</time>
      </trkpt>
      <trkpt lat="43.66301" lon="3.74561">
        <ele>97.662407</ele>
        <time>2020-06-28T08:25:01Z</time>
      </trkpt>
      <trkpt lat="43.66309" lon="3.74567">
        <ele>97.55954</ele>
        <time>2020-06-28T08:25:03Z</time>
      </trkpt>
      <trkpt lat="43.66317" lon="3.74572">
        <ele>97.241699</ele>
        <time>2020-06-28T08:25:05Z</time>
      </trkpt>
      <trkpt lat="43.66325" lon="3.74577">
        <ele>96.673164</ele>
        <time>2020-06-28T08:25:07Z</time>
      </trkpt>
      <trkpt lat="43.66333" lon="3.74582">
        <ele>95.987701</ele>
        <time>2020-06-28T08:25:09Z</time>
      </trkpt>
      <trkpt lat="43.66341" lon="3.74586">
        <ele>95.352303</ele>
        <time>2020-06-28T08:25:11Z</time>
      </trkpt>
      <trkpt lat="43.66348" lon="3.7459">
        <ele>94.775993</ele>
        <time>2020-06-28T08:25:13Z</time>
      </trkpt>
      <trkpt lat="43.66357" lon="3.74594">
        <ele>94.208183</ele>
        <time>2020-06-28T08:25:15Z</time>
      </trkpt>
      <trkpt lat="43.66364" lon="3.746">
        <ele>93.919586</ele>
        <time>2020-06-28T08:25:17Z</time>
      </trkpt>
      <trkpt lat="43.66371" lon="3.74605">
        <ele>93.629189</ele>
        <time>2020-06-28T08:25:19Z</time>
      </trkpt>
      <trkpt lat="43.66378" lon="3.74608">
        <ele>92.98069</ele>
        <time>2020-06-28T08:25:21Z</time>
      </trkpt>
      <trkpt lat="43.66386" lon="3.7461">
        <ele>92.171593</ele>
        <time>2020-06-28T08:25:23Z</time>
      </trkpt>
      <trkpt lat="43.66393" lon="3.7461">
        <ele>91.391304</ele>
        <time>2020-06-28T08:25:25Z</time>
      </trkpt>
      <trkpt lat="43.66399" lon="3.74609">
        <ele>90.790031</ele>
        <time>2020-06-28T08:25:27Z</time>
      </trkpt>
      <trkpt lat="43.66406" lon="3.74607">
        <ele>90.478149</ele>
        <time>2020-06-28T08:25:29Z</time>
      </trkpt>
      <trkpt lat="43.66413" lon="3.74606">
        <ele>90.28141</ele>
        <time>2020-06-28T08:25:31Z</time>
      </trkpt>
      <trkpt lat="43.6642" lon="3.74608">
        <ele>90.118164</ele>
        <time>2020-06-28T08:25:33Z</time>
      </trkpt>
      <trkpt lat="43.66426" lon="3.7461">
        <ele>89.941895</ele>
        <time>2020-06-28T08:25:35Z</time>
      </trkpt>
      <trkpt lat="43.66431" lon="3.74613">
        <ele>89.737953</ele>
        <time>2020-06-28T08:25:37Z</time>
      </trkpt>
      <trkpt lat="43.66439" lon="3.74617">
        <ele>89.50293</ele>
        <time>2020-06-28T08:25:39Z</time>
      </trkpt>
      <trkpt lat="43.66448" lon="3.74622">
        <ele>89.249023</ele>
        <time>2020-06-28T08:25:41Z</time>
      </trkpt>
      <trkpt lat="43.66456" lon="3.7463">
        <ele>88.959961</ele>
        <time>2020-06-28T08:25:43Z</time>
      </trkpt>
      <trkpt lat="43.66464" lon="3.74638">
        <ele>88.621498</ele>
        <time>2020-06-28T08:25:45Z</time>
      </trkpt>
      <trkpt lat="43.66472" lon="3.74642">
        <ele>88.442871</ele>
        <time>2020-06-28T08:25:47Z</time>
      </trkpt>
      <trkpt lat="43.66475" lon="3.74643">
        <ele>88.062233</ele>
        <time>2020-06-28T08:25:49Z</time>
      </trkpt>
      <trkpt lat="43.66478" lon="3.7464">
        <ele>87.731758</ele>
        <time>2020-06-28T08:25:51Z</time>
      </trkpt>
      <trkpt lat="43.66482" lon="3.74634">
        <ele>87.51754</ele>
        <time>2020-06-28T08:25:53Z</time>
      </trkpt>
      <trkpt lat="43.66485" lon="3.74627">
        <ele>87.466331</ele>
        <time>2020-06-28T08:25:55Z</time>
      </trkpt>
      <trkpt lat="43.66489" lon="3.74621">
        <ele>87.472717</ele>
        <time>2020-06-28T08:25:57Z</time>
      </trkpt>
      <trkpt lat="43.66494" lon="3.74614">
        <ele>87.556274</ele>
        <time>2020-06-28T08:25:59Z</time>
      </trkpt>
      <trkpt lat="43.66498" lon="3.74608">
        <ele>87.680336</ele>
        <time>2020-06-28T08:26:01Z</time>
      </trkpt>
      <trkpt lat="43.66503" lon="3.74601">
        <ele>87.806969</ele>
        <time>2020-06-28T08:26:03Z</time>
      </trkpt>
      <trkpt lat="43.66509" lon="3.74594">
        <ele>87.928139</ele>
        <time>2020-06-28T08:26:05Z</time>
      </trkpt>
      <trkpt lat="43.66513" lon="3.74587">
        <ele>88.048424</ele>
        <time>2020-06-28T08:26:07Z</time>
      </trkpt>
      <trkpt lat="43.66516" lon="3.7458">
        <ele>88.175453</ele>
        <time>2020-06-28T08:26:09Z</time>
      </trkpt>
      <trkpt lat="43.66521" lon="3.74573">
        <ele>88.308754</ele>
        <time>2020-06-28T08:26:11Z</time>
      </trkpt>
      <trkpt lat="43.66527" lon="3.74565">
        <ele>88.378502</ele>
        <time>2020-06-28T08:26:13Z</time>
      </trkpt>
      <trkpt lat="43.66532" lon="3.74557">
        <ele>88.542274</ele>
        <time>2020-06-28T08:26:15Z</time>
      </trkpt>
      <trkpt lat="43.66536" lon="3.74549">
        <ele>88.776123</ele>
        <time>2020-06-28T08:26:17Z</time>
      </trkpt>
      <trkpt lat="43.66541" lon="3.74541">
        <ele>88.910469</ele>
        <time>2020-06-28T08:26:19Z</time>
      </trkpt>
      <trkpt lat="43.66544" lon="3.74532">
        <ele>89.055611</ele>
        <time>2020-06-28T08:26:21Z</time>
      </trkpt>
      <trkpt lat="43.66548" lon="3.74523">
        <ele>89.375389</ele>
        <time>2020-06-28T08:26:23Z</time>
      </trkpt>
      <trkpt lat="43.66552" lon="3.74514">
        <ele>89.720512</ele>
        <time>2020-06-28T08:26:25Z</time>
      </trkpt>
      <trkpt lat="43.66556" lon="3.74504">
        <ele>90.044006</ele>
        <time>2020-06-28T08:26:27Z</time>
      </trkpt>
      <trkpt lat="43.66559" lon="3.74494">
        <ele>90.321007</ele>
        <time>2020-06-28T08:26:29Z</time>
      </trkpt>
      <trkpt lat="43.66563" lon="3.74484">
        <ele>90.512611</ele>
        <time>2020-06-28T08:26:31Z</time>
      </trkpt>
      <trkpt lat="43.66568" lon="3.74473">
        <ele>90.687126</ele>
        <time>2020-06-28T08:26:33Z</time>
      </trkpt>
      <trkpt lat="43.66571" lon="3.74463">
        <ele>90.85968</ele>
        <time>2020-06-28T08:26:35Z</time>
      </trkpt>
      <trkpt lat="43.66575" lon="3.74452">
        <ele>91.039879</ele>
        <time>2020-06-28T08:26:37Z</time>
      </trkpt>
      <trkpt lat="43.6658" lon="3.74442">
        <ele>91.230629</ele>
        <time>2020-06-28T08:26:39Z</time>
      </trkpt>
      <trkpt lat="43.66585" lon="3.74431">
        <ele>91.423988</ele>
        <time>2020-06-28T08:26:41Z</time>
      </trkpt>
      <trkpt lat="43.66589" lon="3.74421">
        <ele>91.606773</ele>
        <time>2020-06-28T08:26:43Z</time>
      </trkpt>
      <trkpt lat="43.66593" lon="3.74411">
        <ele>91.784851</ele>
        <time>2020-06-28T08:26:45Z</time>
      </trkpt>
      <trkpt lat="43.66597" lon="3.744">
        <ele>91.973175</ele>
        <time>2020-06-28T08:26:47Z</time>
      </trkpt>
      <trkpt lat="43.66602" lon="3.7439">
        <ele>92.074623</ele>
        <time>2020-06-28T08:26:49Z</time>
      </trkpt>
      <trkpt lat="43.66607" lon="3.74379">
        <ele>92.30352</ele>
        <time>2020-06-28T08:26:51Z</time>
      </trkpt>
      <trkpt lat="43.66612" lon="3.74368">
        <ele>92.532219</ele>
        <time>2020-06-28T08:26:53Z</time>
      </trkpt>
      <trkpt lat="43.66617" lon="3.74357">
        <ele>92.735725</ele>
        <time>2020-06-28T08:26:55Z</time>
      </trkpt>
      <trkpt lat="43.66621" lon="3.74346">
        <ele>92.867218</ele>
        <time>2020-06-28T08:26:57Z</time>
      </trkpt>
      <trkpt lat="43.66625" lon="3.74336">
        <ele>92.871643</ele>
        <time>2020-06-28T08:26:59Z</time>
      </trkpt>
      <trkpt lat="43.66629" lon="3.74326">
        <ele>92.840393</ele>
        <time>2020-06-28T08:27:01Z</time>
      </trkpt>
      <trkpt lat="43.66632" lon="3.74315">
        <ele>92.679649</ele>
        <time>2020-06-28T08:27:03Z</time>
      </trkpt>
      <trkpt lat="43.66636" lon="3.74304">
        <ele>92.418213</ele>
        <time>2020-06-28T08:27:05Z</time>
      </trkpt>
      <trkpt lat="43.66639" lon="3.74291">
        <ele>92.161293</ele>
        <time>2020-06-28T08:27:07Z</time>
      </trkpt>
      <trkpt lat="43.6664" lon="3.74279">
        <ele>91.89933</ele>
        <time>2020-06-28T08:27:09Z</time>
      </trkpt>
      <trkpt lat="43.66641" lon="3.74265">
        <ele>91.62809</ele>
        <time>2020-06-28T08:27:11Z</time>
      </trkpt>
      <trkpt lat="43.6664" lon="3.74253">
        <ele>91.304359</ele>
        <time>2020-06-28T08:27:13Z</time>
      </trkpt>
      <trkpt lat="43.66638" lon="3.74241">
        <ele>91.128578</ele>
        <time>2020-06-28T08:27:15Z</time>
      </trkpt>
      <trkpt lat="43.66636" lon="3.74229">
        <ele>90.728027</ele>
        <time>2020-06-28T08:27:17Z</time>
      </trkpt>
      <trkpt lat="43.66635" lon="3.74218">
        <ele>90.318687</ele>
        <time>2020-06-28T08:27:19Z</time>
      </trkpt>
      <trkpt lat="43.66634" lon="3.74207">
        <ele>90.130371</ele>
        <time>2020-06-28T08:27:21Z</time>
      </trkpt>
      <trkpt lat="43.66633" lon="3.74196">
        <ele>89.990234</ele>
        <time>2020-06-28T08:27:23Z</time>
      </trkpt>
      <trkpt lat="43.66633" lon="3.74186">
        <ele>89.898926</ele>
        <time>2020-06-28T08:27:25Z</time>
      </trkpt>
      <trkpt lat="43.66633" lon="3.74175">
        <ele>89.898926</ele>
        <time>2020-06-28T08:27:27Z</time>
      </trkpt>
      <trkpt lat="43.66634" lon="3.74165">
        <ele>89.980553</ele>
        <time>2020-06-28T08:27:29Z</time>
      </trkpt>
      <trkpt lat="43.66635" lon="3.74155">
        <ele>90.162682</ele>
        <time>2020-06-28T08:27:31Z</time>
      </trkpt>
      <trkpt lat="43.66636" lon="3.74146">
        <ele>90.293701</ele>
        <time>2020-06-28T08:27:33Z</time>
      </trkpt>
      <trkpt lat="43.66637" lon="3.74138">
        <ele>90.403648</ele>
        <time>2020-06-28T08:27:35Z</time>
      </trkpt>
      <trkpt lat="43.66637" lon="3.74132">
        <ele>90.459633</ele>
        <time>2020-06-28T08:27:37Z</time>
      </trkpt>
      <trkpt lat="43.66645" lon="3.7412">
        <ele>90.409508</ele>
        <time>2020-06-28T08:28:39Z</time>
      </trkpt>
      <trkpt lat="43.66648" lon="3.74112">
        <ele>90.388512</ele>
        <time>2020-06-28T08:28:43Z</time>
      </trkpt>
      <trkpt lat="43.66649" lon="3.74105">
        <ele>90.32373</ele>
        <time>2020-06-28T08:28:45Z</time>
      </trkpt>
      <trkpt lat="43.66651" lon="3.74099">
        <ele>90.240883</ele>
        <time>2020-06-28T08:28:47Z</time>
      </trkpt>
      <trkpt lat="43.66653" lon="3.74093">
        <ele>90.163574</ele>
        <time>2020-06-28T08:28:49Z</time>
      </trkpt>
      <trkpt lat="43.66656" lon="3.74088">
        <ele>90.114586</ele>
        <time>2020-06-28T08:28:51Z</time>
      </trkpt>
      <trkpt lat="43.6666" lon="3.74082">
        <ele>90.062172</ele>
        <time>2020-06-28T08:28:53Z</time>
      </trkpt>
      <trkpt lat="43.66661" lon="3.74074">
        <ele>89.987465</ele>
        <time>2020-06-28T08:28:55Z</time>
      </trkpt>
      <trkpt lat="43.66662" lon="3.74065">
        <ele>89.833031</ele>
        <time>2020-06-28T08:28:57Z</time>
      </trkpt>
      <trkpt lat="43.66663" lon="3.74058">
        <ele>89.583794</ele>
        <time>2020-06-28T08:28:59Z</time>
      </trkpt>
      <trkpt lat="43.66664" lon="3.74051">
        <ele>89.42675</ele>
        <time>2020-06-28T08:29:01Z</time>
      </trkpt>
      <trkpt lat="43.66662" lon="3.74045">
        <ele>89.05719</ele>
        <time>2020-06-28T08:29:03Z</time>
      </trkpt>
      <trkpt lat="43.66659" lon="3.7404">
        <ele>88.692879</ele>
        <time>2020-06-28T08:29:05Z</time>
      </trkpt>
      <trkpt lat="43.66654" lon="3.74036">
        <ele>88.374886</ele>
        <time>2020-06-28T08:29:07Z</time>
      </trkpt>
      <trkpt lat="43.6665" lon="3.74032">
        <ele>88.237541</ele>
        <time>2020-06-28T08:29:09Z</time>
      </trkpt>
      <trkpt lat="43.66647" lon="3.74028">
        <ele>88.068596</ele>
        <time>2020-06-28T08:29:11Z</time>
      </trkpt>
      <trkpt lat="43.66646" lon="3.74025">
        <ele>87.979362</ele>
        <time>2020-06-28T08:29:13Z</time>
      </trkpt>
      <trkpt lat="43.66634" lon="3.74028">
        <ele>88.197205</ele>
        <time>2020-06-28T08:29:47Z</time>
      </trkpt>
      <trkpt lat="43.66629" lon="3.74025">
        <ele>88.395256</ele>
        <time>2020-06-28T08:29:51Z</time>
      </trkpt>
      <trkpt lat="43.66623" lon="3.74023">
        <ele>88.612877</ele>
        <time>2020-06-28T08:29:53Z</time>
      </trkpt>
      <trkpt lat="43.66618" lon="3.74019">
        <ele>88.738037</ele>
        <time>2020-06-28T08:29:55Z</time>
      </trkpt>
      <trkpt lat="43.66614" lon="3.74015">
        <ele>89.007233</ele>
        <time>2020-06-28T08:29:57Z</time>
      </trkpt>
      <trkpt lat="43.66612" lon="3.74009">
        <ele>89.316872</ele>
        <time>2020-06-28T08:29:59Z</time>
      </trkpt>
      <trkpt lat="43.66612" lon="3.74005">
        <ele>89.631561</ele>
        <time>2020-06-28T08:30:01Z</time>
      </trkpt>
      <trkpt lat="43.66613" lon="3.74005">
        <ele>89.87603</ele>
        <time>2020-06-28T08:30:03Z</time>
      </trkpt>
      <trkpt lat="43.66621" lon="3.74">
        <ele>89.584229</ele>
        <time>2020-06-28T08:30:23Z</time>
      </trkpt>
      <trkpt lat="43.66623" lon="3.73999">
        <ele>89.52948</ele>
        <time>2020-06-28T08:30:27Z</time>
      </trkpt>
      <trkpt lat="43.66624" lon="3.73999">
        <ele>89.419495</ele>
        <time>2020-06-28T08:30:29Z</time>
      </trkpt>
      <trkpt lat="43.66625" lon="3.73997">
        <ele>89.296379</ele>
        <time>2020-06-28T08:30:31Z</time>
      </trkpt>
      <trkpt lat="43.66628" lon="3.73998">
        <ele>89.055473</ele>
        <time>2020-06-28T08:30:35Z</time>
      </trkpt>
      <trkpt lat="43.66629" lon="3.73999">
        <ele>88.98764</ele>
        <time>2020-06-28T08:30:39Z</time>
      </trkpt>
      <trkpt lat="43.66637" lon="3.7399">
        <ele>88.253876</ele>
        <time>2020-06-28T08:30:53Z</time>
      </trkpt>
      <trkpt lat="43.66637" lon="3.73988">
        <ele>88.196289</ele>
        <time>2020-06-28T08:30:57Z</time>
      </trkpt>
      <trkpt lat="43.66637" lon="3.73986">
        <ele>88.10498</ele>
        <time>2020-06-28T08:30:59Z</time>
      </trkpt>
      <trkpt lat="43.66637" lon="3.73984">
        <ele>88.032188</ele>
        <time>2020-06-28T08:31:01Z</time>
      </trkpt>
      <trkpt lat="43.66637" lon="3.73981">
        <ele>87.999779</ele>
        <time>2020-06-28T08:31:03Z</time>
      </trkpt>
      <trkpt lat="43.66636" lon="3.73979">
        <ele>87.989128</ele>
        <time>2020-06-28T08:31:05Z</time>
      </trkpt>
      <trkpt lat="43.66637" lon="3.73976">
        <ele>87.977242</ele>
        <time>2020-06-28T08:31:07Z</time>
      </trkpt>
      <trkpt lat="43.66644" lon="3.73963">
        <ele>87.677948</ele>
        <time>2020-06-28T08:31:19Z</time>
      </trkpt>
      <trkpt lat="43.66645" lon="3.73964">
        <ele>87.522362</ele>
        <time>2020-06-28T08:31:23Z</time>
      </trkpt>
      <trkpt lat="43.66658" lon="3.73967">
        <ele>86.873413</ele>
        <time>2020-06-28T08:31:35Z</time>
      </trkpt>
      <trkpt lat="43.66663" lon="3.73969">
        <ele>86.713196</ele>
        <time>2020-06-28T08:31:39Z</time>
      </trkpt>
      <trkpt lat="43.66667" lon="3.7397">
        <ele>86.544701</ele>
        <time>2020-06-28T08:31:41Z</time>
      </trkpt>
      <trkpt lat="43.66673" lon="3.73972">
        <ele>86.454567</ele>
        <time>2020-06-28T08:31:43Z</time>
      </trkpt>
      <trkpt lat="43.66678" lon="3.73974">
        <ele>86.456276</ele>
        <time>2020-06-28T08:31:45Z</time>
      </trkpt>
      <trkpt lat="43.66684" lon="3.73976">
        <ele>86.490883</ele>
        <time>2020-06-28T08:31:47Z</time>
      </trkpt>
      <trkpt lat="43.6669" lon="3.73978">
        <ele>86.554626</ele>
        <time>2020-06-28T08:31:49Z</time>
      </trkpt>
      <trkpt lat="43.66696" lon="3.7398">
        <ele>86.623474</ele>
        <time>2020-06-28T08:31:51Z</time>
      </trkpt>
      <trkpt lat="43.66701" lon="3.73983">
        <ele>86.690208</ele>
        <time>2020-06-28T08:31:53Z</time>
      </trkpt>
      <trkpt lat="43.66704" lon="3.73988">
        <ele>86.727379</ele>
        <time>2020-06-28T08:31:55Z</time>
      </trkpt>
      <trkpt lat="43.66706" lon="3.73995">
        <ele>86.785728</ele>
        <time>2020-06-28T08:31:57Z</time>
      </trkpt>
      <trkpt lat="43.66709" lon="3.74">
        <ele>86.84359</ele>
        <time>2020-06-28T08:31:59Z</time>
      </trkpt>
      <trkpt lat="43.66714" lon="3.74002">
        <ele>86.893127</ele>
        <time>2020-06-28T08:32:01Z</time>
      </trkpt>
      <trkpt lat="43.66719" lon="3.74004">
        <ele>86.9338</ele>
        <time>2020-06-28T08:32:03Z</time>
      </trkpt>
      <trkpt lat="43.66725" lon="3.74006">
        <ele>86.959869</ele>
        <time>2020-06-28T08:32:05Z</time>
      </trkpt>
      <trkpt lat="43.66731" lon="3.74008">
        <ele>86.979637</ele>
        <time>2020-06-28T08:32:07Z</time>
      </trkpt>
      <trkpt lat="43.66736" lon="3.74009">
        <ele>87.059319</ele>
        <time>2020-06-28T08:32:09Z</time>
      </trkpt>
      <trkpt lat="43.66742" lon="3.74011">
        <ele>87.214012</ele>
        <time>2020-06-28T08:32:11Z</time>
      </trkpt>
      <trkpt lat="43.66747" lon="3.74013">
        <ele>87.320274</ele>
        <time>2020-06-28T08:32:13Z</time>
      </trkpt>
      <trkpt lat="43.66753" lon="3.74015">
        <ele>87.588066</ele>
        <time>2020-06-28T08:32:15Z</time>
      </trkpt>
      <trkpt lat="43.66758" lon="3.74017">
        <ele>87.870674</ele>
        <time>2020-06-28T08:32:17Z</time>
      </trkpt>
      <trkpt lat="43.66763" lon="3.74018">
        <ele>88.145439</ele>
        <time>2020-06-28T08:32:19Z</time>
      </trkpt>
      <trkpt lat="43.66768" lon="3.74019">
        <ele>88.394295</ele>
        <time>2020-06-28T08:32:21Z</time>
      </trkpt>
      <trkpt lat="43.66773" lon="3.74021">
        <ele>88.614754</ele>
        <time>2020-06-28T08:32:23Z</time>
      </trkpt>
      <trkpt lat="43.66778" lon="3.74023">
        <ele>88.829445</ele>
        <time>2020-06-28T08:32:25Z</time>
      </trkpt>
      <trkpt lat="43.66783" lon="3.74024">
        <ele>88.933075</ele>
        <time>2020-06-28T08:32:27Z</time>
      </trkpt>
      <trkpt lat="43.66787" lon="3.74026">
        <ele>89.033104</ele>
        <time>2020-06-28T08:32:29Z</time>
      </trkpt>
      <trkpt lat="43.66791" lon="3.74027">
        <ele>89.256287</ele>
        <time>2020-06-28T08:32:31Z</time>
      </trkpt>
      <trkpt lat="43.66795" lon="3.74028">
        <ele>89.492653</ele>
        <time>2020-06-28T08:32:33Z</time>
      </trkpt>
      <trkpt lat="43.66798" lon="3.74029">
        <ele>89.72953</ele>
        <time>2020-06-28T08:32:35Z</time>
      </trkpt>
      <trkpt lat="43.66802" lon="3.74031">
        <ele>89.98877</ele>
        <time>2020-06-28T08:32:37Z</time>
      </trkpt>
      <trkpt lat="43.66806" lon="3.74032">
        <ele>90.275757</ele>
        <time>2020-06-28T08:32:39Z</time>
      </trkpt>
      <trkpt lat="43.6681" lon="3.74033">
        <ele>90.61013</ele>
        <time>2020-06-28T08:32:41Z</time>
      </trkpt>
      <trkpt lat="43.66814" lon="3.74031">
        <ele>90.948723</ele>
        <time>2020-06-28T08:32:43Z</time>
      </trkpt>
      <trkpt lat="43.66816" lon="3.74032">
        <ele>91.303284</ele>
        <time>2020-06-28T08:32:45Z</time>
      </trkpt>
      <trkpt lat="43.66819" lon="3.74033">
        <ele>91.648598</ele>
        <time>2020-06-28T08:32:47Z</time>
      </trkpt>
      <trkpt lat="43.66822" lon="3.74033">
        <ele>91.961449</ele>
        <time>2020-06-28T08:32:49Z</time>
      </trkpt>
      <trkpt lat="43.66824" lon="3.74034">
        <ele>92.241089</ele>
        <time>2020-06-28T08:32:51Z</time>
      </trkpt>
      <trkpt lat="43.66827" lon="3.74033">
        <ele>92.498268</ele>
        <time>2020-06-28T08:32:53Z</time>
      </trkpt>
      <trkpt lat="43.6683" lon="3.74033">
        <ele>92.744263</ele>
        <time>2020-06-28T08:32:55Z</time>
      </trkpt>
      <trkpt lat="43.66832" lon="3.74033">
        <ele>92.982979</ele>
        <time>2020-06-28T08:32:57Z</time>
      </trkpt>
      <trkpt lat="43.66835" lon="3.74034">
        <ele>93.228691</ele>
        <time>2020-06-28T08:32:59Z</time>
      </trkpt>
      <trkpt lat="43.66838" lon="3.74034">
        <ele>93.48407</ele>
        <time>2020-06-28T08:33:01Z</time>
      </trkpt>
      <trkpt lat="43.6684" lon="3.74035">
        <ele>93.743431</ele>
        <time>2020-06-28T08:33:03Z</time>
      </trkpt>
      <trkpt lat="43.66843" lon="3.74036">
        <ele>94.002686</ele>
        <time>2020-06-28T08:33:05Z</time>
      </trkpt>
      <trkpt lat="43.66845" lon="3.74037">
        <ele>94.129723</ele>
        <time>2020-06-28T08:33:07Z</time>
      </trkpt>
      <trkpt lat="43.66856" lon="3.74039">
        <ele>95.248497</ele>
        <time>2020-06-28T08:34:57Z</time>
      </trkpt>
      <trkpt lat="43.66858" lon="3.7404">
        <ele>95.490456</ele>
        <time>2020-06-28T08:35:01Z</time>
      </trkpt>
      <trkpt lat="43.66861" lon="3.74041">
        <ele>95.77346</ele>
        <time>2020-06-28T08:35:03Z</time>
      </trkpt>
      <trkpt lat="43.66863" lon="3.74041">
        <ele>96.032433</ele>
        <time>2020-06-28T08:35:05Z</time>
      </trkpt>
      <trkpt lat="43.66866" lon="3.74042">
        <ele>96.296791</ele>
        <time>2020-06-28T08:35:07Z</time>
      </trkpt>
      <trkpt lat="43.66867" lon="3.74045">
        <ele>96.57</ele>
        <time>2020-06-28T08:35:09Z</time>
      </trkpt>
      <trkpt lat="43.66869" lon="3.74047">
        <ele>96.855804</ele>
        <time>2020-06-28T08:35:11Z</time>
      </trkpt>
      <trkpt lat="43.66869" lon="3.7405">
        <ele>97.121819</ele>
        <time>2020-06-28T08:35:13Z</time>
      </trkpt>
      <trkpt lat="43.66872" lon="3.74052">
        <ele>97.362389</ele>
        <time>2020-06-28T08:35:15Z</time>
      </trkpt>
      <trkpt lat="43.66874" lon="3.74053">
        <ele>97.567322</ele>
        <time>2020-06-28T08:35:17Z</time>
      </trkpt>
      <trkpt lat="43.66877" lon="3.74054">
        <ele>97.793846</ele>
        <time>2020-06-28T08:35:19Z</time>
      </trkpt>
      <trkpt lat="43.66879" lon="3.74054">
        <ele>98.054482</ele>
        <time>2020-06-28T08:35:21Z</time>
      </trkpt>
      <trkpt lat="43.66882" lon="3.74054">
        <ele>98.205116</ele>
        <time>2020-06-28T08:35:23Z</time>
      </trkpt>
      <trkpt lat="43.66885" lon="3.74054">
        <ele>98.552925</ele>
        <time>2020-06-28T08:35:25Z</time>
      </trkpt>
      <trkpt lat="43.66887" lon="3.74055">
        <ele>98.938972</ele>
        <time>2020-06-28T08:35:27Z</time>
      </trkpt>
      <trkpt lat="43.6689" lon="3.74055">
        <ele>99.334709</ele>
        <time>2020-06-28T08:35:29Z</time>
      </trkpt>
      <trkpt lat="43.66892" lon="3.74056">
        <ele>99.689751</ele>
        <time>2020-06-28T08:35:31Z</time>
      </trkpt>
      <trkpt lat="43.66895" lon="3.74055">
        <ele>99.854851</ele>
        <time>2020-06-28T08:35:33Z</time>
      </trkpt>
      <trkpt lat="43.66898" lon="3.74055">
        <ele>100.180359</ele>
        <time>2020-06-28T08:35:35Z</time>
      </trkpt>
      <trkpt lat="43.669" lon="3.74055">
        <ele>100.559853</ele>
        <time>2020-06-28T08:35:37Z</time>
      </trkpt>
      <trkpt lat="43.66903" lon="3.74055">
        <ele>100.923859</ele>
        <time>2020-06-28T08:35:39Z</time>
      </trkpt>
      <trkpt lat="43.66906" lon="3.74055">
        <ele>101.291542</ele>
        <time>2020-06-28T08:35:41Z</time>
      </trkpt>
      <trkpt lat="43.66908" lon="3.74056">
        <ele>101.602661</ele>
        <time>2020-06-28T08:35:43Z</time>
      </trkpt>
      <trkpt lat="43.66911" lon="3.74056">
        <ele>101.932953</ele>
        <time>2020-06-28T08:35:45Z</time>
      </trkpt>
      <trkpt lat="43.66913" lon="3.74056">
        <ele>102.26535</ele>
        <time>2020-06-28T08:35:47Z</time>
      </trkpt>
      <trkpt lat="43.66916" lon="3.74057">
        <ele>102.610626</ele>
        <time>2020-06-28T08:35:49Z</time>
      </trkpt>
      <trkpt lat="43.66918" lon="3.74058">
        <ele>102.932579</ele>
        <time>2020-06-28T08:35:51Z</time>
      </trkpt>
      <trkpt lat="43.66921" lon="3.74059">
        <ele>103.249451</ele>
        <time>2020-06-28T08:35:53Z</time>
      </trkpt>
      <trkpt lat="43.66923" lon="3.7406">
        <ele>103.568878</ele>
        <time>2020-06-28T08:35:55Z</time>
      </trkpt>
      <trkpt lat="43.66926" lon="3.74061">
        <ele>103.922058</ele>
        <time>2020-06-28T08:35:57Z</time>
      </trkpt>
      <trkpt lat="43.66928" lon="3.74062">
        <ele>104.110313</ele>
        <time>2020-06-28T08:35:59Z</time>
      </trkpt>
      <trkpt lat="43.66931" lon="3.74063">
        <ele>104.506622</ele>
        <time>2020-06-28T08:36:01Z</time>
      </trkpt>
      <trkpt lat="43.66933" lon="3.74065">
        <ele>104.958099</ele>
        <time>2020-06-28T08:36:03Z</time>
      </trkpt>
      <trkpt lat="43.66935" lon="3.74066">
        <ele>105.371925</ele>
        <time>2020-06-28T08:36:05Z</time>
      </trkpt>
      <trkpt lat="43.66938" lon="3.74067">
        <ele>105.746391</ele>
        <time>2020-06-28T08:36:07Z</time>
      </trkpt>
      <trkpt lat="43.66941" lon="3.74068">
        <ele>106.03788</ele>
        <time>2020-06-28T08:36:09Z</time>
      </trkpt>
      <trkpt lat="43.66943" lon="3.74069">
        <ele>106.331764</ele>
        <time>2020-06-28T08:36:11Z</time>
      </trkpt>
      <trkpt lat="43.66946" lon="3.74069">
        <ele>106.622032</ele>
        <time>2020-06-28T08:36:13Z</time>
      </trkpt>
      <trkpt lat="43.6695" lon="3.74068">
        <ele>106.907532</ele>
        <time>2020-06-28T08:36:15Z</time>
      </trkpt>
      <trkpt lat="43.66953" lon="3.74067">
        <ele>107.172211</ele>
        <time>2020-06-28T08:36:17Z</time>
      </trkpt>
      <trkpt lat="43.66955" lon="3.74065">
        <ele>107.404961</ele>
        <time>2020-06-28T08:36:19Z</time>
      </trkpt>
      <trkpt lat="43.66958" lon="3.74063">
        <ele>107.595222</ele>
        <time>2020-06-28T08:36:21Z</time>
      </trkpt>
      <trkpt lat="43.66961" lon="3.74061">
        <ele>107.74295</ele>
        <time>2020-06-28T08:36:23Z</time>
      </trkpt>
      <trkpt lat="43.66964" lon="3.7406">
        <ele>107.861298</ele>
        <time>2020-06-28T08:36:25Z</time>
      </trkpt>
      <trkpt lat="43.66968" lon="3.7406">
        <ele>107.9823</ele>
        <time>2020-06-28T08:36:27Z</time>
      </trkpt>
      <trkpt lat="43.6697" lon="3.74059">
        <ele>108.118156</ele>
        <time>2020-06-28T08:36:29Z</time>
      </trkpt>
      <trkpt lat="43.66971" lon="3.74057">
        <ele>108.203636</ele>
        <time>2020-06-28T08:36:31Z</time>
      </trkpt>
      <trkpt lat="43.66972" lon="3.74055">
        <ele>108.338982</ele>
        <time>2020-06-28T08:36:33Z</time>
      </trkpt>
      <trkpt lat="43.66975" lon="3.74054">
        <ele>108.377556</ele>
        <time>2020-06-28T08:36:35Z</time>
      </trkpt>
      <trkpt lat="43.66977" lon="3.74052">
        <ele>108.470055</ele>
        <time>2020-06-28T08:36:37Z</time>
      </trkpt>
      <trkpt lat="43.66981" lon="3.74051">
        <ele>108.523659</ele>
        <time>2020-06-28T08:36:39Z</time>
      </trkpt>
      <trkpt lat="43.66983" lon="3.7405">
        <ele>108.569008</ele>
        <time>2020-06-28T08:36:41Z</time>
      </trkpt>
      <trkpt lat="43.66988" lon="3.74049">
        <ele>108.6623</ele>
        <time>2020-06-28T08:36:43Z</time>
      </trkpt>
      <trkpt lat="43.66991" lon="3.74049">
        <ele>108.801521</ele>
        <time>2020-06-28T08:36:45Z</time>
      </trkpt>
      <trkpt lat="43.66995" lon="3.74047">
        <ele>108.902679</ele>
        <time>2020-06-28T08:36:47Z</time>
      </trkpt>
      <trkpt lat="43.66998" lon="3.74048">
        <ele>109.105347</ele>
        <time>2020-06-28T08:36:49Z</time>
      </trkpt>
      <trkpt lat="43.67002" lon="3.74049">
        <ele>109.35421</ele>
        <time>2020-06-28T08:36:51Z</time>
      </trkpt>
      <trkpt lat="43.67005" lon="3.74051">
        <ele>109.675201</ele>
        <time>2020-06-28T08:36:53Z</time>
      </trkpt>
      <trkpt lat="43.67008" lon="3.74053">
        <ele>110.078514</ele>
        <time>2020-06-28T08:36:55Z</time>
      </trkpt>
      <trkpt lat="43.67009" lon="3.74056">
        <ele>110.545326</ele>
        <time>2020-06-28T08:36:57Z</time>
      </trkpt>
      <trkpt lat="43.67008" lon="3.74059">
        <ele>111.024559</ele>
        <time>2020-06-28T08:36:59Z</time>
      </trkpt>
      <trkpt lat="43.67007" lon="3.74061">
        <ele>111.452354</ele>
        <time>2020-06-28T08:37:01Z</time>
      </trkpt>
      <trkpt lat="43.67006" lon="3.74063">
        <ele>111.763481</ele>
        <time>2020-06-28T08:37:03Z</time>
      </trkpt>
      <trkpt lat="43.67003" lon="3.74064">
        <ele>111.917</ele>
        <time>2020-06-28T08:37:05Z</time>
      </trkpt>
      <trkpt lat="43.66996" lon="3.74075">
        <ele>111.887421</ele>
        <time>2020-06-28T08:37:19Z</time>
      </trkpt>
      <trkpt lat="43.66995" lon="3.74077">
        <ele>111.916069</ele>
        <time>2020-06-28T08:37:23Z</time>
      </trkpt>
      <trkpt lat="43.66989" lon="3.74087">
        <ele>112.307831</ele>
        <time>2020-06-28T08:37:37Z</time>
      </trkpt>
      <trkpt lat="43.66988" lon="3.74091">
        <ele>112.405312</ele>
        <time>2020-06-28T08:37:41Z</time>
      </trkpt>
      <trkpt lat="43.66988" lon="3.74096">
        <ele>112.57357</ele>
        <time>2020-06-28T08:37:43Z</time>
      </trkpt>
      <trkpt lat="43.66989" lon="3.74099">
        <ele>112.889137</ele>
        <time>2020-06-28T08:37:45Z</time>
      </trkpt>
      <trkpt lat="43.6699" lon="3.741">
        <ele>113.331215</ele>
        <time>2020-06-28T08:37:47Z</time>
      </trkpt>
      <trkpt lat="43.66992" lon="3.74103">
        <ele>113.86322</ele>
        <time>2020-06-28T08:37:49Z</time>
      </trkpt>
      <trkpt lat="43.66993" lon="3.74104">
        <ele>114.340698</ele>
        <time>2020-06-28T08:37:51Z</time>
      </trkpt>
      <trkpt lat="43.66995" lon="3.74106">
        <ele>114.787903</ele>
        <time>2020-06-28T08:37:53Z</time>
      </trkpt>
      <trkpt lat="43.66998" lon="3.74107">
        <ele>115.193306</ele>
        <time>2020-06-28T08:37:55Z</time>
      </trkpt>
      <trkpt lat="43.67" lon="3.74109">
        <ele>115.621803</ele>
        <time>2020-06-28T08:37:57Z</time>
      </trkpt>
      <trkpt lat="43.67002" lon="3.74111">
        <ele>116.083275</ele>
        <time>2020-06-28T08:37:59Z</time>
      </trkpt>
      <trkpt lat="43.67004" lon="3.74112">
        <ele>116.554176</ele>
        <time>2020-06-28T08:38:01Z</time>
      </trkpt>
      <trkpt lat="43.67006" lon="3.74113">
        <ele>117.059143</ele>
        <time>2020-06-28T08:38:03Z</time>
      </trkpt>
      <trkpt lat="43.67008" lon="3.74114">
        <ele>117.299919</ele>
        <time>2020-06-28T08:38:05Z</time>
      </trkpt>
      <trkpt lat="43.67011" lon="3.74116">
        <ele>117.79493</ele>
        <time>2020-06-28T08:38:07Z</time>
      </trkpt>
      <trkpt lat="43.67014" lon="3.74116">
        <ele>118.347443</ele>
        <time>2020-06-28T08:38:09Z</time>
      </trkpt>
      <trkpt lat="43.67017" lon="3.74118">
        <ele>118.931152</ele>
        <time>2020-06-28T08:38:11Z</time>
      </trkpt>
      <trkpt lat="43.67019" lon="3.7412">
        <ele>119.5047</ele>
        <time>2020-06-28T08:38:13Z</time>
      </trkpt>
      <trkpt lat="43.67021" lon="3.74121">
        <ele>120.068756</ele>
        <time>2020-06-28T08:38:15Z</time>
      </trkpt>
      <trkpt lat="43.67024" lon="3.74121">
        <ele>120.60392</ele>
        <time>2020-06-28T08:38:17Z</time>
      </trkpt>
      <trkpt lat="43.67026" lon="3.74122">
        <ele>121.087257</ele>
        <time>2020-06-28T08:38:19Z</time>
      </trkpt>
      <trkpt lat="43.67028" lon="3.74123">
        <ele>121.516479</ele>
        <time>2020-06-28T08:38:21Z</time>
      </trkpt>
      <trkpt lat="43.6703" lon="3.74123">
        <ele>121.933861</ele>
        <time>2020-06-28T08:38:23Z</time>
      </trkpt>
      <trkpt lat="43.67032" lon="3.74124">
        <ele>122.366859</ele>
        <time>2020-06-28T08:38:25Z</time>
      </trkpt>
      <trkpt lat="43.67035" lon="3.74124">
        <ele>122.765076</ele>
        <time>2020-06-28T08:38:27Z</time>
      </trkpt>
      <trkpt lat="43.67036" lon="3.74125">
        <ele>123.143944</ele>
        <time>2020-06-28T08:38:29Z</time>
      </trkpt>
      <trkpt lat="43.67038" lon="3.74125">
        <ele>123.51992</ele>
        <time>2020-06-28T08:38:31Z</time>
      </trkpt>
      <trkpt lat="43.6704" lon="3.74126">
        <ele>123.889244</ele>
        <time>2020-06-28T08:38:33Z</time>
      </trkpt>
      <trkpt lat="43.67043" lon="3.74126">
        <ele>124.225929</ele>
        <time>2020-06-28T08:38:35Z</time>
      </trkpt>
      <trkpt lat="43.67045" lon="3.74128">
        <ele>124.382668</ele>
        <time>2020-06-28T08:38:37Z</time>
      </trkpt>
      <trkpt lat="43.67048" lon="3.74129">
        <ele>124.720032</ele>
        <time>2020-06-28T08:38:39Z</time>
      </trkpt>
      <trkpt lat="43.67051" lon="3.7413">
        <ele>125.243042</ele>
        <time>2020-06-28T08:38:41Z</time>
      </trkpt>
      <trkpt lat="43.67052" lon="3.74131">
        <ele>125.866913</ele>
        <time>2020-06-28T08:38:43Z</time>
      </trkpt>
      <trkpt lat="43.67054" lon="3.74133">
        <ele>126.5383</ele>
        <time>2020-06-28T08:38:45Z</time>
      </trkpt>
      <trkpt lat="43.67056" lon="3.74135">
        <ele>126.804558</ele>
        <time>2020-06-28T08:38:47Z</time>
      </trkpt>
      <trkpt lat="43.67057" lon="3.74136">
        <ele>127.30822</ele>
        <time>2020-06-28T08:38:49Z</time>
      </trkpt>
      <trkpt lat="43.67059" lon="3.74138">
        <ele>127.877716</ele>
        <time>2020-06-28T08:38:51Z</time>
      </trkpt>
      <trkpt lat="43.67061" lon="3.74139">
        <ele>128.424438</ele>
        <time>2020-06-28T08:38:53Z</time>
      </trkpt>
      <trkpt lat="43.67062" lon="3.74142">
        <ele>129.002609</ele>
        <time>2020-06-28T08:38:55Z</time>
      </trkpt>
      <trkpt lat="43.67064" lon="3.74143">
        <ele>129.490555</ele>
        <time>2020-06-28T08:38:57Z</time>
      </trkpt>
      <trkpt lat="43.6707" lon="3.74152">
        <ele>132.288055</ele>
        <time>2020-06-28T08:39:09Z</time>
      </trkpt>
      <trkpt lat="43.67071" lon="3.74153">
        <ele>132.836899</ele>
        <time>2020-06-28T08:39:13Z</time>
      </trkpt>
      <trkpt lat="43.67072" lon="3.74154">
        <ele>133.307693</ele>
        <time>2020-06-28T08:39:15Z</time>
      </trkpt>
      <trkpt lat="43.67074" lon="3.74155">
        <ele>133.731369</ele>
        <time>2020-06-28T08:39:17Z</time>
      </trkpt>
      <trkpt lat="43.67075" lon="3.74157">
        <ele>134.129959</ele>
        <time>2020-06-28T08:39:19Z</time>
      </trkpt>
      <trkpt lat="43.67076" lon="3.74157">
        <ele>134.547806</ele>
        <time>2020-06-28T08:39:21Z</time>
      </trkpt>
      <trkpt lat="43.67077" lon="3.74158">
        <ele>134.975815</ele>
        <time>2020-06-28T08:39:23Z</time>
      </trkpt>
      <trkpt lat="43.67078" lon="3.74159">
        <ele>135.390305</ele>
        <time>2020-06-28T08:39:25Z</time>
      </trkpt>
      <trkpt lat="43.6708" lon="3.7416">
        <ele>135.746536</ele>
        <time>2020-06-28T08:39:27Z</time>
      </trkpt>
      <trkpt lat="43.67083" lon="3.74162">
        <ele>136.095657</ele>
        <time>2020-06-28T08:39:29Z</time>
      </trkpt>
      <trkpt lat="43.67085" lon="3.74164">
        <ele>136.522705</ele>
        <time>2020-06-28T08:39:31Z</time>
      </trkpt>
      <trkpt lat="43.67087" lon="3.74165">
        <ele>137.125488</ele>
        <time>2020-06-28T08:39:33Z</time>
      </trkpt>
      <trkpt lat="43.67089" lon="3.74166">
        <ele>137.798141</ele>
        <time>2020-06-28T08:39:35Z</time>
      </trkpt>
      <trkpt lat="43.67091" lon="3.74167">
        <ele>138.132187</ele>
        <time>2020-06-28T08:39:37Z</time>
      </trkpt>
      <trkpt lat="43.67092" lon="3.74169">
        <ele>138.425827</ele>
        <time>2020-06-28T08:39:39Z</time>
      </trkpt>
      <trkpt lat="43.67093" lon="3.74171">
        <ele>138.734329</ele>
        <time>2020-06-28T08:39:41Z</time>
      </trkpt>
      <trkpt lat="43.67095" lon="3.74172">
        <ele>139.40802</ele>
        <time>2020-06-28T08:39:43Z</time>
      </trkpt>
      <trkpt lat="43.67097" lon="3.74173">
        <ele>140.175903</ele>
        <time>2020-06-28T08:39:45Z</time>
      </trkpt>
      <trkpt lat="43.67098" lon="3.74174">
        <ele>140.902359</ele>
        <time>2020-06-28T08:39:47Z</time>
      </trkpt>
      <trkpt lat="43.67107" lon="3.74184">
        <ele>143.008636</ele>
        <time>2020-06-28T08:40:05Z</time>
      </trkpt>
      <trkpt lat="43.67109" lon="3.74187">
        <ele>143.441254</ele>
        <time>2020-06-28T08:40:09Z</time>
      </trkpt>
      <trkpt lat="43.67111" lon="3.74191">
        <ele>143.774231</ele>
        <time>2020-06-28T08:40:11Z</time>
      </trkpt>
      <trkpt lat="43.67113" lon="3.74195">
        <ele>144.58934</ele>
        <time>2020-06-28T08:40:13Z</time>
      </trkpt>
      <trkpt lat="43.67114" lon="3.74197">
        <ele>145.641739</ele>
        <time>2020-06-28T08:40:15Z</time>
      </trkpt>
      <trkpt lat="43.67116" lon="3.742">
        <ele>146.643936</ele>
        <time>2020-06-28T08:40:17Z</time>
      </trkpt>
      <trkpt lat="43.67117" lon="3.74202">
        <ele>147.509689</ele>
        <time>2020-06-28T08:40:19Z</time>
      </trkpt>
      <trkpt lat="43.67119" lon="3.74204">
        <ele>148.111908</ele>
        <time>2020-06-28T08:40:21Z</time>
      </trkpt>
      <trkpt lat="43.6712" lon="3.74207">
        <ele>148.648209</ele>
        <time>2020-06-28T08:40:23Z</time>
      </trkpt>
      <trkpt lat="43.67123" lon="3.74209">
        <ele>149.181305</ele>
        <time>2020-06-28T08:40:25Z</time>
      </trkpt>
      <trkpt lat="43.67126" lon="3.74212">
        <ele>149.723282</ele>
        <time>2020-06-28T08:40:27Z</time>
      </trkpt>
      <trkpt lat="43.67127" lon="3.74214">
        <ele>150.318115</ele>
        <time>2020-06-28T08:40:29Z</time>
      </trkpt>
      <trkpt lat="43.67133" lon="3.74224">
        <ele>153.08757</ele>
        <time>2020-06-28T08:42:37Z</time>
      </trkpt>
      <trkpt lat="43.67136" lon="3.74227">
        <ele>153.23584</ele>
        <time>2020-06-28T08:42:41Z</time>
      </trkpt>
      <trkpt lat="43.67138" lon="3.74231">
        <ele>153.361328</ele>
        <time>2020-06-28T08:42:43Z</time>
      </trkpt>
      <trkpt lat="43.67137" lon="3.74236">
        <ele>153.655289</ele>
        <time>2020-06-28T08:42:45Z</time>
      </trkpt>
      <trkpt lat="43.67133" lon="3.74241">
        <ele>153.828842</ele>
        <time>2020-06-28T08:42:47Z</time>
      </trkpt>
      <trkpt lat="43.6713" lon="3.74247">
        <ele>153.828842</ele>
        <time>2020-06-28T08:42:49Z</time>
      </trkpt>
      <trkpt lat="43.67126" lon="3.74255">
        <ele>153.647842</ele>
        <time>2020-06-28T08:42:51Z</time>
      </trkpt>
      <trkpt lat="43.67122" lon="3.74263">
        <ele>153.424423</ele>
        <time>2020-06-28T08:42:53Z</time>
      </trkpt>
      <trkpt lat="43.67117" lon="3.74272">
        <ele>153.124741</ele>
        <time>2020-06-28T08:42:55Z</time>
      </trkpt>
      <trkpt lat="43.67112" lon="3.74282">
        <ele>152.246414</ele>
        <time>2020-06-28T08:42:57Z</time>
      </trkpt>
      <trkpt lat="43.67107" lon="3.74293">
        <ele>151.133301</ele>
        <time>2020-06-28T08:42:59Z</time>
      </trkpt>
      <trkpt lat="43.67104" lon="3.74304">
        <ele>150.539383</ele>
        <time>2020-06-28T08:43:01Z</time>
      </trkpt>
      <trkpt lat="43.67107" lon="3.74314">
        <ele>149.259109</ele>
        <time>2020-06-28T08:43:03Z</time>
      </trkpt>
      <trkpt lat="43.6711" lon="3.74321">
        <ele>148.015945</ele>
        <time>2020-06-28T08:43:05Z</time>
      </trkpt>
      <trkpt lat="43.67114" lon="3.74327">
        <ele>147.206375</ele>
        <time>2020-06-28T08:43:07Z</time>
      </trkpt>
      <trkpt lat="43.67117" lon="3.74333">
        <ele>146.954422</ele>
        <time>2020-06-28T08:43:09Z</time>
      </trkpt>
      <trkpt lat="43.6712" lon="3.74338">
        <ele>146.894211</ele>
        <time>2020-06-28T08:43:11Z</time>
      </trkpt>
      <trkpt lat="43.67125" lon="3.74341">
        <ele>146.92009</ele>
        <time>2020-06-28T08:43:13Z</time>
      </trkpt>
      <trkpt lat="43.67131" lon="3.74342">
        <ele>147.121582</ele>
        <time>2020-06-28T08:43:15Z</time>
      </trkpt>
      <trkpt lat="43.67135" lon="3.74343">
        <ele>147.455566</ele>
        <time>2020-06-28T08:43:17Z</time>
      </trkpt>
      <trkpt lat="43.67138" lon="3.74343">
        <ele>147.704269</ele>
        <time>2020-06-28T08:43:19Z</time>
      </trkpt>
      <trkpt lat="43.67141" lon="3.74343">
        <ele>148.297119</ele>
        <time>2020-06-28T08:43:21Z</time>
      </trkpt>
      <trkpt lat="43.67142" lon="3.74343">
        <ele>148.932831</ele>
        <time>2020-06-28T08:43:23Z</time>
      </trkpt>
      <trkpt lat="43.67143" lon="3.74343">
        <ele>149.428818</ele>
        <time>2020-06-28T08:43:25Z</time>
      </trkpt>
      <trkpt lat="43.67145" lon="3.74343">
        <ele>149.77037</ele>
        <time>2020-06-28T08:43:27Z</time>
      </trkpt>
      <trkpt lat="43.67148" lon="3.74343">
        <ele>149.973785</ele>
        <time>2020-06-28T08:43:29Z</time>
      </trkpt>
      <trkpt lat="43.67152" lon="3.74342">
        <ele>150.165802</ele>
        <time>2020-06-28T08:43:31Z</time>
      </trkpt>
      <trkpt lat="43.67156" lon="3.74342">
        <ele>150.460876</ele>
        <time>2020-06-28T08:43:33Z</time>
      </trkpt>
      <trkpt lat="43.67159" lon="3.74342">
        <ele>150.845963</ele>
        <time>2020-06-28T08:43:35Z</time>
      </trkpt>
      <trkpt lat="43.67161" lon="3.74341">
        <ele>151.288376</ele>
        <time>2020-06-28T08:43:37Z</time>
      </trkpt>
      <trkpt lat="43.67164" lon="3.7434">
        <ele>151.710068</ele>
        <time>2020-06-28T08:43:39Z</time>
      </trkpt>
      <trkpt lat="43.67167" lon="3.74339">
        <ele>152.11351</ele>
        <time>2020-06-28T08:43:41Z</time>
      </trkpt>
      <trkpt lat="43.6717" lon="3.74337">
        <ele>152.514694</ele>
        <time>2020-06-28T08:43:43Z</time>
      </trkpt>
      <trkpt lat="43.67173" lon="3.74336">
        <ele>152.720261</ele>
        <time>2020-06-28T08:43:45Z</time>
      </trkpt>
      <trkpt lat="43.67175" lon="3.74334">
        <ele>152.931488</ele>
        <time>2020-06-28T08:43:47Z</time>
      </trkpt>
      <trkpt lat="43.67179" lon="3.74332">
        <ele>153.411011</ele>
        <time>2020-06-28T08:43:49Z</time>
      </trkpt>
      <trkpt lat="43.67182" lon="3.7433">
        <ele>153.932114</ele>
        <time>2020-06-28T08:43:51Z</time>
      </trkpt>
      <trkpt lat="43.67185" lon="3.74329">
        <ele>154.485611</ele>
        <time>2020-06-28T08:43:53Z</time>
      </trkpt>
      <trkpt lat="43.67189" lon="3.74327">
        <ele>154.988937</ele>
        <time>2020-06-28T08:43:55Z</time>
      </trkpt>
      <trkpt lat="43.67193" lon="3.74326">
        <ele>155.449997</ele>
        <time>2020-06-28T08:43:57Z</time>
      </trkpt>
      <trkpt lat="43.67196" lon="3.74326">
        <ele>155.93573</ele>
        <time>2020-06-28T08:43:59Z</time>
      </trkpt>
      <trkpt lat="43.67199" lon="3.74324">
        <ele>156.411209</ele>
        <time>2020-06-28T08:44:01Z</time>
      </trkpt>
      <trkpt lat="43.67202" lon="3.74324">
        <ele>156.87529</ele>
        <time>2020-06-28T08:44:03Z</time>
      </trkpt>
      <trkpt lat="43.67204" lon="3.74323">
        <ele>157.282715</ele>
        <time>2020-06-28T08:44:05Z</time>
      </trkpt>
      <trkpt lat="43.67207" lon="3.74323">
        <ele>157.643005</ele>
        <time>2020-06-28T08:44:07Z</time>
      </trkpt>
      <trkpt lat="43.67209" lon="3.74323">
        <ele>157.976212</ele>
        <time>2020-06-28T08:44:09Z</time>
      </trkpt>
      <trkpt lat="43.67212" lon="3.74323">
        <ele>158.270126</ele>
        <time>2020-06-28T08:44:11Z</time>
      </trkpt>
      <trkpt lat="43.67215" lon="3.74322">
        <ele>158.419144</ele>
        <time>2020-06-28T08:44:13Z</time>
      </trkpt>
      <trkpt lat="43.67219" lon="3.74319">
        <ele>158.692383</ele>
        <time>2020-06-28T08:44:15Z</time>
      </trkpt>
      <trkpt lat="43.67223" lon="3.74318">
        <ele>159.06076</ele>
        <time>2020-06-28T08:44:17Z</time>
      </trkpt>
      <trkpt lat="43.67226" lon="3.74318">
        <ele>159.517868</ele>
        <time>2020-06-28T08:44:19Z</time>
      </trkpt>
      <trkpt lat="43.67232" lon="3.74314">
        <ele>160.038437</ele>
        <time>2020-06-28T08:44:21Z</time>
      </trkpt>
      <trkpt lat="43.67243" lon="3.74303">
        <ele>160.517532</ele>
        <time>2020-06-28T08:44:23Z</time>
      </trkpt>
      <trkpt lat="43.67254" lon="3.74292">
        <ele>161.188339</ele>
        <time>2020-06-28T08:44:25Z</time>
      </trkpt>
      <trkpt lat="43.67264" lon="3.74286">
        <ele>161.650604</ele>
        <time>2020-06-28T08:44:27Z</time>
      </trkpt>
      <trkpt lat="43.67272" lon="3.74283">
        <ele>163.080872</ele>
        <time>2020-06-28T08:44:29Z</time>
      </trkpt>
      <trkpt lat="43.67283" lon="3.74283">
        <ele>164.856827</ele>
        <time>2020-06-28T08:44:31Z</time>
      </trkpt>
      <trkpt lat="43.67294" lon="3.74288">
        <ele>166.424744</ele>
        <time>2020-06-28T08:44:33Z</time>
      </trkpt>
      <trkpt lat="43.67304" lon="3.74294">
        <ele>167.018494</ele>
        <time>2020-06-28T08:44:35Z</time>
      </trkpt>
      <trkpt lat="43.67311" lon="3.74301">
        <ele>167.597214</ele>
        <time>2020-06-28T08:44:37Z</time>
      </trkpt>
      <trkpt lat="43.67322" lon="3.74307">
        <ele>167.784409</ele>
        <time>2020-06-28T08:44:39Z</time>
      </trkpt>
      <trkpt lat="43.67332" lon="3.74313">
        <ele>167.836258</ele>
        <time>2020-06-28T08:44:41Z</time>
      </trkpt>
      <trkpt lat="43.67342" lon="3.74314">
        <ele>167.90979</ele>
        <time>2020-06-28T08:44:43Z</time>
      </trkpt>
      <trkpt lat="43.67352" lon="3.74311">
        <ele>167.933533</ele>
        <time>2020-06-28T08:44:45Z</time>
      </trkpt>
      <trkpt lat="43.67364" lon="3.74308">
        <ele>167.914902</ele>
        <time>2020-06-28T08:44:47Z</time>
      </trkpt>
      <trkpt lat="43.67371" lon="3.74307">
        <ele>167.699081</ele>
        <time>2020-06-28T08:44:49Z</time>
      </trkpt>
      <trkpt lat="43.67378" lon="3.74309">
        <ele>167.151962</ele>
        <time>2020-06-28T08:44:51Z</time>
      </trkpt>
      <trkpt lat="43.67386" lon="3.7431">
        <ele>166.330948</ele>
        <time>2020-06-28T08:44:53Z</time>
      </trkpt>
      <trkpt lat="43.67394" lon="3.74312">
        <ele>165.615402</ele>
        <time>2020-06-28T08:44:55Z</time>
      </trkpt>
      <trkpt lat="43.67401" lon="3.74313">
        <ele>165.291153</ele>
        <time>2020-06-28T08:44:57Z</time>
      </trkpt>
      <trkpt lat="43.67409" lon="3.74315">
        <ele>164.612839</ele>
        <time>2020-06-28T08:44:59Z</time>
      </trkpt>
      <trkpt lat="43.67419" lon="3.74315">
        <ele>163.902039</ele>
        <time>2020-06-28T08:45:01Z</time>
      </trkpt>
      <trkpt lat="43.67429" lon="3.74317">
        <ele>163.147095</ele>
        <time>2020-06-28T08:45:03Z</time>
      </trkpt>
      <trkpt lat="43.67441" lon="3.74317">
        <ele>162.224747</ele>
        <time>2020-06-28T08:45:05Z</time>
      </trkpt>
      <trkpt lat="43.67455" lon="3.74319">
        <ele>161.092484</ele>
        <time>2020-06-28T08:45:07Z</time>
      </trkpt>
      <trkpt lat="43.67466" lon="3.74322">
        <ele>159.729431</ele>
        <time>2020-06-28T08:45:09Z</time>
      </trkpt>
      <trkpt lat="43.67479" lon="3.74322">
        <ele>158.229477</ele>
        <time>2020-06-28T08:45:11Z</time>
      </trkpt>
      <trkpt lat="43.6749" lon="3.74322">
        <ele>156.738327</ele>
        <time>2020-06-28T08:45:13Z</time>
      </trkpt>
      <trkpt lat="43.67503" lon="3.74325">
        <ele>155.234177</ele>
        <time>2020-06-28T08:45:15Z</time>
      </trkpt>
      <trkpt lat="43.67514" lon="3.7433">
        <ele>153.799088</ele>
        <time>2020-06-28T08:45:17Z</time>
      </trkpt>
      <trkpt lat="43.67524" lon="3.74334">
        <ele>152.429779</ele>
        <time>2020-06-28T08:45:19Z</time>
      </trkpt>
      <trkpt lat="43.67535" lon="3.74337">
        <ele>151.237839</ele>
        <time>2020-06-28T08:45:21Z</time>
      </trkpt>
      <trkpt lat="43.67547" lon="3.74338">
        <ele>150.19664</ele>
        <time>2020-06-28T08:45:23Z</time>
      </trkpt>
      <trkpt lat="43.67557" lon="3.74339">
        <ele>149.130203</ele>
        <time>2020-06-28T08:45:25Z</time>
      </trkpt>
      <trkpt lat="43.67569" lon="3.7434">
        <ele>147.987473</ele>
        <time>2020-06-28T08:45:27Z</time>
      </trkpt>
      <trkpt lat="43.6758" lon="3.74343">
        <ele>146.859421</ele>
        <time>2020-06-28T08:45:29Z</time>
      </trkpt>
      <trkpt lat="43.67591" lon="3.74347">
        <ele>145.784103</ele>
        <time>2020-06-28T08:45:31Z</time>
      </trkpt>
      <trkpt lat="43.67602" lon="3.74351">
        <ele>144.855469</ele>
        <time>2020-06-28T08:45:33Z</time>
      </trkpt>
      <trkpt lat="43.67612" lon="3.74355">
        <ele>144.408768</ele>
        <time>2020-06-28T08:45:35Z</time>
      </trkpt>
      <trkpt lat="43.67622" lon="3.74359">
        <ele>143.543381</ele>
        <time>2020-06-28T08:45:37Z</time>
      </trkpt>
      <trkpt lat="43.67633" lon="3.7436">
        <ele>142.677902</ele>
        <time>2020-06-28T08:45:39Z</time>
      </trkpt>
      <trkpt lat="43.67646" lon="3.74362">
        <ele>141.919876</ele>
        <time>2020-06-28T08:45:41Z</time>
      </trkpt>
      <trkpt lat="43.67659" lon="3.74364">
        <ele>141.246582</ele>
        <time>2020-06-28T08:45:43Z</time>
      </trkpt>
      <trkpt lat="43.67672" lon="3.74369">
        <ele>140.961685</ele>
        <time>2020-06-28T08:45:45Z</time>
      </trkpt>
      <trkpt lat="43.67684" lon="3.74373">
        <ele>140.670761</ele>
        <time>2020-06-28T08:45:47Z</time>
      </trkpt>
      <trkpt lat="43.67696" lon="3.74376">
        <ele>140.077347</ele>
        <time>2020-06-28T08:45:49Z</time>
      </trkpt>
      <trkpt lat="43.67705" lon="3.7438">
        <ele>139.633286</ele>
        <time>2020-06-28T08:45:51Z</time>
      </trkpt>
      <trkpt lat="43.67714" lon="3.74384">
        <ele>139.633286</ele>
        <time>2020-06-28T08:45:53Z</time>
      </trkpt>
      <trkpt lat="43.6772" lon="3.74388">
        <ele>139.633286</ele>
        <time>2020-06-28T08:45:55Z</time>
      </trkpt>
      <trkpt lat="43.67725" lon="3.74391">
        <ele>139.788681</ele>
        <time>2020-06-28T08:45:57Z</time>
      </trkpt>
      <trkpt lat="43.6773" lon="3.74393">
        <ele>140.182877</ele>
        <time>2020-06-28T08:45:59Z</time>
      </trkpt>
      <trkpt lat="43.67735" lon="3.74394">
        <ele>140.398499</ele>
        <time>2020-06-28T08:46:01Z</time>
      </trkpt>
      <trkpt lat="43.6774" lon="3.74395">
        <ele>140.638718</ele>
        <time>2020-06-28T08:46:03Z</time>
      </trkpt>
      <trkpt lat="43.67743" lon="3.74397">
        <ele>140.996033</ele>
        <time>2020-06-28T08:46:05Z</time>
      </trkpt>
      <trkpt lat="43.67748" lon="3.74398">
        <ele>141.216965</ele>
        <time>2020-06-28T08:46:07Z</time>
      </trkpt>
      <trkpt lat="43.67751" lon="3.74399">
        <ele>141.359787</ele>
        <time>2020-06-28T08:46:09Z</time>
      </trkpt>
      <trkpt lat="43.67756" lon="3.74402">
        <ele>141.401657</ele>
        <time>2020-06-28T08:46:11Z</time>
      </trkpt>
      <trkpt lat="43.67761" lon="3.74406">
        <ele>141.499741</ele>
        <time>2020-06-28T08:46:13Z</time>
      </trkpt>
      <trkpt lat="43.67765" lon="3.7441">
        <ele>141.665085</ele>
        <time>2020-06-28T08:46:15Z</time>
      </trkpt>
      <trkpt lat="43.6777" lon="3.74413">
        <ele>141.996475</ele>
        <time>2020-06-28T08:46:17Z</time>
      </trkpt>
      <trkpt lat="43.67774" lon="3.74417">
        <ele>142.35347</ele>
        <time>2020-06-28T08:46:19Z</time>
      </trkpt>
      <trkpt lat="43.67779" lon="3.7442">
        <ele>142.714279</ele>
        <time>2020-06-28T08:46:21Z</time>
      </trkpt>
      <trkpt lat="43.67783" lon="3.74421">
        <ele>142.993332</ele>
        <time>2020-06-28T08:46:23Z</time>
      </trkpt>
      <trkpt lat="43.67788" lon="3.74422">
        <ele>143.135941</ele>
        <time>2020-06-28T08:46:25Z</time>
      </trkpt>
      <trkpt lat="43.67793" lon="3.74424">
        <ele>143.136276</ele>
        <time>2020-06-28T08:46:27Z</time>
      </trkpt>
      <trkpt lat="43.67797" lon="3.74423">
        <ele>143.136276</ele>
        <time>2020-06-28T08:46:29Z</time>
      </trkpt>
      <trkpt lat="43.67802" lon="3.74422">
        <ele>143.023422</ele>
        <time>2020-06-28T08:46:31Z</time>
      </trkpt>
      <trkpt lat="43.67807" lon="3.74418">
        <ele>142.672333</ele>
        <time>2020-06-28T08:46:33Z</time>
      </trkpt>
      <trkpt lat="43.67815" lon="3.74416">
        <ele>142.455032</ele>
        <time>2020-06-28T08:46:35Z</time>
      </trkpt>
      <trkpt lat="43.67823" lon="3.74412">
        <ele>141.832993</ele>
        <time>2020-06-28T08:46:37Z</time>
      </trkpt>
      <trkpt lat="43.67831" lon="3.74407">
        <ele>140.869308</ele>
        <time>2020-06-28T08:46:39Z</time>
      </trkpt>
      <trkpt lat="43.67839" lon="3.74405">
        <ele>139.739899</ele>
        <time>2020-06-28T08:46:41Z</time>
      </trkpt>
      <trkpt lat="43.67844" lon="3.74405">
        <ele>138.583481</ele>
        <time>2020-06-28T08:46:43Z</time>
      </trkpt>
      <trkpt lat="43.67849" lon="3.74402">
        <ele>137.727066</ele>
        <time>2020-06-28T08:46:45Z</time>
      </trkpt>
      <trkpt lat="43.67855" lon="3.74395">
        <ele>137.400009</ele>
        <time>2020-06-28T08:46:47Z</time>
      </trkpt>
      <trkpt lat="43.67862" lon="3.74388">
        <ele>137.12619</ele>
        <time>2020-06-28T08:46:49Z</time>
      </trkpt>
      <trkpt lat="43.67868" lon="3.74384">
        <ele>136.546204</ele>
        <time>2020-06-28T08:46:51Z</time>
      </trkpt>
      <trkpt lat="43.67874" lon="3.74381">
        <ele>135.636551</ele>
        <time>2020-06-28T08:46:53Z</time>
      </trkpt>
      <trkpt lat="43.6788" lon="3.74376">
        <ele>134.699799</ele>
        <time>2020-06-28T08:46:55Z</time>
      </trkpt>
      <trkpt lat="43.67885" lon="3.74372">
        <ele>133.924149</ele>
        <time>2020-06-28T08:46:57Z</time>
      </trkpt>
      <trkpt lat="43.67889" lon="3.74369">
        <ele>133.484161</ele>
        <time>2020-06-28T08:46:59Z</time>
      </trkpt>
      <trkpt lat="43.67894" lon="3.74362">
        <ele>133.101913</ele>
        <time>2020-06-28T08:47:01Z</time>
      </trkpt>
      <trkpt lat="43.67899" lon="3.74355">
        <ele>132.777237</ele>
        <time>2020-06-28T08:47:03Z</time>
      </trkpt>
      <trkpt lat="43.67903" lon="3.74348">
        <ele>132.539703</ele>
        <time>2020-06-28T08:47:05Z</time>
      </trkpt>
      <trkpt lat="43.67906" lon="3.74341">
        <ele>132.441483</ele>
        <time>2020-06-28T08:47:07Z</time>
      </trkpt>
      <trkpt lat="43.67909" lon="3.74335">
        <ele>132.352158</ele>
        <time>2020-06-28T08:47:09Z</time>
      </trkpt>
      <trkpt lat="43.67912" lon="3.74331">
        <ele>132.155319</ele>
        <time>2020-06-28T08:47:11Z</time>
      </trkpt>
      <trkpt lat="43.67917" lon="3.74331">
        <ele>131.980469</ele>
        <time>2020-06-28T08:47:13Z</time>
      </trkpt>
      <trkpt lat="43.67922" lon="3.74332">
        <ele>131.924316</ele>
        <time>2020-06-28T08:47:15Z</time>
      </trkpt>
      <trkpt lat="43.67927" lon="3.74329">
        <ele>131.924316</ele>
        <time>2020-06-28T08:47:17Z</time>
      </trkpt>
      <trkpt lat="43.67932" lon="3.74326">
        <ele>132.02417</ele>
        <time>2020-06-28T08:47:19Z</time>
      </trkpt>
      <trkpt lat="43.67936" lon="3.74322">
        <ele>132.206543</ele>
        <time>2020-06-28T08:47:21Z</time>
      </trkpt>
      <trkpt lat="43.6794" lon="3.74324">
        <ele>132.319824</ele>
        <time>2020-06-28T08:47:23Z</time>
      </trkpt>
      <trkpt lat="43.67944" lon="3.74324">
        <ele>132.395508</ele>
        <time>2020-06-28T08:47:25Z</time>
      </trkpt>
      <trkpt lat="43.67946" lon="3.74327">
        <ele>132.515137</ele>
        <time>2020-06-28T08:47:27Z</time>
      </trkpt>
      <trkpt lat="43.67947" lon="3.74331">
        <ele>132.593994</ele>
        <time>2020-06-28T08:47:29Z</time>
      </trkpt>
      <trkpt lat="43.67948" lon="3.74334">
        <ele>132.797852</ele>
        <time>2020-06-28T08:47:31Z</time>
      </trkpt>
      <trkpt lat="43.67949" lon="3.74336">
        <ele>132.92627</ele>
        <time>2020-06-28T08:47:33Z</time>
      </trkpt>
      <trkpt lat="43.67952" lon="3.74338">
        <ele>133.167725</ele>
        <time>2020-06-28T08:47:35Z</time>
      </trkpt>
      <trkpt lat="43.67955" lon="3.74337">
        <ele>133.422852</ele>
        <time>2020-06-28T08:47:37Z</time>
      </trkpt>
      <trkpt lat="43.6796" lon="3.74336">
        <ele>133.638184</ele>
        <time>2020-06-28T08:47:39Z</time>
      </trkpt>
      <trkpt lat="43.67965" lon="3.74334">
        <ele>133.808105</ele>
        <time>2020-06-28T08:47:41Z</time>
      </trkpt>
      <trkpt lat="43.67968" lon="3.74333">
        <ele>133.970779</ele>
        <time>2020-06-28T08:47:43Z</time>
      </trkpt>
      <trkpt lat="43.67972" lon="3.74329">
        <ele>134.141769</ele>
        <time>2020-06-28T08:47:45Z</time>
      </trkpt>
      <trkpt lat="43.67977" lon="3.74326">
        <ele>134.232346</ele>
        <time>2020-06-28T08:47:47Z</time>
      </trkpt>
      <trkpt lat="43.67981" lon="3.74322">
        <ele>134.311523</ele>
        <time>2020-06-28T08:47:49Z</time>
      </trkpt>
      <trkpt lat="43.67987" lon="3.74318">
        <ele>134.469727</ele>
        <time>2020-06-28T08:47:51Z</time>
      </trkpt>
      <trkpt lat="43.67993" lon="3.74315">
        <ele>134.615555</ele>
        <time>2020-06-28T08:47:53Z</time>
      </trkpt>
      <trkpt lat="43.67997" lon="3.74314">
        <ele>134.774582</ele>
        <time>2020-06-28T08:47:55Z</time>
      </trkpt>
      <trkpt lat="43.68001" lon="3.74314">
        <ele>134.943924</ele>
        <time>2020-06-28T08:47:57Z</time>
      </trkpt>
      <trkpt lat="43.68006" lon="3.74314">
        <ele>135.14624</ele>
        <time>2020-06-28T08:47:59Z</time>
      </trkpt>
      <trkpt lat="43.68009" lon="3.74312">
        <ele>135.369217</ele>
        <time>2020-06-28T08:48:01Z</time>
      </trkpt>
      <trkpt lat="43.68013" lon="3.74309">
        <ele>135.610916</ele>
        <time>2020-06-28T08:48:03Z</time>
      </trkpt>
      <trkpt lat="43.68016" lon="3.74308">
        <ele>135.796555</ele>
        <time>2020-06-28T08:48:05Z</time>
      </trkpt>
      <trkpt lat="43.68021" lon="3.74306">
        <ele>135.94043</ele>
        <time>2020-06-28T08:48:07Z</time>
      </trkpt>
      <trkpt lat="43.68024" lon="3.74302">
        <ele>136.060226</ele>
        <time>2020-06-28T08:48:09Z</time>
      </trkpt>
      <trkpt lat="43.68028" lon="3.74296">
        <ele>136.194992</ele>
        <time>2020-06-28T08:48:11Z</time>
      </trkpt>
      <trkpt lat="43.68033" lon="3.74291">
        <ele>136.298172</ele>
        <time>2020-06-28T08:48:13Z</time>
      </trkpt>
      <trkpt lat="43.68036" lon="3.74288">
        <ele>136.344559</ele>
        <time>2020-06-28T08:48:15Z</time>
      </trkpt>
      <trkpt lat="43.68039" lon="3.74288">
        <ele>136.356583</ele>
        <time>2020-06-28T08:48:17Z</time>
      </trkpt>
      <trkpt lat="43.68042" lon="3.7429">
        <ele>136.395111</ele>
        <time>2020-06-28T08:48:19Z</time>
      </trkpt>
      <trkpt lat="43.6805" lon="3.74275">
        <ele>136.648941</ele>
        <time>2020-06-28T08:48:33Z</time>
      </trkpt>
      <trkpt lat="43.68056" lon="3.74272">
        <ele>136.571548</ele>
        <time>2020-06-28T08:48:37Z</time>
      </trkpt>
      <trkpt lat="43.68061" lon="3.74269">
        <ele>136.571548</ele>
        <time>2020-06-28T08:48:39Z</time>
      </trkpt>
      <trkpt lat="43.68066" lon="3.74267">
        <ele>136.627197</ele>
        <time>2020-06-28T08:48:41Z</time>
      </trkpt>
      <trkpt lat="43.68072" lon="3.74264">
        <ele>136.790451</ele>
        <time>2020-06-28T08:48:43Z</time>
      </trkpt>
      <trkpt lat="43.68078" lon="3.74261">
        <ele>136.867111</ele>
        <time>2020-06-28T08:48:45Z</time>
      </trkpt>
      <trkpt lat="43.68082" lon="3.74258">
        <ele>136.945511</ele>
        <time>2020-06-28T08:48:47Z</time>
      </trkpt>
      <trkpt lat="43.68087" lon="3.74256">
        <ele>137.018143</ele>
        <time>2020-06-28T08:48:49Z</time>
      </trkpt>
      <trkpt lat="43.68093" lon="3.74253">
        <ele>137.195007</ele>
        <time>2020-06-28T08:48:51Z</time>
      </trkpt>
      <trkpt lat="43.68099" lon="3.7425">
        <ele>137.379379</ele>
        <time>2020-06-28T08:48:53Z</time>
      </trkpt>
      <trkpt lat="43.68105" lon="3.74246">
        <ele>137.569153</ele>
        <time>2020-06-28T08:48:55Z</time>
      </trkpt>
      <trkpt lat="43.68111" lon="3.74243">
        <ele>137.667542</ele>
        <time>2020-06-28T08:48:57Z</time>
      </trkpt>
      <trkpt lat="43.68116" lon="3.74238">
        <ele>137.688782</ele>
        <time>2020-06-28T08:48:59Z</time>
      </trkpt>
      <trkpt lat="43.68121" lon="3.74233">
        <ele>137.688034</ele>
        <time>2020-06-28T08:49:01Z</time>
      </trkpt>
      <trkpt lat="43.68127" lon="3.74229">
        <ele>137.621902</ele>
        <time>2020-06-28T08:49:03Z</time>
      </trkpt>
      <trkpt lat="43.68132" lon="3.74224">
        <ele>137.577469</ele>
        <time>2020-06-28T08:49:05Z</time>
      </trkpt>
      <trkpt lat="43.68138" lon="3.7422">
        <ele>137.454102</ele>
        <time>2020-06-28T08:49:07Z</time>
      </trkpt>
      <trkpt lat="43.68144" lon="3.74218">
        <ele>137.317566</ele>
        <time>2020-06-28T08:49:09Z</time>
      </trkpt>
      <trkpt lat="43.6815" lon="3.74215">
        <ele>137.229874</ele>
        <time>2020-06-28T08:49:11Z</time>
      </trkpt>
      <trkpt lat="43.68157" lon="3.74211">
        <ele>137.202225</ele>
        <time>2020-06-28T08:49:13Z</time>
      </trkpt>
      <trkpt lat="43.68166" lon="3.74204">
        <ele>137.174194</ele>
        <time>2020-06-28T08:49:15Z</time>
      </trkpt>
      <trkpt lat="43.68176" lon="3.74199">
        <ele>137.141449</ele>
        <time>2020-06-28T08:49:17Z</time>
      </trkpt>
      <trkpt lat="43.68187" lon="3.74193">
        <ele>137.084122</ele>
        <time>2020-06-28T08:49:19Z</time>
      </trkpt>
      <trkpt lat="43.68198" lon="3.74189">
        <ele>136.836411</ele>
        <time>2020-06-28T08:49:21Z</time>
      </trkpt>
      <trkpt lat="43.68209" lon="3.74186">
        <ele>136.667435</ele>
        <time>2020-06-28T08:49:23Z</time>
      </trkpt>
      <trkpt lat="43.68221" lon="3.74181">
        <ele>136.486679</ele>
        <time>2020-06-28T08:49:25Z</time>
      </trkpt>
      <trkpt lat="43.68232" lon="3.74177">
        <ele>136.045532</ele>
        <time>2020-06-28T08:49:27Z</time>
      </trkpt>
      <trkpt lat="43.68242" lon="3.74174">
        <ele>135.815994</ele>
        <time>2020-06-28T08:49:29Z</time>
      </trkpt>
      <trkpt lat="43.68251" lon="3.74169">
        <ele>135.620163</ele>
        <time>2020-06-28T08:49:31Z</time>
      </trkpt>
      <trkpt lat="43.6826" lon="3.7416">
        <ele>135.405289</ele>
        <time>2020-06-28T08:49:33Z</time>
      </trkpt>
      <trkpt lat="43.68266" lon="3.74149">
        <ele>135.134094</ele>
        <time>2020-06-28T08:49:35Z</time>
      </trkpt>
      <trkpt lat="43.68271" lon="3.74139">
        <ele>134.788071</ele>
        <time>2020-06-28T08:49:37Z</time>
      </trkpt>
      <trkpt lat="43.68277" lon="3.74129">
        <ele>134.408432</ele>
        <time>2020-06-28T08:49:39Z</time>
      </trkpt>
      <trkpt lat="43.68285" lon="3.74121">
        <ele>133.591003</ele>
        <time>2020-06-28T08:49:41Z</time>
      </trkpt>
      <trkpt lat="43.68293" lon="3.74119">
        <ele>132.725739</ele>
        <time>2020-06-28T08:49:43Z</time>
      </trkpt>
      <trkpt lat="43.68301" lon="3.74121">
        <ele>132.153442</ele>
        <time>2020-06-28T08:49:45Z</time>
      </trkpt>
      <trkpt lat="43.68311" lon="3.74123">
        <ele>131.937439</ele>
        <time>2020-06-28T08:49:47Z</time>
      </trkpt>
      <trkpt lat="43.68318" lon="3.74129">
        <ele>131.787308</ele>
        <time>2020-06-28T08:49:49Z</time>
      </trkpt>
      <trkpt lat="43.68326" lon="3.74133">
        <ele>131.694077</ele>
        <time>2020-06-28T08:49:51Z</time>
      </trkpt>
      <trkpt lat="43.68336" lon="3.74138">
        <ele>131.618896</ele>
        <time>2020-06-28T08:49:53Z</time>
      </trkpt>
      <trkpt lat="43.68345" lon="3.74142">
        <ele>131.565598</ele>
        <time>2020-06-28T08:49:55Z</time>
      </trkpt>
      <trkpt lat="43.68354" lon="3.74147">
        <ele>131.478134</ele>
        <time>2020-06-28T08:49:57Z</time>
      </trkpt>
      <trkpt lat="43.68362" lon="3.74152">
        <ele>131.384842</ele>
        <time>2020-06-28T08:49:59Z</time>
      </trkpt>
      <trkpt lat="43.68369" lon="3.74157">
        <ele>131.283737</ele>
        <time>2020-06-28T08:50:01Z</time>
      </trkpt>
      <trkpt lat="43.68374" lon="3.74163">
        <ele>131.186722</ele>
        <time>2020-06-28T08:50:03Z</time>
      </trkpt>
      <trkpt lat="43.68377" lon="3.7417">
        <ele>131.143616</ele>
        <time>2020-06-28T08:50:05Z</time>
      </trkpt>
      <trkpt lat="43.68378" lon="3.74177">
        <ele>131.143616</ele>
        <time>2020-06-28T08:50:07Z</time>
      </trkpt>
      <trkpt lat="43.68379" lon="3.74185">
        <ele>131.164078</ele>
        <time>2020-06-28T08:50:09Z</time>
      </trkpt>
      <trkpt lat="43.6838" lon="3.74192">
        <ele>131.242844</ele>
        <time>2020-06-28T08:50:11Z</time>
      </trkpt>
      <trkpt lat="43.68381" lon="3.74199">
        <ele>131.332779</ele>
        <time>2020-06-28T08:50:13Z</time>
      </trkpt>
      <trkpt lat="43.68382" lon="3.74206">
        <ele>131.376541</ele>
        <time>2020-06-28T08:50:15Z</time>
      </trkpt>
      <trkpt lat="43.68382" lon="3.74214">
        <ele>131.468155</ele>
        <time>2020-06-28T08:50:17Z</time>
      </trkpt>
      <trkpt lat="43.68382" lon="3.74221">
        <ele>131.564316</ele>
        <time>2020-06-28T08:50:19Z</time>
      </trkpt>
      <trkpt lat="43.68382" lon="3.74229">
        <ele>131.664001</ele>
        <time>2020-06-28T08:50:21Z</time>
      </trkpt>
      <trkpt lat="43.68383" lon="3.74236">
        <ele>131.766953</ele>
        <time>2020-06-28T08:50:23Z</time>
      </trkpt>
      <trkpt lat="43.68384" lon="3.74244">
        <ele>131.898438</ele>
        <time>2020-06-28T08:50:25Z</time>
      </trkpt>
      <trkpt lat="43.68385" lon="3.74251">
        <ele>132.057724</ele>
        <time>2020-06-28T08:50:27Z</time>
      </trkpt>
      <trkpt lat="43.68385" lon="3.74259">
        <ele>132.242538</ele>
        <time>2020-06-28T08:50:29Z</time>
      </trkpt>
      <trkpt lat="43.68385" lon="3.74266">
        <ele>132.422318</ele>
        <time>2020-06-28T08:50:31Z</time>
      </trkpt>
      <trkpt lat="43.68385" lon="3.74274">
        <ele>132.513229</ele>
        <time>2020-06-28T08:50:33Z</time>
      </trkpt>
      <trkpt lat="43.68385" lon="3.74282">
        <ele>132.714249</ele>
        <time>2020-06-28T08:50:35Z</time>
      </trkpt>
      <trkpt lat="43.68385" lon="3.7429">
        <ele>132.943619</ele>
        <time>2020-06-28T08:50:37Z</time>
      </trkpt>
      <trkpt lat="43.68386" lon="3.74298">
        <ele>133.17601</ele>
        <time>2020-06-28T08:50:39Z</time>
      </trkpt>
      <trkpt lat="43.68385" lon="3.74306">
        <ele>133.388763</ele>
        <time>2020-06-28T08:50:41Z</time>
      </trkpt>
      <trkpt lat="43.68385" lon="3.74314">
        <ele>133.579758</ele>
        <time>2020-06-28T08:50:43Z</time>
      </trkpt>
      <trkpt lat="43.68387" lon="3.74322">
        <ele>133.782791</ele>
        <time>2020-06-28T08:50:45Z</time>
      </trkpt>
      <trkpt lat="43.68388" lon="3.7433">
        <ele>133.995102</ele>
        <time>2020-06-28T08:50:47Z</time>
      </trkpt>
      <trkpt lat="43.6839" lon="3.74337">
        <ele>134.096344</ele>
        <time>2020-06-28T08:50:49Z</time>
      </trkpt>
      <trkpt lat="43.68392" lon="3.74345">
        <ele>134.191483</ele>
        <time>2020-06-28T08:50:51Z</time>
      </trkpt>
      <trkpt lat="43.68395" lon="3.74352">
        <ele>134.366104</ele>
        <time>2020-06-28T08:50:53Z</time>
      </trkpt>
      <trkpt lat="43.68398" lon="3.74359">
        <ele>134.450119</ele>
        <time>2020-06-28T08:50:55Z</time>
      </trkpt>
      <trkpt lat="43.68399" lon="3.74366">
        <ele>134.52478</ele>
        <time>2020-06-28T08:50:57Z</time>
      </trkpt>
      <trkpt lat="43.68402" lon="3.74373">
        <ele>134.658707</ele>
        <time>2020-06-28T08:50:59Z</time>
      </trkpt>
      <trkpt lat="43.68404" lon="3.7438">
        <ele>134.810211</ele>
        <time>2020-06-28T08:51:01Z</time>
      </trkpt>
      <trkpt lat="43.68407" lon="3.74388">
        <ele>134.957352</ele>
        <time>2020-06-28T08:51:03Z</time>
      </trkpt>
      <trkpt lat="43.68411" lon="3.74398">
        <ele>135.135422</ele>
        <time>2020-06-28T08:51:05Z</time>
      </trkpt>
      <trkpt lat="43.68415" lon="3.74411">
        <ele>135.310806</ele>
        <time>2020-06-28T08:51:07Z</time>
      </trkpt>
      <trkpt lat="43.68421" lon="3.74425">
        <ele>135.52446</ele>
        <time>2020-06-28T08:51:09Z</time>
      </trkpt>
      <trkpt lat="43.68431" lon="3.74436">
        <ele>135.797165</ele>
        <time>2020-06-28T08:51:11Z</time>
      </trkpt>
      <trkpt lat="43.6844" lon="3.74444">
        <ele>135.956436</ele>
        <time>2020-06-28T08:51:13Z</time>
      </trkpt>
      <trkpt lat="43.68447" lon="3.7445">
        <ele>136.123825</ele>
        <time>2020-06-28T08:51:15Z</time>
      </trkpt>
      <trkpt lat="43.68452" lon="3.74455">
        <ele>136.527771</ele>
        <time>2020-06-28T08:51:17Z</time>
      </trkpt>
      <trkpt lat="43.68457" lon="3.7446">
        <ele>136.941879</ele>
        <time>2020-06-28T08:51:19Z</time>
      </trkpt>
      <trkpt lat="43.6846" lon="3.74465">
        <ele>137.333374</ele>
        <time>2020-06-28T08:51:21Z</time>
      </trkpt>
      <trkpt lat="43.68462" lon="3.74469">
        <ele>137.657883</ele>
        <time>2020-06-28T08:51:23Z</time>
      </trkpt>
      <trkpt lat="43.68465" lon="3.74475">
        <ele>137.798172</ele>
        <time>2020-06-28T08:51:25Z</time>
      </trkpt>
      <trkpt lat="43.68467" lon="3.74481">
        <ele>138.074875</ele>
        <time>2020-06-28T08:51:27Z</time>
      </trkpt>
      <trkpt lat="43.6847" lon="3.74487">
        <ele>138.409836</ele>
        <time>2020-06-28T08:51:29Z</time>
      </trkpt>
      <trkpt lat="43.68472" lon="3.74493">
        <ele>138.773438</ele>
        <time>2020-06-28T08:51:31Z</time>
      </trkpt>
      <trkpt lat="43.68475" lon="3.74499">
        <ele>139.170242</ele>
        <time>2020-06-28T08:51:33Z</time>
      </trkpt>
      <trkpt lat="43.68477" lon="3.74504">
        <ele>139.525391</ele>
        <time>2020-06-28T08:51:35Z</time>
      </trkpt>
      <trkpt lat="43.6848" lon="3.7451">
        <ele>139.878113</ele>
        <time>2020-06-28T08:51:37Z</time>
      </trkpt>
      <trkpt lat="43.68481" lon="3.74515">
        <ele>140.235596</ele>
        <time>2020-06-28T08:51:39Z</time>
      </trkpt>
      <trkpt lat="43.68484" lon="3.7452">
        <ele>140.604202</ele>
        <time>2020-06-28T08:51:41Z</time>
      </trkpt>
      <trkpt lat="43.68486" lon="3.74525">
        <ele>140.980835</ele>
        <time>2020-06-28T08:51:43Z</time>
      </trkpt>
      <trkpt lat="43.68488" lon="3.74529">
        <ele>141.351898</ele>
        <time>2020-06-28T08:51:45Z</time>
      </trkpt>
      <trkpt lat="43.6849" lon="3.74534">
        <ele>141.528946</ele>
        <time>2020-06-28T08:51:47Z</time>
      </trkpt>
      <trkpt lat="43.68491" lon="3.74539">
        <ele>141.894684</ele>
        <time>2020-06-28T08:51:49Z</time>
      </trkpt>
      <trkpt lat="43.68493" lon="3.74543">
        <ele>142.086365</ele>
        <time>2020-06-28T08:51:51Z</time>
      </trkpt>
      <trkpt lat="43.68494" lon="3.74547">
        <ele>142.467789</ele>
        <time>2020-06-28T08:51:53Z</time>
      </trkpt>
      <trkpt lat="43.68496" lon="3.74551">
        <ele>142.683151</ele>
        <time>2020-06-28T08:51:55Z</time>
      </trkpt>
      <trkpt lat="43.68498" lon="3.74555">
        <ele>143.110657</ele>
        <time>2020-06-28T08:51:57Z</time>
      </trkpt>
      <trkpt lat="43.68499" lon="3.7456">
        <ele>143.524612</ele>
        <time>2020-06-28T08:51:59Z</time>
      </trkpt>
      <trkpt lat="43.68501" lon="3.74564">
        <ele>143.910019</ele>
        <time>2020-06-28T08:52:01Z</time>
      </trkpt>
      <trkpt lat="43.68502" lon="3.74568">
        <ele>144.245316</ele>
        <time>2020-06-28T08:52:03Z</time>
      </trkpt>
      <trkpt lat="43.68504" lon="3.74572">
        <ele>144.563095</ele>
        <time>2020-06-28T08:52:05Z</time>
      </trkpt>
      <trkpt lat="43.68507" lon="3.74577">
        <ele>144.886368</ele>
        <time>2020-06-28T08:52:07Z</time>
      </trkpt>
      <trkpt lat="43.68509" lon="3.74582">
        <ele>145.227646</ele>
        <time>2020-06-28T08:52:09Z</time>
      </trkpt>
      <trkpt lat="43.68511" lon="3.74587">
        <ele>145.588058</ele>
        <time>2020-06-28T08:52:11Z</time>
      </trkpt>
      <trkpt lat="43.68513" lon="3.74593">
        <ele>145.776688</ele>
        <time>2020-06-28T08:52:13Z</time>
      </trkpt>
      <trkpt lat="43.68515" lon="3.74597">
        <ele>146.175125</ele>
        <time>2020-06-28T08:52:15Z</time>
      </trkpt>
      <trkpt lat="43.68516" lon="3.74603">
        <ele>146.667068</ele>
        <time>2020-06-28T08:52:17Z</time>
      </trkpt>
      <trkpt lat="43.68517" lon="3.74609">
        <ele>147.169601</ele>
        <time>2020-06-28T08:52:19Z</time>
      </trkpt>
      <trkpt lat="43.68519" lon="3.74614">
        <ele>147.679688</ele>
        <time>2020-06-28T08:52:21Z</time>
      </trkpt>
      <trkpt lat="43.6852" lon="3.74618">
        <ele>148.115723</ele>
        <time>2020-06-28T08:52:23Z</time>
      </trkpt>
      <trkpt lat="43.68522" lon="3.74622">
        <ele>148.53801</ele>
        <time>2020-06-28T08:52:25Z</time>
      </trkpt>
      <trkpt lat="43.68525" lon="3.74626">
        <ele>148.93367</ele>
        <time>2020-06-28T08:52:27Z</time>
      </trkpt>
      <trkpt lat="43.68527" lon="3.74631">
        <ele>149.125809</ele>
        <time>2020-06-28T08:52:29Z</time>
      </trkpt>
      <trkpt lat="43.68528" lon="3.74635">
        <ele>149.282639</ele>
        <time>2020-06-28T08:52:31Z</time>
      </trkpt>
      <trkpt lat="43.68531" lon="3.74641">
        <ele>149.712326</ele>
        <time>2020-06-28T08:52:33Z</time>
      </trkpt>
      <trkpt lat="43.68533" lon="3.74646">
        <ele>150.189499</ele>
        <time>2020-06-28T08:52:35Z</time>
      </trkpt>
      <trkpt lat="43.68535" lon="3.7465">
        <ele>150.656677</ele>
        <time>2020-06-28T08:52:37Z</time>
      </trkpt>
      <trkpt lat="43.68538" lon="3.74655">
        <ele>150.832779</ele>
        <time>2020-06-28T08:52:39Z</time>
      </trkpt>
      <trkpt lat="43.6854" lon="3.7466">
        <ele>151.121078</ele>
        <time>2020-06-28T08:52:41Z</time>
      </trkpt>
      <trkpt lat="43.68542" lon="3.74665">
        <ele>151.402908</ele>
        <time>2020-06-28T08:52:43Z</time>
      </trkpt>
      <trkpt lat="43.68545" lon="3.74669">
        <ele>151.679642</ele>
        <time>2020-06-28T08:52:45Z</time>
      </trkpt>
      <trkpt lat="43.68548" lon="3.74672">
        <ele>151.953415</ele>
        <time>2020-06-28T08:52:47Z</time>
      </trkpt>
      <trkpt lat="43.68551" lon="3.74676">
        <ele>152.180374</ele>
        <time>2020-06-28T08:52:49Z</time>
      </trkpt>
      <trkpt lat="43.68554" lon="3.7468">
        <ele>152.390015</ele>
        <time>2020-06-28T08:52:51Z</time>
      </trkpt>
      <trkpt lat="43.68558" lon="3.74681">
        <ele>152.489609</ele>
        <time>2020-06-28T08:52:53Z</time>
      </trkpt>
      <trkpt lat="43.68561" lon="3.74677">
        <ele>152.587097</ele>
        <time>2020-06-28T08:52:55Z</time>
      </trkpt>
      <trkpt lat="43.68564" lon="3.74674">
        <ele>152.759689</ele>
        <time>2020-06-28T08:52:57Z</time>
      </trkpt>
      <trkpt lat="43.68568" lon="3.74672">
        <ele>152.824631</ele>
        <time>2020-06-28T08:52:59Z</time>
      </trkpt>
      <trkpt lat="43.68572" lon="3.74671">
        <ele>152.878159</ele>
        <time>2020-06-28T08:53:01Z</time>
      </trkpt>
      <trkpt lat="43.68576" lon="3.74669">
        <ele>152.944763</ele>
        <time>2020-06-28T08:53:03Z</time>
      </trkpt>
      <trkpt lat="43.68579" lon="3.74669">
        <ele>152.974808</ele>
        <time>2020-06-28T08:53:05Z</time>
      </trkpt>
      <trkpt lat="43.68584" lon="3.74669">
        <ele>152.994995</ele>
        <time>2020-06-28T08:53:07Z</time>
      </trkpt>
      <trkpt lat="43.68589" lon="3.74669">
        <ele>153.044724</ele>
        <time>2020-06-28T08:53:09Z</time>
      </trkpt>
      <trkpt lat="43.68594" lon="3.74669">
        <ele>153.116898</ele>
        <time>2020-06-28T08:53:11Z</time>
      </trkpt>
      <trkpt lat="43.68598" lon="3.74671">
        <ele>153.21431</ele>
        <time>2020-06-28T08:53:13Z</time>
      </trkpt>
      <trkpt lat="43.68602" lon="3.74673">
        <ele>153.330582</ele>
        <time>2020-06-28T08:53:15Z</time>
      </trkpt>
      <trkpt lat="43.68607" lon="3.74674">
        <ele>153.464951</ele>
        <time>2020-06-28T08:53:17Z</time>
      </trkpt>
      <trkpt lat="43.68612" lon="3.74676">
        <ele>153.611954</ele>
        <time>2020-06-28T08:53:19Z</time>
      </trkpt>
      <trkpt lat="43.68616" lon="3.74677">
        <ele>153.769211</ele>
        <time>2020-06-28T08:53:21Z</time>
      </trkpt>
      <trkpt lat="43.6862" lon="3.7468">
        <ele>153.847885</ele>
        <time>2020-06-28T08:53:23Z</time>
      </trkpt>
      <trkpt lat="43.68623" lon="3.74682">
        <ele>154.010803</ele>
        <time>2020-06-28T08:53:25Z</time>
      </trkpt>
      <trkpt lat="43.68629" lon="3.74682">
        <ele>154.211746</ele>
        <time>2020-06-28T08:53:27Z</time>
      </trkpt>
      <trkpt lat="43.68634" lon="3.74684">
        <ele>154.410339</ele>
        <time>2020-06-28T08:53:29Z</time>
      </trkpt>
      <trkpt lat="43.68639" lon="3.74686">
        <ele>154.610916</ele>
        <time>2020-06-28T08:53:31Z</time>
      </trkpt>
      <trkpt lat="43.68644" lon="3.74687">
        <ele>154.790421</ele>
        <time>2020-06-28T08:53:33Z</time>
      </trkpt>
      <trkpt lat="43.68647" lon="3.74688">
        <ele>154.981949</ele>
        <time>2020-06-28T08:53:35Z</time>
      </trkpt>
      <trkpt lat="43.68652" lon="3.7469">
        <ele>155.171402</ele>
        <time>2020-06-28T08:53:37Z</time>
      </trkpt>
      <trkpt lat="43.68656" lon="3.74691">
        <ele>155.357635</ele>
        <time>2020-06-28T08:53:39Z</time>
      </trkpt>
      <trkpt lat="43.68661" lon="3.74693">
        <ele>155.688278</ele>
        <time>2020-06-28T08:53:41Z</time>
      </trkpt>
      <trkpt lat="43.68665" lon="3.74695">
        <ele>155.688278</ele>
        <time>2020-06-28T08:53:43Z</time>
      </trkpt>
      <trkpt lat="43.6867" lon="3.74697">
        <ele>155.940781</ele>
        <time>2020-06-28T08:53:45Z</time>
      </trkpt>
      <trkpt lat="43.68675" lon="3.74698">
        <ele>156.267868</ele>
        <time>2020-06-28T08:53:47Z</time>
      </trkpt>
      <trkpt lat="43.68679" lon="3.747">
        <ele>156.597122</ele>
        <time>2020-06-28T08:53:49Z</time>
      </trkpt>
      <trkpt lat="43.68684" lon="3.74701">
        <ele>156.93483</ele>
        <time>2020-06-28T08:53:51Z</time>
      </trkpt>
      <trkpt lat="43.68688" lon="3.74702">
        <ele>157.194885</ele>
        <time>2020-06-28T08:53:53Z</time>
      </trkpt>
      <trkpt lat="43.68691" lon="3.74706">
        <ele>157.325394</ele>
        <time>2020-06-28T08:53:55Z</time>
      </trkpt>
      <trkpt lat="43.68695" lon="3.7471">
        <ele>157.579971</ele>
        <time>2020-06-28T08:53:57Z</time>
      </trkpt>
      <trkpt lat="43.68699" lon="3.74713">
        <ele>157.722412</ele>
        <time>2020-06-28T08:53:59Z</time>
      </trkpt>
      <trkpt lat="43.68701" lon="3.74717">
        <ele>158.032272</ele>
        <time>2020-06-28T08:54:01Z</time>
      </trkpt>
      <trkpt lat="43.68701" lon="3.74721">
        <ele>158.356155</ele>
        <time>2020-06-28T08:54:03Z</time>
      </trkpt>
      <trkpt lat="43.687" lon="3.74726">
        <ele>158.513748</ele>
        <time>2020-06-28T08:54:05Z</time>
      </trkpt>
      <trkpt lat="43.68698" lon="3.74732">
        <ele>158.765915</ele>
        <time>2020-06-28T08:54:07Z</time>
      </trkpt>
      <trkpt lat="43.68696" lon="3.74738">
        <ele>158.926422</ele>
        <time>2020-06-28T08:54:09Z</time>
      </trkpt>
      <trkpt lat="43.68692" lon="3.74746">
        <ele>159.036316</ele>
        <time>2020-06-28T08:54:11Z</time>
      </trkpt>
      <trkpt lat="43.68688" lon="3.74755">
        <ele>159.07811</ele>
        <time>2020-06-28T08:54:13Z</time>
      </trkpt>
      <trkpt lat="43.68683" lon="3.74765">
        <ele>159.098816</ele>
        <time>2020-06-28T08:54:15Z</time>
      </trkpt>
      <trkpt lat="43.68678" lon="3.74776">
        <ele>159.116211</ele>
        <time>2020-06-28T08:54:17Z</time>
      </trkpt>
      <trkpt lat="43.68673" lon="3.74787">
        <ele>159.116211</ele>
        <time>2020-06-28T08:54:19Z</time>
      </trkpt>
      <trkpt lat="43.68667" lon="3.74796">
        <ele>159.082855</ele>
        <time>2020-06-28T08:54:21Z</time>
      </trkpt>
      <trkpt lat="43.68665" lon="3.74804">
        <ele>158.985336</ele>
        <time>2020-06-28T08:54:23Z</time>
      </trkpt>
      <trkpt lat="43.68662" lon="3.74812">
        <ele>158.840897</ele>
        <time>2020-06-28T08:54:25Z</time>
      </trkpt>
      <trkpt lat="43.68655" lon="3.7482">
        <ele>158.718094</ele>
        <time>2020-06-28T08:54:27Z</time>
      </trkpt>
      <trkpt lat="43.68649" lon="3.74827">
        <ele>158.606689</ele>
        <time>2020-06-28T08:54:29Z</time>
      </trkpt>
      <trkpt lat="43.68642" lon="3.74835">
        <ele>158.546707</ele>
        <time>2020-06-28T08:54:31Z</time>
      </trkpt>
      <trkpt lat="43.68636" lon="3.74842">
        <ele>158.372238</ele>
        <time>2020-06-28T08:54:33Z</time>
      </trkpt>
      <trkpt lat="43.68628" lon="3.7485">
        <ele>158.164749</ele>
        <time>2020-06-28T08:54:35Z</time>
      </trkpt>
      <trkpt lat="43.68618" lon="3.74859">
        <ele>158.086258</ele>
        <time>2020-06-28T08:54:37Z</time>
      </trkpt>
      <trkpt lat="43.68609" lon="3.74867">
        <ele>158.086258</ele>
        <time>2020-06-28T08:54:39Z</time>
      </trkpt>
      <trkpt lat="43.68603" lon="3.74874">
        <ele>158.155319</ele>
        <time>2020-06-28T08:54:41Z</time>
      </trkpt>
      <trkpt lat="43.68597" lon="3.7488">
        <ele>158.342331</ele>
        <time>2020-06-28T08:54:43Z</time>
      </trkpt>
      <trkpt lat="43.68593" lon="3.74885">
        <ele>158.544662</ele>
        <time>2020-06-28T08:54:45Z</time>
      </trkpt>
      <trkpt lat="43.68591" lon="3.74891">
        <ele>158.742538</ele>
        <time>2020-06-28T08:54:47Z</time>
      </trkpt>
      <trkpt lat="43.68591" lon="3.74896">
        <ele>158.93541</ele>
        <time>2020-06-28T08:54:49Z</time>
      </trkpt>
      <trkpt lat="43.68588" lon="3.74903">
        <ele>159.125793</ele>
        <time>2020-06-28T08:54:51Z</time>
      </trkpt>
      <trkpt lat="43.68588" lon="3.7491">
        <ele>159.331833</ele>
        <time>2020-06-28T08:54:53Z</time>
      </trkpt>
      <trkpt lat="43.68588" lon="3.74919">
        <ele>159.44603</ele>
        <time>2020-06-28T08:54:55Z</time>
      </trkpt>
      <trkpt lat="43.68589" lon="3.74926">
        <ele>159.568192</ele>
        <time>2020-06-28T08:54:57Z</time>
      </trkpt>
      <trkpt lat="43.68591" lon="3.74931">
        <ele>160.11058</ele>
        <time>2020-06-28T08:54:59Z</time>
      </trkpt>
      <trkpt lat="43.68594" lon="3.74937">
        <ele>161.016312</ele>
        <time>2020-06-28T08:55:01Z</time>
      </trkpt>
      <trkpt lat="43.68596" lon="3.74942">
        <ele>161.51265</ele>
        <time>2020-06-28T08:55:03Z</time>
      </trkpt>
      <trkpt lat="43.68599" lon="3.74947">
        <ele>162.57164</ele>
        <time>2020-06-28T08:55:05Z</time>
      </trkpt>
      <trkpt lat="43.68603" lon="3.74952">
        <ele>163.305115</ele>
        <time>2020-06-28T08:55:07Z</time>
      </trkpt>
      <trkpt lat="43.68607" lon="3.74957">
        <ele>163.976807</ele>
        <time>2020-06-28T08:55:09Z</time>
      </trkpt>
      <trkpt lat="43.6861" lon="3.74963">
        <ele>164.592728</ele>
        <time>2020-06-28T08:55:11Z</time>
      </trkpt>
      <trkpt lat="43.68613" lon="3.74968">
        <ele>165.088181</ele>
        <time>2020-06-28T08:55:13Z</time>
      </trkpt>
      <trkpt lat="43.68615" lon="3.74974">
        <ele>165.58989</ele>
        <time>2020-06-28T08:55:15Z</time>
      </trkpt>
      <trkpt lat="43.68618" lon="3.74979">
        <ele>166.086914</ele>
        <time>2020-06-28T08:55:17Z</time>
      </trkpt>
      <trkpt lat="43.6862" lon="3.74985">
        <ele>166.56694</ele>
        <time>2020-06-28T08:55:19Z</time>
      </trkpt>
      <trkpt lat="43.68623" lon="3.74991">
        <ele>167.065353</ele>
        <time>2020-06-28T08:55:21Z</time>
      </trkpt>
      <trkpt lat="43.68624" lon="3.74996">
        <ele>167.61113</ele>
        <time>2020-06-28T08:55:23Z</time>
      </trkpt>
      <trkpt lat="43.68626" lon="3.75002">
        <ele>168.191345</ele>
        <time>2020-06-28T08:55:25Z</time>
      </trkpt>
      <trkpt lat="43.68627" lon="3.75008">
        <ele>168.764908</ele>
        <time>2020-06-28T08:55:27Z</time>
      </trkpt>
      <trkpt lat="43.68629" lon="3.75013">
        <ele>169.041168</ele>
        <time>2020-06-28T08:55:29Z</time>
      </trkpt>
      <trkpt lat="43.6863" lon="3.75018">
        <ele>169.594421</ele>
        <time>2020-06-28T08:55:31Z</time>
      </trkpt>
      <trkpt lat="43.68631" lon="3.75024">
        <ele>170.232071</ele>
        <time>2020-06-28T08:55:33Z</time>
      </trkpt>
      <trkpt lat="43.68632" lon="3.7503">
        <ele>170.868698</ele>
        <time>2020-06-28T08:55:35Z</time>
      </trkpt>
      <trkpt lat="43.68633" lon="3.75036">
        <ele>171.521057</ele>
        <time>2020-06-28T08:55:37Z</time>
      </trkpt>
      <trkpt lat="43.68633" lon="3.75042">
        <ele>172.102463</ele>
        <time>2020-06-28T08:55:39Z</time>
      </trkpt>
      <trkpt lat="43.68634" lon="3.75047">
        <ele>172.717209</ele>
        <time>2020-06-28T08:55:41Z</time>
      </trkpt>
      <trkpt lat="43.68634" lon="3.75052">
        <ele>173.305237</ele>
        <time>2020-06-28T08:55:43Z</time>
      </trkpt>
      <trkpt lat="43.68634" lon="3.75057">
        <ele>173.585495</ele>
        <time>2020-06-28T08:55:45Z</time>
      </trkpt>
      <trkpt lat="43.68635" lon="3.75063">
        <ele>173.844711</ele>
        <time>2020-06-28T08:55:47Z</time>
      </trkpt>
      <trkpt lat="43.68636" lon="3.75068">
        <ele>174.398804</ele>
        <time>2020-06-28T08:55:49Z</time>
      </trkpt>
      <trkpt lat="43.68636" lon="3.75074">
        <ele>174.936951</ele>
        <time>2020-06-28T08:55:51Z</time>
      </trkpt>
      <trkpt lat="43.68634" lon="3.75079">
        <ele>175.436295</ele>
        <time>2020-06-28T08:55:53Z</time>
      </trkpt>
      <trkpt lat="43.68633" lon="3.75084">
        <ele>175.917358</ele>
        <time>2020-06-28T08:55:55Z</time>
      </trkpt>
      <trkpt lat="43.6863" lon="3.75088">
        <ele>176.172363</ele>
        <time>2020-06-28T08:55:57Z</time>
      </trkpt>
      <trkpt lat="43.68627" lon="3.75092">
        <ele>176.448074</ele>
        <time>2020-06-28T08:55:59Z</time>
      </trkpt>
      <trkpt lat="43.68625" lon="3.75095">
        <ele>177.19014</ele>
        <time>2020-06-28T08:56:01Z</time>
      </trkpt>
      <trkpt lat="43.68624" lon="3.75099">
        <ele>178.084213</ele>
        <time>2020-06-28T08:56:03Z</time>
      </trkpt>
      <trkpt lat="43.68623" lon="3.75103">
        <ele>178.956467</ele>
        <time>2020-06-28T08:56:05Z</time>
      </trkpt>
      <trkpt lat="43.68623" lon="3.75108">
        <ele>179.699661</ele>
        <time>2020-06-28T08:56:07Z</time>
      </trkpt>
      <trkpt lat="43.68624" lon="3.75112">
        <ele>179.998856</ele>
        <time>2020-06-28T08:56:09Z</time>
      </trkpt>
      <trkpt lat="43.68626" lon="3.75115">
        <ele>180.559006</ele>
        <time>2020-06-28T08:56:11Z</time>
      </trkpt>
      <trkpt lat="43.68628" lon="3.75117">
        <ele>181.03479</ele>
        <time>2020-06-28T08:56:13Z</time>
      </trkpt>
      <trkpt lat="43.6863" lon="3.75118">
        <ele>181.228745</ele>
        <time>2020-06-28T08:56:15Z</time>
      </trkpt>
      <trkpt lat="43.68633" lon="3.75119">
        <ele>181.228745</ele>
        <time>2020-06-28T08:56:17Z</time>
      </trkpt>
      <trkpt lat="43.68636" lon="3.75119">
        <ele>181.148254</ele>
        <time>2020-06-28T08:56:19Z</time>
      </trkpt>
      <trkpt lat="43.68639" lon="3.75119">
        <ele>181.015915</ele>
        <time>2020-06-28T08:56:21Z</time>
      </trkpt>
      <trkpt lat="43.68642" lon="3.7512">
        <ele>180.658615</ele>
        <time>2020-06-28T08:56:23Z</time>
      </trkpt>
      <trkpt lat="43.68645" lon="3.7512">
        <ele>180.127975</ele>
        <time>2020-06-28T08:56:25Z</time>
      </trkpt>
      <trkpt lat="43.68648" lon="3.7512">
        <ele>179.524536</ele>
        <time>2020-06-28T08:56:27Z</time>
      </trkpt>
      <trkpt lat="43.68652" lon="3.7512">
        <ele>178.926376</ele>
        <time>2020-06-28T08:56:29Z</time>
      </trkpt>
      <trkpt lat="43.68654" lon="3.7512">
        <ele>178.512344</ele>
        <time>2020-06-28T08:56:31Z</time>
      </trkpt>
      <trkpt lat="43.68657" lon="3.75121">
        <ele>178.185791</ele>
        <time>2020-06-28T08:56:33Z</time>
      </trkpt>
      <trkpt lat="43.6866" lon="3.75121">
        <ele>177.92804</ele>
        <time>2020-06-28T08:56:35Z</time>
      </trkpt>
      <trkpt lat="43.68663" lon="3.75122">
        <ele>177.674072</ele>
        <time>2020-06-28T08:56:37Z</time>
      </trkpt>
      <trkpt lat="43.68666" lon="3.75122">
        <ele>177.443924</ele>
        <time>2020-06-28T08:56:39Z</time>
      </trkpt>
      <trkpt lat="43.68669" lon="3.75122">
        <ele>177.216309</ele>
        <time>2020-06-28T08:56:41Z</time>
      </trkpt>
      <trkpt lat="43.68672" lon="3.75123">
        <ele>176.9944</ele>
        <time>2020-06-28T08:56:43Z</time>
      </trkpt>
      <trkpt lat="43.68675" lon="3.75123">
        <ele>176.768616</ele>
        <time>2020-06-28T08:56:45Z</time>
      </trkpt>
      <trkpt lat="43.68678" lon="3.75124">
        <ele>176.541824</ele>
        <time>2020-06-28T08:56:47Z</time>
      </trkpt>
      <trkpt lat="43.68681" lon="3.75125">
        <ele>176.314148</ele>
        <time>2020-06-28T08:56:49Z</time>
      </trkpt>
      <trkpt lat="43.68684" lon="3.75126">
        <ele>176.092728</ele>
        <time>2020-06-28T08:56:51Z</time>
      </trkpt>
      <trkpt lat="43.68686" lon="3.75127">
        <ele>175.888367</ele>
        <time>2020-06-28T08:56:53Z</time>
      </trkpt>
      <trkpt lat="43.68689" lon="3.75128">
        <ele>175.712646</ele>
        <time>2020-06-28T08:56:55Z</time>
      </trkpt>
      <trkpt lat="43.68691" lon="3.7513">
        <ele>175.549606</ele>
        <time>2020-06-28T08:56:57Z</time>
      </trkpt>
      <trkpt lat="43.68694" lon="3.7513">
        <ele>175.475281</ele>
        <time>2020-06-28T08:56:59Z</time>
      </trkpt>
      <trkpt lat="43.68695" lon="3.75131">
        <ele>175.408035</ele>
        <time>2020-06-28T08:57:01Z</time>
      </trkpt>
      <trkpt lat="43.68698" lon="3.75132">
        <ele>175.241379</ele>
        <time>2020-06-28T08:57:03Z</time>
      </trkpt>
      <trkpt lat="43.687" lon="3.75134">
        <ele>175.057693</ele>
        <time>2020-06-28T08:57:05Z</time>
      </trkpt>
      <trkpt lat="43.68703" lon="3.75135">
        <ele>174.870682</ele>
        <time>2020-06-28T08:57:07Z</time>
      </trkpt>
      <trkpt lat="43.68705" lon="3.75136">
        <ele>174.716202</ele>
        <time>2020-06-28T08:57:09Z</time>
      </trkpt>
      <trkpt lat="43.68708" lon="3.75137">
        <ele>174.608261</ele>
        <time>2020-06-28T08:57:11Z</time>
      </trkpt>
      <trkpt lat="43.6871" lon="3.75139">
        <ele>174.489746</ele>
        <time>2020-06-28T08:57:13Z</time>
      </trkpt>
      <trkpt lat="43.68713" lon="3.75141">
        <ele>174.356323</ele>
        <time>2020-06-28T08:57:15Z</time>
      </trkpt>
      <trkpt lat="43.68716" lon="3.75142">
        <ele>174.203415</ele>
        <time>2020-06-28T08:57:17Z</time>
      </trkpt>
      <trkpt lat="43.68719" lon="3.75144">
        <ele>174.163406</ele>
        <time>2020-06-28T08:57:19Z</time>
      </trkpt>
      <trkpt lat="43.68722" lon="3.75146">
        <ele>174.163406</ele>
        <time>2020-06-28T08:57:21Z</time>
      </trkpt>
      <trkpt lat="43.68726" lon="3.75149">
        <ele>174.289871</ele>
        <time>2020-06-28T08:57:23Z</time>
      </trkpt>
      <trkpt lat="43.68729" lon="3.75152">
        <ele>174.578613</ele>
        <time>2020-06-28T08:57:25Z</time>
      </trkpt>
      <trkpt lat="43.68734" lon="3.75156">
        <ele>174.926712</ele>
        <time>2020-06-28T08:57:27Z</time>
      </trkpt>
      <trkpt lat="43.6874" lon="3.75161">
        <ele>175.312622</ele>
        <time>2020-06-28T08:57:29Z</time>
      </trkpt>
      <trkpt lat="43.68747" lon="3.75168">
        <ele>175.746658</ele>
        <time>2020-06-28T08:57:31Z</time>
      </trkpt>
      <trkpt lat="43.68753" lon="3.75178">
        <ele>175.989395</ele>
        <time>2020-06-28T08:57:33Z</time>
      </trkpt>
      <trkpt lat="43.68758" lon="3.75187">
        <ele>176.533432</ele>
        <time>2020-06-28T08:57:35Z</time>
      </trkpt>
      <trkpt lat="43.68763" lon="3.75195">
        <ele>177.236099</ele>
        <time>2020-06-28T08:57:37Z</time>
      </trkpt>
      <trkpt lat="43.68767" lon="3.75201">
        <ele>178.241379</ele>
        <time>2020-06-28T08:57:39Z</time>
      </trkpt>
      <trkpt lat="43.68771" lon="3.75208">
        <ele>179.589096</ele>
        <time>2020-06-28T08:57:41Z</time>
      </trkpt>
      <trkpt lat="43.68775" lon="3.75214">
        <ele>181.076065</ele>
        <time>2020-06-28T08:57:43Z</time>
      </trkpt>
      <trkpt lat="43.68779" lon="3.7522">
        <ele>182.525024</ele>
        <time>2020-06-28T08:57:45Z</time>
      </trkpt>
      <trkpt lat="43.68783" lon="3.75224">
        <ele>183.841141</ele>
        <time>2020-06-28T08:57:47Z</time>
      </trkpt>
      <trkpt lat="43.68786" lon="3.75228">
        <ele>185.038101</ele>
        <time>2020-06-28T08:57:49Z</time>
      </trkpt>
      <trkpt lat="43.68789" lon="3.75231">
        <ele>186.070145</ele>
        <time>2020-06-28T08:57:51Z</time>
      </trkpt>
      <trkpt lat="43.68791" lon="3.75235">
        <ele>186.931213</ele>
        <time>2020-06-28T08:57:53Z</time>
      </trkpt>
      <trkpt lat="43.68794" lon="3.75238">
        <ele>187.703247</ele>
        <time>2020-06-28T08:57:55Z</time>
      </trkpt>
      <trkpt lat="43.68797" lon="3.75241">
        <ele>188.419388</ele>
        <time>2020-06-28T08:57:57Z</time>
      </trkpt>
      <trkpt lat="43.688" lon="3.75244">
        <ele>189.090637</ele>
        <time>2020-06-28T08:57:59Z</time>
      </trkpt>
      <trkpt lat="43.68804" lon="3.75248">
        <ele>189.411758</ele>
        <time>2020-06-28T08:58:01Z</time>
      </trkpt>
      <trkpt lat="43.68807" lon="3.75251">
        <ele>190.025467</ele>
        <time>2020-06-28T08:58:03Z</time>
      </trkpt>
      <trkpt lat="43.6881" lon="3.75252">
        <ele>190.372116</ele>
        <time>2020-06-28T08:58:05Z</time>
      </trkpt>
      <trkpt lat="43.68815" lon="3.75254">
        <ele>191.054138</ele>
        <time>2020-06-28T08:58:07Z</time>
      </trkpt>
      <trkpt lat="43.68819" lon="3.75257">
        <ele>191.683884</ele>
        <time>2020-06-28T08:58:09Z</time>
      </trkpt>
      <trkpt lat="43.68822" lon="3.75259">
        <ele>192.193527</ele>
        <time>2020-06-28T08:58:11Z</time>
      </trkpt>
      <trkpt lat="43.68825" lon="3.75262">
        <ele>192.640549</ele>
        <time>2020-06-28T08:58:13Z</time>
      </trkpt>
      <trkpt lat="43.68828" lon="3.75265">
        <ele>193.128784</ele>
        <time>2020-06-28T08:58:15Z</time>
      </trkpt>
      <trkpt lat="43.68831" lon="3.75267">
        <ele>193.662415</ele>
        <time>2020-06-28T08:58:17Z</time>
      </trkpt>
      <trkpt lat="43.68833" lon="3.75269">
        <ele>194.156616</ele>
        <time>2020-06-28T08:58:19Z</time>
      </trkpt>
      <trkpt lat="43.68836" lon="3.75271">
        <ele>194.557434</ele>
        <time>2020-06-28T08:58:21Z</time>
      </trkpt>
      <trkpt lat="43.68839" lon="3.75273">
        <ele>194.906677</ele>
        <time>2020-06-28T08:58:23Z</time>
      </trkpt>
      <trkpt lat="43.68842" lon="3.75276">
        <ele>195.234451</ele>
        <time>2020-06-28T08:58:25Z</time>
      </trkpt>
      <trkpt lat="43.68844" lon="3.75279">
        <ele>195.569199</ele>
        <time>2020-06-28T08:58:27Z</time>
      </trkpt>
      <trkpt lat="43.68847" lon="3.75282">
        <ele>195.906723</ele>
        <time>2020-06-28T08:58:29Z</time>
      </trkpt>
      <trkpt lat="43.68849" lon="3.75286">
        <ele>196.303604</ele>
        <time>2020-06-28T08:58:31Z</time>
      </trkpt>
      <trkpt lat="43.68852" lon="3.75289">
        <ele>196.730164</ele>
        <time>2020-06-28T08:58:33Z</time>
      </trkpt>
      <trkpt lat="43.68855" lon="3.75292">
        <ele>197.183762</ele>
        <time>2020-06-28T08:58:35Z</time>
      </trkpt>
      <trkpt lat="43.68857" lon="3.75295">
        <ele>197.639236</ele>
        <time>2020-06-28T08:58:37Z</time>
      </trkpt>
      <trkpt lat="43.6886" lon="3.75298">
        <ele>198.109024</ele>
        <time>2020-06-28T08:58:39Z</time>
      </trkpt>
      <trkpt lat="43.68862" lon="3.75301">
        <ele>198.592117</ele>
        <time>2020-06-28T08:58:41Z</time>
      </trkpt>
      <trkpt lat="43.68864" lon="3.75305">
        <ele>199.061722</ele>
        <time>2020-06-28T08:58:43Z</time>
      </trkpt>
      <trkpt lat="43.68867" lon="3.75309">
        <ele>199.539978</ele>
        <time>2020-06-28T08:58:45Z</time>
      </trkpt>
      <trkpt lat="43.6887" lon="3.75312">
        <ele>199.784302</ele>
        <time>2020-06-28T08:58:47Z</time>
      </trkpt>
      <trkpt lat="43.68873" lon="3.75316">
        <ele>200.277527</ele>
        <time>2020-06-28T08:58:49Z</time>
      </trkpt>
      <trkpt lat="43.68875" lon="3.7532">
        <ele>200.837952</ele>
        <time>2020-06-28T08:58:51Z</time>
      </trkpt>
      <trkpt lat="43.68878" lon="3.75324">
        <ele>201.375549</ele>
        <time>2020-06-28T08:58:53Z</time>
      </trkpt>
      <trkpt lat="43.68881" lon="3.75328">
        <ele>201.898148</ele>
        <time>2020-06-28T08:58:55Z</time>
      </trkpt>
      <trkpt lat="43.68884" lon="3.75332">
        <ele>202.36055</ele>
        <time>2020-06-28T08:58:57Z</time>
      </trkpt>
      <trkpt lat="43.68888" lon="3.75336">
        <ele>202.834763</ele>
        <time>2020-06-28T08:58:59Z</time>
      </trkpt>
      <trkpt lat="43.68892" lon="3.7534">
        <ele>203.28746</ele>
        <time>2020-06-28T08:59:01Z</time>
      </trkpt>
      <trkpt lat="43.68899" lon="3.75344">
        <ele>203.496719</ele>
        <time>2020-06-28T08:59:03Z</time>
      </trkpt>
      <trkpt lat="43.68907" lon="3.75347">
        <ele>203.687607</ele>
        <time>2020-06-28T08:59:05Z</time>
      </trkpt>
      <trkpt lat="43.68914" lon="3.75349">
        <ele>203.869766</ele>
        <time>2020-06-28T08:59:07Z</time>
      </trkpt>
      <trkpt lat="43.68921" lon="3.7535">
        <ele>203.869766</ele>
        <time>2020-06-28T08:59:09Z</time>
      </trkpt>
      <trkpt lat="43.68926" lon="3.75351">
        <ele>203.756302</ele>
        <time>2020-06-28T08:59:11Z</time>
      </trkpt>
      <trkpt lat="43.68932" lon="3.75354">
        <ele>203.42012</ele>
        <time>2020-06-28T08:59:13Z</time>
      </trkpt>
      <trkpt lat="43.68936" lon="3.75359">
        <ele>203.080185</ele>
        <time>2020-06-28T08:59:15Z</time>
      </trkpt>
      <trkpt lat="43.68939" lon="3.75364">
        <ele>202.869034</ele>
        <time>2020-06-28T08:59:17Z</time>
      </trkpt>
      <trkpt lat="43.68943" lon="3.75369">
        <ele>202.760361</ele>
        <time>2020-06-28T08:59:19Z</time>
      </trkpt>
      <trkpt lat="43.68946" lon="3.75373">
        <ele>202.71373</ele>
        <time>2020-06-28T08:59:21Z</time>
      </trkpt>
      <trkpt lat="43.68949" lon="3.75377">
        <ele>202.673172</ele>
        <time>2020-06-28T08:59:23Z</time>
      </trkpt>
      <trkpt lat="43.68952" lon="3.75382">
        <ele>202.583923</ele>
        <time>2020-06-28T08:59:25Z</time>
      </trkpt>
      <trkpt lat="43.68956" lon="3.75386">
        <ele>202.430115</ele>
        <time>2020-06-28T08:59:27Z</time>
      </trkpt>
      <trkpt lat="43.68958" lon="3.7539">
        <ele>202.214905</ele>
        <time>2020-06-28T08:59:29Z</time>
      </trkpt>
      <trkpt lat="43.68962" lon="3.75394">
        <ele>201.968826</ele>
        <time>2020-06-28T08:59:31Z</time>
      </trkpt>
      <trkpt lat="43.68965" lon="3.75399">
        <ele>201.721634</ele>
        <time>2020-06-28T08:59:33Z</time>
      </trkpt>
      <trkpt lat="43.68969" lon="3.75403">
        <ele>201.614761</ele>
        <time>2020-06-28T08:59:35Z</time>
      </trkpt>
      <trkpt lat="43.68972" lon="3.75408">
        <ele>201.411545</ele>
        <time>2020-06-28T08:59:37Z</time>
      </trkpt>
      <trkpt lat="43.68975" lon="3.75412">
        <ele>201.208878</ele>
        <time>2020-06-28T08:59:39Z</time>
      </trkpt>
      <trkpt lat="43.68979" lon="3.75416">
        <ele>200.988953</ele>
        <time>2020-06-28T08:59:41Z</time>
      </trkpt>
      <trkpt lat="43.68982" lon="3.75419">
        <ele>200.739563</ele>
        <time>2020-06-28T08:59:43Z</time>
      </trkpt>
      <trkpt lat="43.68986" lon="3.75423">
        <ele>200.466507</ele>
        <time>2020-06-28T08:59:45Z</time>
      </trkpt>
      <trkpt lat="43.68989" lon="3.75427">
        <ele>200.114746</ele>
        <time>2020-06-28T08:59:47Z</time>
      </trkpt>
      <trkpt lat="43.68992" lon="3.7543">
        <ele>199.724899</ele>
        <time>2020-06-28T08:59:49Z</time>
      </trkpt>
      <trkpt lat="43.68995" lon="3.75435">
        <ele>199.494263</ele>
        <time>2020-06-28T08:59:51Z</time>
      </trkpt>
      <trkpt lat="43.68998" lon="3.7544">
        <ele>199.462143</ele>
        <time>2020-06-28T08:59:53Z</time>
      </trkpt>
      <trkpt lat="43.69001" lon="3.75445">
        <ele>199.493896</ele>
        <time>2020-06-28T08:59:55Z</time>
      </trkpt>
      <trkpt lat="43.69003" lon="3.75449">
        <ele>199.700073</ele>
        <time>2020-06-28T08:59:57Z</time>
      </trkpt>
      <trkpt lat="43.69006" lon="3.75453">
        <ele>199.816452</ele>
        <time>2020-06-28T08:59:59Z</time>
      </trkpt>
      <trkpt lat="43.69008" lon="3.75458">
        <ele>200.030594</ele>
        <time>2020-06-28T09:00:01Z</time>
      </trkpt>
      <trkpt lat="43.69011" lon="3.75462">
        <ele>200.142868</ele>
        <time>2020-06-28T09:00:03Z</time>
      </trkpt>
      <trkpt lat="43.69014" lon="3.75466">
        <ele>200.351196</ele>
        <time>2020-06-28T09:00:05Z</time>
      </trkpt>
      <trkpt lat="43.69017" lon="3.75469">
        <ele>200.877029</ele>
        <time>2020-06-28T09:00:07Z</time>
      </trkpt>
      <trkpt lat="43.69019" lon="3.75472">
        <ele>201.607742</ele>
        <time>2020-06-28T09:00:09Z</time>
      </trkpt>
      <trkpt lat="43.69022" lon="3.75475">
        <ele>202.04863</ele>
        <time>2020-06-28T09:00:11Z</time>
      </trkpt>
      <trkpt lat="43.69025" lon="3.75479">
        <ele>202.978516</ele>
        <time>2020-06-28T09:00:13Z</time>
      </trkpt>
      <trkpt lat="43.69029" lon="3.75481">
        <ele>203.798752</ele>
        <time>2020-06-28T09:00:15Z</time>
      </trkpt>
      <trkpt lat="43.69033" lon="3.75484">
        <ele>204.579819</ele>
        <time>2020-06-28T09:00:17Z</time>
      </trkpt>
      <trkpt lat="43.69037" lon="3.75485">
        <ele>205.215988</ele>
        <time>2020-06-28T09:00:19Z</time>
      </trkpt>
      <trkpt lat="43.69041" lon="3.75486">
        <ele>205.724319</ele>
        <time>2020-06-28T09:00:21Z</time>
      </trkpt>
      <trkpt lat="43.69045" lon="3.75487">
        <ele>206.093185</ele>
        <time>2020-06-28T09:00:23Z</time>
      </trkpt>
      <trkpt lat="43.6905" lon="3.75487">
        <ele>206.36792</ele>
        <time>2020-06-28T09:00:25Z</time>
      </trkpt>
      <trkpt lat="43.69054" lon="3.75487">
        <ele>206.542404</ele>
        <time>2020-06-28T09:00:27Z</time>
      </trkpt>
      <trkpt lat="43.69058" lon="3.75486">
        <ele>206.58342</ele>
        <time>2020-06-28T09:00:29Z</time>
      </trkpt>
      <trkpt lat="43.69063" lon="3.75485">
        <ele>206.662338</ele>
        <time>2020-06-28T09:00:31Z</time>
      </trkpt>
      <trkpt lat="43.69066" lon="3.75483">
        <ele>206.714798</ele>
        <time>2020-06-28T09:00:33Z</time>
      </trkpt>
      <trkpt lat="43.6907" lon="3.75481">
        <ele>206.758194</ele>
        <time>2020-06-28T09:00:35Z</time>
      </trkpt>
      <trkpt lat="43.69074" lon="3.75479">
        <ele>206.789413</ele>
        <time>2020-06-28T09:00:37Z</time>
      </trkpt>
      <trkpt lat="43.69078" lon="3.75477">
        <ele>206.804276</ele>
        <time>2020-06-28T09:00:39Z</time>
      </trkpt>
      <trkpt lat="43.69082" lon="3.75476">
        <ele>206.816055</ele>
        <time>2020-06-28T09:00:41Z</time>
      </trkpt>
      <trkpt lat="43.69087" lon="3.75474">
        <ele>206.830399</ele>
        <time>2020-06-28T09:00:43Z</time>
      </trkpt>
      <trkpt lat="43.69091" lon="3.75473">
        <ele>206.882797</ele>
        <time>2020-06-28T09:00:45Z</time>
      </trkpt>
      <trkpt lat="43.69096" lon="3.75472">
        <ele>206.996338</ele>
        <time>2020-06-28T09:00:47Z</time>
      </trkpt>
      <trkpt lat="43.69099" lon="3.75473">
        <ele>207.199509</ele>
        <time>2020-06-28T09:00:49Z</time>
      </trkpt>
      <trkpt lat="43.69104" lon="3.75473">
        <ele>207.477005</ele>
        <time>2020-06-28T09:00:51Z</time>
      </trkpt>
      <trkpt lat="43.69108" lon="3.75475">
        <ele>207.819946</ele>
        <time>2020-06-28T09:00:53Z</time>
      </trkpt>
      <trkpt lat="43.69112" lon="3.75475">
        <ele>208.214111</ele>
        <time>2020-06-28T09:00:55Z</time>
      </trkpt>
      <trkpt lat="43.69116" lon="3.75477">
        <ele>208.652542</ele>
        <time>2020-06-28T09:00:57Z</time>
      </trkpt>
      <trkpt lat="43.6912" lon="3.75478">
        <ele>209.103394</ele>
        <time>2020-06-28T09:00:59Z</time>
      </trkpt>
      <trkpt lat="43.69123" lon="3.7548">
        <ele>209.547897</ele>
        <time>2020-06-28T09:01:01Z</time>
      </trkpt>
      <trkpt lat="43.69127" lon="3.75481">
        <ele>209.983948</ele>
        <time>2020-06-28T09:01:03Z</time>
      </trkpt>
      <trkpt lat="43.6913" lon="3.75482">
        <ele>210.201981</ele>
        <time>2020-06-28T09:01:05Z</time>
      </trkpt>
      <trkpt lat="43.69134" lon="3.75482">
        <ele>210.4142</ele>
        <time>2020-06-28T09:01:07Z</time>
      </trkpt>
      <trkpt lat="43.69137" lon="3.75483">
        <ele>210.899277</ele>
        <time>2020-06-28T09:01:09Z</time>
      </trkpt>
      <trkpt lat="43.6914" lon="3.75483">
        <ele>211.42688</ele>
        <time>2020-06-28T09:01:11Z</time>
      </trkpt>
      <trkpt lat="43.69143" lon="3.75483">
        <ele>211.918076</ele>
        <time>2020-06-28T09:01:13Z</time>
      </trkpt>
      <trkpt lat="43.69146" lon="3.75483">
        <ele>212.305176</ele>
        <time>2020-06-28T09:01:15Z</time>
      </trkpt>
      <trkpt lat="43.69149" lon="3.75483">
        <ele>212.588425</ele>
        <time>2020-06-28T09:01:17Z</time>
      </trkpt>
      <trkpt lat="43.69152" lon="3.75483">
        <ele>212.844833</ele>
        <time>2020-06-28T09:01:19Z</time>
      </trkpt>
      <trkpt lat="43.69155" lon="3.75483">
        <ele>213.097458</ele>
        <time>2020-06-28T09:01:21Z</time>
      </trkpt>
      <trkpt lat="43.69158" lon="3.75483">
        <ele>213.355148</ele>
        <time>2020-06-28T09:01:23Z</time>
      </trkpt>
      <trkpt lat="43.69159" lon="3.75483">
        <ele>213.627365</ele>
        <time>2020-06-28T09:01:25Z</time>
      </trkpt>
      <trkpt lat="43.69162" lon="3.75483">
        <ele>214.099625</ele>
        <time>2020-06-28T09:01:27Z</time>
      </trkpt>
      <trkpt lat="43.69165" lon="3.75483">
        <ele>214.17749</ele>
        <time>2020-06-28T09:01:31Z</time>
      </trkpt>
      <trkpt lat="43.69168" lon="3.75482">
        <ele>214.314713</ele>
        <time>2020-06-28T09:01:33Z</time>
      </trkpt>
      <trkpt lat="43.69172" lon="3.75482">
        <ele>214.509811</ele>
        <time>2020-06-28T09:01:35Z</time>
      </trkpt>
      <trkpt lat="43.69174" lon="3.75482">
        <ele>214.773636</ele>
        <time>2020-06-28T09:01:37Z</time>
      </trkpt>
      <trkpt lat="43.69178" lon="3.75483">
        <ele>215.08136</ele>
        <time>2020-06-28T09:01:39Z</time>
      </trkpt>
      <trkpt lat="43.69181" lon="3.75483">
        <ele>215.369263</ele>
        <time>2020-06-28T09:01:41Z</time>
      </trkpt>
      <trkpt lat="43.69184" lon="3.75484">
        <ele>215.671341</ele>
        <time>2020-06-28T09:01:43Z</time>
      </trkpt>
      <trkpt lat="43.69187" lon="3.75485">
        <ele>215.978073</ele>
        <time>2020-06-28T09:01:45Z</time>
      </trkpt>
      <trkpt lat="43.6919" lon="3.75487">
        <ele>216.285522</ele>
        <time>2020-06-28T09:01:47Z</time>
      </trkpt>
      <trkpt lat="43.69194" lon="3.75489">
        <ele>216.594162</ele>
        <time>2020-06-28T09:01:49Z</time>
      </trkpt>
      <trkpt lat="43.69196" lon="3.7549">
        <ele>216.898056</ele>
        <time>2020-06-28T09:01:51Z</time>
      </trkpt>
      <trkpt lat="43.69199" lon="3.75491">
        <ele>217.188309</ele>
        <time>2020-06-28T09:01:53Z</time>
      </trkpt>
      <trkpt lat="43.69202" lon="3.75492">
        <ele>217.455368</ele>
        <time>2020-06-28T09:01:55Z</time>
      </trkpt>
      <trkpt lat="43.69205" lon="3.75493">
        <ele>217.583939</ele>
        <time>2020-06-28T09:01:57Z</time>
      </trkpt>
      <trkpt lat="43.69208" lon="3.75493">
        <ele>217.831345</ele>
        <time>2020-06-28T09:01:59Z</time>
      </trkpt>
      <trkpt lat="43.6921" lon="3.75494">
        <ele>218.120132</ele>
        <time>2020-06-28T09:02:01Z</time>
      </trkpt>
      <trkpt lat="43.69213" lon="3.75495">
        <ele>218.396805</ele>
        <time>2020-06-28T09:02:03Z</time>
      </trkpt>
      <trkpt lat="43.69215" lon="3.75497">
        <ele>218.652649</ele>
        <time>2020-06-28T09:02:05Z</time>
      </trkpt>
      <trkpt lat="43.69218" lon="3.75498">
        <ele>218.756546</ele>
        <time>2020-06-28T09:02:07Z</time>
      </trkpt>
      <trkpt lat="43.6922" lon="3.755">
        <ele>218.960571</ele>
        <time>2020-06-28T09:02:09Z</time>
      </trkpt>
      <trkpt lat="43.69223" lon="3.75501">
        <ele>219.197189</ele>
        <time>2020-06-28T09:02:11Z</time>
      </trkpt>
      <trkpt lat="43.69226" lon="3.75504">
        <ele>219.431046</ele>
        <time>2020-06-28T09:02:13Z</time>
      </trkpt>
      <trkpt lat="43.69228" lon="3.75506">
        <ele>219.659012</ele>
        <time>2020-06-28T09:02:15Z</time>
      </trkpt>
      <trkpt lat="43.69231" lon="3.75508">
        <ele>219.84491</ele>
        <time>2020-06-28T09:02:17Z</time>
      </trkpt>
      <trkpt lat="43.69233" lon="3.75511">
        <ele>219.937134</ele>
        <time>2020-06-28T09:02:19Z</time>
      </trkpt>
      <trkpt lat="43.69236" lon="3.75513">
        <ele>220.118179</ele>
        <time>2020-06-28T09:02:21Z</time>
      </trkpt>
      <trkpt lat="43.69239" lon="3.75515">
        <ele>220.298706</ele>
        <time>2020-06-28T09:02:23Z</time>
      </trkpt>
      <trkpt lat="43.69241" lon="3.75516">
        <ele>220.471634</ele>
        <time>2020-06-28T09:02:25Z</time>
      </trkpt>
      <trkpt lat="43.69244" lon="3.75518">
        <ele>220.636673</ele>
        <time>2020-06-28T09:02:27Z</time>
      </trkpt>
      <trkpt lat="43.69247" lon="3.7552">
        <ele>220.793091</ele>
        <time>2020-06-28T09:02:29Z</time>
      </trkpt>
      <trkpt lat="43.69249" lon="3.75523">
        <ele>220.94603</ele>
        <time>2020-06-28T09:02:31Z</time>
      </trkpt>
      <trkpt lat="43.69251" lon="3.75525">
        <ele>221.086243</ele>
        <time>2020-06-28T09:02:33Z</time>
      </trkpt>
      <trkpt lat="43.69252" lon="3.75528">
        <ele>221.204178</ele>
        <time>2020-06-28T09:02:35Z</time>
      </trkpt>
      <trkpt lat="43.69255" lon="3.7553">
        <ele>221.297668</ele>
        <time>2020-06-28T09:02:37Z</time>
      </trkpt>
      <trkpt lat="43.69256" lon="3.75533">
        <ele>221.378845</ele>
        <time>2020-06-28T09:02:39Z</time>
      </trkpt>
      <trkpt lat="43.69258" lon="3.75536">
        <ele>221.47229</ele>
        <time>2020-06-28T09:02:41Z</time>
      </trkpt>
      <trkpt lat="43.69259" lon="3.75538">
        <ele>221.579224</ele>
        <time>2020-06-28T09:02:43Z</time>
      </trkpt>
      <trkpt lat="43.69261" lon="3.75542">
        <ele>221.687363</ele>
        <time>2020-06-28T09:02:45Z</time>
      </trkpt>
      <trkpt lat="43.69262" lon="3.75545">
        <ele>221.778458</ele>
        <time>2020-06-28T09:02:47Z</time>
      </trkpt>
      <trkpt lat="43.69264" lon="3.75548">
        <ele>221.858337</ele>
        <time>2020-06-28T09:02:49Z</time>
      </trkpt>
      <trkpt lat="43.69268" lon="3.75565">
        <ele>222.1875</ele>
        <time>2020-06-28T09:03:53Z</time>
      </trkpt>
      <trkpt lat="43.6927" lon="3.7557">
        <ele>222.241531</ele>
        <time>2020-06-28T09:03:57Z</time>
      </trkpt>
      <trkpt lat="43.6927" lon="3.75575">
        <ele>222.308914</ele>
        <time>2020-06-28T09:03:59Z</time>
      </trkpt>
      <trkpt lat="43.69272" lon="3.7558">
        <ele>222.365891</ele>
        <time>2020-06-28T09:04:01Z</time>
      </trkpt>
      <trkpt lat="43.69273" lon="3.75584">
        <ele>222.420898</ele>
        <time>2020-06-28T09:04:03Z</time>
      </trkpt>
      <trkpt lat="43.69275" lon="3.75588">
        <ele>222.479813</ele>
        <time>2020-06-28T09:04:05Z</time>
      </trkpt>
      <trkpt lat="43.69278" lon="3.75592">
        <ele>222.558594</ele>
        <time>2020-06-28T09:04:07Z</time>
      </trkpt>
      <trkpt lat="43.69279" lon="3.75596">
        <ele>222.604813</ele>
        <time>2020-06-28T09:04:09Z</time>
      </trkpt>
      <trkpt lat="43.69282" lon="3.756">
        <ele>222.71843</ele>
        <time>2020-06-28T09:04:11Z</time>
      </trkpt>
      <trkpt lat="43.69284" lon="3.75604">
        <ele>222.936707</ele>
        <time>2020-06-28T09:04:13Z</time>
      </trkpt>
      <trkpt lat="43.69286" lon="3.75607">
        <ele>223.318008</ele>
        <time>2020-06-28T09:04:15Z</time>
      </trkpt>
      <trkpt lat="43.69288" lon="3.75611">
        <ele>223.818161</ele>
        <time>2020-06-28T09:04:17Z</time>
      </trkpt>
      <trkpt lat="43.69289" lon="3.75615">
        <ele>224.345169</ele>
        <time>2020-06-28T09:04:19Z</time>
      </trkpt>
      <trkpt lat="43.6929" lon="3.7562">
        <ele>224.856003</ele>
        <time>2020-06-28T09:04:21Z</time>
      </trkpt>
      <trkpt lat="43.6929" lon="3.75624">
        <ele>225.373474</ele>
        <time>2020-06-28T09:04:23Z</time>
      </trkpt>
      <trkpt lat="43.69291" lon="3.75628">
        <ele>225.892288</ele>
        <time>2020-06-28T09:04:25Z</time>
      </trkpt>
      <trkpt lat="43.69291" lon="3.75632">
        <ele>226.386719</ele>
        <time>2020-06-28T09:04:27Z</time>
      </trkpt>
      <trkpt lat="43.6929" lon="3.75637">
        <ele>226.876221</ele>
        <time>2020-06-28T09:04:29Z</time>
      </trkpt>
      <trkpt lat="43.6929" lon="3.75642">
        <ele>227.368973</ele>
        <time>2020-06-28T09:04:31Z</time>
      </trkpt>
      <trkpt lat="43.69289" lon="3.75646">
        <ele>227.87323</ele>
        <time>2020-06-28T09:04:33Z</time>
      </trkpt>
      <trkpt lat="43.69289" lon="3.7565">
        <ele>228.378586</ele>
        <time>2020-06-28T09:04:35Z</time>
      </trkpt>
      <trkpt lat="43.69289" lon="3.75655">
        <ele>228.863388</ele>
        <time>2020-06-28T09:04:37Z</time>
      </trkpt>
      <trkpt lat="43.69288" lon="3.7566">
        <ele>229.333923</ele>
        <time>2020-06-28T09:04:39Z</time>
      </trkpt>
      <trkpt lat="43.69287" lon="3.75665">
        <ele>229.570374</ele>
        <time>2020-06-28T09:04:41Z</time>
      </trkpt>
      <trkpt lat="43.69286" lon="3.7567">
        <ele>230.094421</ele>
        <time>2020-06-28T09:04:43Z</time>
      </trkpt>
      <trkpt lat="43.69286" lon="3.75674">
        <ele>230.684265</ele>
        <time>2020-06-28T09:04:45Z</time>
      </trkpt>
      <trkpt lat="43.69286" lon="3.75679">
        <ele>231.288147</ele>
        <time>2020-06-28T09:04:47Z</time>
      </trkpt>
      <trkpt lat="43.69286" lon="3.75684">
        <ele>231.853455</ele>
        <time>2020-06-28T09:04:49Z</time>
      </trkpt>
      <trkpt lat="43.69286" lon="3.75689">
        <ele>232.401505</ele>
        <time>2020-06-28T09:04:51Z</time>
      </trkpt>
      <trkpt lat="43.69286" lon="3.75693">
        <ele>232.978775</ele>
        <time>2020-06-28T09:04:53Z</time>
      </trkpt>
      <trkpt lat="43.69286" lon="3.75698">
        <ele>233.567444</ele>
        <time>2020-06-28T09:04:55Z</time>
      </trkpt>
      <trkpt lat="43.69287" lon="3.75702">
        <ele>234.151749</ele>
        <time>2020-06-28T09:04:57Z</time>
      </trkpt>
      <trkpt lat="43.69288" lon="3.75706">
        <ele>234.718307</ele>
        <time>2020-06-28T09:04:59Z</time>
      </trkpt>
      <trkpt lat="43.69288" lon="3.75711">
        <ele>235.265762</ele>
        <time>2020-06-28T09:05:01Z</time>
      </trkpt>
      <trkpt lat="43.69289" lon="3.75715">
        <ele>235.53064</ele>
        <time>2020-06-28T09:05:03Z</time>
      </trkpt>
      <trkpt lat="43.6929" lon="3.7572">
        <ele>236.057144</ele>
        <time>2020-06-28T09:05:05Z</time>
      </trkpt>
      <trkpt lat="43.69291" lon="3.75724">
        <ele>236.376663</ele>
        <time>2020-06-28T09:05:07Z</time>
      </trkpt>
      <trkpt lat="43.69292" lon="3.75728">
        <ele>236.701889</ele>
        <time>2020-06-28T09:05:09Z</time>
      </trkpt>
      <trkpt lat="43.69293" lon="3.75733">
        <ele>237.402512</ele>
        <time>2020-06-28T09:05:11Z</time>
      </trkpt>
      <trkpt lat="43.69295" lon="3.75737">
        <ele>238.222244</ele>
        <time>2020-06-28T09:05:13Z</time>
      </trkpt>
      <trkpt lat="43.69296" lon="3.75742">
        <ele>238.900574</ele>
        <time>2020-06-28T09:05:15Z</time>
      </trkpt>
      <trkpt lat="43.69297" lon="3.75746">
        <ele>239.457138</ele>
        <time>2020-06-28T09:05:17Z</time>
      </trkpt>
      <trkpt lat="43.69298" lon="3.75751">
        <ele>239.805984</ele>
        <time>2020-06-28T09:05:19Z</time>
      </trkpt>
      <trkpt lat="43.69299" lon="3.75756">
        <ele>240.095047</ele>
        <time>2020-06-28T09:05:21Z</time>
      </trkpt>
      <trkpt lat="43.69299" lon="3.75761">
        <ele>240.375076</ele>
        <time>2020-06-28T09:05:23Z</time>
      </trkpt>
      <trkpt lat="43.69299" lon="3.75766">
        <ele>240.657104</ele>
        <time>2020-06-28T09:05:25Z</time>
      </trkpt>
      <trkpt lat="43.69299" lon="3.75771">
        <ele>240.945633</ele>
        <time>2020-06-28T09:05:27Z</time>
      </trkpt>
      <trkpt lat="43.693" lon="3.75776">
        <ele>241.237488</ele>
        <time>2020-06-28T09:05:29Z</time>
      </trkpt>
      <trkpt lat="43.69301" lon="3.75781">
        <ele>241.526352</ele>
        <time>2020-06-28T09:05:31Z</time>
      </trkpt>
      <trkpt lat="43.69301" lon="3.75786">
        <ele>241.8022</ele>
        <time>2020-06-28T09:05:33Z</time>
      </trkpt>
      <trkpt lat="43.69302" lon="3.75791">
        <ele>242.082458</ele>
        <time>2020-06-28T09:05:35Z</time>
      </trkpt>
      <trkpt lat="43.69304" lon="3.75796">
        <ele>242.363785</ele>
        <time>2020-06-28T09:05:37Z</time>
      </trkpt>
      <trkpt lat="43.69306" lon="3.758">
        <ele>242.503983</ele>
        <time>2020-06-28T09:05:39Z</time>
      </trkpt>
      <trkpt lat="43.69309" lon="3.75805">
        <ele>242.920715</ele>
        <time>2020-06-28T09:05:41Z</time>
      </trkpt>
      <trkpt lat="43.69311" lon="3.75809">
        <ele>242.920715</ele>
        <time>2020-06-28T09:05:43Z</time>
      </trkpt>
      <trkpt lat="43.69313" lon="3.75814">
        <ele>243.05986</ele>
        <time>2020-06-28T09:05:45Z</time>
      </trkpt>
      <trkpt lat="43.69315" lon="3.75818">
        <ele>243.32634</ele>
        <time>2020-06-28T09:05:47Z</time>
      </trkpt>
      <trkpt lat="43.69317" lon="3.75822">
        <ele>243.646072</ele>
        <time>2020-06-28T09:05:49Z</time>
      </trkpt>
      <trkpt lat="43.6932" lon="3.75826">
        <ele>243.913681</ele>
        <time>2020-06-28T09:05:51Z</time>
      </trkpt>
      <trkpt lat="43.69321" lon="3.7583">
        <ele>244.057129</ele>
        <time>2020-06-28T09:05:53Z</time>
      </trkpt>
      <trkpt lat="43.69323" lon="3.75835">
        <ele>244.238327</ele>
        <time>2020-06-28T09:05:55Z</time>
      </trkpt>
      <trkpt lat="43.69325" lon="3.7584">
        <ele>244.424484</ele>
        <time>2020-06-28T09:05:57Z</time>
      </trkpt>
      <trkpt lat="43.69327" lon="3.75844">
        <ele>244.613602</ele>
        <time>2020-06-28T09:05:59Z</time>
      </trkpt>
      <trkpt lat="43.6933" lon="3.75848">
        <ele>244.798889</ele>
        <time>2020-06-28T09:06:01Z</time>
      </trkpt>
      <trkpt lat="43.69331" lon="3.75852">
        <ele>244.943863</ele>
        <time>2020-06-28T09:06:03Z</time>
      </trkpt>
      <trkpt lat="43.69333" lon="3.75856">
        <ele>245.061539</ele>
        <time>2020-06-28T09:06:05Z</time>
      </trkpt>
      <trkpt lat="43.69335" lon="3.7586">
        <ele>245.115219</ele>
        <time>2020-06-28T09:06:07Z</time>
      </trkpt>
      <trkpt lat="43.69334" lon="3.75861">
        <ele>245.170151</ele>
        <time>2020-06-28T09:06:09Z</time>
      </trkpt>
      <trkpt lat="43.69323" lon="3.7586">
        <ele>245.793137</ele>
        <time>2020-06-28T09:10:23Z</time>
      </trkpt>
      <trkpt lat="43.6932" lon="3.75858">
        <ele>245.845016</ele>
        <time>2020-06-28T09:10:27Z</time>
      </trkpt>
      <trkpt lat="43.69317" lon="3.75857">
        <ele>245.915939</ele>
        <time>2020-06-28T09:10:29Z</time>
      </trkpt>
      <trkpt lat="43.69313" lon="3.75856">
        <ele>246.009109</ele>
        <time>2020-06-28T09:10:31Z</time>
      </trkpt>
      <trkpt lat="43.6931" lon="3.75854">
        <ele>246.091507</ele>
        <time>2020-06-28T09:10:33Z</time>
      </trkpt>
      <trkpt lat="43.69307" lon="3.75853">
        <ele>246.182968</ele>
        <time>2020-06-28T09:10:35Z</time>
      </trkpt>
      <trkpt lat="43.69302" lon="3.75852">
        <ele>246.27887</ele>
        <time>2020-06-28T09:10:37Z</time>
      </trkpt>
      <trkpt lat="43.69299" lon="3.75851">
        <ele>246.378067</ele>
        <time>2020-06-28T09:10:39Z</time>
      </trkpt>
      <trkpt lat="43.69295" lon="3.7585">
        <ele>246.486313</ele>
        <time>2020-06-28T09:10:41Z</time>
      </trkpt>
      <trkpt lat="43.69291" lon="3.75849">
        <ele>246.541031</ele>
        <time>2020-06-28T09:10:43Z</time>
      </trkpt>
      <trkpt lat="43.69288" lon="3.75848">
        <ele>246.658508</ele>
        <time>2020-06-28T09:10:45Z</time>
      </trkpt>
      <trkpt lat="43.69285" lon="3.75848">
        <ele>246.788589</ele>
        <time>2020-06-28T09:10:47Z</time>
      </trkpt>
      <trkpt lat="43.69282" lon="3.75847">
        <ele>246.903641</ele>
        <time>2020-06-28T09:10:49Z</time>
      </trkpt>
      <trkpt lat="43.69278" lon="3.75846">
        <ele>247.013779</ele>
        <time>2020-06-28T09:10:51Z</time>
      </trkpt>
      <trkpt lat="43.69275" lon="3.75846">
        <ele>247.108826</ele>
        <time>2020-06-28T09:10:53Z</time>
      </trkpt>
      <trkpt lat="43.69272" lon="3.75845">
        <ele>247.203369</ele>
        <time>2020-06-28T09:10:55Z</time>
      </trkpt>
      <trkpt lat="43.69268" lon="3.75844">
        <ele>247.293518</ele>
        <time>2020-06-28T09:10:57Z</time>
      </trkpt>
      <trkpt lat="43.69265" lon="3.75842">
        <ele>247.361099</ele>
        <time>2020-06-28T09:10:59Z</time>
      </trkpt>
      <trkpt lat="43.69262" lon="3.75841">
        <ele>247.421265</ele>
        <time>2020-06-28T09:11:01Z</time>
      </trkpt>
      <trkpt lat="43.69259" lon="3.75839">
        <ele>247.462448</ele>
        <time>2020-06-28T09:11:03Z</time>
      </trkpt>
      <trkpt lat="43.69255" lon="3.75837">
        <ele>247.525192</ele>
        <time>2020-06-28T09:11:05Z</time>
      </trkpt>
      <trkpt lat="43.69252" lon="3.75835">
        <ele>247.612961</ele>
        <time>2020-06-28T09:11:07Z</time>
      </trkpt>
      <trkpt lat="43.69249" lon="3.75832">
        <ele>247.727356</ele>
        <time>2020-06-28T09:11:09Z</time>
      </trkpt>
      <trkpt lat="43.69245" lon="3.7583">
        <ele>247.851242</ele>
        <time>2020-06-28T09:11:11Z</time>
      </trkpt>
      <trkpt lat="43.69241" lon="3.75828">
        <ele>247.974808</ele>
        <time>2020-06-28T09:11:13Z</time>
      </trkpt>
      <trkpt lat="43.69238" lon="3.75826">
        <ele>248.044144</ele>
        <time>2020-06-28T09:11:15Z</time>
      </trkpt>
      <trkpt lat="43.69234" lon="3.75825">
        <ele>248.192184</ele>
        <time>2020-06-28T09:11:17Z</time>
      </trkpt>
      <trkpt lat="43.6923" lon="3.75823">
        <ele>248.407883</ele>
        <time>2020-06-28T09:11:19Z</time>
      </trkpt>
      <trkpt lat="43.69227" lon="3.75821">
        <ele>248.649719</ele>
        <time>2020-06-28T09:11:21Z</time>
      </trkpt>
      <trkpt lat="43.69223" lon="3.75819">
        <ele>248.770996</ele>
        <time>2020-06-28T09:11:23Z</time>
      </trkpt>
      <trkpt lat="43.6922" lon="3.75817">
        <ele>248.999954</ele>
        <time>2020-06-28T09:11:25Z</time>
      </trkpt>
      <trkpt lat="43.69216" lon="3.75816">
        <ele>249.224487</ele>
        <time>2020-06-28T09:11:27Z</time>
      </trkpt>
      <trkpt lat="43.69212" lon="3.75814">
        <ele>249.462357</ele>
        <time>2020-06-28T09:11:29Z</time>
      </trkpt>
      <trkpt lat="43.69209" lon="3.75812">
        <ele>249.721054</ele>
        <time>2020-06-28T09:11:31Z</time>
      </trkpt>
      <trkpt lat="43.69206" lon="3.7581">
        <ele>249.950806</ele>
        <time>2020-06-28T09:11:33Z</time>
      </trkpt>
      <trkpt lat="43.69202" lon="3.75808">
        <ele>250.161636</ele>
        <time>2020-06-28T09:11:35Z</time>
      </trkpt>
      <trkpt lat="43.69199" lon="3.75806">
        <ele>250.355408</ele>
        <time>2020-06-28T09:11:37Z</time>
      </trkpt>
      <trkpt lat="43.69195" lon="3.75804">
        <ele>250.54628</ele>
        <time>2020-06-28T09:11:39Z</time>
      </trkpt>
      <trkpt lat="43.69192" lon="3.75802">
        <ele>250.745041</ele>
        <time>2020-06-28T09:11:41Z</time>
      </trkpt>
      <trkpt lat="43.69188" lon="3.758">
        <ele>250.933838</ele>
        <time>2020-06-28T09:11:43Z</time>
      </trkpt>
      <trkpt lat="43.69184" lon="3.758">
        <ele>251.146133</ele>
        <time>2020-06-28T09:11:45Z</time>
      </trkpt>
      <trkpt lat="43.6918" lon="3.75801">
        <ele>251.433334</ele>
        <time>2020-06-28T09:11:47Z</time>
      </trkpt>
      <trkpt lat="43.69178" lon="3.75803">
        <ele>251.844849</ele>
        <time>2020-06-28T09:11:49Z</time>
      </trkpt>
      <trkpt lat="43.69176" lon="3.75805">
        <ele>252.343735</ele>
        <time>2020-06-28T09:11:51Z</time>
      </trkpt>
      <trkpt lat="43.69174" lon="3.75808">
        <ele>252.860825</ele>
        <time>2020-06-28T09:11:53Z</time>
      </trkpt>
      <trkpt lat="43.69174" lon="3.75811">
        <ele>253.327454</ele>
        <time>2020-06-28T09:11:55Z</time>
      </trkpt>
      <trkpt lat="43.69174" lon="3.75815">
        <ele>253.751465</ele>
        <time>2020-06-28T09:11:57Z</time>
      </trkpt>
      <trkpt lat="43.69174" lon="3.75818">
        <ele>253.932816</ele>
        <time>2020-06-28T09:11:59Z</time>
      </trkpt>
      <trkpt lat="43.69175" lon="3.75822">
        <ele>254.240341</ele>
        <time>2020-06-28T09:12:01Z</time>
      </trkpt>
      <trkpt lat="43.69177" lon="3.75825">
        <ele>254.514343</ele>
        <time>2020-06-28T09:12:03Z</time>
      </trkpt>
      <trkpt lat="43.69178" lon="3.75829">
        <ele>254.724777</ele>
        <time>2020-06-28T09:12:05Z</time>
      </trkpt>
      <trkpt lat="43.69179" lon="3.75833">
        <ele>254.900269</ele>
        <time>2020-06-28T09:12:07Z</time>
      </trkpt>
      <trkpt lat="43.69181" lon="3.75836">
        <ele>255.005661</ele>
        <time>2020-06-28T09:12:09Z</time>
      </trkpt>
      <trkpt lat="43.69183" lon="3.75839">
        <ele>255.073196</ele>
        <time>2020-06-28T09:12:11Z</time>
      </trkpt>
      <trkpt lat="43.69185" lon="3.75843">
        <ele>255.10408</ele>
        <time>2020-06-28T09:12:13Z</time>
      </trkpt>
      <trkpt lat="43.69187" lon="3.75847">
        <ele>255.109756</ele>
        <time>2020-06-28T09:12:15Z</time>
      </trkpt>
      <trkpt lat="43.69188" lon="3.75851">
        <ele>255.122055</ele>
        <time>2020-06-28T09:12:17Z</time>
      </trkpt>
      <trkpt lat="43.6919" lon="3.75856">
        <ele>255.152786</ele>
        <time>2020-06-28T09:12:19Z</time>
      </trkpt>
      <trkpt lat="43.69191" lon="3.75861">
        <ele>255.199539</ele>
        <time>2020-06-28T09:12:21Z</time>
      </trkpt>
      <trkpt lat="43.69191" lon="3.75866">
        <ele>255.320374</ele>
        <time>2020-06-28T09:12:23Z</time>
      </trkpt>
      <trkpt lat="43.69191" lon="3.7587">
        <ele>255.520737</ele>
        <time>2020-06-28T09:12:25Z</time>
      </trkpt>
      <trkpt lat="43.69191" lon="3.75874">
        <ele>255.779404</ele>
        <time>2020-06-28T09:12:27Z</time>
      </trkpt>
      <trkpt lat="43.6919" lon="3.75878">
        <ele>256.092926</ele>
        <time>2020-06-28T09:12:29Z</time>
      </trkpt>
      <trkpt lat="43.6919" lon="3.75881">
        <ele>256.427063</ele>
        <time>2020-06-28T09:12:31Z</time>
      </trkpt>
      <trkpt lat="43.6919" lon="3.75885">
        <ele>256.76236</ele>
        <time>2020-06-28T09:12:33Z</time>
      </trkpt>
      <trkpt lat="43.69189" lon="3.75889">
        <ele>257.089325</ele>
        <time>2020-06-28T09:12:35Z</time>
      </trkpt>
      <trkpt lat="43.69187" lon="3.75892">
        <ele>257.404175</ele>
        <time>2020-06-28T09:12:37Z</time>
      </trkpt>
      <trkpt lat="43.69186" lon="3.75895">
        <ele>257.731598</ele>
        <time>2020-06-28T09:12:39Z</time>
      </trkpt>
      <trkpt lat="43.69185" lon="3.75898">
        <ele>258.068054</ele>
        <time>2020-06-28T09:12:41Z</time>
      </trkpt>
      <trkpt lat="43.69185" lon="3.75901">
        <ele>258.410095</ele>
        <time>2020-06-28T09:12:43Z</time>
      </trkpt>
      <trkpt lat="43.69184" lon="3.75904">
        <ele>258.734955</ele>
        <time>2020-06-28T09:12:45Z</time>
      </trkpt>
      <trkpt lat="43.69183" lon="3.75907">
        <ele>259.038544</ele>
        <time>2020-06-28T09:12:47Z</time>
      </trkpt>
      <trkpt lat="43.69181" lon="3.75909">
        <ele>259.330353</ele>
        <time>2020-06-28T09:12:49Z</time>
      </trkpt>
      <trkpt lat="43.69179" lon="3.75912">
        <ele>259.626953</ele>
        <time>2020-06-28T09:12:51Z</time>
      </trkpt>
      <trkpt lat="43.69177" lon="3.75915">
        <ele>259.939728</ele>
        <time>2020-06-28T09:12:53Z</time>
      </trkpt>
      <trkpt lat="43.69175" lon="3.75917">
        <ele>260.103394</ele>
        <time>2020-06-28T09:12:55Z</time>
      </trkpt>
      <trkpt lat="43.69173" lon="3.7592">
        <ele>260.471375</ele>
        <time>2020-06-28T09:12:57Z</time>
      </trkpt>
      <trkpt lat="43.69171" lon="3.75923">
        <ele>260.873383</ele>
        <time>2020-06-28T09:12:59Z</time>
      </trkpt>
      <trkpt lat="43.69169" lon="3.75925">
        <ele>261.289185</ele>
        <time>2020-06-28T09:13:01Z</time>
      </trkpt>
      <trkpt lat="43.69166" lon="3.75928">
        <ele>261.692535</ele>
        <time>2020-06-28T09:13:03Z</time>
      </trkpt>
      <trkpt lat="43.69164" lon="3.7593">
        <ele>262.084564</ele>
        <time>2020-06-28T09:13:05Z</time>
      </trkpt>
      <trkpt lat="43.69162" lon="3.75932">
        <ele>262.471619</ele>
        <time>2020-06-28T09:13:07Z</time>
      </trkpt>
      <trkpt lat="43.6916" lon="3.75935">
        <ele>262.840332</ele>
        <time>2020-06-28T09:13:09Z</time>
      </trkpt>
      <trkpt lat="43.69158" lon="3.75938">
        <ele>263.189148</ele>
        <time>2020-06-28T09:13:11Z</time>
      </trkpt>
      <trkpt lat="43.69156" lon="3.7594">
        <ele>263.518951</ele>
        <time>2020-06-28T09:13:13Z</time>
      </trkpt>
      <trkpt lat="43.69154" lon="3.75943">
        <ele>263.84613</ele>
        <time>2020-06-28T09:13:15Z</time>
      </trkpt>
      <trkpt lat="43.69151" lon="3.75945">
        <ele>264.004913</ele>
        <time>2020-06-28T09:13:17Z</time>
      </trkpt>
      <trkpt lat="43.69149" lon="3.75948">
        <ele>264.314667</ele>
        <time>2020-06-28T09:13:19Z</time>
      </trkpt>
      <trkpt lat="43.69147" lon="3.75951">
        <ele>264.48407</ele>
        <time>2020-06-28T09:13:21Z</time>
      </trkpt>
      <trkpt lat="43.69144" lon="3.75953">
        <ele>264.824677</ele>
        <time>2020-06-28T09:13:23Z</time>
      </trkpt>
      <trkpt lat="43.69141" lon="3.75956">
        <ele>265.180695</ele>
        <time>2020-06-28T09:13:25Z</time>
      </trkpt>
      <trkpt lat="43.69139" lon="3.75959">
        <ele>265.518158</ele>
        <time>2020-06-28T09:13:27Z</time>
      </trkpt>
      <trkpt lat="43.69135" lon="3.75962">
        <ele>265.81189</ele>
        <time>2020-06-28T09:13:29Z</time>
      </trkpt>
      <trkpt lat="43.69132" lon="3.75965">
        <ele>266.228607</ele>
        <time>2020-06-28T09:13:31Z</time>
      </trkpt>
      <trkpt lat="43.69128" lon="3.75968">
        <ele>266.372101</ele>
        <time>2020-06-28T09:13:33Z</time>
      </trkpt>
      <trkpt lat="43.69125" lon="3.75971">
        <ele>266.495239</ele>
        <time>2020-06-28T09:13:35Z</time>
      </trkpt>
      <trkpt lat="43.69121" lon="3.75975">
        <ele>266.621307</ele>
        <time>2020-06-28T09:13:37Z</time>
      </trkpt>
      <trkpt lat="43.69117" lon="3.75978">
        <ele>266.975342</ele>
        <time>2020-06-28T09:13:39Z</time>
      </trkpt>
      <trkpt lat="43.69113" lon="3.75982">
        <ele>267.351685</ele>
        <time>2020-06-28T09:13:41Z</time>
      </trkpt>
      <trkpt lat="43.69109" lon="3.75986">
        <ele>267.754517</ele>
        <time>2020-06-28T09:13:43Z</time>
      </trkpt>
      <trkpt lat="43.69106" lon="3.7599">
        <ele>268.038544</ele>
        <time>2020-06-28T09:13:45Z</time>
      </trkpt>
      <trkpt lat="43.69102" lon="3.75995">
        <ele>268.280273</ele>
        <time>2020-06-28T09:13:47Z</time>
      </trkpt>
      <trkpt lat="43.69098" lon="3.75999">
        <ele>268.520782</ele>
        <time>2020-06-28T09:13:49Z</time>
      </trkpt>
      <trkpt lat="43.69093" lon="3.76004">
        <ele>268.864471</ele>
        <time>2020-06-28T09:13:51Z</time>
      </trkpt>
      <trkpt lat="43.69088" lon="3.76007">
        <ele>268.975494</ele>
        <time>2020-06-28T09:13:53Z</time>
      </trkpt>
      <trkpt lat="43.69082" lon="3.7601">
        <ele>269.067352</ele>
        <time>2020-06-28T09:13:55Z</time>
      </trkpt>
      <trkpt lat="43.69075" lon="3.7601">
        <ele>269.182983</ele>
        <time>2020-06-28T09:13:57Z</time>
      </trkpt>
      <trkpt lat="43.69068" lon="3.76008">
        <ele>269.310638</ele>
        <time>2020-06-28T09:13:59Z</time>
      </trkpt>
      <trkpt lat="43.69062" lon="3.76006">
        <ele>269.590607</ele>
        <time>2020-06-28T09:14:01Z</time>
      </trkpt>
      <trkpt lat="43.69054" lon="3.76006">
        <ele>270.021698</ele>
        <time>2020-06-28T09:14:03Z</time>
      </trkpt>
      <trkpt lat="43.69047" lon="3.76007">
        <ele>270.445831</ele>
        <time>2020-06-28T09:14:05Z</time>
      </trkpt>
      <trkpt lat="43.6904" lon="3.7601">
        <ele>270.825378</ele>
        <time>2020-06-28T09:14:07Z</time>
      </trkpt>
      <trkpt lat="43.69033" lon="3.76013">
        <ele>271.017426</ele>
        <time>2020-06-28T09:14:09Z</time>
      </trkpt>
      <trkpt lat="43.69027" lon="3.76018">
        <ele>271.090363</ele>
        <time>2020-06-28T09:14:11Z</time>
      </trkpt>
      <trkpt lat="43.69019" lon="3.76023">
        <ele>271.091278</ele>
        <time>2020-06-28T09:14:13Z</time>
      </trkpt>
      <trkpt lat="43.69012" lon="3.76027">
        <ele>271.07785</ele>
        <time>2020-06-28T09:14:15Z</time>
      </trkpt>
      <trkpt lat="43.69005" lon="3.76031">
        <ele>271.055328</ele>
        <time>2020-06-28T09:14:17Z</time>
      </trkpt>
      <trkpt lat="43.68998" lon="3.76034">
        <ele>271.035065</ele>
        <time>2020-06-28T09:14:19Z</time>
      </trkpt>
      <trkpt lat="43.68992" lon="3.76038">
        <ele>271.011963</ele>
        <time>2020-06-28T09:14:21Z</time>
      </trkpt>
      <trkpt lat="43.68985" lon="3.76041">
        <ele>271.010071</ele>
        <time>2020-06-28T09:14:23Z</time>
      </trkpt>
      <trkpt lat="43.6898" lon="3.76044">
        <ele>271.004181</ele>
        <time>2020-06-28T09:14:25Z</time>
      </trkpt>
      <trkpt lat="43.68974" lon="3.76047">
        <ele>270.997925</ele>
        <time>2020-06-28T09:14:27Z</time>
      </trkpt>
      <trkpt lat="43.68969" lon="3.76052">
        <ele>270.968384</ele>
        <time>2020-06-28T09:14:29Z</time>
      </trkpt>
      <trkpt lat="43.68963" lon="3.76056">
        <ele>270.895996</ele>
        <time>2020-06-28T09:14:31Z</time>
      </trkpt>
      <trkpt lat="43.68957" lon="3.7606">
        <ele>270.792328</ele>
        <time>2020-06-28T09:14:33Z</time>
      </trkpt>
      <trkpt lat="43.68951" lon="3.76063">
        <ele>270.677399</ele>
        <time>2020-06-28T09:14:35Z</time>
      </trkpt>
      <trkpt lat="43.68945" lon="3.76067">
        <ele>270.560394</ele>
        <time>2020-06-28T09:14:37Z</time>
      </trkpt>
      <trkpt lat="43.68939" lon="3.76071">
        <ele>270.450836</ele>
        <time>2020-06-28T09:14:39Z</time>
      </trkpt>
      <trkpt lat="43.68933" lon="3.76074">
        <ele>270.342438</ele>
        <time>2020-06-28T09:14:41Z</time>
      </trkpt>
      <trkpt lat="43.68926" lon="3.76077">
        <ele>270.233246</ele>
        <time>2020-06-28T09:14:43Z</time>
      </trkpt>
      <trkpt lat="43.68919" lon="3.7608">
        <ele>270.123505</ele>
        <time>2020-06-28T09:14:45Z</time>
      </trkpt>
      <trkpt lat="43.68913" lon="3.76081">
        <ele>270.026154</ele>
        <time>2020-06-28T09:14:47Z</time>
      </trkpt>
      <trkpt lat="43.68906" lon="3.76081">
        <ele>269.927856</ele>
        <time>2020-06-28T09:14:49Z</time>
      </trkpt>
      <trkpt lat="43.68898" lon="3.76081">
        <ele>269.864227</ele>
        <time>2020-06-28T09:14:51Z</time>
      </trkpt>
      <trkpt lat="43.68891" lon="3.76081">
        <ele>269.685883</ele>
        <time>2020-06-28T09:14:53Z</time>
      </trkpt>
      <trkpt lat="43.68883" lon="3.76082">
        <ele>269.57016</ele>
        <time>2020-06-28T09:14:55Z</time>
      </trkpt>
      <trkpt lat="43.68876" lon="3.76082">
        <ele>269.313629</ele>
        <time>2020-06-28T09:14:57Z</time>
      </trkpt>
      <trkpt lat="43.68868" lon="3.76083">
        <ele>269.01059</ele>
        <time>2020-06-28T09:14:59Z</time>
      </trkpt>
      <trkpt lat="43.6886" lon="3.76083">
        <ele>268.739594</ele>
        <time>2020-06-28T09:15:01Z</time>
      </trkpt>
      <trkpt lat="43.68852" lon="3.76084">
        <ele>268.464508</ele>
        <time>2020-06-28T09:15:03Z</time>
      </trkpt>
      <trkpt lat="43.68844" lon="3.76085">
        <ele>268.231598</ele>
        <time>2020-06-28T09:15:05Z</time>
      </trkpt>
      <trkpt lat="43.68835" lon="3.76083">
        <ele>267.949249</ele>
        <time>2020-06-28T09:15:07Z</time>
      </trkpt>
      <trkpt lat="43.68828" lon="3.76077">
        <ele>267.423248</ele>
        <time>2020-06-28T09:15:09Z</time>
      </trkpt>
      <trkpt lat="43.68823" lon="3.76068">
        <ele>266.673065</ele>
        <time>2020-06-28T09:15:11Z</time>
      </trkpt>
      <trkpt lat="43.68821" lon="3.76059">
        <ele>266.251587</ele>
        <time>2020-06-28T09:15:13Z</time>
      </trkpt>
      <trkpt lat="43.68819" lon="3.7605">
        <ele>265.623413</ele>
        <time>2020-06-28T09:15:15Z</time>
      </trkpt>
      <trkpt lat="43.68817" lon="3.76041">
        <ele>265.460663</ele>
        <time>2020-06-28T09:15:17Z</time>
      </trkpt>
      <trkpt lat="43.68815" lon="3.76032">
        <ele>265.420898</ele>
        <time>2020-06-28T09:15:19Z</time>
      </trkpt>
      <trkpt lat="43.68813" lon="3.76022">
        <ele>265.420898</ele>
        <time>2020-06-28T09:15:21Z</time>
      </trkpt>
      <trkpt lat="43.6881" lon="3.76013">
        <ele>265.568726</ele>
        <time>2020-06-28T09:15:23Z</time>
      </trkpt>
      <trkpt lat="43.68807" lon="3.76004">
        <ele>265.828857</ele>
        <time>2020-06-28T09:15:25Z</time>
      </trkpt>
      <trkpt lat="43.68802" lon="3.75996">
        <ele>266.033325</ele>
        <time>2020-06-28T09:15:27Z</time>
      </trkpt>
      <trkpt lat="43.68796" lon="3.75989">
        <ele>266.206451</ele>
        <time>2020-06-28T09:15:29Z</time>
      </trkpt>
      <trkpt lat="43.68791" lon="3.75981">
        <ele>266.352234</ele>
        <time>2020-06-28T09:15:31Z</time>
      </trkpt>
      <trkpt lat="43.68786" lon="3.75975">
        <ele>266.474274</ele>
        <time>2020-06-28T09:15:33Z</time>
      </trkpt>
      <trkpt lat="43.68781" lon="3.75969">
        <ele>266.561981</ele>
        <time>2020-06-28T09:15:35Z</time>
      </trkpt>
      <trkpt lat="43.68776" lon="3.75961">
        <ele>266.622986</ele>
        <time>2020-06-28T09:15:37Z</time>
      </trkpt>
      <trkpt lat="43.68773" lon="3.75953">
        <ele>266.70108</ele>
        <time>2020-06-28T09:15:39Z</time>
      </trkpt>
      <trkpt lat="43.68769" lon="3.75944">
        <ele>266.747711</ele>
        <time>2020-06-28T09:15:41Z</time>
      </trkpt>
      <trkpt lat="43.68766" lon="3.75935">
        <ele>266.878082</ele>
        <time>2020-06-28T09:15:43Z</time>
      </trkpt>
      <trkpt lat="43.68764" lon="3.75926">
        <ele>267.155273</ele>
        <time>2020-06-28T09:15:45Z</time>
      </trkpt>
      <trkpt lat="43.68763" lon="3.75917">
        <ele>267.494598</ele>
        <time>2020-06-28T09:15:47Z</time>
      </trkpt>
      <trkpt lat="43.68761" lon="3.75908">
        <ele>267.899323</ele>
        <time>2020-06-28T09:15:49Z</time>
      </trkpt>
      <trkpt lat="43.68759" lon="3.75899">
        <ele>268.282379</ele>
        <time>2020-06-28T09:15:51Z</time>
      </trkpt>
      <trkpt lat="43.68757" lon="3.7589">
        <ele>268.680511</ele>
        <time>2020-06-28T09:15:53Z</time>
      </trkpt>
      <trkpt lat="43.68753" lon="3.75881">
        <ele>269.053711</ele>
        <time>2020-06-28T09:15:55Z</time>
      </trkpt>
      <trkpt lat="43.68749" lon="3.75872">
        <ele>269.381012</ele>
        <time>2020-06-28T09:15:57Z</time>
      </trkpt>
      <trkpt lat="43.68744" lon="3.75864">
        <ele>269.658051</ele>
        <time>2020-06-28T09:15:59Z</time>
      </trkpt>
      <trkpt lat="43.68739" lon="3.75856">
        <ele>269.821045</ele>
        <time>2020-06-28T09:16:01Z</time>
      </trkpt>
      <trkpt lat="43.68732" lon="3.75848">
        <ele>269.84021</ele>
        <time>2020-06-28T09:16:03Z</time>
      </trkpt>
      <trkpt lat="43.68725" lon="3.75841">
        <ele>269.81662</ele>
        <time>2020-06-28T09:16:05Z</time>
      </trkpt>
      <trkpt lat="43.68718" lon="3.75834">
        <ele>269.754364</ele>
        <time>2020-06-28T09:16:07Z</time>
      </trkpt>
      <trkpt lat="43.68711" lon="3.75826">
        <ele>269.53476</ele>
        <time>2020-06-28T09:16:09Z</time>
      </trkpt>
      <trkpt lat="43.68704" lon="3.75819">
        <ele>269.23233</ele>
        <time>2020-06-28T09:16:11Z</time>
      </trkpt>
      <trkpt lat="43.68696" lon="3.75812">
        <ele>268.934906</ele>
        <time>2020-06-28T09:16:13Z</time>
      </trkpt>
      <trkpt lat="43.68689" lon="3.75807">
        <ele>268.640106</ele>
        <time>2020-06-28T09:16:15Z</time>
      </trkpt>
      <trkpt lat="43.68681" lon="3.75805">
        <ele>268.508209</ele>
        <time>2020-06-28T09:16:17Z</time>
      </trkpt>
      <trkpt lat="43.68672" lon="3.75804">
        <ele>268.361298</ele>
        <time>2020-06-28T09:16:19Z</time>
      </trkpt>
      <trkpt lat="43.68664" lon="3.75806">
        <ele>267.874664</ele>
        <time>2020-06-28T09:16:21Z</time>
      </trkpt>
      <trkpt lat="43.68655" lon="3.75809">
        <ele>267.133789</ele>
        <time>2020-06-28T09:16:23Z</time>
      </trkpt>
      <trkpt lat="43.68646" lon="3.75813">
        <ele>266.262543</ele>
        <time>2020-06-28T09:16:25Z</time>
      </trkpt>
      <trkpt lat="43.68636" lon="3.75819">
        <ele>265.418915</ele>
        <time>2020-06-28T09:16:27Z</time>
      </trkpt>
      <trkpt lat="43.68629" lon="3.75825">
        <ele>264.668365</ele>
        <time>2020-06-28T09:16:29Z</time>
      </trkpt>
      <trkpt lat="43.68623" lon="3.7583">
        <ele>263.984375</ele>
        <time>2020-06-28T09:16:31Z</time>
      </trkpt>
      <trkpt lat="43.68618" lon="3.75833">
        <ele>263.430023</ele>
        <time>2020-06-28T09:16:33Z</time>
      </trkpt>
      <trkpt lat="43.68616" lon="3.75835">
        <ele>263.040558</ele>
        <time>2020-06-28T09:16:35Z</time>
      </trkpt>
      <trkpt lat="43.68613" lon="3.75836">
        <ele>262.778351</ele>
        <time>2020-06-28T09:16:37Z</time>
      </trkpt>
      <trkpt lat="43.68612" lon="3.75839">
        <ele>262.609467</ele>
        <time>2020-06-28T09:16:39Z</time>
      </trkpt>
      <trkpt lat="43.68613" lon="3.75842">
        <ele>262.506012</ele>
        <time>2020-06-28T09:16:41Z</time>
      </trkpt>
      <trkpt lat="43.68617" lon="3.75843">
        <ele>262.48941</ele>
        <time>2020-06-28T09:16:43Z</time>
      </trkpt>
      <trkpt lat="43.6862" lon="3.75842">
        <ele>262.498108</ele>
        <time>2020-06-28T09:16:45Z</time>
      </trkpt>
      <trkpt lat="43.68624" lon="3.75843">
        <ele>262.5271</ele>
        <time>2020-06-28T09:16:47Z</time>
      </trkpt>
      <trkpt lat="43.68626" lon="3.75847">
        <ele>262.655151</ele>
        <time>2020-06-28T09:16:49Z</time>
      </trkpt>
      <trkpt lat="43.6863" lon="3.7585">
        <ele>262.852173</ele>
        <time>2020-06-28T09:16:51Z</time>
      </trkpt>
      <trkpt lat="43.68633" lon="3.75852">
        <ele>263.054962</ele>
        <time>2020-06-28T09:16:53Z</time>
      </trkpt>
      <trkpt lat="43.68635" lon="3.75855">
        <ele>263.24585</ele>
        <time>2020-06-28T09:16:55Z</time>
      </trkpt>
      <trkpt lat="43.68636" lon="3.75857">
        <ele>263.400909</ele>
        <time>2020-06-28T09:16:57Z</time>
      </trkpt>
      <trkpt lat="43.68645" lon="3.75864">
        <ele>263.714996</ele>
        <time>2020-06-28T09:17:13Z</time>
      </trkpt>
      <trkpt lat="43.68649" lon="3.75867">
        <ele>263.780487</ele>
        <time>2020-06-28T09:17:17Z</time>
      </trkpt>
      <trkpt lat="43.68655" lon="3.75871">
        <ele>263.834076</ele>
        <time>2020-06-28T09:17:19Z</time>
      </trkpt>
      <trkpt lat="43.68659" lon="3.75876">
        <ele>263.984589</ele>
        <time>2020-06-28T09:17:21Z</time>
      </trkpt>
      <trkpt lat="43.68662" lon="3.75882">
        <ele>264.088989</ele>
        <time>2020-06-28T09:17:23Z</time>
      </trkpt>
      <trkpt lat="43.68661" lon="3.75887">
        <ele>264.258087</ele>
        <time>2020-06-28T09:17:25Z</time>
      </trkpt>
      <trkpt lat="43.68659" lon="3.75891">
        <ele>264.318451</ele>
        <time>2020-06-28T09:17:27Z</time>
      </trkpt>
      <trkpt lat="43.68657" lon="3.75896">
        <ele>264.318451</ele>
        <time>2020-06-28T09:17:29Z</time>
      </trkpt>
      <trkpt lat="43.68657" lon="3.75901">
        <ele>264.240509</ele>
        <time>2020-06-28T09:17:31Z</time>
      </trkpt>
      <trkpt lat="43.68657" lon="3.75906">
        <ele>264.083801</ele>
        <time>2020-06-28T09:17:33Z</time>
      </trkpt>
      <trkpt lat="43.68656" lon="3.75914">
        <ele>263.934143</ele>
        <time>2020-06-28T09:17:35Z</time>
      </trkpt>
      <trkpt lat="43.68656" lon="3.75921">
        <ele>263.802277</ele>
        <time>2020-06-28T09:17:37Z</time>
      </trkpt>
      <trkpt lat="43.68653" lon="3.7593">
        <ele>263.660034</ele>
        <time>2020-06-28T09:17:39Z</time>
      </trkpt>
      <trkpt lat="43.68652" lon="3.75937">
        <ele>263.586304</ele>
        <time>2020-06-28T09:17:41Z</time>
      </trkpt>
      <trkpt lat="43.68652" lon="3.75945">
        <ele>263.414398</ele>
        <time>2020-06-28T09:17:43Z</time>
      </trkpt>
      <trkpt lat="43.68651" lon="3.75952">
        <ele>263.209015</ele>
        <time>2020-06-28T09:17:45Z</time>
      </trkpt>
      <trkpt lat="43.6865" lon="3.7596">
        <ele>262.935883</ele>
        <time>2020-06-28T09:17:47Z</time>
      </trkpt>
      <trkpt lat="43.68649" lon="3.75969">
        <ele>262.619171</ele>
        <time>2020-06-28T09:17:49Z</time>
      </trkpt>
      <trkpt lat="43.68649" lon="3.75978">
        <ele>262.275818</ele>
        <time>2020-06-28T09:17:51Z</time>
      </trkpt>
      <trkpt lat="43.68646" lon="3.75992">
        <ele>261.929108</ele>
        <time>2020-06-28T09:17:53Z</time>
      </trkpt>
      <trkpt lat="43.68644" lon="3.76002">
        <ele>261.534973</ele>
        <time>2020-06-28T09:17:55Z</time>
      </trkpt>
      <trkpt lat="43.68644" lon="3.76013">
        <ele>261.067078</ele>
        <time>2020-06-28T09:17:57Z</time>
      </trkpt>
      <trkpt lat="43.68642" lon="3.76024">
        <ele>260.5896</ele>
        <time>2020-06-28T09:17:59Z</time>
      </trkpt>
      <trkpt lat="43.6864" lon="3.76035">
        <ele>260.087311</ele>
        <time>2020-06-28T09:18:01Z</time>
      </trkpt>
      <trkpt lat="43.68639" lon="3.76046">
        <ele>259.577454</ele>
        <time>2020-06-28T09:18:03Z</time>
      </trkpt>
      <trkpt lat="43.68639" lon="3.76054">
        <ele>259.029938</ele>
        <time>2020-06-28T09:18:05Z</time>
      </trkpt>
      <trkpt lat="43.68639" lon="3.76062">
        <ele>258.7565</ele>
        <time>2020-06-28T09:18:07Z</time>
      </trkpt>
      <trkpt lat="43.68639" lon="3.76076">
        <ele>258.1875</ele>
        <time>2020-06-28T09:18:09Z</time>
      </trkpt>
      <trkpt lat="43.68639" lon="3.76094">
        <ele>257.586273</ele>
        <time>2020-06-28T09:18:11Z</time>
      </trkpt>
      <trkpt lat="43.68642" lon="3.76107">
        <ele>256.837738</ele>
        <time>2020-06-28T09:18:13Z</time>
      </trkpt>
      <trkpt lat="43.68646" lon="3.76119">
        <ele>255.757645</ele>
        <time>2020-06-28T09:18:15Z</time>
      </trkpt>
      <trkpt lat="43.6865" lon="3.76129">
        <ele>255.133469</ele>
        <time>2020-06-28T09:18:17Z</time>
      </trkpt>
      <trkpt lat="43.68652" lon="3.7614">
        <ele>254.472</ele>
        <time>2020-06-28T09:18:19Z</time>
      </trkpt>
      <trkpt lat="43.68655" lon="3.7615">
        <ele>253.706131</ele>
        <time>2020-06-28T09:18:21Z</time>
      </trkpt>
      <trkpt lat="43.68657" lon="3.76162">
        <ele>252.071945</ele>
        <time>2020-06-28T09:18:23Z</time>
      </trkpt>
      <trkpt lat="43.68659" lon="3.76174">
        <ele>250.363113</ele>
        <time>2020-06-28T09:18:25Z</time>
      </trkpt>
      <trkpt lat="43.6866" lon="3.76183">
        <ele>248.72168</ele>
        <time>2020-06-28T09:18:27Z</time>
      </trkpt>
      <trkpt lat="43.68659" lon="3.7619">
        <ele>247.314377</ele>
        <time>2020-06-28T09:18:29Z</time>
      </trkpt>
      <trkpt lat="43.68659" lon="3.76203">
        <ele>246.186279</ele>
        <time>2020-06-28T09:18:31Z</time>
      </trkpt>
      <trkpt lat="43.68657" lon="3.76216">
        <ele>245.243576</ele>
        <time>2020-06-28T09:18:33Z</time>
      </trkpt>
      <trkpt lat="43.68656" lon="3.76232">
        <ele>244.275391</ele>
        <time>2020-06-28T09:18:35Z</time>
      </trkpt>
      <trkpt lat="43.68653" lon="3.76246">
        <ele>243.09877</ele>
        <time>2020-06-28T09:18:37Z</time>
      </trkpt>
      <trkpt lat="43.68654" lon="3.76256">
        <ele>242.371353</ele>
        <time>2020-06-28T09:18:39Z</time>
      </trkpt>
      <trkpt lat="43.68654" lon="3.76273">
        <ele>240.833755</ele>
        <time>2020-06-28T09:18:41Z</time>
      </trkpt>
      <trkpt lat="43.68652" lon="3.76286">
        <ele>239.052231</ele>
        <time>2020-06-28T09:18:43Z</time>
      </trkpt>
      <trkpt lat="43.68651" lon="3.763">
        <ele>237.26149</ele>
        <time>2020-06-28T09:18:45Z</time>
      </trkpt>
      <trkpt lat="43.68651" lon="3.7631">
        <ele>235.513672</ele>
        <time>2020-06-28T09:18:47Z</time>
      </trkpt>
      <trkpt lat="43.6865" lon="3.76321">
        <ele>233.925781</ele>
        <time>2020-06-28T09:18:49Z</time>
      </trkpt>
      <trkpt lat="43.68652" lon="3.76327">
        <ele>232.541153</ele>
        <time>2020-06-28T09:18:51Z</time>
      </trkpt>
      <trkpt lat="43.68651" lon="3.76337">
        <ele>231.290298</ele>
        <time>2020-06-28T09:18:53Z</time>
      </trkpt>
      <trkpt lat="43.68651" lon="3.76347">
        <ele>230.24263</ele>
        <time>2020-06-28T09:18:55Z</time>
      </trkpt>
      <trkpt lat="43.68649" lon="3.76356">
        <ele>229.269211</ele>
        <time>2020-06-28T09:18:57Z</time>
      </trkpt>
      <trkpt lat="43.6865" lon="3.76366">
        <ele>228.235672</ele>
        <time>2020-06-28T09:18:59Z</time>
      </trkpt>
      <trkpt lat="43.68649" lon="3.76375">
        <ele>227.171799</ele>
        <time>2020-06-28T09:19:01Z</time>
      </trkpt>
      <trkpt lat="43.68649" lon="3.76384">
        <ele>226.02034</ele>
        <time>2020-06-28T09:19:03Z</time>
      </trkpt>
      <trkpt lat="43.68648" lon="3.76393">
        <ele>225.468552</ele>
        <time>2020-06-28T09:19:05Z</time>
      </trkpt>
      <trkpt lat="43.68646" lon="3.76403">
        <ele>224.327393</ele>
        <time>2020-06-28T09:19:07Z</time>
      </trkpt>
      <trkpt lat="43.68644" lon="3.76414">
        <ele>223.079758</ele>
        <time>2020-06-28T09:19:09Z</time>
      </trkpt>
      <trkpt lat="43.68642" lon="3.76426">
        <ele>221.844162</ele>
        <time>2020-06-28T09:19:11Z</time>
      </trkpt>
      <trkpt lat="43.68639" lon="3.76436">
        <ele>220.560745</ele>
        <time>2020-06-28T09:19:13Z</time>
      </trkpt>
      <trkpt lat="43.68636" lon="3.76449">
        <ele>219.207031</ele>
        <time>2020-06-28T09:19:15Z</time>
      </trkpt>
      <trkpt lat="43.68633" lon="3.76462">
        <ele>217.687134</ele>
        <time>2020-06-28T09:19:17Z</time>
      </trkpt>
      <trkpt lat="43.68628" lon="3.76476">
        <ele>216.891785</ele>
        <time>2020-06-28T09:19:19Z</time>
      </trkpt>
      <trkpt lat="43.68621" lon="3.76488">
        <ele>216.05983</ele>
        <time>2020-06-28T09:19:21Z</time>
      </trkpt>
      <trkpt lat="43.68613" lon="3.76505">
        <ele>213.940445</ele>
        <time>2020-06-28T09:19:23Z</time>
      </trkpt>
      <trkpt lat="43.68607" lon="3.76519">
        <ele>211.149414</ele>
        <time>2020-06-28T09:19:25Z</time>
      </trkpt>
      <trkpt lat="43.68605" lon="3.76524">
        <ele>207.978943</ele>
        <time>2020-06-28T09:19:27Z</time>
      </trkpt>
      <trkpt lat="43.68604" lon="3.76528">
        <ele>205.100525</ele>
        <time>2020-06-28T09:19:29Z</time>
      </trkpt>
      <trkpt lat="43.68598" lon="3.76551">
        <ele>199.490799</ele>
        <time>2020-06-28T09:19:51Z</time>
      </trkpt>
      <trkpt lat="43.68595" lon="3.76558">
        <ele>199.290451</ele>
        <time>2020-06-28T09:19:55Z</time>
      </trkpt>
      <trkpt lat="43.68593" lon="3.76569">
        <ele>198.503616</ele>
        <time>2020-06-28T09:19:57Z</time>
      </trkpt>
      <trkpt lat="43.68591" lon="3.7658">
        <ele>197.335327</ele>
        <time>2020-06-28T09:19:59Z</time>
      </trkpt>
      <trkpt lat="43.68588" lon="3.76589">
        <ele>195.852859</ele>
        <time>2020-06-28T09:20:01Z</time>
      </trkpt>
      <trkpt lat="43.68583" lon="3.76598">
        <ele>194.608643</ele>
        <time>2020-06-28T09:20:03Z</time>
      </trkpt>
      <trkpt lat="43.68576" lon="3.76605">
        <ele>193.373215</ele>
        <time>2020-06-28T09:20:05Z</time>
      </trkpt>
      <trkpt lat="43.68567" lon="3.76612">
        <ele>192.166061</ele>
        <time>2020-06-28T09:20:07Z</time>
      </trkpt>
      <trkpt lat="43.68559" lon="3.76618">
        <ele>190.867432</ele>
        <time>2020-06-28T09:20:09Z</time>
      </trkpt>
      <trkpt lat="43.68551" lon="3.76623">
        <ele>189.380203</ele>
        <time>2020-06-28T09:20:11Z</time>
      </trkpt>
      <trkpt lat="43.68543" lon="3.76629">
        <ele>188.586914</ele>
        <time>2020-06-28T09:20:13Z</time>
      </trkpt>
      <trkpt lat="43.68535" lon="3.76631">
        <ele>186.925537</ele>
        <time>2020-06-28T09:20:15Z</time>
      </trkpt>
      <trkpt lat="43.68525" lon="3.76632">
        <ele>185.101929</ele>
        <time>2020-06-28T09:20:17Z</time>
      </trkpt>
      <trkpt lat="43.68515" lon="3.76635">
        <ele>183.405334</ele>
        <time>2020-06-28T09:20:19Z</time>
      </trkpt>
      <trkpt lat="43.68506" lon="3.7664">
        <ele>182.591141</ele>
        <time>2020-06-28T09:20:21Z</time>
      </trkpt>
      <trkpt lat="43.68498" lon="3.76646">
        <ele>181.115112</ele>
        <time>2020-06-28T09:20:23Z</time>
      </trkpt>
      <trkpt lat="43.68489" lon="3.7665">
        <ele>181.115112</ele>
        <time>2020-06-28T09:20:25Z</time>
      </trkpt>
      <trkpt lat="43.68482" lon="3.76656">
        <ele>179.503647</ele>
        <time>2020-06-28T09:20:27Z</time>
      </trkpt>
      <trkpt lat="43.68477" lon="3.76664">
        <ele>177.380997</ele>
        <time>2020-06-28T09:20:29Z</time>
      </trkpt>
      <trkpt lat="43.68473" lon="3.76674">
        <ele>175.315918</ele>
        <time>2020-06-28T09:20:31Z</time>
      </trkpt>
      <trkpt lat="43.68471" lon="3.76684">
        <ele>173.607101</ele>
        <time>2020-06-28T09:20:33Z</time>
      </trkpt>
      <trkpt lat="43.68469" lon="3.76693">
        <ele>172.508133</ele>
        <time>2020-06-28T09:20:35Z</time>
      </trkpt>
      <trkpt lat="43.68464" lon="3.76704">
        <ele>172.002029</ele>
        <time>2020-06-28T09:20:37Z</time>
      </trkpt>
      <trkpt lat="43.6846" lon="3.76715">
        <ele>170.978775</ele>
        <time>2020-06-28T09:20:39Z</time>
      </trkpt>
      <trkpt lat="43.68454" lon="3.76725">
        <ele>169.941742</ele>
        <time>2020-06-28T09:20:41Z</time>
      </trkpt>
      <trkpt lat="43.68448" lon="3.76731">
        <ele>168.902878</ele>
        <time>2020-06-28T09:20:43Z</time>
      </trkpt>
      <trkpt lat="43.68443" lon="3.7673">
        <ele>167.915176</ele>
        <time>2020-06-28T09:20:45Z</time>
      </trkpt>
      <trkpt lat="43.68439" lon="3.76723">
        <ele>167.056686</ele>
        <time>2020-06-28T09:20:47Z</time>
      </trkpt>
      <trkpt lat="43.68435" lon="3.76716">
        <ele>166.3535</ele>
        <time>2020-06-28T09:20:49Z</time>
      </trkpt>
      <trkpt lat="43.68431" lon="3.76709">
        <ele>166.082382</ele>
        <time>2020-06-28T09:20:51Z</time>
      </trkpt>
      <trkpt lat="43.68426" lon="3.76703">
        <ele>165.690353</ele>
        <time>2020-06-28T09:20:53Z</time>
      </trkpt>
      <trkpt lat="43.68421" lon="3.76697">
        <ele>165.513489</ele>
        <time>2020-06-28T09:20:55Z</time>
      </trkpt>
      <trkpt lat="43.68417" lon="3.76691">
        <ele>165.164719</ele>
        <time>2020-06-28T09:20:57Z</time>
      </trkpt>
      <trkpt lat="43.68412" lon="3.76685">
        <ele>164.782181</ele>
        <time>2020-06-28T09:20:59Z</time>
      </trkpt>
      <trkpt lat="43.68408" lon="3.76678">
        <ele>164.599289</ele>
        <time>2020-06-28T09:21:01Z</time>
      </trkpt>
      <trkpt lat="43.68404" lon="3.76671">
        <ele>164.464783</ele>
        <time>2020-06-28T09:21:03Z</time>
      </trkpt>
      <trkpt lat="43.68401" lon="3.76664">
        <ele>164.225204</ele>
        <time>2020-06-28T09:21:05Z</time>
      </trkpt>
      <trkpt lat="43.68397" lon="3.76656">
        <ele>164.104935</ele>
        <time>2020-06-28T09:21:07Z</time>
      </trkpt>
      <trkpt lat="43.68392" lon="3.7665">
        <ele>163.999054</ele>
        <time>2020-06-28T09:21:09Z</time>
      </trkpt>
      <trkpt lat="43.68388" lon="3.76646">
        <ele>163.922409</ele>
        <time>2020-06-28T09:21:11Z</time>
      </trkpt>
      <trkpt lat="43.68384" lon="3.7664">
        <ele>163.749039</ele>
        <time>2020-06-28T09:21:13Z</time>
      </trkpt>
      <trkpt lat="43.6838" lon="3.76637">
        <ele>163.517715</ele>
        <time>2020-06-28T09:21:15Z</time>
      </trkpt>
      <trkpt lat="43.68376" lon="3.76639">
        <ele>163.260712</ele>
        <time>2020-06-28T09:21:17Z</time>
      </trkpt>
      <trkpt lat="43.68372" lon="3.76645">
        <ele>162.990265</ele>
        <time>2020-06-28T09:21:19Z</time>
      </trkpt>
      <trkpt lat="43.68367" lon="3.76652">
        <ele>162.820786</ele>
        <time>2020-06-28T09:21:21Z</time>
      </trkpt>
      <trkpt lat="43.68362" lon="3.7666">
        <ele>162.613052</ele>
        <time>2020-06-28T09:21:23Z</time>
      </trkpt>
      <trkpt lat="43.68357" lon="3.76669">
        <ele>161.963943</ele>
        <time>2020-06-28T09:21:25Z</time>
      </trkpt>
      <trkpt lat="43.68352" lon="3.76678">
        <ele>161.530396</ele>
        <time>2020-06-28T09:21:27Z</time>
      </trkpt>
      <trkpt lat="43.68348" lon="3.76687">
        <ele>160.558243</ele>
        <time>2020-06-28T09:21:29Z</time>
      </trkpt>
      <trkpt lat="43.68343" lon="3.76694">
        <ele>159.518295</ele>
        <time>2020-06-28T09:21:31Z</time>
      </trkpt>
      <trkpt lat="43.68338" lon="3.767">
        <ele>159.130386</ele>
        <time>2020-06-28T09:21:33Z</time>
      </trkpt>
      <trkpt lat="43.68333" lon="3.76707">
        <ele>158.337769</ele>
        <time>2020-06-28T09:21:35Z</time>
      </trkpt>
      <trkpt lat="43.68327" lon="3.76713">
        <ele>157.683548</ele>
        <time>2020-06-28T09:21:37Z</time>
      </trkpt>
      <trkpt lat="43.68321" lon="3.76718">
        <ele>157.055069</ele>
        <time>2020-06-28T09:21:39Z</time>
      </trkpt>
      <trkpt lat="43.68314" lon="3.76723">
        <ele>156.49765</ele>
        <time>2020-06-28T09:21:41Z</time>
      </trkpt>
      <trkpt lat="43.68308" lon="3.76729">
        <ele>155.967712</ele>
        <time>2020-06-28T09:21:43Z</time>
      </trkpt>
      <trkpt lat="43.68302" lon="3.76737">
        <ele>155.440079</ele>
        <time>2020-06-28T09:21:45Z</time>
      </trkpt>
      <trkpt lat="43.68295" lon="3.76743">
        <ele>154.916641</ele>
        <time>2020-06-28T09:21:47Z</time>
      </trkpt>
      <trkpt lat="43.68288" lon="3.76748">
        <ele>154.404968</ele>
        <time>2020-06-28T09:21:49Z</time>
      </trkpt>
      <trkpt lat="43.68281" lon="3.76753">
        <ele>153.894485</ele>
        <time>2020-06-28T09:21:51Z</time>
      </trkpt>
      <trkpt lat="43.68274" lon="3.76759">
        <ele>153.38118</ele>
        <time>2020-06-28T09:21:53Z</time>
      </trkpt>
      <trkpt lat="43.68269" lon="3.76766">
        <ele>152.856552</ele>
        <time>2020-06-28T09:21:55Z</time>
      </trkpt>
      <trkpt lat="43.68263" lon="3.76773">
        <ele>152.159012</ele>
        <time>2020-06-28T09:21:57Z</time>
      </trkpt>
      <trkpt lat="43.68258" lon="3.76782">
        <ele>151.993179</ele>
        <time>2020-06-28T09:21:59Z</time>
      </trkpt>
      <trkpt lat="43.68253" lon="3.76792">
        <ele>151.893845</ele>
        <time>2020-06-28T09:22:01Z</time>
      </trkpt>
      <trkpt lat="43.6825" lon="3.76802">
        <ele>151.878128</ele>
        <time>2020-06-28T09:22:03Z</time>
      </trkpt>
      <trkpt lat="43.68246" lon="3.76811">
        <ele>151.878128</ele>
        <time>2020-06-28T09:22:05Z</time>
      </trkpt>
      <trkpt lat="43.68239" lon="3.76817">
        <ele>152.018112</ele>
        <time>2020-06-28T09:22:07Z</time>
      </trkpt>
      <trkpt lat="43.68231" lon="3.76821">
        <ele>152.260422</ele>
        <time>2020-06-28T09:22:09Z</time>
      </trkpt>
      <trkpt lat="43.68223" lon="3.76823">
        <ele>152.330795</ele>
        <time>2020-06-28T09:22:11Z</time>
      </trkpt>
      <trkpt lat="43.68216" lon="3.76826">
        <ele>152.314407</ele>
        <time>2020-06-28T09:22:13Z</time>
      </trkpt>
      <trkpt lat="43.6821" lon="3.76829">
        <ele>152.115616</ele>
        <time>2020-06-28T09:22:15Z</time>
      </trkpt>
      <trkpt lat="43.68204" lon="3.76831">
        <ele>151.945145</ele>
        <time>2020-06-28T09:22:17Z</time>
      </trkpt>
      <trkpt lat="43.68198" lon="3.76834">
        <ele>151.580566</ele>
        <time>2020-06-28T09:22:19Z</time>
      </trkpt>
      <trkpt lat="43.68193" lon="3.76836">
        <ele>151.2229</ele>
        <time>2020-06-28T09:22:21Z</time>
      </trkpt>
      <trkpt lat="43.68188" lon="3.76838">
        <ele>151.054733</ele>
        <time>2020-06-28T09:22:23Z</time>
      </trkpt>
      <trkpt lat="43.68184" lon="3.76846">
        <ele>150.894104</ele>
        <time>2020-06-28T09:22:25Z</time>
      </trkpt>
      <trkpt lat="43.68183" lon="3.76854">
        <ele>150.640701</ele>
        <time>2020-06-28T09:22:27Z</time>
      </trkpt>
      <trkpt lat="43.6818" lon="3.76862">
        <ele>150.628952</ele>
        <time>2020-06-28T09:22:29Z</time>
      </trkpt>
      <trkpt lat="43.68177" lon="3.76868">
        <ele>150.628952</ele>
        <time>2020-06-28T09:22:31Z</time>
      </trkpt>
      <trkpt lat="43.68175" lon="3.76873">
        <ele>150.775742</ele>
        <time>2020-06-28T09:22:33Z</time>
      </trkpt>
      <trkpt lat="43.68173" lon="3.76878">
        <ele>151.115814</ele>
        <time>2020-06-28T09:22:35Z</time>
      </trkpt>
      <trkpt lat="43.68171" lon="3.76883">
        <ele>151.451172</ele>
        <time>2020-06-28T09:22:37Z</time>
      </trkpt>
      <trkpt lat="43.68169" lon="3.76887">
        <ele>151.73349</ele>
        <time>2020-06-28T09:22:39Z</time>
      </trkpt>
      <trkpt lat="43.68166" lon="3.7689">
        <ele>151.978073</ele>
        <time>2020-06-28T09:22:41Z</time>
      </trkpt>
      <trkpt lat="43.68163" lon="3.76894">
        <ele>152.16687</ele>
        <time>2020-06-28T09:22:43Z</time>
      </trkpt>
      <trkpt lat="43.6816" lon="3.76898">
        <ele>152.244202</ele>
        <time>2020-06-28T09:22:45Z</time>
      </trkpt>
      <trkpt lat="43.68157" lon="3.76903">
        <ele>152.347031</ele>
        <time>2020-06-28T09:22:47Z</time>
      </trkpt>
      <trkpt lat="43.68154" lon="3.76908">
        <ele>152.41568</ele>
        <time>2020-06-28T09:22:49Z</time>
      </trkpt>
      <trkpt lat="43.68152" lon="3.76913">
        <ele>152.467758</ele>
        <time>2020-06-28T09:22:51Z</time>
      </trkpt>
      <trkpt lat="43.68149" lon="3.76917">
        <ele>152.528717</ele>
        <time>2020-06-28T09:22:53Z</time>
      </trkpt>
      <trkpt lat="43.68146" lon="3.76922">
        <ele>152.603989</ele>
        <time>2020-06-28T09:22:55Z</time>
      </trkpt>
      <trkpt lat="43.68144" lon="3.76927">
        <ele>152.695267</ele>
        <time>2020-06-28T09:22:57Z</time>
      </trkpt>
      <trkpt lat="43.68141" lon="3.76931">
        <ele>152.801895</ele>
        <time>2020-06-28T09:22:59Z</time>
      </trkpt>
      <trkpt lat="43.68137" lon="3.76936">
        <ele>152.923065</ele>
        <time>2020-06-28T09:23:01Z</time>
      </trkpt>
      <trkpt lat="43.68134" lon="3.76941">
        <ele>153.031479</ele>
        <time>2020-06-28T09:23:03Z</time>
      </trkpt>
      <trkpt lat="43.68131" lon="3.76946">
        <ele>153.115662</ele>
        <time>2020-06-28T09:23:05Z</time>
      </trkpt>
      <trkpt lat="43.68129" lon="3.76951">
        <ele>153.191544</ele>
        <time>2020-06-28T09:23:07Z</time>
      </trkpt>
      <trkpt lat="43.68125" lon="3.76956">
        <ele>153.298691</ele>
        <time>2020-06-28T09:23:09Z</time>
      </trkpt>
      <trkpt lat="43.68122" lon="3.76961">
        <ele>153.419846</ele>
        <time>2020-06-28T09:23:11Z</time>
      </trkpt>
      <trkpt lat="43.68119" lon="3.76966">
        <ele>153.479599</ele>
        <time>2020-06-28T09:23:13Z</time>
      </trkpt>
      <trkpt lat="43.68115" lon="3.76971">
        <ele>153.58989</ele>
        <time>2020-06-28T09:23:15Z</time>
      </trkpt>
      <trkpt lat="43.68112" lon="3.76978">
        <ele>153.709183</ele>
        <time>2020-06-28T09:23:17Z</time>
      </trkpt>
      <trkpt lat="43.68108" lon="3.76983">
        <ele>153.899414</ele>
        <time>2020-06-28T09:23:19Z</time>
      </trkpt>
      <trkpt lat="43.68105" lon="3.76989">
        <ele>154.144119</ele>
        <time>2020-06-28T09:23:21Z</time>
      </trkpt>
      <trkpt lat="43.681" lon="3.76996">
        <ele>154.27507</ele>
        <time>2020-06-28T09:23:23Z</time>
      </trkpt>
      <trkpt lat="43.68096" lon="3.77003">
        <ele>154.558594</ele>
        <time>2020-06-28T09:23:25Z</time>
      </trkpt>
      <trkpt lat="43.68093" lon="3.77009">
        <ele>154.903244</ele>
        <time>2020-06-28T09:23:27Z</time>
      </trkpt>
      <trkpt lat="43.68089" lon="3.77014">
        <ele>155.278717</ele>
        <time>2020-06-28T09:23:29Z</time>
      </trkpt>
      <trkpt lat="43.68086" lon="3.7702">
        <ele>155.475693</ele>
        <time>2020-06-28T09:23:31Z</time>
      </trkpt>
      <trkpt lat="43.68082" lon="3.77026">
        <ele>155.856445</ele>
        <time>2020-06-28T09:23:33Z</time>
      </trkpt>
      <trkpt lat="43.68078" lon="3.77033">
        <ele>156.248947</ele>
        <time>2020-06-28T09:23:35Z</time>
      </trkpt>
      <trkpt lat="43.68074" lon="3.7704">
        <ele>156.65004</ele>
        <time>2020-06-28T09:23:37Z</time>
      </trkpt>
      <trkpt lat="43.6807" lon="3.77048">
        <ele>157.037384</ele>
        <time>2020-06-28T09:23:39Z</time>
      </trkpt>
      <trkpt lat="43.68066" lon="3.77056">
        <ele>157.358871</ele>
        <time>2020-06-28T09:23:41Z</time>
      </trkpt>
      <trkpt lat="43.68061" lon="3.77065">
        <ele>157.601837</ele>
        <time>2020-06-28T09:23:43Z</time>
      </trkpt>
      <trkpt lat="43.68057" lon="3.77076">
        <ele>157.758041</ele>
        <time>2020-06-28T09:23:45Z</time>
      </trkpt>
      <trkpt lat="43.68053" lon="3.77087">
        <ele>157.813339</ele>
        <time>2020-06-28T09:23:47Z</time>
      </trkpt>
      <trkpt lat="43.68051" lon="3.771">
        <ele>157.948914</ele>
        <time>2020-06-28T09:23:49Z</time>
      </trkpt>
      <trkpt lat="43.6805" lon="3.77111">
        <ele>158.166901</ele>
        <time>2020-06-28T09:23:51Z</time>
      </trkpt>
      <trkpt lat="43.6805" lon="3.77124">
        <ele>158.453476</ele>
        <time>2020-06-28T09:23:53Z</time>
      </trkpt>
      <trkpt lat="43.68051" lon="3.77136">
        <ele>158.592438</ele>
        <time>2020-06-28T09:23:55Z</time>
      </trkpt>
      <trkpt lat="43.68052" lon="3.77143">
        <ele>158.592484</ele>
        <time>2020-06-28T09:23:57Z</time>
      </trkpt>
      <trkpt lat="43.68053" lon="3.7715">
        <ele>158.592484</ele>
        <time>2020-06-28T09:23:59Z</time>
      </trkpt>
      <trkpt lat="43.68054" lon="3.77157">
        <ele>158.441635</ele>
        <time>2020-06-28T09:24:01Z</time>
      </trkpt>
      <trkpt lat="43.68055" lon="3.77166">
        <ele>158.258469</ele>
        <time>2020-06-28T09:24:03Z</time>
      </trkpt>
      <trkpt lat="43.68055" lon="3.77177">
        <ele>158.106705</ele>
        <time>2020-06-28T09:24:05Z</time>
      </trkpt>
      <trkpt lat="43.68056" lon="3.77188">
        <ele>158.035355</ele>
        <time>2020-06-28T09:24:07Z</time>
      </trkpt>
      <trkpt lat="43.68055" lon="3.77199">
        <ele>157.954086</ele>
        <time>2020-06-28T09:24:09Z</time>
      </trkpt>
      <trkpt lat="43.68055" lon="3.77212">
        <ele>157.681137</ele>
        <time>2020-06-28T09:24:11Z</time>
      </trkpt>
      <trkpt lat="43.68055" lon="3.77224">
        <ele>157.248978</ele>
        <time>2020-06-28T09:24:13Z</time>
      </trkpt>
      <trkpt lat="43.68055" lon="3.77232">
        <ele>156.734451</ele>
        <time>2020-06-28T09:24:15Z</time>
      </trkpt>
      <trkpt lat="43.68055" lon="3.77241">
        <ele>156.249924</ele>
        <time>2020-06-28T09:24:17Z</time>
      </trkpt>
      <trkpt lat="43.68056" lon="3.77251">
        <ele>155.879623</ele>
        <time>2020-06-28T09:24:19Z</time>
      </trkpt>
      <trkpt lat="43.68059" lon="3.77261">
        <ele>155.592361</ele>
        <time>2020-06-28T09:24:21Z</time>
      </trkpt>
      <trkpt lat="43.68063" lon="3.77267">
        <ele>155.528275</ele>
        <time>2020-06-28T09:24:23Z</time>
      </trkpt>
      <trkpt lat="43.68067" lon="3.7727">
        <ele>155.528275</ele>
        <time>2020-06-28T09:24:25Z</time>
      </trkpt>
      <trkpt lat="43.6807" lon="3.77273">
        <ele>155.528275</ele>
        <time>2020-06-28T09:24:27Z</time>
      </trkpt>
      <trkpt lat="43.68074" lon="3.77277">
        <ele>155.606888</ele>
        <time>2020-06-28T09:24:29Z</time>
      </trkpt>
      <trkpt lat="43.68077" lon="3.7728">
        <ele>155.882416</ele>
        <time>2020-06-28T09:24:31Z</time>
      </trkpt>
      <trkpt lat="43.6808" lon="3.77283">
        <ele>156.205826</ele>
        <time>2020-06-28T09:24:33Z</time>
      </trkpt>
      <trkpt lat="43.68084" lon="3.77287">
        <ele>156.442139</ele>
        <time>2020-06-28T09:24:35Z</time>
      </trkpt>
      <trkpt lat="43.68087" lon="3.77291">
        <ele>156.640198</ele>
        <time>2020-06-28T09:24:37Z</time>
      </trkpt>
      <trkpt lat="43.68091" lon="3.77294">
        <ele>156.845688</ele>
        <time>2020-06-28T09:24:39Z</time>
      </trkpt>
      <trkpt lat="43.68095" lon="3.77297">
        <ele>157.069809</ele>
        <time>2020-06-28T09:24:41Z</time>
      </trkpt>
      <trkpt lat="43.68098" lon="3.773">
        <ele>157.315094</ele>
        <time>2020-06-28T09:24:43Z</time>
      </trkpt>
      <trkpt lat="43.68101" lon="3.77304">
        <ele>157.564285</ele>
        <time>2020-06-28T09:24:45Z</time>
      </trkpt>
      <trkpt lat="43.68105" lon="3.77307">
        <ele>157.834335</ele>
        <time>2020-06-28T09:24:47Z</time>
      </trkpt>
      <trkpt lat="43.68107" lon="3.77311">
        <ele>158.131607</ele>
        <time>2020-06-28T09:24:49Z</time>
      </trkpt>
      <trkpt lat="43.6811" lon="3.77314">
        <ele>158.457932</ele>
        <time>2020-06-28T09:24:51Z</time>
      </trkpt>
      <trkpt lat="43.68113" lon="3.77317">
        <ele>158.786545</ele>
        <time>2020-06-28T09:24:53Z</time>
      </trkpt>
      <trkpt lat="43.68115" lon="3.7732">
        <ele>159.116287</ele>
        <time>2020-06-28T09:24:55Z</time>
      </trkpt>
      <trkpt lat="43.68117" lon="3.77323">
        <ele>159.4366</ele>
        <time>2020-06-28T09:24:57Z</time>
      </trkpt>
      <trkpt lat="43.68125" lon="3.77331">
        <ele>160.358719</ele>
        <time>2020-06-28T09:25:53Z</time>
      </trkpt>
      <trkpt lat="43.68131" lon="3.77335">
        <ele>160.527664</ele>
        <time>2020-06-28T09:25:57Z</time>
      </trkpt>
      <trkpt lat="43.68136" lon="3.77342">
        <ele>160.855148</ele>
        <time>2020-06-28T09:25:59Z</time>
      </trkpt>
      <trkpt lat="43.68141" lon="3.7735">
        <ele>161.079422</ele>
        <time>2020-06-28T09:26:01Z</time>
      </trkpt>
      <trkpt lat="43.68148" lon="3.77358">
        <ele>161.617508</ele>
        <time>2020-06-28T09:26:03Z</time>
      </trkpt>
      <trkpt lat="43.68157" lon="3.77363">
        <ele>162.388016</ele>
        <time>2020-06-28T09:26:05Z</time>
      </trkpt>
      <trkpt lat="43.68166" lon="3.77366">
        <ele>163.257004</ele>
        <time>2020-06-28T09:26:07Z</time>
      </trkpt>
      <trkpt lat="43.68176" lon="3.77369">
        <ele>164.210449</ele>
        <time>2020-06-28T09:26:09Z</time>
      </trkpt>
      <trkpt lat="43.68185" lon="3.77371">
        <ele>165.074432</ele>
        <time>2020-06-28T09:26:11Z</time>
      </trkpt>
      <trkpt lat="43.68195" lon="3.77374">
        <ele>165.900208</ele>
        <time>2020-06-28T09:26:13Z</time>
      </trkpt>
      <trkpt lat="43.68204" lon="3.77378">
        <ele>166.655029</ele>
        <time>2020-06-28T09:26:15Z</time>
      </trkpt>
      <trkpt lat="43.68213" lon="3.77385">
        <ele>167.334885</ele>
        <time>2020-06-28T09:26:17Z</time>
      </trkpt>
      <trkpt lat="43.68223" lon="3.77392">
        <ele>167.889542</ele>
        <time>2020-06-28T09:26:19Z</time>
      </trkpt>
      <trkpt lat="43.68233" lon="3.77401">
        <ele>168.077988</ele>
        <time>2020-06-28T09:26:21Z</time>
      </trkpt>
      <trkpt lat="43.68242" lon="3.77409">
        <ele>168.077988</ele>
        <time>2020-06-28T09:26:23Z</time>
      </trkpt>
      <trkpt lat="43.68253" lon="3.77419">
        <ele>167.997787</ele>
        <time>2020-06-28T09:26:25Z</time>
      </trkpt>
      <trkpt lat="43.68264" lon="3.77429">
        <ele>167.761719</ele>
        <time>2020-06-28T09:26:27Z</time>
      </trkpt>
      <trkpt lat="43.68274" lon="3.7744">
        <ele>166.660233</ele>
        <time>2020-06-28T09:26:29Z</time>
      </trkpt>
      <trkpt lat="43.68284" lon="3.7745">
        <ele>165.617935</ele>
        <time>2020-06-28T09:26:31Z</time>
      </trkpt>
      <trkpt lat="43.68293" lon="3.77459">
        <ele>163.027847</ele>
        <time>2020-06-28T09:26:33Z</time>
      </trkpt>
      <trkpt lat="43.68301" lon="3.77469">
        <ele>159.513016</ele>
        <time>2020-06-28T09:26:35Z</time>
      </trkpt>
      <trkpt lat="43.6831" lon="3.77479">
        <ele>156.285065</ele>
        <time>2020-06-28T09:26:37Z</time>
      </trkpt>
      <trkpt lat="43.68319" lon="3.77488">
        <ele>153.246964</ele>
        <time>2020-06-28T09:26:39Z</time>
      </trkpt>
      <trkpt lat="43.68328" lon="3.77497">
        <ele>150.835831</ele>
        <time>2020-06-28T09:26:41Z</time>
      </trkpt>
      <trkpt lat="43.68337" lon="3.77504">
        <ele>148.590805</ele>
        <time>2020-06-28T09:26:43Z</time>
      </trkpt>
      <trkpt lat="43.68347" lon="3.77509">
        <ele>146.561035</ele>
        <time>2020-06-28T09:26:45Z</time>
      </trkpt>
      <trkpt lat="43.68357" lon="3.77515">
        <ele>145.599991</ele>
        <time>2020-06-28T09:26:47Z</time>
      </trkpt>
      <trkpt lat="43.68369" lon="3.77519">
        <ele>143.799759</ele>
        <time>2020-06-28T09:26:49Z</time>
      </trkpt>
      <trkpt lat="43.68379" lon="3.77522">
        <ele>141.896347</ele>
        <time>2020-06-28T09:26:51Z</time>
      </trkpt>
      <trkpt lat="43.6839" lon="3.77525">
        <ele>140.30603</ele>
        <time>2020-06-28T09:26:53Z</time>
      </trkpt>
      <trkpt lat="43.68401" lon="3.77531">
        <ele>139.661484</ele>
        <time>2020-06-28T09:26:55Z</time>
      </trkpt>
      <trkpt lat="43.68411" lon="3.77537">
        <ele>138.79158</ele>
        <time>2020-06-28T09:26:57Z</time>
      </trkpt>
      <trkpt lat="43.68421" lon="3.77543">
        <ele>138.065079</ele>
        <time>2020-06-28T09:26:59Z</time>
      </trkpt>
      <trkpt lat="43.68433" lon="3.77548">
        <ele>137.131775</ele>
        <time>2020-06-28T09:27:01Z</time>
      </trkpt>
      <trkpt lat="43.68443" lon="3.77551">
        <ele>135.88356</ele>
        <time>2020-06-28T09:27:03Z</time>
      </trkpt>
      <trkpt lat="43.68453" lon="3.77553">
        <ele>134.610733</ele>
        <time>2020-06-28T09:27:05Z</time>
      </trkpt>
      <trkpt lat="43.68462" lon="3.77554">
        <ele>133.376328</ele>
        <time>2020-06-28T09:27:07Z</time>
      </trkpt>
      <trkpt lat="43.68468" lon="3.77554">
        <ele>132.362015</ele>
        <time>2020-06-28T09:27:09Z</time>
      </trkpt>
      <trkpt lat="43.68472" lon="3.77559">
        <ele>131.66362</ele>
        <time>2020-06-28T09:27:11Z</time>
      </trkpt>
      <trkpt lat="43.68472" lon="3.77568">
        <ele>131.173203</ele>
        <time>2020-06-28T09:27:13Z</time>
      </trkpt>
      <trkpt lat="43.68472" lon="3.77577">
        <ele>130.898422</ele>
        <time>2020-06-28T09:27:15Z</time>
      </trkpt>
      <trkpt lat="43.68471" lon="3.77586">
        <ele>130.095474</ele>
        <time>2020-06-28T09:27:17Z</time>
      </trkpt>
      <trkpt lat="43.68471" lon="3.77596">
        <ele>128.923294</ele>
        <time>2020-06-28T09:27:19Z</time>
      </trkpt>
      <trkpt lat="43.68471" lon="3.77607">
        <ele>128.249191</ele>
        <time>2020-06-28T09:27:21Z</time>
      </trkpt>
      <trkpt lat="43.68471" lon="3.77618">
        <ele>126.802467</ele>
        <time>2020-06-28T09:27:23Z</time>
      </trkpt>
      <trkpt lat="43.6847" lon="3.77629">
        <ele>125.44986</ele>
        <time>2020-06-28T09:27:25Z</time>
      </trkpt>
      <trkpt lat="43.6847" lon="3.77642">
        <ele>124.769806</ele>
        <time>2020-06-28T09:27:27Z</time>
      </trkpt>
      <trkpt lat="43.6847" lon="3.77654">
        <ele>124.088409</ele>
        <time>2020-06-28T09:27:29Z</time>
      </trkpt>
      <trkpt lat="43.6847" lon="3.77668">
        <ele>122.533867</ele>
        <time>2020-06-28T09:27:31Z</time>
      </trkpt>
      <trkpt lat="43.68469" lon="3.77682">
        <ele>120.962921</ele>
        <time>2020-06-28T09:27:33Z</time>
      </trkpt>
      <trkpt lat="43.68469" lon="3.77695">
        <ele>119.901611</ele>
        <time>2020-06-28T09:27:35Z</time>
      </trkpt>
      <trkpt lat="43.68468" lon="3.77709">
        <ele>119.568199</ele>
        <time>2020-06-28T09:27:37Z</time>
      </trkpt>
      <trkpt lat="43.68466" lon="3.77723">
        <ele>119.599876</ele>
        <time>2020-06-28T09:27:39Z</time>
      </trkpt>
      <trkpt lat="43.68464" lon="3.77738">
        <ele>119.91935</ele>
        <time>2020-06-28T09:27:41Z</time>
      </trkpt>
      <trkpt lat="43.68461" lon="3.77752">
        <ele>120.292389</ele>
        <time>2020-06-28T09:27:43Z</time>
      </trkpt>
      <trkpt lat="43.68456" lon="3.77765">
        <ele>120.50985</ele>
        <time>2020-06-28T09:27:45Z</time>
      </trkpt>
      <trkpt lat="43.68451" lon="3.77776">
        <ele>121.144829</ele>
        <time>2020-06-28T09:27:47Z</time>
      </trkpt>
      <trkpt lat="43.68447" lon="3.77787">
        <ele>122.074409</ele>
        <time>2020-06-28T09:27:49Z</time>
      </trkpt>
      <trkpt lat="43.68442" lon="3.77798">
        <ele>123.237099</ele>
        <time>2020-06-28T09:27:51Z</time>
      </trkpt>
      <trkpt lat="43.68438" lon="3.77809">
        <ele>124.449242</ele>
        <time>2020-06-28T09:27:53Z</time>
      </trkpt>
      <trkpt lat="43.68434" lon="3.77819">
        <ele>125.309753</ele>
        <time>2020-06-28T09:27:55Z</time>
      </trkpt>
      <trkpt lat="43.6843" lon="3.7783">
        <ele>125.814507</ele>
        <time>2020-06-28T09:27:57Z</time>
      </trkpt>
      <trkpt lat="43.68426" lon="3.77841">
        <ele>126.008018</ele>
        <time>2020-06-28T09:27:59Z</time>
      </trkpt>
      <trkpt lat="43.68422" lon="3.77852">
        <ele>126.183006</ele>
        <time>2020-06-28T09:28:01Z</time>
      </trkpt>
      <trkpt lat="43.68419" lon="3.77863">
        <ele>126.291359</ele>
        <time>2020-06-28T09:28:03Z</time>
      </trkpt>
      <trkpt lat="43.68415" lon="3.77873">
        <ele>126.548454</ele>
        <time>2020-06-28T09:28:05Z</time>
      </trkpt>
      <trkpt lat="43.68411" lon="3.77884">
        <ele>126.768944</ele>
        <time>2020-06-28T09:28:07Z</time>
      </trkpt>
      <trkpt lat="43.68407" lon="3.77894">
        <ele>126.975288</ele>
        <time>2020-06-28T09:28:09Z</time>
      </trkpt>
      <trkpt lat="43.68401" lon="3.77905">
        <ele>127.1381</ele>
        <time>2020-06-28T09:28:11Z</time>
      </trkpt>
      <trkpt lat="43.68396" lon="3.77916">
        <ele>127.441734</ele>
        <time>2020-06-28T09:28:13Z</time>
      </trkpt>
      <trkpt lat="43.68391" lon="3.77927">
        <ele>127.441734</ele>
        <time>2020-06-28T09:28:15Z</time>
      </trkpt>
      <trkpt lat="43.68385" lon="3.77937">
        <ele>127.556236</ele>
        <time>2020-06-28T09:28:17Z</time>
      </trkpt>
      <trkpt lat="43.68378" lon="3.77947">
        <ele>127.980064</ele>
        <time>2020-06-28T09:28:19Z</time>
      </trkpt>
      <trkpt lat="43.68372" lon="3.77958">
        <ele>128.410812</ele>
        <time>2020-06-28T09:28:21Z</time>
      </trkpt>
      <trkpt lat="43.68366" lon="3.7797">
        <ele>129.502792</ele>
        <time>2020-06-28T09:28:23Z</time>
      </trkpt>
      <trkpt lat="43.68361" lon="3.77979">
        <ele>131.005463</ele>
        <time>2020-06-28T09:28:25Z</time>
      </trkpt>
      <trkpt lat="43.68357" lon="3.77987">
        <ele>131.664749</ele>
        <time>2020-06-28T09:28:27Z</time>
      </trkpt>
      <trkpt lat="43.68354" lon="3.77992">
        <ele>132.707932</ele>
        <time>2020-06-28T09:28:29Z</time>
      </trkpt>
      <trkpt lat="43.68354" lon="3.77999">
        <ele>133.146866</ele>
        <time>2020-06-28T09:28:31Z</time>
      </trkpt>
      <trkpt lat="43.68358" lon="3.78006">
        <ele>133.48024</ele>
        <time>2020-06-28T09:28:33Z</time>
      </trkpt>
      <trkpt lat="43.68365" lon="3.78016">
        <ele>133.48024</ele>
        <time>2020-06-28T09:28:35Z</time>
      </trkpt>
      <trkpt lat="43.68365" lon="3.78023">
        <ele>132.969772</ele>
        <time>2020-06-28T09:28:37Z</time>
      </trkpt>
      <trkpt lat="43.68361" lon="3.7803">
        <ele>132.377304</ele>
        <time>2020-06-28T09:28:39Z</time>
      </trkpt>
      <trkpt lat="43.68356" lon="3.78038">
        <ele>131.716797</ele>
        <time>2020-06-28T09:28:41Z</time>
      </trkpt>
      <trkpt lat="43.68351" lon="3.78048">
        <ele>131.175705</ele>
        <time>2020-06-28T09:28:43Z</time>
      </trkpt>
      <trkpt lat="43.68346" lon="3.78059">
        <ele>130.778214</ele>
        <time>2020-06-28T09:28:45Z</time>
      </trkpt>
      <trkpt lat="43.68343" lon="3.78071">
        <ele>130.559341</ele>
        <time>2020-06-28T09:28:47Z</time>
      </trkpt>
      <trkpt lat="43.68341" lon="3.78083">
        <ele>130.299637</ele>
        <time>2020-06-28T09:28:49Z</time>
      </trkpt>
      <trkpt lat="43.68341" lon="3.78095">
        <ele>130.05394</ele>
        <time>2020-06-28T09:28:51Z</time>
      </trkpt>
      <trkpt lat="43.68343" lon="3.78108">
        <ele>129.837021</ele>
        <time>2020-06-28T09:28:53Z</time>
      </trkpt>
      <trkpt lat="43.68348" lon="3.78119">
        <ele>128.923721</ele>
        <time>2020-06-28T09:28:55Z</time>
      </trkpt>
      <trkpt lat="43.68354" lon="3.7813">
        <ele>128.221573</ele>
        <time>2020-06-28T09:28:57Z</time>
      </trkpt>
      <trkpt lat="43.68359" lon="3.78141">
        <ele>126.620827</ele>
        <time>2020-06-28T09:28:59Z</time>
      </trkpt>
      <trkpt lat="43.68365" lon="3.78151">
        <ele>124.52906</ele>
        <time>2020-06-28T09:29:01Z</time>
      </trkpt>
      <trkpt lat="43.68369" lon="3.78162">
        <ele>122.506279</ele>
        <time>2020-06-28T09:29:03Z</time>
      </trkpt>
      <trkpt lat="43.68372" lon="3.78173">
        <ele>120.673531</ele>
        <time>2020-06-28T09:29:05Z</time>
      </trkpt>
      <trkpt lat="43.68375" lon="3.78186">
        <ele>119.42791</ele>
        <time>2020-06-28T09:29:07Z</time>
      </trkpt>
      <trkpt lat="43.68378" lon="3.78199">
        <ele>118.42347</ele>
        <time>2020-06-28T09:29:09Z</time>
      </trkpt>
      <trkpt lat="43.68378" lon="3.78214">
        <ele>117.601723</ele>
        <time>2020-06-28T09:29:11Z</time>
      </trkpt>
      <trkpt lat="43.68377" lon="3.78229">
        <ele>116.907326</ele>
        <time>2020-06-28T09:29:13Z</time>
      </trkpt>
      <trkpt lat="43.68373" lon="3.78243">
        <ele>116.391594</ele>
        <time>2020-06-28T09:29:15Z</time>
      </trkpt>
      <trkpt lat="43.68369" lon="3.78259">
        <ele>116.040443</ele>
        <time>2020-06-28T09:29:17Z</time>
      </trkpt>
      <trkpt lat="43.68362" lon="3.78273">
        <ele>115.906868</ele>
        <time>2020-06-28T09:29:19Z</time>
      </trkpt>
      <trkpt lat="43.68354" lon="3.78285">
        <ele>115.640205</ele>
        <time>2020-06-28T09:29:21Z</time>
      </trkpt>
      <trkpt lat="43.68345" lon="3.78295">
        <ele>115.281563</ele>
        <time>2020-06-28T09:29:23Z</time>
      </trkpt>
      <trkpt lat="43.68335" lon="3.78306">
        <ele>114.960686</ele>
        <time>2020-06-28T09:29:25Z</time>
      </trkpt>
      <trkpt lat="43.68325" lon="3.78313">
        <ele>114.65731</ele>
        <time>2020-06-28T09:29:27Z</time>
      </trkpt>
      <trkpt lat="43.68314" lon="3.78317">
        <ele>114.51017</ele>
        <time>2020-06-28T09:29:29Z</time>
      </trkpt>
      <trkpt lat="43.68304" lon="3.78321">
        <ele>114.319153</ele>
        <time>2020-06-28T09:29:31Z</time>
      </trkpt>
      <trkpt lat="43.68295" lon="3.78326">
        <ele>113.769371</ele>
        <time>2020-06-28T09:29:33Z</time>
      </trkpt>
      <trkpt lat="43.68287" lon="3.7833">
        <ele>112.98877</ele>
        <time>2020-06-28T09:29:35Z</time>
      </trkpt>
      <trkpt lat="43.68277" lon="3.78334">
        <ele>112.397499</ele>
        <time>2020-06-28T09:29:37Z</time>
      </trkpt>
      <trkpt lat="43.68266" lon="3.78338">
        <ele>112.113487</ele>
        <time>2020-06-28T09:29:39Z</time>
      </trkpt>
      <trkpt lat="43.68256" lon="3.78343">
        <ele>112.113487</ele>
        <time>2020-06-28T09:29:41Z</time>
      </trkpt>
      <trkpt lat="43.68246" lon="3.7835">
        <ele>112.16317</ele>
        <time>2020-06-28T09:29:43Z</time>
      </trkpt>
      <trkpt lat="43.68237" lon="3.78358">
        <ele>112.16317</ele>
        <time>2020-06-28T09:29:45Z</time>
      </trkpt>
      <trkpt lat="43.68227" lon="3.78368">
        <ele>112.087013</ele>
        <time>2020-06-28T09:29:47Z</time>
      </trkpt>
      <trkpt lat="43.68217" lon="3.78376">
        <ele>111.77877</ele>
        <time>2020-06-28T09:29:49Z</time>
      </trkpt>
      <trkpt lat="43.68207" lon="3.78384">
        <ele>111.241364</ele>
        <time>2020-06-28T09:29:51Z</time>
      </trkpt>
      <trkpt lat="43.68197" lon="3.78396">
        <ele>110.565849</ele>
        <time>2020-06-28T09:29:53Z</time>
      </trkpt>
      <trkpt lat="43.68189" lon="3.78411">
        <ele>109.784721</ele>
        <time>2020-06-28T09:29:55Z</time>
      </trkpt>
      <trkpt lat="43.68184" lon="3.78426">
        <ele>108.778648</ele>
        <time>2020-06-28T09:29:57Z</time>
      </trkpt>
      <trkpt lat="43.68179" lon="3.78439">
        <ele>107.487938</ele>
        <time>2020-06-28T09:29:59Z</time>
      </trkpt>
      <trkpt lat="43.68174" lon="3.7845">
        <ele>106.752617</ele>
        <time>2020-06-28T09:30:01Z</time>
      </trkpt>
      <trkpt lat="43.6817" lon="3.78459">
        <ele>105.253883</ele>
        <time>2020-06-28T09:30:03Z</time>
      </trkpt>
      <trkpt lat="43.68166" lon="3.78472">
        <ele>103.691078</ele>
        <time>2020-06-28T09:30:05Z</time>
      </trkpt>
      <trkpt lat="43.68162" lon="3.78485">
        <ele>102.958702</ele>
        <time>2020-06-28T09:30:07Z</time>
      </trkpt>
      <trkpt lat="43.68159" lon="3.78497">
        <ele>101.52903</ele>
        <time>2020-06-28T09:30:09Z</time>
      </trkpt>
      <trkpt lat="43.68157" lon="3.78507">
        <ele>100.020996</ele>
        <time>2020-06-28T09:30:11Z</time>
      </trkpt>
      <trkpt lat="43.68156" lon="3.78513">
        <ele>98.11895</ele>
        <time>2020-06-28T09:30:13Z</time>
      </trkpt>
      <trkpt lat="43.68156" lon="3.78516">
        <ele>97.381744</ele>
        <time>2020-06-28T09:30:15Z</time>
      </trkpt>
      <trkpt lat="43.68158" lon="3.78531">
        <ele>96.511024</ele>
        <time>2020-06-28T09:31:11Z</time>
      </trkpt>
      <trkpt lat="43.68163" lon="3.78538">
        <ele>96.329033</ele>
        <time>2020-06-28T09:31:15Z</time>
      </trkpt>
      <trkpt lat="43.68166" lon="3.78544">
        <ele>96.050323</ele>
        <time>2020-06-28T09:31:17Z</time>
      </trkpt>
      <trkpt lat="43.68168" lon="3.7855">
        <ele>95.900276</ele>
        <time>2020-06-28T09:31:19Z</time>
      </trkpt>
      <trkpt lat="43.68168" lon="3.78558">
        <ele>95.609108</ele>
        <time>2020-06-28T09:31:21Z</time>
      </trkpt>
      <trkpt lat="43.68168" lon="3.78568">
        <ele>95.291229</ele>
        <time>2020-06-28T09:31:23Z</time>
      </trkpt>
      <trkpt lat="43.68169" lon="3.78577">
        <ele>95.209862</ele>
        <time>2020-06-28T09:31:25Z</time>
      </trkpt>
      <trkpt lat="43.6817" lon="3.78587">
        <ele>95.092857</ele>
        <time>2020-06-28T09:31:27Z</time>
      </trkpt>
      <trkpt lat="43.6817" lon="3.78598">
        <ele>94.994545</ele>
        <time>2020-06-28T09:31:29Z</time>
      </trkpt>
      <trkpt lat="43.68171" lon="3.78607">
        <ele>94.947594</ele>
        <time>2020-06-28T09:31:31Z</time>
      </trkpt>
      <trkpt lat="43.68171" lon="3.78616">
        <ele>94.845703</ele>
        <time>2020-06-28T09:31:33Z</time>
      </trkpt>
      <trkpt lat="43.68171" lon="3.78624">
        <ele>94.726318</ele>
        <time>2020-06-28T09:31:35Z</time>
      </trkpt>
      <trkpt lat="43.6817" lon="3.78632">
        <ele>94.660484</ele>
        <time>2020-06-28T09:31:37Z</time>
      </trkpt>
      <trkpt lat="43.68169" lon="3.78639">
        <ele>94.515465</ele>
        <time>2020-06-28T09:31:39Z</time>
      </trkpt>
      <trkpt lat="43.6817" lon="3.78644">
        <ele>94.351967</ele>
        <time>2020-06-28T09:31:41Z</time>
      </trkpt>
      <trkpt lat="43.68178" lon="3.78639">
        <ele>94.134117</ele>
        <time>2020-06-28T09:32:21Z</time>
      </trkpt>
      <trkpt lat="43.68181" lon="3.78635">
        <ele>94.297279</ele>
        <time>2020-06-28T09:32:25Z</time>
      </trkpt>
      <trkpt lat="43.68183" lon="3.7863">
        <ele>94.508461</ele>
        <time>2020-06-28T09:32:27Z</time>
      </trkpt>
      <trkpt lat="43.68187" lon="3.78626">
        <ele>94.739174</ele>
        <time>2020-06-28T09:32:29Z</time>
      </trkpt>
      <trkpt lat="43.6819" lon="3.78622">
        <ele>94.862144</ele>
        <time>2020-06-28T09:32:31Z</time>
      </trkpt>
      <trkpt lat="43.68193" lon="3.78621">
        <ele>95.136719</ele>
        <time>2020-06-28T09:32:33Z</time>
      </trkpt>
      <trkpt lat="43.682" lon="3.78612">
        <ele>96.119873</ele>
        <time>2020-06-28T09:33:09Z</time>
      </trkpt>
      <trkpt lat="43.68204" lon="3.78607">
        <ele>96.25399</ele>
        <time>2020-06-28T09:33:13Z</time>
      </trkpt>
      <trkpt lat="43.68208" lon="3.78603">
        <ele>96.487465</ele>
        <time>2020-06-28T09:33:15Z</time>
      </trkpt>
      <trkpt lat="43.68211" lon="3.78598">
        <ele>96.786133</ele>
        <time>2020-06-28T09:33:17Z</time>
      </trkpt>
      <trkpt lat="43.68215" lon="3.78594">
        <ele>97.11898</ele>
        <time>2020-06-28T09:33:19Z</time>
      </trkpt>
      <trkpt lat="43.68219" lon="3.78589">
        <ele>97.460693</ele>
        <time>2020-06-28T09:33:21Z</time>
      </trkpt>
      <trkpt lat="43.68221" lon="3.78586">
        <ele>97.800133</ele>
        <time>2020-06-28T09:33:23Z</time>
      </trkpt>
      <trkpt lat="43.68223" lon="3.78585">
        <ele>98.115723</ele>
        <time>2020-06-28T09:33:25Z</time>
      </trkpt>
      <trkpt lat="43.68225" lon="3.78586">
        <ele>98.389076</ele>
        <time>2020-06-28T09:33:27Z</time>
      </trkpt>
      <trkpt lat="43.68229" lon="3.7859">
        <ele>98.60482</ele>
        <time>2020-06-28T09:33:29Z</time>
      </trkpt>
      <trkpt lat="43.68233" lon="3.78593">
        <ele>98.779701</ele>
        <time>2020-06-28T09:33:31Z</time>
      </trkpt>
      <trkpt lat="43.68237" lon="3.78596">
        <ele>98.865723</ele>
        <time>2020-06-28T09:33:33Z</time>
      </trkpt>
      <trkpt lat="43.68241" lon="3.786">
        <ele>99.057556</ele>
        <time>2020-06-28T09:33:35Z</time>
      </trkpt>
      <trkpt lat="43.68245" lon="3.78602">
        <ele>99.356789</ele>
        <time>2020-06-28T09:33:37Z</time>
      </trkpt>
      <trkpt lat="43.68248" lon="3.78606">
        <ele>99.681641</ele>
        <time>2020-06-28T09:33:39Z</time>
      </trkpt>
      <trkpt lat="43.68251" lon="3.78609">
        <ele>100.06736</ele>
        <time>2020-06-28T09:33:41Z</time>
      </trkpt>
      <trkpt lat="43.68254" lon="3.78614">
        <ele>100.401527</ele>
        <time>2020-06-28T09:33:43Z</time>
      </trkpt>
      <trkpt lat="43.68257" lon="3.78619">
        <ele>100.731438</ele>
        <time>2020-06-28T09:33:45Z</time>
      </trkpt>
      <trkpt lat="43.68259" lon="3.78623">
        <ele>101.006065</ele>
        <time>2020-06-28T09:33:47Z</time>
      </trkpt>
      <trkpt lat="43.6826" lon="3.78627">
        <ele>101.13015</ele>
        <time>2020-06-28T09:33:49Z</time>
      </trkpt>
      <trkpt lat="43.68261" lon="3.78631">
        <ele>101.360535</ele>
        <time>2020-06-28T09:33:51Z</time>
      </trkpt>
      <trkpt lat="43.68263" lon="3.78634">
        <ele>101.539368</ele>
        <time>2020-06-28T09:33:53Z</time>
      </trkpt>
      <trkpt lat="43.68262" lon="3.78648">
        <ele>101.715416</ele>
        <time>2020-06-28T09:34:09Z</time>
      </trkpt>
      <trkpt lat="43.68262" lon="3.78656">
        <ele>101.684731</ele>
        <time>2020-06-28T09:34:13Z</time>
      </trkpt>
      <trkpt lat="43.68265" lon="3.78662">
        <ele>101.603111</ele>
        <time>2020-06-28T09:34:15Z</time>
      </trkpt>
      <trkpt lat="43.68268" lon="3.78665">
        <ele>101.587242</ele>
        <time>2020-06-28T09:34:17Z</time>
      </trkpt>
      <trkpt lat="43.68271" lon="3.78668">
        <ele>101.605225</ele>
        <time>2020-06-28T09:34:19Z</time>
      </trkpt>
      <trkpt lat="43.68274" lon="3.78671">
        <ele>101.734215</ele>
        <time>2020-06-28T09:34:21Z</time>
      </trkpt>
      <trkpt lat="43.68278" lon="3.78673">
        <ele>101.975426</ele>
        <time>2020-06-28T09:34:23Z</time>
      </trkpt>
      <trkpt lat="43.68282" lon="3.78677">
        <ele>102.26107</ele>
        <time>2020-06-28T09:34:25Z</time>
      </trkpt>
      <trkpt lat="43.68286" lon="3.78679">
        <ele>102.56559</ele>
        <time>2020-06-28T09:34:27Z</time>
      </trkpt>
      <trkpt lat="43.6829" lon="3.78682">
        <ele>102.906006</ele>
        <time>2020-06-28T09:34:29Z</time>
      </trkpt>
      <trkpt lat="43.68293" lon="3.78685">
        <ele>103.249916</ele>
        <time>2020-06-28T09:34:31Z</time>
      </trkpt>
      <trkpt lat="43.68297" lon="3.78687">
        <ele>103.4161</ele>
        <time>2020-06-28T09:34:33Z</time>
      </trkpt>
      <trkpt lat="43.683" lon="3.7869">
        <ele>103.584473</ele>
        <time>2020-06-28T09:34:35Z</time>
      </trkpt>
      <trkpt lat="43.68304" lon="3.78694">
        <ele>103.987877</ele>
        <time>2020-06-28T09:34:37Z</time>
      </trkpt>
      <trkpt lat="43.68308" lon="3.78697">
        <ele>104.458282</ele>
        <time>2020-06-28T09:34:39Z</time>
      </trkpt>
      <trkpt lat="43.68311" lon="3.78699">
        <ele>104.946983</ele>
        <time>2020-06-28T09:34:41Z</time>
      </trkpt>
      <trkpt lat="43.68313" lon="3.78702">
        <ele>105.384392</ele>
        <time>2020-06-28T09:34:43Z</time>
      </trkpt>
      <trkpt lat="43.68315" lon="3.78704">
        <ele>105.744041</ele>
        <time>2020-06-28T09:34:45Z</time>
      </trkpt>
      <trkpt lat="43.68303" lon="3.78694">
        <ele>106.486855</ele>
        <time>2020-06-28T09:37:12Z</time>
      </trkpt>
      <trkpt lat="43.68295" lon="3.78687">
        <ele>106.158531</ele>
        <time>2020-06-28T09:37:16Z</time>
      </trkpt>
      <trkpt lat="43.68287" lon="3.78681">
        <ele>105.63488</ele>
        <time>2020-06-28T09:37:18Z</time>
      </trkpt>
      <trkpt lat="43.68277" lon="3.78674">
        <ele>104.951012</ele>
        <time>2020-06-28T09:37:20Z</time>
      </trkpt>
      <trkpt lat="43.68269" lon="3.78668">
        <ele>104.166176</ele>
        <time>2020-06-28T09:37:22Z</time>
      </trkpt>
      <trkpt lat="43.68264" lon="3.78662">
        <ele>103.351807</ele>
        <time>2020-06-28T09:37:24Z</time>
      </trkpt>
      <trkpt lat="43.68262" lon="3.78656">
        <ele>102.579834</ele>
        <time>2020-06-28T09:37:26Z</time>
      </trkpt>
      <trkpt lat="43.68261" lon="3.78651">
        <ele>101.958496</ele>
        <time>2020-06-28T09:37:28Z</time>
      </trkpt>
      <trkpt lat="43.68261" lon="3.78646">
        <ele>101.586182</ele>
        <time>2020-06-28T09:37:30Z</time>
      </trkpt>
      <trkpt lat="43.68262" lon="3.78641">
        <ele>101.470055</ele>
        <time>2020-06-28T09:37:32Z</time>
      </trkpt>
      <trkpt lat="43.68262" lon="3.78635">
        <ele>101.470055</ele>
        <time>2020-06-28T09:37:34Z</time>
      </trkpt>
      <trkpt lat="43.68261" lon="3.78628">
        <ele>101.484619</ele>
        <time>2020-06-28T09:37:36Z</time>
      </trkpt>
      <trkpt lat="43.68259" lon="3.78621">
        <ele>101.580322</ele>
        <time>2020-06-28T09:37:38Z</time>
      </trkpt>
      <trkpt lat="43.68256" lon="3.78615">
        <ele>101.629395</ele>
        <time>2020-06-28T09:37:40Z</time>
      </trkpt>
      <trkpt lat="43.68252" lon="3.7861">
        <ele>101.629395</ele>
        <time>2020-06-28T09:37:42Z</time>
      </trkpt>
      <trkpt lat="43.68247" lon="3.78606">
        <ele>101.539764</ele>
        <time>2020-06-28T09:37:44Z</time>
      </trkpt>
      <trkpt lat="43.68241" lon="3.78601">
        <ele>101.429413</ele>
        <time>2020-06-28T09:37:46Z</time>
      </trkpt>
      <trkpt lat="43.68235" lon="3.78596">
        <ele>101.053337</ele>
        <time>2020-06-28T09:37:48Z</time>
      </trkpt>
      <trkpt lat="43.68229" lon="3.78591">
        <ele>100.53109</ele>
        <time>2020-06-28T09:37:50Z</time>
      </trkpt>
      <trkpt lat="43.68224" lon="3.78587">
        <ele>99.947212</ele>
        <time>2020-06-28T09:37:52Z</time>
      </trkpt>
      <trkpt lat="43.6822" lon="3.78586">
        <ele>99.421532</ele>
        <time>2020-06-28T09:37:54Z</time>
      </trkpt>
      <trkpt lat="43.68218" lon="3.78587">
        <ele>99.015663</ele>
        <time>2020-06-28T09:37:56Z</time>
      </trkpt>
      <trkpt lat="43.68214" lon="3.78592">
        <ele>98.720543</ele>
        <time>2020-06-28T09:37:58Z</time>
      </trkpt>
      <trkpt lat="43.68209" lon="3.78598">
        <ele>98.474037</ele>
        <time>2020-06-28T09:38:00Z</time>
      </trkpt>
      <trkpt lat="43.68203" lon="3.78604">
        <ele>98.196129</ele>
        <time>2020-06-28T09:38:02Z</time>
      </trkpt>
      <trkpt lat="43.68199" lon="3.78611">
        <ele>97.837158</ele>
        <time>2020-06-28T09:38:04Z</time>
      </trkpt>
      <trkpt lat="43.68194" lon="3.78618">
        <ele>97.626137</ele>
        <time>2020-06-28T09:38:06Z</time>
      </trkpt>
      <trkpt lat="43.68189" lon="3.78624">
        <ele>97.173096</ele>
        <time>2020-06-28T09:38:08Z</time>
      </trkpt>
      <trkpt lat="43.68185" lon="3.7863">
        <ele>96.650719</ele>
        <time>2020-06-28T09:38:10Z</time>
      </trkpt>
      <trkpt lat="43.68181" lon="3.78635">
        <ele>96.137535</ele>
        <time>2020-06-28T09:38:12Z</time>
      </trkpt>
      <trkpt lat="43.68176" lon="3.78641">
        <ele>95.639244</ele>
        <time>2020-06-28T09:38:14Z</time>
      </trkpt>
      <trkpt lat="43.68172" lon="3.78647">
        <ele>95.222328</ele>
        <time>2020-06-28T09:38:16Z</time>
      </trkpt>
      <trkpt lat="43.68166" lon="3.78654">
        <ele>94.823082</ele>
        <time>2020-06-28T09:38:18Z</time>
      </trkpt>
      <trkpt lat="43.6816" lon="3.78662">
        <ele>94.414711</ele>
        <time>2020-06-28T09:38:20Z</time>
      </trkpt>
      <trkpt lat="43.68153" lon="3.78672">
        <ele>93.969566</ele>
        <time>2020-06-28T09:38:22Z</time>
      </trkpt>
      <trkpt lat="43.68146" lon="3.78681">
        <ele>93.533607</ele>
        <time>2020-06-28T09:38:24Z</time>
      </trkpt>
      <trkpt lat="43.68139" lon="3.78691">
        <ele>93.131264</ele>
        <time>2020-06-28T09:38:26Z</time>
      </trkpt>
      <trkpt lat="43.68132" lon="3.78701">
        <ele>92.783936</ele>
        <time>2020-06-28T09:38:28Z</time>
      </trkpt>
      <trkpt lat="43.68126" lon="3.78711">
        <ele>92.618523</ele>
        <time>2020-06-28T09:38:30Z</time>
      </trkpt>
      <trkpt lat="43.68123" lon="3.78722">
        <ele>92.307251</ele>
        <time>2020-06-28T09:38:32Z</time>
      </trkpt>
      <trkpt lat="43.68125" lon="3.78732">
        <ele>92.000214</ele>
        <time>2020-06-28T09:38:34Z</time>
      </trkpt>
      <trkpt lat="43.68129" lon="3.78739">
        <ele>91.870811</ele>
        <time>2020-06-28T09:38:36Z</time>
      </trkpt>
      <trkpt lat="43.68132" lon="3.78746">
        <ele>91.765167</ele>
        <time>2020-06-28T09:38:38Z</time>
      </trkpt>
      <trkpt lat="43.68136" lon="3.78752">
        <ele>91.623085</ele>
        <time>2020-06-28T09:38:40Z</time>
      </trkpt>
      <trkpt lat="43.68139" lon="3.78759">
        <ele>91.595406</ele>
        <time>2020-06-28T09:38:42Z</time>
      </trkpt>
      <trkpt lat="43.68142" lon="3.78764">
        <ele>91.610832</ele>
        <time>2020-06-28T09:38:44Z</time>
      </trkpt>
      <trkpt lat="43.68144" lon="3.78769">
        <ele>91.610832</ele>
        <time>2020-06-28T09:38:46Z</time>
      </trkpt>
      <trkpt lat="43.68146" lon="3.78773">
        <ele>91.635254</ele>
        <time>2020-06-28T09:38:48Z</time>
      </trkpt>
      <trkpt lat="43.6814" lon="3.78759">
        <ele>91.920082</ele>
        <time>2020-06-28T09:39:16Z</time>
      </trkpt>
      <trkpt lat="43.68137" lon="3.78753">
        <ele>91.864876</ele>
        <time>2020-06-28T09:39:20Z</time>
      </trkpt>
      <trkpt lat="43.68134" lon="3.78747">
        <ele>91.777992</ele>
        <time>2020-06-28T09:39:22Z</time>
      </trkpt>
      <trkpt lat="43.68131" lon="3.7874">
        <ele>91.684731</ele>
        <time>2020-06-28T09:39:24Z</time>
      </trkpt>
      <trkpt lat="43.68126" lon="3.78734">
        <ele>91.632927</ele>
        <time>2020-06-28T09:39:26Z</time>
      </trkpt>
      <trkpt lat="43.68122" lon="3.78731">
        <ele>91.617775</ele>
        <time>2020-06-28T09:39:28Z</time>
      </trkpt>
      <trkpt lat="43.68119" lon="3.78729">
        <ele>91.603294</ele>
        <time>2020-06-28T09:39:30Z</time>
      </trkpt>
      <trkpt lat="43.68118" lon="3.78728">
        <ele>91.587471</ele>
        <time>2020-06-28T09:39:32Z</time>
      </trkpt>
      <trkpt lat="43.68108" lon="3.78718">
        <ele>91.43412</ele>
        <time>2020-06-28T09:39:48Z</time>
      </trkpt>
      <trkpt lat="43.68103" lon="3.78714">
        <ele>91.423973</ele>
        <time>2020-06-28T09:39:52Z</time>
      </trkpt>
      <trkpt lat="43.68098" lon="3.7871">
        <ele>91.407043</ele>
        <time>2020-06-28T09:39:54Z</time>
      </trkpt>
      <trkpt lat="43.68094" lon="3.78706">
        <ele>91.325142</ele>
        <time>2020-06-28T09:39:56Z</time>
      </trkpt>
      <trkpt lat="43.6809" lon="3.78702">
        <ele>91.196838</ele>
        <time>2020-06-28T09:39:58Z</time>
      </trkpt>
      <trkpt lat="43.68085" lon="3.78697">
        <ele>91.063957</ele>
        <time>2020-06-28T09:40:00Z</time>
      </trkpt>
      <trkpt lat="43.68081" lon="3.78692">
        <ele>90.967552</ele>
        <time>2020-06-28T09:40:02Z</time>
      </trkpt>
      <trkpt lat="43.68078" lon="3.78687">
        <ele>90.902832</ele>
        <time>2020-06-28T09:40:04Z</time>
      </trkpt>
      <trkpt lat="43.68073" lon="3.78681">
        <ele>90.841225</ele>
        <time>2020-06-28T09:40:06Z</time>
      </trkpt>
      <trkpt lat="43.68069" lon="3.78676">
        <ele>90.785889</ele>
        <time>2020-06-28T09:40:08Z</time>
      </trkpt>
      <trkpt lat="43.68063" lon="3.7867">
        <ele>90.767334</ele>
        <time>2020-06-28T09:40:10Z</time>
      </trkpt>
      <trkpt lat="43.68058" lon="3.78664">
        <ele>90.748863</ele>
        <time>2020-06-28T09:40:12Z</time>
      </trkpt>
      <trkpt lat="43.68052" lon="3.78659">
        <ele>90.748779</ele>
        <time>2020-06-28T09:40:14Z</time>
      </trkpt>
      <trkpt lat="43.68044" lon="3.78659">
        <ele>90.743896</ele>
        <time>2020-06-28T09:40:16Z</time>
      </trkpt>
      <trkpt lat="43.68036" lon="3.78662">
        <ele>90.737305</ele>
        <time>2020-06-28T09:40:18Z</time>
      </trkpt>
      <trkpt lat="43.6803" lon="3.7867">
        <ele>90.719154</ele>
        <time>2020-06-28T09:40:20Z</time>
      </trkpt>
      <trkpt lat="43.68026" lon="3.78677">
        <ele>90.625084</ele>
        <time>2020-06-28T09:40:22Z</time>
      </trkpt>
      <trkpt lat="43.68022" lon="3.78683">
        <ele>90.45459</ele>
        <time>2020-06-28T09:40:24Z</time>
      </trkpt>
      <trkpt lat="43.68017" lon="3.7869">
        <ele>90.276367</ele>
        <time>2020-06-28T09:40:26Z</time>
      </trkpt>
      <trkpt lat="43.68012" lon="3.78696">
        <ele>90.210045</ele>
        <time>2020-06-28T09:40:28Z</time>
      </trkpt>
      <trkpt lat="43.68008" lon="3.78702">
        <ele>90.177467</ele>
        <time>2020-06-28T09:40:30Z</time>
      </trkpt>
      <trkpt lat="43.68003" lon="3.78709">
        <ele>90.165184</ele>
        <time>2020-06-28T09:40:32Z</time>
      </trkpt>
      <trkpt lat="43.67998" lon="3.78716">
        <ele>90.165184</ele>
        <time>2020-06-28T09:40:34Z</time>
      </trkpt>
      <trkpt lat="43.67994" lon="3.78723">
        <ele>90.184692</ele>
        <time>2020-06-28T09:40:36Z</time>
      </trkpt>
      <trkpt lat="43.67989" lon="3.7873">
        <ele>90.201477</ele>
        <time>2020-06-28T09:40:38Z</time>
      </trkpt>
      <trkpt lat="43.67984" lon="3.78737">
        <ele>90.203552</ele>
        <time>2020-06-28T09:40:40Z</time>
      </trkpt>
      <trkpt lat="43.6798" lon="3.78745">
        <ele>90.203552</ele>
        <time>2020-06-28T09:40:42Z</time>
      </trkpt>
      <trkpt lat="43.67976" lon="3.78751">
        <ele>90.198769</ele>
        <time>2020-06-28T09:40:44Z</time>
      </trkpt>
      <trkpt lat="43.67971" lon="3.78758">
        <ele>90.179405</ele>
        <time>2020-06-28T09:40:46Z</time>
      </trkpt>
      <trkpt lat="43.67968" lon="3.78764">
        <ele>90.113716</ele>
        <time>2020-06-28T09:40:48Z</time>
      </trkpt>
      <trkpt lat="43.67965" lon="3.78769">
        <ele>90.069618</ele>
        <time>2020-06-28T09:40:50Z</time>
      </trkpt>
      <trkpt lat="43.67963" lon="3.78773">
        <ele>89.980782</ele>
        <time>2020-06-28T09:40:52Z</time>
      </trkpt>
      <trkpt lat="43.67963" lon="3.78778">
        <ele>89.931877</ele>
        <time>2020-06-28T09:40:54Z</time>
      </trkpt>
      <trkpt lat="43.67963" lon="3.78784">
        <ele>89.834724</ele>
        <time>2020-06-28T09:40:56Z</time>
      </trkpt>
      <trkpt lat="43.67964" lon="3.78791">
        <ele>89.741234</ele>
        <time>2020-06-28T09:40:58Z</time>
      </trkpt>
      <trkpt lat="43.67965" lon="3.78798">
        <ele>89.655373</ele>
        <time>2020-06-28T09:41:00Z</time>
      </trkpt>
      <trkpt lat="43.67966" lon="3.78806">
        <ele>89.57148</ele>
        <time>2020-06-28T09:41:02Z</time>
      </trkpt>
      <trkpt lat="43.67968" lon="3.78815">
        <ele>89.528557</ele>
        <time>2020-06-28T09:41:04Z</time>
      </trkpt>
      <trkpt lat="43.67968" lon="3.78824">
        <ele>89.528557</ele>
        <time>2020-06-28T09:41:06Z</time>
      </trkpt>
      <trkpt lat="43.6797" lon="3.78832">
        <ele>89.439087</ele>
        <time>2020-06-28T09:41:08Z</time>
      </trkpt>
      <trkpt lat="43.67971" lon="3.78841">
        <ele>89.297768</ele>
        <time>2020-06-28T09:41:10Z</time>
      </trkpt>
      <trkpt lat="43.67972" lon="3.7885">
        <ele>89.225487</ele>
        <time>2020-06-28T09:41:12Z</time>
      </trkpt>
      <trkpt lat="43.67974" lon="3.78858">
        <ele>89.075012</ele>
        <time>2020-06-28T09:41:14Z</time>
      </trkpt>
      <trkpt lat="43.67975" lon="3.78866">
        <ele>89.075012</ele>
        <time>2020-06-28T09:41:16Z</time>
      </trkpt>
      <trkpt lat="43.67976" lon="3.78874">
        <ele>88.988853</ele>
        <time>2020-06-28T09:41:18Z</time>
      </trkpt>
      <trkpt lat="43.67978" lon="3.78881">
        <ele>88.845459</ele>
        <time>2020-06-28T09:41:20Z</time>
      </trkpt>
      <trkpt lat="43.6798" lon="3.78889">
        <ele>88.678467</ele>
        <time>2020-06-28T09:41:22Z</time>
      </trkpt>
      <trkpt lat="43.67981" lon="3.78896">
        <ele>88.5979</ele>
        <time>2020-06-28T09:41:24Z</time>
      </trkpt>
      <trkpt lat="43.67983" lon="3.78904">
        <ele>88.469025</ele>
        <time>2020-06-28T09:41:26Z</time>
      </trkpt>
      <trkpt lat="43.67984" lon="3.78913">
        <ele>88.429779</ele>
        <time>2020-06-28T09:41:28Z</time>
      </trkpt>
      <trkpt lat="43.67984" lon="3.78922">
        <ele>88.429779</ele>
        <time>2020-06-28T09:41:30Z</time>
      </trkpt>
      <trkpt lat="43.67986" lon="3.78931">
        <ele>88.429779</ele>
        <time>2020-06-28T09:41:32Z</time>
      </trkpt>
      <trkpt lat="43.67987" lon="3.7894">
        <ele>88.429779</ele>
        <time>2020-06-28T09:41:34Z</time>
      </trkpt>
      <trkpt lat="43.67989" lon="3.78949">
        <ele>88.500114</ele>
        <time>2020-06-28T09:41:36Z</time>
      </trkpt>
      <trkpt lat="43.67991" lon="3.78958">
        <ele>88.55658</ele>
        <time>2020-06-28T09:41:38Z</time>
      </trkpt>
      <trkpt lat="43.67991" lon="3.78966">
        <ele>88.55658</ele>
        <time>2020-06-28T09:41:40Z</time>
      </trkpt>
      <trkpt lat="43.67991" lon="3.78975">
        <ele>88.620506</ele>
        <time>2020-06-28T09:41:42Z</time>
      </trkpt>
      <trkpt lat="43.67992" lon="3.78983">
        <ele>88.772949</ele>
        <time>2020-06-28T09:41:44Z</time>
      </trkpt>
      <trkpt lat="43.67995" lon="3.78993">
        <ele>88.82798</ele>
        <time>2020-06-28T09:41:46Z</time>
      </trkpt>
      <trkpt lat="43.67998" lon="3.79001">
        <ele>88.926819</ele>
        <time>2020-06-28T09:41:48Z</time>
      </trkpt>
      <trkpt lat="43.68002" lon="3.79009">
        <ele>88.97567</ele>
        <time>2020-06-28T09:41:50Z</time>
      </trkpt>
      <trkpt lat="43.68005" lon="3.79017">
        <ele>89.066078</ele>
        <time>2020-06-28T09:41:52Z</time>
      </trkpt>
      <trkpt lat="43.68008" lon="3.79025">
        <ele>89.174805</ele>
        <time>2020-06-28T09:41:54Z</time>
      </trkpt>
      <trkpt lat="43.68012" lon="3.79034">
        <ele>89.290199</ele>
        <time>2020-06-28T09:41:56Z</time>
      </trkpt>
      <trkpt lat="43.68015" lon="3.79042">
        <ele>89.396324</ele>
        <time>2020-06-28T09:41:58Z</time>
      </trkpt>
      <trkpt lat="43.68019" lon="3.79049">
        <ele>89.521812</ele>
        <time>2020-06-28T09:42:00Z</time>
      </trkpt>
      <trkpt lat="43.68023" lon="3.79056">
        <ele>89.689049</ele>
        <time>2020-06-28T09:42:02Z</time>
      </trkpt>
      <trkpt lat="43.68028" lon="3.79063">
        <ele>89.79126</ele>
        <time>2020-06-28T09:42:04Z</time>
      </trkpt>
      <trkpt lat="43.68033" lon="3.79069">
        <ele>89.901611</ele>
        <time>2020-06-28T09:42:06Z</time>
      </trkpt>
      <trkpt lat="43.68038" lon="3.79075">
        <ele>90.165932</ele>
        <time>2020-06-28T09:42:08Z</time>
      </trkpt>
      <trkpt lat="43.68043" lon="3.7908">
        <ele>90.325478</ele>
        <time>2020-06-28T09:42:10Z</time>
      </trkpt>
      <trkpt lat="43.68049" lon="3.79085">
        <ele>90.673485</ele>
        <time>2020-06-28T09:42:12Z</time>
      </trkpt>
      <trkpt lat="43.68053" lon="3.7909">
        <ele>91.021851</ele>
        <time>2020-06-28T09:42:14Z</time>
      </trkpt>
      <trkpt lat="43.68059" lon="3.79095">
        <ele>91.318359</ele>
        <time>2020-06-28T09:42:16Z</time>
      </trkpt>
      <trkpt lat="43.68063" lon="3.79101">
        <ele>91.556519</ele>
        <time>2020-06-28T09:42:18Z</time>
      </trkpt>
      <trkpt lat="43.68068" lon="3.79106">
        <ele>91.661713</ele>
        <time>2020-06-28T09:42:20Z</time>
      </trkpt>
      <trkpt lat="43.68073" lon="3.79112">
        <ele>91.88562</ele>
        <time>2020-06-28T09:42:22Z</time>
      </trkpt>
      <trkpt lat="43.68077" lon="3.79118">
        <ele>92.00766</ele>
        <time>2020-06-28T09:42:24Z</time>
      </trkpt>
      <trkpt lat="43.68081" lon="3.79124">
        <ele>92.251892</ele>
        <time>2020-06-28T09:42:26Z</time>
      </trkpt>
      <trkpt lat="43.68084" lon="3.79131">
        <ele>92.534508</ele>
        <time>2020-06-28T09:42:28Z</time>
      </trkpt>
      <trkpt lat="43.68088" lon="3.79137">
        <ele>92.77832</ele>
        <time>2020-06-28T09:42:30Z</time>
      </trkpt>
      <trkpt lat="43.68092" lon="3.79144">
        <ele>93.017662</ele>
        <time>2020-06-28T09:42:32Z</time>
      </trkpt>
      <trkpt lat="43.68095" lon="3.7915">
        <ele>93.220375</ele>
        <time>2020-06-28T09:42:34Z</time>
      </trkpt>
      <trkpt lat="43.68098" lon="3.79156">
        <ele>93.423424</ele>
        <time>2020-06-28T09:42:36Z</time>
      </trkpt>
      <trkpt lat="43.68102" lon="3.79162">
        <ele>93.621239</ele>
        <time>2020-06-28T09:42:38Z</time>
      </trkpt>
      <trkpt lat="43.68104" lon="3.79167">
        <ele>93.719177</ele>
        <time>2020-06-28T09:42:40Z</time>
      </trkpt>
      <trkpt lat="43.68105" lon="3.79169">
        <ele>93.816132</ele>
        <time>2020-06-28T09:42:42Z</time>
      </trkpt>
      <trkpt lat="43.68103" lon="3.79153">
        <ele>94.32618</ele>
        <time>2020-06-28T09:44:18Z</time>
      </trkpt>
      <trkpt lat="43.681" lon="3.79148">
        <ele>94.309212</ele>
        <time>2020-06-28T09:44:22Z</time>
      </trkpt>
      <trkpt lat="43.68096" lon="3.79142">
        <ele>94.20652</ele>
        <time>2020-06-28T09:44:24Z</time>
      </trkpt>
      <trkpt lat="43.68092" lon="3.79135">
        <ele>94.039581</ele>
        <time>2020-06-28T09:44:26Z</time>
      </trkpt>
      <trkpt lat="43.68088" lon="3.79128">
        <ele>93.820946</ele>
        <time>2020-06-28T09:44:28Z</time>
      </trkpt>
      <trkpt lat="43.68083" lon="3.79121">
        <ele>93.615967</ele>
        <time>2020-06-28T09:44:30Z</time>
      </trkpt>
      <trkpt lat="43.68079" lon="3.79114">
        <ele>93.508705</ele>
        <time>2020-06-28T09:44:32Z</time>
      </trkpt>
      <trkpt lat="43.68073" lon="3.79106">
        <ele>93.286377</ele>
        <time>2020-06-28T09:44:34Z</time>
      </trkpt>
      <trkpt lat="43.68066" lon="3.79098">
        <ele>93.006752</ele>
        <time>2020-06-28T09:44:36Z</time>
      </trkpt>
      <trkpt lat="43.6806" lon="3.79091">
        <ele>92.709717</ele>
        <time>2020-06-28T09:44:38Z</time>
      </trkpt>
      <trkpt lat="43.68052" lon="3.79084">
        <ele>92.395409</ele>
        <time>2020-06-28T09:44:40Z</time>
      </trkpt>
      <trkpt lat="43.68044" lon="3.79075">
        <ele>92.116272</ele>
        <time>2020-06-28T09:44:42Z</time>
      </trkpt>
      <trkpt lat="43.68035" lon="3.79066">
        <ele>91.972359</ele>
        <time>2020-06-28T09:44:44Z</time>
      </trkpt>
      <trkpt lat="43.68027" lon="3.79056">
        <ele>91.669037</ele>
        <time>2020-06-28T09:44:46Z</time>
      </trkpt>
      <trkpt lat="43.6802" lon="3.79044">
        <ele>91.25663</ele>
        <time>2020-06-28T09:44:48Z</time>
      </trkpt>
      <trkpt lat="43.68015" lon="3.79032">
        <ele>90.801933</ele>
        <time>2020-06-28T09:44:50Z</time>
      </trkpt>
      <trkpt lat="43.6801" lon="3.7902">
        <ele>90.34256</ele>
        <time>2020-06-28T09:44:52Z</time>
      </trkpt>
      <trkpt lat="43.68005" lon="3.79008">
        <ele>90.153023</ele>
        <time>2020-06-28T09:44:54Z</time>
      </trkpt>
      <trkpt lat="43.68" lon="3.78996">
        <ele>89.815758</ele>
        <time>2020-06-28T09:44:56Z</time>
      </trkpt>
      <trkpt lat="43.67996" lon="3.78985">
        <ele>89.550941</ele>
        <time>2020-06-28T09:44:58Z</time>
      </trkpt>
      <trkpt lat="43.67989" lon="3.78975">
        <ele>89.354004</ele>
        <time>2020-06-28T09:45:00Z</time>
      </trkpt>
      <trkpt lat="43.67983" lon="3.78967">
        <ele>89.199707</ele>
        <time>2020-06-28T09:45:02Z</time>
      </trkpt>
      <trkpt lat="43.67975" lon="3.78959">
        <ele>89.122231</ele>
        <time>2020-06-28T09:45:04Z</time>
      </trkpt>
      <trkpt lat="43.67968" lon="3.78953">
        <ele>88.951332</ele>
        <time>2020-06-28T09:45:06Z</time>
      </trkpt>
      <trkpt lat="43.67961" lon="3.78946">
        <ele>88.724152</ele>
        <time>2020-06-28T09:45:08Z</time>
      </trkpt>
      <trkpt lat="43.67954" lon="3.78939">
        <ele>88.47937</ele>
        <time>2020-06-28T09:45:10Z</time>
      </trkpt>
      <trkpt lat="43.67946" lon="3.78931">
        <ele>88.234497</ele>
        <time>2020-06-28T09:45:12Z</time>
      </trkpt>
      <trkpt lat="43.67938" lon="3.78922">
        <ele>88.05291</ele>
        <time>2020-06-28T09:45:14Z</time>
      </trkpt>
      <trkpt lat="43.67931" lon="3.78913">
        <ele>87.908203</ele>
        <time>2020-06-28T09:45:16Z</time>
      </trkpt>
      <trkpt lat="43.67923" lon="3.78904">
        <ele>87.792152</ele>
        <time>2020-06-28T09:45:18Z</time>
      </trkpt>
      <trkpt lat="43.67916" lon="3.78894">
        <ele>87.682289</ele>
        <time>2020-06-28T09:45:20Z</time>
      </trkpt>
      <trkpt lat="43.67909" lon="3.78884">
        <ele>87.627769</ele>
        <time>2020-06-28T09:45:22Z</time>
      </trkpt>
      <trkpt lat="43.67901" lon="3.78874">
        <ele>87.5214</ele>
        <time>2020-06-28T09:45:24Z</time>
      </trkpt>
      <trkpt lat="43.67893" lon="3.78863">
        <ele>87.452881</ele>
        <time>2020-06-28T09:45:26Z</time>
      </trkpt>
      <trkpt lat="43.67883" lon="3.78853">
        <ele>87.430092</ele>
        <time>2020-06-28T09:45:28Z</time>
      </trkpt>
      <trkpt lat="43.67875" lon="3.78842">
        <ele>87.430092</ele>
        <time>2020-06-28T09:45:30Z</time>
      </trkpt>
      <trkpt lat="43.67867" lon="3.78832">
        <ele>87.450111</ele>
        <time>2020-06-28T09:45:32Z</time>
      </trkpt>
      <trkpt lat="43.67859" lon="3.78822">
        <ele>87.477295</ele>
        <time>2020-06-28T09:45:34Z</time>
      </trkpt>
      <trkpt lat="43.67852" lon="3.78813">
        <ele>87.490883</ele>
        <time>2020-06-28T09:45:36Z</time>
      </trkpt>
      <trkpt lat="43.67846" lon="3.78803">
        <ele>87.522057</ele>
        <time>2020-06-28T09:45:38Z</time>
      </trkpt>
      <trkpt lat="43.67839" lon="3.78794">
        <ele>87.618652</ele>
        <time>2020-06-28T09:45:40Z</time>
      </trkpt>
      <trkpt lat="43.67832" lon="3.78785">
        <ele>87.763672</ele>
        <time>2020-06-28T09:45:42Z</time>
      </trkpt>
      <trkpt lat="43.67826" lon="3.78776">
        <ele>87.852539</ele>
        <time>2020-06-28T09:45:44Z</time>
      </trkpt>
      <trkpt lat="43.67819" lon="3.78768">
        <ele>87.951332</ele>
        <time>2020-06-28T09:45:46Z</time>
      </trkpt>
      <trkpt lat="43.67811" lon="3.78761">
        <ele>88.137047</ele>
        <time>2020-06-28T09:45:48Z</time>
      </trkpt>
      <trkpt lat="43.67803" lon="3.78755">
        <ele>88.317268</ele>
        <time>2020-06-28T09:45:50Z</time>
      </trkpt>
      <trkpt lat="43.67795" lon="3.7875">
        <ele>88.416527</ele>
        <time>2020-06-28T09:45:52Z</time>
      </trkpt>
      <trkpt lat="43.67788" lon="3.78746">
        <ele>88.435997</ele>
        <time>2020-06-28T09:45:54Z</time>
      </trkpt>
      <trkpt lat="43.67781" lon="3.78742">
        <ele>88.422798</ele>
        <time>2020-06-28T09:45:56Z</time>
      </trkpt>
      <trkpt lat="43.67775" lon="3.78738">
        <ele>88.362617</ele>
        <time>2020-06-28T09:45:58Z</time>
      </trkpt>
      <trkpt lat="43.67769" lon="3.78732">
        <ele>88.318367</ele>
        <time>2020-06-28T09:46:00Z</time>
      </trkpt>
      <trkpt lat="43.67767" lon="3.78723">
        <ele>88.318367</ele>
        <time>2020-06-28T09:46:02Z</time>
      </trkpt>
      <trkpt lat="43.67769" lon="3.78713">
        <ele>88.345398</ele>
        <time>2020-06-28T09:46:04Z</time>
      </trkpt>
      <trkpt lat="43.67772" lon="3.78703">
        <ele>88.405098</ele>
        <time>2020-06-28T09:46:06Z</time>
      </trkpt>
      <trkpt lat="43.67774" lon="3.78694">
        <ele>88.680237</ele>
        <time>2020-06-28T09:46:08Z</time>
      </trkpt>
      <trkpt lat="43.67775" lon="3.78684">
        <ele>89.125435</ele>
        <time>2020-06-28T09:46:10Z</time>
      </trkpt>
      <trkpt lat="43.67776" lon="3.78673">
        <ele>89.616577</ele>
        <time>2020-06-28T09:46:12Z</time>
      </trkpt>
      <trkpt lat="43.67777" lon="3.78661">
        <ele>90.275299</ele>
        <time>2020-06-28T09:46:14Z</time>
      </trkpt>
      <trkpt lat="43.67778" lon="3.78649">
        <ele>90.447014</ele>
        <time>2020-06-28T09:46:16Z</time>
      </trkpt>
      <trkpt lat="43.67778" lon="3.78636">
        <ele>90.587685</ele>
        <time>2020-06-28T09:46:18Z</time>
      </trkpt>
      <trkpt lat="43.67776" lon="3.78624">
        <ele>90.815376</ele>
        <time>2020-06-28T09:46:20Z</time>
      </trkpt>
      <trkpt lat="43.67772" lon="3.78615">
        <ele>91.09034</ele>
        <time>2020-06-28T09:46:22Z</time>
      </trkpt>
      <trkpt lat="43.67768" lon="3.78609">
        <ele>91.681328</ele>
        <time>2020-06-28T09:46:24Z</time>
      </trkpt>
      <trkpt lat="43.67763" lon="3.78606">
        <ele>92.056274</ele>
        <time>2020-06-28T09:46:26Z</time>
      </trkpt>
      <trkpt lat="43.67759" lon="3.78607">
        <ele>92.762016</ele>
        <time>2020-06-28T09:46:28Z</time>
      </trkpt>
      <trkpt lat="43.67753" lon="3.78609">
        <ele>93.184135</ele>
        <time>2020-06-28T09:46:30Z</time>
      </trkpt>
      <trkpt lat="43.67747" lon="3.7861">
        <ele>93.333282</ele>
        <time>2020-06-28T09:46:32Z</time>
      </trkpt>
      <trkpt lat="43.6774" lon="3.78613">
        <ele>93.346313</ele>
        <time>2020-06-28T09:46:34Z</time>
      </trkpt>
      <trkpt lat="43.67734" lon="3.78615">
        <ele>93.319695</ele>
        <time>2020-06-28T09:46:36Z</time>
      </trkpt>
      <trkpt lat="43.67728" lon="3.78618">
        <ele>93.232826</ele>
        <time>2020-06-28T09:46:38Z</time>
      </trkpt>
      <trkpt lat="43.67722" lon="3.78621">
        <ele>93.132507</ele>
        <time>2020-06-28T09:46:40Z</time>
      </trkpt>
      <trkpt lat="43.67715" lon="3.78624">
        <ele>93.012451</ele>
        <time>2020-06-28T09:46:42Z</time>
      </trkpt>
      <trkpt lat="43.67709" lon="3.78627">
        <ele>92.879578</ele>
        <time>2020-06-28T09:46:44Z</time>
      </trkpt>
      <trkpt lat="43.67702" lon="3.78629">
        <ele>92.809113</ele>
        <time>2020-06-28T09:46:46Z</time>
      </trkpt>
      <trkpt lat="43.67695" lon="3.78632">
        <ele>92.733742</ele>
        <time>2020-06-28T09:46:48Z</time>
      </trkpt>
      <trkpt lat="43.67687" lon="3.78634">
        <ele>92.554199</ele>
        <time>2020-06-28T09:46:50Z</time>
      </trkpt>
      <trkpt lat="43.6768" lon="3.78636">
        <ele>92.347816</ele>
        <time>2020-06-28T09:46:52Z</time>
      </trkpt>
      <trkpt lat="43.67671" lon="3.78639">
        <ele>92.133018</ele>
        <time>2020-06-28T09:46:54Z</time>
      </trkpt>
      <trkpt lat="43.67664" lon="3.78641">
        <ele>91.952141</ele>
        <time>2020-06-28T09:46:56Z</time>
      </trkpt>
      <trkpt lat="43.67656" lon="3.78643">
        <ele>91.806335</ele>
        <time>2020-06-28T09:46:58Z</time>
      </trkpt>
      <trkpt lat="43.67648" lon="3.78645">
        <ele>91.676758</ele>
        <time>2020-06-28T09:47:00Z</time>
      </trkpt>
      <trkpt lat="43.6764" lon="3.78647">
        <ele>91.55143</ele>
        <time>2020-06-28T09:47:02Z</time>
      </trkpt>
      <trkpt lat="43.67632" lon="3.78648">
        <ele>91.430016</ele>
        <time>2020-06-28T09:47:04Z</time>
      </trkpt>
      <trkpt lat="43.67624" lon="3.78648">
        <ele>91.269203</ele>
        <time>2020-06-28T09:47:06Z</time>
      </trkpt>
      <trkpt lat="43.67615" lon="3.78648">
        <ele>91.228844</ele>
        <time>2020-06-28T09:47:08Z</time>
      </trkpt>
      <trkpt lat="43.67606" lon="3.78649">
        <ele>91.19857</ele>
        <time>2020-06-28T09:47:10Z</time>
      </trkpt>
      <trkpt lat="43.67596" lon="3.78648">
        <ele>91.143715</ele>
        <time>2020-06-28T09:47:12Z</time>
      </trkpt>
      <trkpt lat="43.67586" lon="3.78649">
        <ele>91.066811</ele>
        <time>2020-06-28T09:47:14Z</time>
      </trkpt>
      <trkpt lat="43.67577" lon="3.78648">
        <ele>90.957275</ele>
        <time>2020-06-28T09:47:16Z</time>
      </trkpt>
      <trkpt lat="43.67566" lon="3.78648">
        <ele>90.818115</ele>
        <time>2020-06-28T09:47:18Z</time>
      </trkpt>
      <trkpt lat="43.67555" lon="3.78648">
        <ele>90.680824</ele>
        <time>2020-06-28T09:47:20Z</time>
      </trkpt>
      <trkpt lat="43.67544" lon="3.78647">
        <ele>90.610023</ele>
        <time>2020-06-28T09:47:22Z</time>
      </trkpt>
      <trkpt lat="43.67534" lon="3.78647">
        <ele>90.473793</ele>
        <time>2020-06-28T09:47:24Z</time>
      </trkpt>
      <trkpt lat="43.67524" lon="3.78647">
        <ele>90.326683</ele>
        <time>2020-06-28T09:47:26Z</time>
      </trkpt>
      <trkpt lat="43.67514" lon="3.78647">
        <ele>90.199524</ele>
        <time>2020-06-28T09:47:28Z</time>
      </trkpt>
      <trkpt lat="43.67508" lon="3.78647">
        <ele>90.095802</ele>
        <time>2020-06-28T09:47:30Z</time>
      </trkpt>
      <trkpt lat="43.67508" lon="3.78652">
        <ele>90.030579</ele>
        <time>2020-06-28T09:47:32Z</time>
      </trkpt>
      <trkpt lat="43.67513" lon="3.78652">
        <ele>89.999817</ele>
        <time>2020-06-28T09:47:34Z</time>
      </trkpt>
      <trkpt lat="43.67518" lon="3.78652">
        <ele>89.900246</ele>
        <time>2020-06-28T09:47:36Z</time>
      </trkpt>
      <trkpt lat="43.67523" lon="3.78654">
        <ele>89.812965</ele>
        <time>2020-06-28T09:47:38Z</time>
      </trkpt>
      <trkpt lat="43.67524" lon="3.78658">
        <ele>89.726685</ele>
        <time>2020-06-28T09:47:40Z</time>
      </trkpt>
      <trkpt lat="43.67524" lon="3.78663">
        <ele>89.671684</ele>
        <time>2020-06-28T09:47:42Z</time>
      </trkpt>
      <trkpt lat="43.67527" lon="3.78669">
        <ele>89.565125</ele>
        <time>2020-06-28T09:47:44Z</time>
      </trkpt>
      <trkpt lat="43.6753" lon="3.78677">
        <ele>89.36676</ele>
        <time>2020-06-28T09:47:46Z</time>
      </trkpt>
      <trkpt lat="43.67532" lon="3.78686">
        <ele>89.238037</ele>
        <time>2020-06-28T09:47:48Z</time>
      </trkpt>
      <trkpt lat="43.67534" lon="3.78697">
        <ele>89.092232</ele>
        <time>2020-06-28T09:47:50Z</time>
      </trkpt>
      <trkpt lat="43.67537" lon="3.78709">
        <ele>88.660362</ele>
        <time>2020-06-28T09:47:52Z</time>
      </trkpt>
      <trkpt lat="43.67539" lon="3.7872">
        <ele>88.072212</ele>
        <time>2020-06-28T09:47:54Z</time>
      </trkpt>
      <trkpt lat="43.67542" lon="3.78731">
        <ele>87.427734</ele>
        <time>2020-06-28T09:47:56Z</time>
      </trkpt>
      <trkpt lat="43.67544" lon="3.78743">
        <ele>87.096191</ele>
        <time>2020-06-28T09:47:58Z</time>
      </trkpt>
      <trkpt lat="43.67544" lon="3.78756">
        <ele>86.594971</ele>
        <time>2020-06-28T09:48:00Z</time>
      </trkpt>
      <trkpt lat="43.67541" lon="3.78769">
        <ele>86.005615</ele>
        <time>2020-06-28T09:48:02Z</time>
      </trkpt>
      <trkpt lat="43.67533" lon="3.78779">
        <ele>85.450844</ele>
        <time>2020-06-28T09:48:04Z</time>
      </trkpt>
      <trkpt lat="43.67522" lon="3.78787">
        <ele>84.997154</ele>
        <time>2020-06-28T09:48:06Z</time>
      </trkpt>
      <trkpt lat="43.67513" lon="3.78793">
        <ele>84.752441</ele>
        <time>2020-06-28T09:48:08Z</time>
      </trkpt>
      <trkpt lat="43.67503" lon="3.78798">
        <ele>84.609375</ele>
        <time>2020-06-28T09:48:10Z</time>
      </trkpt>
      <trkpt lat="43.67492" lon="3.78803">
        <ele>84.501869</ele>
        <time>2020-06-28T09:48:12Z</time>
      </trkpt>
      <trkpt lat="43.67482" lon="3.78807">
        <ele>84.414711</ele>
        <time>2020-06-28T09:48:14Z</time>
      </trkpt>
      <trkpt lat="43.67471" lon="3.78811">
        <ele>84.375572</ele>
        <time>2020-06-28T09:48:16Z</time>
      </trkpt>
      <trkpt lat="43.67461" lon="3.78811">
        <ele>84.303551</ele>
        <time>2020-06-28T09:48:18Z</time>
      </trkpt>
      <trkpt lat="43.67452" lon="3.7881">
        <ele>84.19603</ele>
        <time>2020-06-28T09:48:20Z</time>
      </trkpt>
      <trkpt lat="43.67442" lon="3.78807">
        <ele>84.075897</ele>
        <time>2020-06-28T09:48:22Z</time>
      </trkpt>
      <trkpt lat="43.67434" lon="3.78805">
        <ele>83.952988</ele>
        <time>2020-06-28T09:48:24Z</time>
      </trkpt>
      <trkpt lat="43.67425" lon="3.78804">
        <ele>83.876129</ele>
        <time>2020-06-28T09:48:26Z</time>
      </trkpt>
      <trkpt lat="43.67418" lon="3.78807">
        <ele>83.814751</ele>
        <time>2020-06-28T09:48:28Z</time>
      </trkpt>
      <trkpt lat="43.67415" lon="3.78817">
        <ele>83.750641</ele>
        <time>2020-06-28T09:48:30Z</time>
      </trkpt>
      <trkpt lat="43.67412" lon="3.78828">
        <ele>83.633064</ele>
        <time>2020-06-28T09:48:32Z</time>
      </trkpt>
      <trkpt lat="43.67413" lon="3.78838">
        <ele>83.479576</ele>
        <time>2020-06-28T09:48:34Z</time>
      </trkpt>
      <trkpt lat="43.67413" lon="3.78844">
        <ele>83.434059</ele>
        <time>2020-06-28T09:48:36Z</time>
      </trkpt>
      <trkpt lat="43.67414" lon="3.7885">
        <ele>83.434059</ele>
        <time>2020-06-28T09:48:38Z</time>
      </trkpt>
      <trkpt lat="43.67414" lon="3.78855">
        <ele>83.519615</ele>
        <time>2020-06-28T09:48:40Z</time>
      </trkpt>
      <trkpt lat="43.67415" lon="3.7886">
        <ele>83.720528</ele>
        <time>2020-06-28T09:48:42Z</time>
      </trkpt>
      <trkpt lat="43.67418" lon="3.78861">
        <ele>83.884773</ele>
        <time>2020-06-28T09:48:44Z</time>
      </trkpt>
      <trkpt lat="43.67421" lon="3.78862">
        <ele>83.959404</ele>
        <time>2020-06-28T09:48:46Z</time>
      </trkpt>
      <trkpt lat="43.67423" lon="3.78864">
        <ele>84.024734</ele>
        <time>2020-06-28T09:48:48Z</time>
      </trkpt>
      <trkpt lat="43.67426" lon="3.78867">
        <ele>84.123741</ele>
        <time>2020-06-28T09:48:50Z</time>
      </trkpt>
      <trkpt lat="43.67426" lon="3.7887">
        <ele>84.215996</ele>
        <time>2020-06-28T09:48:52Z</time>
      </trkpt>
      <trkpt lat="43.67424" lon="3.7887">
        <ele>84.299736</ele>
        <time>2020-06-28T09:48:54Z</time>
      </trkpt>
      <trkpt lat="43.67421" lon="3.78868">
        <ele>84.343628</ele>
        <time>2020-06-28T09:48:56Z</time>
      </trkpt>
      <trkpt lat="43.67417" lon="3.78869">
        <ele>84.388741</ele>
        <time>2020-06-28T09:48:58Z</time>
      </trkpt>
      <trkpt lat="43.67413" lon="3.78873">
        <ele>84.412308</ele>
        <time>2020-06-28T09:49:00Z</time>
      </trkpt>
      <trkpt lat="43.67412" lon="3.78878">
        <ele>84.438438</ele>
        <time>2020-06-28T09:49:02Z</time>
      </trkpt>
      <trkpt lat="43.67406" lon="3.78889">
        <ele>84.739723</ele>
        <time>2020-06-28T09:49:38Z</time>
      </trkpt>
      <trkpt lat="43.67412" lon="3.78875">
        <ele>84.866058</ele>
        <time>2020-06-28T09:53:38Z</time>
      </trkpt>
      <trkpt lat="43.67408" lon="3.78873">
        <ele>84.830437</ele>
        <time>2020-06-28T09:53:42Z</time>
      </trkpt>
      <trkpt lat="43.67404" lon="3.78874">
        <ele>84.718834</ele>
        <time>2020-06-28T09:53:44Z</time>
      </trkpt>
      <trkpt lat="43.674" lon="3.78872">
        <ele>84.594933</ele>
        <time>2020-06-28T09:53:46Z</time>
      </trkpt>
      <trkpt lat="43.67396" lon="3.78871">
        <ele>84.499222</ele>
        <time>2020-06-28T09:53:48Z</time>
      </trkpt>
      <trkpt lat="43.67392" lon="3.78868">
        <ele>84.472839</ele>
        <time>2020-06-28T09:53:50Z</time>
      </trkpt>
      <trkpt lat="43.67389" lon="3.78865">
        <ele>84.458031</ele>
        <time>2020-06-28T09:53:52Z</time>
      </trkpt>
      <trkpt lat="43.67385" lon="3.78864">
        <ele>84.414879</ele>
        <time>2020-06-28T09:53:54Z</time>
      </trkpt>
      <trkpt lat="43.67381" lon="3.78863">
        <ele>84.339195</ele>
        <time>2020-06-28T09:53:56Z</time>
      </trkpt>
      <trkpt lat="43.67377" lon="3.78862">
        <ele>84.267418</ele>
        <time>2020-06-28T09:53:58Z</time>
      </trkpt>
      <trkpt lat="43.67372" lon="3.78862">
        <ele>84.206215</ele>
        <time>2020-06-28T09:54:00Z</time>
      </trkpt>
      <trkpt lat="43.67368" lon="3.78861">
        <ele>84.173828</ele>
        <time>2020-06-28T09:54:02Z</time>
      </trkpt>
      <trkpt lat="43.67365" lon="3.78858">
        <ele>84.150879</ele>
        <time>2020-06-28T09:54:04Z</time>
      </trkpt>
      <trkpt lat="43.67362" lon="3.78858">
        <ele>84.123863</ele>
        <time>2020-06-28T09:54:06Z</time>
      </trkpt>
      <trkpt lat="43.67351" lon="3.78855">
        <ele>84.002113</ele>
        <time>2020-06-28T09:54:16Z</time>
      </trkpt>
      <trkpt lat="43.67346" lon="3.78855">
        <ele>83.98893</ele>
        <time>2020-06-28T09:54:20Z</time>
      </trkpt>
      <trkpt lat="43.67342" lon="3.78857">
        <ele>83.976723</ele>
        <time>2020-06-28T09:54:22Z</time>
      </trkpt>
      <trkpt lat="43.67338" lon="3.78859">
        <ele>83.977699</ele>
        <time>2020-06-28T09:54:24Z</time>
      </trkpt>
      <trkpt lat="43.67333" lon="3.7886">
        <ele>83.987617</ele>
        <time>2020-06-28T09:54:26Z</time>
      </trkpt>
      <trkpt lat="43.67331" lon="3.78858">
        <ele>84.004341</ele>
        <time>2020-06-28T09:54:28Z</time>
      </trkpt>
      <trkpt lat="43.67326" lon="3.78856">
        <ele>84.007843</ele>
        <time>2020-06-28T09:54:30Z</time>
      </trkpt>
      <trkpt lat="43.67322" lon="3.78856">
        <ele>83.996803</ele>
        <time>2020-06-28T09:54:32Z</time>
      </trkpt>
      <trkpt lat="43.67311" lon="3.78852">
        <ele>83.791969</ele>
        <time>2020-06-28T09:54:44Z</time>
      </trkpt>
      <trkpt lat="43.67306" lon="3.78852">
        <ele>83.750801</ele>
        <time>2020-06-28T09:54:48Z</time>
      </trkpt>
      <trkpt lat="43.67302" lon="3.78852">
        <ele>83.706215</ele>
        <time>2020-06-28T09:54:50Z</time>
      </trkpt>
      <trkpt lat="43.67296" lon="3.78852">
        <ele>83.685646</ele>
        <time>2020-06-28T09:54:52Z</time>
      </trkpt>
      <trkpt lat="43.67291" lon="3.78852">
        <ele>83.668091</ele>
        <time>2020-06-28T09:54:54Z</time>
      </trkpt>
      <trkpt lat="43.67289" lon="3.7885">
        <ele>83.632881</ele>
        <time>2020-06-28T09:54:56Z</time>
      </trkpt>
      <trkpt lat="43.67287" lon="3.7885">
        <ele>83.592751</ele>
        <time>2020-06-28T09:54:58Z</time>
      </trkpt>
      <trkpt lat="43.67285" lon="3.7885">
        <ele>83.546021</ele>
        <time>2020-06-28T09:55:00Z</time>
      </trkpt>
      <trkpt lat="43.67282" lon="3.78851">
        <ele>83.51046</ele>
        <time>2020-06-28T09:55:02Z</time>
      </trkpt>
      <trkpt lat="43.67279" lon="3.7885">
        <ele>83.48954</ele>
        <time>2020-06-28T09:55:04Z</time>
      </trkpt>
      <trkpt lat="43.67276" lon="3.78849">
        <ele>83.477112</ele>
        <time>2020-06-28T09:55:06Z</time>
      </trkpt>
      <trkpt lat="43.67275" lon="3.78849">
        <ele>83.462807</ele>
        <time>2020-06-28T09:55:08Z</time>
      </trkpt>
      <trkpt lat="43.67264" lon="3.78843">
        <ele>83.327309</ele>
        <time>2020-06-28T09:55:54Z</time>
      </trkpt>
      <trkpt lat="43.67259" lon="3.78842">
        <ele>83.321861</ele>
        <time>2020-06-28T09:55:58Z</time>
      </trkpt>
      <trkpt lat="43.67254" lon="3.78842">
        <ele>83.311523</ele>
        <time>2020-06-28T09:56:00Z</time>
      </trkpt>
      <trkpt lat="43.67249" lon="3.78843">
        <ele>83.298912</ele>
        <time>2020-06-28T09:56:02Z</time>
      </trkpt>
      <trkpt lat="43.67244" lon="3.78845">
        <ele>83.296715</ele>
        <time>2020-06-28T09:56:04Z</time>
      </trkpt>
      <trkpt lat="43.6724" lon="3.78846">
        <ele>83.297607</ele>
        <time>2020-06-28T09:56:06Z</time>
      </trkpt>
      <trkpt lat="43.67235" lon="3.78847">
        <ele>83.307045</ele>
        <time>2020-06-28T09:56:08Z</time>
      </trkpt>
      <trkpt lat="43.67231" lon="3.78848">
        <ele>83.327965</ele>
        <time>2020-06-28T09:56:10Z</time>
      </trkpt>
      <trkpt lat="43.67226" lon="3.78847">
        <ele>83.337402</ele>
        <time>2020-06-28T09:56:12Z</time>
      </trkpt>
      <trkpt lat="43.67221" lon="3.78849">
        <ele>83.352211</ele>
        <time>2020-06-28T09:56:14Z</time>
      </trkpt>
      <trkpt lat="43.67215" lon="3.78852">
        <ele>83.363037</ele>
        <time>2020-06-28T09:56:16Z</time>
      </trkpt>
      <trkpt lat="43.6721" lon="3.78855">
        <ele>83.37809</ele>
        <time>2020-06-28T09:56:18Z</time>
      </trkpt>
      <trkpt lat="43.67206" lon="3.78856">
        <ele>83.403725</ele>
        <time>2020-06-28T09:56:20Z</time>
      </trkpt>
      <trkpt lat="43.67202" lon="3.78857">
        <ele>83.438393</ele>
        <time>2020-06-28T09:56:22Z</time>
      </trkpt>
      <trkpt lat="43.67197" lon="3.78858">
        <ele>83.467285</ele>
        <time>2020-06-28T09:56:24Z</time>
      </trkpt>
      <trkpt lat="43.67194" lon="3.78859">
        <ele>83.489929</ele>
        <time>2020-06-28T09:56:26Z</time>
      </trkpt>
      <trkpt lat="43.67192" lon="3.78861">
        <ele>83.504066</ele>
        <time>2020-06-28T09:56:28Z</time>
      </trkpt>
      <trkpt lat="43.67189" lon="3.78865">
        <ele>83.516068</ele>
        <time>2020-06-28T09:56:30Z</time>
      </trkpt>
      <trkpt lat="43.67186" lon="3.78867">
        <ele>83.529114</ele>
        <time>2020-06-28T09:56:32Z</time>
      </trkpt>
      <trkpt lat="43.67182" lon="3.78869">
        <ele>83.547081</ele>
        <time>2020-06-28T09:56:34Z</time>
      </trkpt>
      <trkpt lat="43.67178" lon="3.78869">
        <ele>83.560188</ele>
        <time>2020-06-28T09:56:36Z</time>
      </trkpt>
      <trkpt lat="43.67173" lon="3.78871">
        <ele>83.562202</ele>
        <time>2020-06-28T09:56:38Z</time>
      </trkpt>
      <trkpt lat="43.67169" lon="3.78872">
        <ele>83.55986</ele>
        <time>2020-06-28T09:56:40Z</time>
      </trkpt>
      <trkpt lat="43.67165" lon="3.78873">
        <ele>83.553825</ele>
        <time>2020-06-28T09:56:42Z</time>
      </trkpt>
      <trkpt lat="43.67159" lon="3.78874">
        <ele>83.53167</ele>
        <time>2020-06-28T09:56:44Z</time>
      </trkpt>
      <trkpt lat="43.67155" lon="3.78875">
        <ele>83.500557</ele>
        <time>2020-06-28T09:56:46Z</time>
      </trkpt>
      <trkpt lat="43.67149" lon="3.78877">
        <ele>83.462959</ele>
        <time>2020-06-28T09:56:48Z</time>
      </trkpt>
      <trkpt lat="43.67144" lon="3.78878">
        <ele>83.421638</ele>
        <time>2020-06-28T09:56:50Z</time>
      </trkpt>
      <trkpt lat="43.67139" lon="3.78878">
        <ele>83.375717</ele>
        <time>2020-06-28T09:56:52Z</time>
      </trkpt>
      <trkpt lat="43.67136" lon="3.78879">
        <ele>83.350929</ele>
        <time>2020-06-28T09:56:54Z</time>
      </trkpt>
      <trkpt lat="43.6713" lon="3.7888">
        <ele>83.298195</ele>
        <time>2020-06-28T09:56:56Z</time>
      </trkpt>
      <trkpt lat="43.67126" lon="3.7888">
        <ele>83.238274</ele>
        <time>2020-06-28T09:56:58Z</time>
      </trkpt>
      <trkpt lat="43.6712" lon="3.7888">
        <ele>83.171883</ele>
        <time>2020-06-28T09:57:00Z</time>
      </trkpt>
      <trkpt lat="43.67116" lon="3.7888">
        <ele>83.096519</ele>
        <time>2020-06-28T09:57:02Z</time>
      </trkpt>
      <trkpt lat="43.67111" lon="3.78882">
        <ele>83.021889</ele>
        <time>2020-06-28T09:57:04Z</time>
      </trkpt>
      <trkpt lat="43.67108" lon="3.78884">
        <ele>82.984703</ele>
        <time>2020-06-28T09:57:06Z</time>
      </trkpt>
      <trkpt lat="43.67105" lon="3.78886">
        <ele>82.900551</ele>
        <time>2020-06-28T09:57:08Z</time>
      </trkpt>
      <trkpt lat="43.67104" lon="3.78888">
        <ele>82.807777</ele>
        <time>2020-06-28T09:57:10Z</time>
      </trkpt>
      <trkpt lat="43.67094" lon="3.78893">
        <ele>82.554359</ele>
        <time>2020-06-28T09:59:58Z</time>
      </trkpt>
      <trkpt lat="43.67094" lon="3.78897">
        <ele>82.547363</ele>
        <time>2020-06-28T10:00:02Z</time>
      </trkpt>
      <trkpt lat="43.67095" lon="3.78899">
        <ele>82.561119</ele>
        <time>2020-06-28T10:00:04Z</time>
      </trkpt>
      <trkpt lat="43.67094" lon="3.78902">
        <ele>82.646942</ele>
        <time>2020-06-28T10:00:06Z</time>
      </trkpt>
      <trkpt lat="43.67094" lon="3.78905">
        <ele>82.800667</ele>
        <time>2020-06-28T10:00:08Z</time>
      </trkpt>
      <trkpt lat="43.67093" lon="3.78908">
        <ele>82.971535</ele>
        <time>2020-06-28T10:00:10Z</time>
      </trkpt>
      <trkpt lat="43.67093" lon="3.78911">
        <ele>83.135063</ele>
        <time>2020-06-28T10:00:12Z</time>
      </trkpt>
      <trkpt lat="43.67092" lon="3.78915">
        <ele>83.218513</ele>
        <time>2020-06-28T10:00:14Z</time>
      </trkpt>
      <trkpt lat="43.67091" lon="3.78918">
        <ele>83.41597</ele>
        <time>2020-06-28T10:00:16Z</time>
      </trkpt>
      <trkpt lat="43.6709" lon="3.78922">
        <ele>83.642113</ele>
        <time>2020-06-28T10:00:18Z</time>
      </trkpt>
      <trkpt lat="43.67089" lon="3.78926">
        <ele>83.865166</ele>
        <time>2020-06-28T10:00:20Z</time>
      </trkpt>
      <trkpt lat="43.67088" lon="3.78929">
        <ele>84.067924</ele>
        <time>2020-06-28T10:00:22Z</time>
      </trkpt>
      <trkpt lat="43.67087" lon="3.78932">
        <ele>84.156555</ele>
        <time>2020-06-28T10:00:24Z</time>
      </trkpt>
      <trkpt lat="43.67085" lon="3.78934">
        <ele>84.341125</ele>
        <time>2020-06-28T10:00:26Z</time>
      </trkpt>
      <trkpt lat="43.67084" lon="3.78938">
        <ele>84.506569</ele>
        <time>2020-06-28T10:00:28Z</time>
      </trkpt>
      <trkpt lat="43.67083" lon="3.78941">
        <ele>84.651733</ele>
        <time>2020-06-28T10:00:30Z</time>
      </trkpt>
      <trkpt lat="43.67081" lon="3.78944">
        <ele>84.772102</ele>
        <time>2020-06-28T10:00:32Z</time>
      </trkpt>
      <trkpt lat="43.6708" lon="3.78947">
        <ele>84.879784</ele>
        <time>2020-06-28T10:00:34Z</time>
      </trkpt>
      <trkpt lat="43.67079" lon="3.78951">
        <ele>84.979858</ele>
        <time>2020-06-28T10:00:36Z</time>
      </trkpt>
      <trkpt lat="43.67078" lon="3.78954">
        <ele>85.033531</ele>
        <time>2020-06-28T10:00:38Z</time>
      </trkpt>
      <trkpt lat="43.67076" lon="3.78957">
        <ele>85.151161</ele>
        <time>2020-06-28T10:00:40Z</time>
      </trkpt>
      <trkpt lat="43.67074" lon="3.7896">
        <ele>85.287163</ele>
        <time>2020-06-28T10:00:42Z</time>
      </trkpt>
      <trkpt lat="43.67073" lon="3.78963">
        <ele>85.397346</ele>
        <time>2020-06-28T10:00:44Z</time>
      </trkpt>
      <trkpt lat="43.67071" lon="3.78965">
        <ele>85.484711</ele>
        <time>2020-06-28T10:00:46Z</time>
      </trkpt>
      <trkpt lat="43.6707" lon="3.78968">
        <ele>85.567284</ele>
        <time>2020-06-28T10:00:48Z</time>
      </trkpt>
      <trkpt lat="43.67069" lon="3.78971">
        <ele>85.621437</ele>
        <time>2020-06-28T10:00:50Z</time>
      </trkpt>
      <trkpt lat="43.67068" lon="3.78974">
        <ele>85.743767</ele>
        <time>2020-06-28T10:00:52Z</time>
      </trkpt>
      <trkpt lat="43.67067" lon="3.78978">
        <ele>85.886818</ele>
        <time>2020-06-28T10:00:54Z</time>
      </trkpt>
      <trkpt lat="43.67065" lon="3.78981">
        <ele>86.059868</ele>
        <time>2020-06-28T10:00:56Z</time>
      </trkpt>
      <trkpt lat="43.67064" lon="3.78984">
        <ele>86.158661</ele>
        <time>2020-06-28T10:00:58Z</time>
      </trkpt>
      <trkpt lat="43.67061" lon="3.78987">
        <ele>86.239983</ele>
        <time>2020-06-28T10:01:00Z</time>
      </trkpt>
      <trkpt lat="43.67058" lon="3.7899">
        <ele>86.421028</ele>
        <time>2020-06-28T10:01:02Z</time>
      </trkpt>
      <trkpt lat="43.67054" lon="3.78994">
        <ele>86.574867</ele>
        <time>2020-06-28T10:01:04Z</time>
      </trkpt>
      <trkpt lat="43.67048" lon="3.78998">
        <ele>86.690865</ele>
        <time>2020-06-28T10:01:06Z</time>
      </trkpt>
      <trkpt lat="43.67043" lon="3.79002">
        <ele>86.748962</ele>
        <time>2020-06-28T10:01:08Z</time>
      </trkpt>
      <trkpt lat="43.67038" lon="3.79006">
        <ele>86.751091</ele>
        <time>2020-06-28T10:01:10Z</time>
      </trkpt>
      <trkpt lat="43.67033" lon="3.7901">
        <ele>86.741127</ele>
        <time>2020-06-28T10:01:12Z</time>
      </trkpt>
      <trkpt lat="43.67028" lon="3.79015">
        <ele>86.686119</ele>
        <time>2020-06-28T10:01:14Z</time>
      </trkpt>
      <trkpt lat="43.67022" lon="3.79019">
        <ele>86.606697</ele>
        <time>2020-06-28T10:01:16Z</time>
      </trkpt>
      <trkpt lat="43.67016" lon="3.79024">
        <ele>86.564919</ele>
        <time>2020-06-28T10:01:18Z</time>
      </trkpt>
      <trkpt lat="43.67011" lon="3.7903">
        <ele>86.4646</ele>
        <time>2020-06-28T10:01:20Z</time>
      </trkpt>
      <trkpt lat="43.67007" lon="3.79039">
        <ele>86.354195</ele>
        <time>2020-06-28T10:01:22Z</time>
      </trkpt>
      <trkpt lat="43.67003" lon="3.79048">
        <ele>86.337067</ele>
        <time>2020-06-28T10:01:24Z</time>
      </trkpt>
      <trkpt lat="43.66999" lon="3.79056">
        <ele>86.344734</ele>
        <time>2020-06-28T10:01:26Z</time>
      </trkpt>
      <trkpt lat="43.66994" lon="3.79063">
        <ele>86.441559</ele>
        <time>2020-06-28T10:01:28Z</time>
      </trkpt>
      <trkpt lat="43.6699" lon="3.7907">
        <ele>86.614342</ele>
        <time>2020-06-28T10:01:30Z</time>
      </trkpt>
      <trkpt lat="43.66985" lon="3.79076">
        <ele>86.762642</ele>
        <time>2020-06-28T10:01:32Z</time>
      </trkpt>
      <trkpt lat="43.66981" lon="3.79082">
        <ele>86.841316</ele>
        <time>2020-06-28T10:01:34Z</time>
      </trkpt>
      <trkpt lat="43.66977" lon="3.79088">
        <ele>86.980995</ele>
        <time>2020-06-28T10:01:36Z</time>
      </trkpt>
      <trkpt lat="43.66975" lon="3.79094">
        <ele>87.13324</ele>
        <time>2020-06-28T10:01:38Z</time>
      </trkpt>
      <trkpt lat="43.66974" lon="3.79101">
        <ele>87.268799</ele>
        <time>2020-06-28T10:01:40Z</time>
      </trkpt>
      <trkpt lat="43.66975" lon="3.79109">
        <ele>87.437706</ele>
        <time>2020-06-28T10:01:42Z</time>
      </trkpt>
      <trkpt lat="43.66977" lon="3.79116">
        <ele>87.649658</ele>
        <time>2020-06-28T10:01:44Z</time>
      </trkpt>
      <trkpt lat="43.66978" lon="3.79123">
        <ele>87.782448</ele>
        <time>2020-06-28T10:01:46Z</time>
      </trkpt>
      <trkpt lat="43.66979" lon="3.79129">
        <ele>88.098122</ele>
        <time>2020-06-28T10:01:48Z</time>
      </trkpt>
      <trkpt lat="43.66982" lon="3.79133">
        <ele>88.304871</ele>
        <time>2020-06-28T10:01:50Z</time>
      </trkpt>
      <trkpt lat="43.66985" lon="3.79135">
        <ele>88.516457</ele>
        <time>2020-06-28T10:01:52Z</time>
      </trkpt>
      <trkpt lat="43.66987" lon="3.79138">
        <ele>88.987457</ele>
        <time>2020-06-28T10:01:54Z</time>
      </trkpt>
      <trkpt lat="43.66989" lon="3.79143">
        <ele>89.482704</ele>
        <time>2020-06-28T10:01:56Z</time>
      </trkpt>
      <trkpt lat="43.66991" lon="3.79149">
        <ele>89.894592</ele>
        <time>2020-06-28T10:01:58Z</time>
      </trkpt>
      <trkpt lat="43.66992" lon="3.79154">
        <ele>90.073708</ele>
        <time>2020-06-28T10:02:00Z</time>
      </trkpt>
      <trkpt lat="43.66991" lon="3.7916">
        <ele>90.41642</ele>
        <time>2020-06-28T10:02:02Z</time>
      </trkpt>
      <trkpt lat="43.6699" lon="3.79166">
        <ele>90.602165</ele>
        <time>2020-06-28T10:02:04Z</time>
      </trkpt>
      <trkpt lat="43.66991" lon="3.79171">
        <ele>90.777702</ele>
        <time>2020-06-28T10:02:06Z</time>
      </trkpt>
      <trkpt lat="43.66993" lon="3.79175">
        <ele>91.138695</ele>
        <time>2020-06-28T10:02:08Z</time>
      </trkpt>
      <trkpt lat="43.66995" lon="3.79178">
        <ele>91.294067</ele>
        <time>2020-06-28T10:02:10Z</time>
      </trkpt>
      <trkpt lat="43.67006" lon="3.79173">
        <ele>92.027107</ele>
        <time>2020-06-28T10:02:20Z</time>
      </trkpt>
      <trkpt lat="43.67009" lon="3.7917">
        <ele>92.229576</ele>
        <time>2020-06-28T10:02:24Z</time>
      </trkpt>
      <trkpt lat="43.66999" lon="3.79177">
        <ele>93.078316</ele>
        <time>2020-06-28T10:04:00Z</time>
      </trkpt>
      <trkpt lat="43.66995" lon="3.79177">
        <ele>92.960297</ele>
        <time>2020-06-28T10:04:04Z</time>
      </trkpt>
      <trkpt lat="43.66992" lon="3.79172">
        <ele>92.665649</ele>
        <time>2020-06-28T10:04:06Z</time>
      </trkpt>
      <trkpt lat="43.6699" lon="3.79165">
        <ele>92.272278</ele>
        <time>2020-06-28T10:04:08Z</time>
      </trkpt>
      <trkpt lat="43.66991" lon="3.79156">
        <ele>91.919128</ele>
        <time>2020-06-28T10:04:10Z</time>
      </trkpt>
      <trkpt lat="43.6699" lon="3.79147">
        <ele>91.618919</ele>
        <time>2020-06-28T10:04:12Z</time>
      </trkpt>
      <trkpt lat="43.66988" lon="3.79139">
        <ele>91.377754</ele>
        <time>2020-06-28T10:04:14Z</time>
      </trkpt>
      <trkpt lat="43.66983" lon="3.79135">
        <ele>91.039276</ele>
        <time>2020-06-28T10:04:16Z</time>
      </trkpt>
      <trkpt lat="43.66979" lon="3.79129">
        <ele>90.825584</ele>
        <time>2020-06-28T10:04:18Z</time>
      </trkpt>
      <trkpt lat="43.66979" lon="3.79127">
        <ele>90.306496</ele>
        <time>2020-06-28T10:04:20Z</time>
      </trkpt>
      <trkpt lat="43.66976" lon="3.79108">
        <ele>89.104988</ele>
        <time>2020-06-28T10:04:26Z</time>
      </trkpt>
      <trkpt lat="43.66975" lon="3.79097">
        <ele>88.906708</ele>
        <time>2020-06-28T10:04:30Z</time>
      </trkpt>
      <trkpt lat="43.66979" lon="3.79088">
        <ele>88.743477</ele>
        <time>2020-06-28T10:04:32Z</time>
      </trkpt>
      <trkpt lat="43.66983" lon="3.79079">
        <ele>88.32608</ele>
        <time>2020-06-28T10:04:34Z</time>
      </trkpt>
      <trkpt lat="43.66982" lon="3.79069">
        <ele>88.083946</ele>
        <time>2020-06-28T10:04:36Z</time>
      </trkpt>
      <trkpt lat="43.66977" lon="3.79061">
        <ele>87.85807</ele>
        <time>2020-06-28T10:04:38Z</time>
      </trkpt>
      <trkpt lat="43.66972" lon="3.79052">
        <ele>87.350929</ele>
        <time>2020-06-28T10:04:40Z</time>
      </trkpt>
      <trkpt lat="43.66966" lon="3.79042">
        <ele>86.64225</ele>
        <time>2020-06-28T10:04:42Z</time>
      </trkpt>
      <trkpt lat="43.66961" lon="3.79031">
        <ele>85.825996</ele>
        <time>2020-06-28T10:04:44Z</time>
      </trkpt>
      <trkpt lat="43.66956" lon="3.79019">
        <ele>84.94574</ele>
        <time>2020-06-28T10:04:46Z</time>
      </trkpt>
      <trkpt lat="43.6695" lon="3.79007">
        <ele>84.552902</ele>
        <time>2020-06-28T10:04:48Z</time>
      </trkpt>
      <trkpt lat="43.66945" lon="3.78995">
        <ele>84.159935</ele>
        <time>2020-06-28T10:04:50Z</time>
      </trkpt>
      <trkpt lat="43.66939" lon="3.78982">
        <ele>83.246803</ele>
        <time>2020-06-28T10:04:52Z</time>
      </trkpt>
      <trkpt lat="43.66933" lon="3.78969">
        <ele>82.21563</ele>
        <time>2020-06-28T10:04:54Z</time>
      </trkpt>
      <trkpt lat="43.66926" lon="3.78954">
        <ele>81.167969</ele>
        <time>2020-06-28T10:04:56Z</time>
      </trkpt>
      <trkpt lat="43.6692" lon="3.78939">
        <ele>80.216064</ele>
        <time>2020-06-28T10:04:58Z</time>
      </trkpt>
      <trkpt lat="43.66915" lon="3.78924">
        <ele>79.81559</ele>
        <time>2020-06-28T10:05:00Z</time>
      </trkpt>
      <trkpt lat="43.66911" lon="3.78911">
        <ele>79.448647</ele>
        <time>2020-06-28T10:05:02Z</time>
      </trkpt>
      <trkpt lat="43.66907" lon="3.789">
        <ele>79.086021</ele>
        <time>2020-06-28T10:05:04Z</time>
      </trkpt>
      <trkpt lat="43.66904" lon="3.78892">
        <ele>78.764404</ele>
        <time>2020-06-28T10:05:06Z</time>
      </trkpt>
      <trkpt lat="43.66901" lon="3.78886">
        <ele>78.171715</ele>
        <time>2020-06-28T10:05:08Z</time>
      </trkpt>
      <trkpt lat="43.66897" lon="3.78879">
        <ele>77.913002</ele>
        <time>2020-06-28T10:05:10Z</time>
      </trkpt>
      <trkpt lat="43.66894" lon="3.78871">
        <ele>77.500084</ele>
        <time>2020-06-28T10:05:12Z</time>
      </trkpt>
      <trkpt lat="43.66891" lon="3.78863">
        <ele>77.234779</ele>
        <time>2020-06-28T10:05:14Z</time>
      </trkpt>
      <trkpt lat="43.66887" lon="3.78854">
        <ele>77.094238</ele>
        <time>2020-06-28T10:05:16Z</time>
      </trkpt>
      <trkpt lat="43.66882" lon="3.78844">
        <ele>76.986328</ele>
        <time>2020-06-28T10:05:18Z</time>
      </trkpt>
      <trkpt lat="43.66875" lon="3.78832">
        <ele>76.887367</ele>
        <time>2020-06-28T10:05:20Z</time>
      </trkpt>
      <trkpt lat="43.66867" lon="3.7882">
        <ele>76.827309</ele>
        <time>2020-06-28T10:05:22Z</time>
      </trkpt>
      <trkpt lat="43.6686" lon="3.78817">
        <ele>76.676598</ele>
        <time>2020-06-28T10:05:24Z</time>
      </trkpt>
      <trkpt lat="43.66855" lon="3.78816">
        <ele>76.457405</ele>
        <time>2020-06-28T10:05:26Z</time>
      </trkpt>
      <trkpt lat="43.6685" lon="3.78814">
        <ele>76.221184</ele>
        <time>2020-06-28T10:05:28Z</time>
      </trkpt>
      <trkpt lat="43.66847" lon="3.78811">
        <ele>75.996323</ele>
        <time>2020-06-28T10:05:30Z</time>
      </trkpt>
      <trkpt lat="43.66843" lon="3.7881">
        <ele>75.827553</ele>
        <time>2020-06-28T10:05:32Z</time>
      </trkpt>
      <trkpt lat="43.66839" lon="3.78808">
        <ele>75.687233</ele>
        <time>2020-06-28T10:05:34Z</time>
      </trkpt>
      <trkpt lat="43.66834" lon="3.78806">
        <ele>75.558693</ele>
        <time>2020-06-28T10:05:36Z</time>
      </trkpt>
      <trkpt lat="43.6683" lon="3.78803">
        <ele>75.431831</ele>
        <time>2020-06-28T10:05:38Z</time>
      </trkpt>
      <trkpt lat="43.66826" lon="3.78799">
        <ele>75.287514</ele>
        <time>2020-06-28T10:05:40Z</time>
      </trkpt>
      <trkpt lat="43.66821" lon="3.78794">
        <ele>75.132103</ele>
        <time>2020-06-28T10:05:42Z</time>
      </trkpt>
      <trkpt lat="43.66817" lon="3.78786">
        <ele>75.051514</ele>
        <time>2020-06-28T10:05:44Z</time>
      </trkpt>
      <trkpt lat="43.66814" lon="3.78776">
        <ele>74.879234</ele>
        <time>2020-06-28T10:05:46Z</time>
      </trkpt>
      <trkpt lat="43.6681" lon="3.78766">
        <ele>74.661064</ele>
        <time>2020-06-28T10:05:48Z</time>
      </trkpt>
      <trkpt lat="43.66805" lon="3.78758">
        <ele>74.427681</ele>
        <time>2020-06-28T10:05:50Z</time>
      </trkpt>
      <trkpt lat="43.66799" lon="3.78751">
        <ele>74.161041</ele>
        <time>2020-06-28T10:05:52Z</time>
      </trkpt>
      <trkpt lat="43.66794" lon="3.78745">
        <ele>73.888771</ele>
        <time>2020-06-28T10:05:54Z</time>
      </trkpt>
      <trkpt lat="43.66788" lon="3.78738">
        <ele>73.735802</ele>
        <time>2020-06-28T10:05:56Z</time>
      </trkpt>
      <trkpt lat="43.66781" lon="3.78731">
        <ele>73.381371</ele>
        <time>2020-06-28T10:05:58Z</time>
      </trkpt>
      <trkpt lat="43.66775" lon="3.78724">
        <ele>73.07502</ele>
        <time>2020-06-28T10:06:00Z</time>
      </trkpt>
      <trkpt lat="43.6677" lon="3.78719">
        <ele>72.897911</ele>
        <time>2020-06-28T10:06:02Z</time>
      </trkpt>
      <trkpt lat="43.66767" lon="3.78717">
        <ele>72.862488</ele>
        <time>2020-06-28T10:06:04Z</time>
      </trkpt>
      <trkpt lat="43.66765" lon="3.78718">
        <ele>72.862488</ele>
        <time>2020-06-28T10:06:06Z</time>
      </trkpt>
      <trkpt lat="43.66758" lon="3.78728">
        <ele>73.076843</ele>
        <time>2020-06-28T10:06:52Z</time>
      </trkpt>
      <trkpt lat="43.66755" lon="3.78728">
        <ele>73.109741</ele>
        <time>2020-06-28T10:06:56Z</time>
      </trkpt>
      <trkpt lat="43.66753" lon="3.78726">
        <ele>73.14151</ele>
        <time>2020-06-28T10:06:58Z</time>
      </trkpt>
      <trkpt lat="43.66749" lon="3.78725">
        <ele>73.179924</ele>
        <time>2020-06-28T10:07:00Z</time>
      </trkpt>
      <trkpt lat="43.66745" lon="3.78725">
        <ele>73.224373</ele>
        <time>2020-06-28T10:07:02Z</time>
      </trkpt>
      <trkpt lat="43.66743" lon="3.78725">
        <ele>73.285172</ele>
        <time>2020-06-28T10:07:04Z</time>
      </trkpt>
      <trkpt lat="43.66739" lon="3.78725">
        <ele>73.319366</ele>
        <time>2020-06-28T10:07:06Z</time>
      </trkpt>
      <trkpt lat="43.66736" lon="3.78723">
        <ele>73.385399</ele>
        <time>2020-06-28T10:07:08Z</time>
      </trkpt>
      <trkpt lat="43.66734" lon="3.78722">
        <ele>73.426514</ele>
        <time>2020-06-28T10:07:10Z</time>
      </trkpt>
      <trkpt lat="43.66732" lon="3.7872">
        <ele>73.507439</ele>
        <time>2020-06-28T10:07:12Z</time>
      </trkpt>
      <trkpt lat="43.66729" lon="3.7872">
        <ele>73.597099</ele>
        <time>2020-06-28T10:07:14Z</time>
      </trkpt>
      <trkpt lat="43.66728" lon="3.7872">
        <ele>73.690887</ele>
        <time>2020-06-28T10:07:16Z</time>
      </trkpt>
      <trkpt lat="43.66716" lon="3.78718">
        <ele>74.050491</ele>
        <time>2020-06-28T10:07:26Z</time>
      </trkpt>
      <trkpt lat="43.66713" lon="3.7872">
        <ele>74.12603</ele>
        <time>2020-06-28T10:07:30Z</time>
      </trkpt>
      <trkpt lat="43.66703" lon="3.78725">
        <ele>74.329453</ele>
        <time>2020-06-28T10:07:38Z</time>
      </trkpt>
      <trkpt lat="43.66698" lon="3.78728">
        <ele>74.373695</ele>
        <time>2020-06-28T10:07:42Z</time>
      </trkpt>
      <trkpt lat="43.66692" lon="3.7873">
        <ele>74.432327</ele>
        <time>2020-06-28T10:07:44Z</time>
      </trkpt>
      <trkpt lat="43.66687" lon="3.78732">
        <ele>74.480782</ele>
        <time>2020-06-28T10:07:46Z</time>
      </trkpt>
      <trkpt lat="43.66682" lon="3.78735">
        <ele>74.527107</ele>
        <time>2020-06-28T10:07:48Z</time>
      </trkpt>
      <trkpt lat="43.66677" lon="3.78738">
        <ele>74.558571</ele>
        <time>2020-06-28T10:07:50Z</time>
      </trkpt>
      <trkpt lat="43.66671" lon="3.78742">
        <ele>74.56649</ele>
        <time>2020-06-28T10:07:52Z</time>
      </trkpt>
      <trkpt lat="43.66667" lon="3.78745">
        <ele>74.565681</ele>
        <time>2020-06-28T10:07:54Z</time>
      </trkpt>
      <trkpt lat="43.66663" lon="3.78748">
        <ele>74.520836</ele>
        <time>2020-06-28T10:07:56Z</time>
      </trkpt>
      <trkpt lat="43.6666" lon="3.78752">
        <ele>74.48468</ele>
        <time>2020-06-28T10:07:58Z</time>
      </trkpt>
      <trkpt lat="43.66657" lon="3.78755">
        <ele>74.384995</ele>
        <time>2020-06-28T10:08:00Z</time>
      </trkpt>
      <trkpt lat="43.66654" lon="3.78758">
        <ele>74.220634</ele>
        <time>2020-06-28T10:08:02Z</time>
      </trkpt>
      <trkpt lat="43.66651" lon="3.78761">
        <ele>74.068977</ele>
        <time>2020-06-28T10:08:04Z</time>
      </trkpt>
      <trkpt lat="43.66647" lon="3.78764">
        <ele>74.006409</ele>
        <time>2020-06-28T10:08:06Z</time>
      </trkpt>
      <trkpt lat="43.66644" lon="3.78768">
        <ele>73.931206</ele>
        <time>2020-06-28T10:08:08Z</time>
      </trkpt>
      <trkpt lat="43.6664" lon="3.78772">
        <ele>73.908539</ele>
        <time>2020-06-28T10:08:10Z</time>
      </trkpt>
      <trkpt lat="43.66636" lon="3.78776">
        <ele>73.852303</ele>
        <time>2020-06-28T10:08:12Z</time>
      </trkpt>
      <trkpt lat="43.66631" lon="3.7878">
        <ele>73.76416</ele>
        <time>2020-06-28T10:08:14Z</time>
      </trkpt>
      <trkpt lat="43.66628" lon="3.78784">
        <ele>73.666504</ele>
        <time>2020-06-28T10:08:16Z</time>
      </trkpt>
      <trkpt lat="43.66623" lon="3.78786">
        <ele>73.570732</ele>
        <time>2020-06-28T10:08:18Z</time>
      </trkpt>
      <trkpt lat="43.6662" lon="3.78786">
        <ele>73.47715</ele>
        <time>2020-06-28T10:08:20Z</time>
      </trkpt>
      <trkpt lat="43.66615" lon="3.78784">
        <ele>73.392204</ele>
        <time>2020-06-28T10:08:22Z</time>
      </trkpt>
      <trkpt lat="43.66609" lon="3.78783">
        <ele>73.334457</ele>
        <time>2020-06-28T10:08:24Z</time>
      </trkpt>
      <trkpt lat="43.66604" lon="3.78782">
        <ele>73.307716</ele>
        <time>2020-06-28T10:08:26Z</time>
      </trkpt>
      <trkpt lat="43.66598" lon="3.78781">
        <ele>73.299995</ele>
        <time>2020-06-28T10:08:28Z</time>
      </trkpt>
      <trkpt lat="43.66592" lon="3.78782">
        <ele>73.297203</ele>
        <time>2020-06-28T10:08:30Z</time>
      </trkpt>
      <trkpt lat="43.66587" lon="3.78783">
        <ele>73.290382</ele>
        <time>2020-06-28T10:08:32Z</time>
      </trkpt>
      <trkpt lat="43.66582" lon="3.78783">
        <ele>73.259865</ele>
        <time>2020-06-28T10:08:34Z</time>
      </trkpt>
      <trkpt lat="43.66576" lon="3.78785">
        <ele>73.219284</ele>
        <time>2020-06-28T10:08:36Z</time>
      </trkpt>
      <trkpt lat="43.66571" lon="3.78789">
        <ele>73.16111</ele>
        <time>2020-06-28T10:08:38Z</time>
      </trkpt>
      <trkpt lat="43.66566" lon="3.78789">
        <ele>73.086555</ele>
        <time>2020-06-28T10:08:40Z</time>
      </trkpt>
      <trkpt lat="43.66561" lon="3.78787">
        <ele>72.982307</ele>
        <time>2020-06-28T10:08:42Z</time>
      </trkpt>
      <trkpt lat="43.66556" lon="3.78786">
        <ele>72.902855</ele>
        <time>2020-06-28T10:08:44Z</time>
      </trkpt>
      <trkpt lat="43.6655" lon="3.78785">
        <ele>72.86599</ele>
        <time>2020-06-28T10:08:46Z</time>
      </trkpt>
      <trkpt lat="43.66545" lon="3.78786">
        <ele>72.857773</ele>
        <time>2020-06-28T10:08:48Z</time>
      </trkpt>
      <trkpt lat="43.66539" lon="3.78786">
        <ele>72.848686</ele>
        <time>2020-06-28T10:08:50Z</time>
      </trkpt>
      <trkpt lat="43.66533" lon="3.78785">
        <ele>72.835449</ele>
        <time>2020-06-28T10:08:52Z</time>
      </trkpt>
      <trkpt lat="43.66528" lon="3.78785">
        <ele>72.793686</ele>
        <time>2020-06-28T10:08:54Z</time>
      </trkpt>
      <trkpt lat="43.66523" lon="3.78784">
        <ele>72.749466</ele>
        <time>2020-06-28T10:08:56Z</time>
      </trkpt>
      <trkpt lat="43.66517" lon="3.78782">
        <ele>72.73127</ele>
        <time>2020-06-28T10:08:58Z</time>
      </trkpt>
      <trkpt lat="43.66511" lon="3.78782">
        <ele>72.73127</ele>
        <time>2020-06-28T10:09:00Z</time>
      </trkpt>
      <trkpt lat="43.66505" lon="3.78784">
        <ele>72.739586</ele>
        <time>2020-06-28T10:09:02Z</time>
      </trkpt>
      <trkpt lat="43.66499" lon="3.78784">
        <ele>72.745796</ele>
        <time>2020-06-28T10:09:04Z</time>
      </trkpt>
      <trkpt lat="43.66494" lon="3.78783">
        <ele>72.773262</ele>
        <time>2020-06-28T10:09:06Z</time>
      </trkpt>
      <trkpt lat="43.66491" lon="3.78778">
        <ele>72.784813</ele>
        <time>2020-06-28T10:09:08Z</time>
      </trkpt>
      <trkpt lat="43.66489" lon="3.78774">
        <ele>72.795219</ele>
        <time>2020-06-28T10:09:10Z</time>
      </trkpt>
      <trkpt lat="43.66486" lon="3.78774">
        <ele>72.88562</ele>
        <time>2020-06-28T10:09:12Z</time>
      </trkpt>
      <trkpt lat="43.66481" lon="3.78775">
        <ele>73.08168</ele>
        <time>2020-06-28T10:09:14Z</time>
      </trkpt>
      <trkpt lat="43.66476" lon="3.78774">
        <ele>73.179405</ele>
        <time>2020-06-28T10:09:16Z</time>
      </trkpt>
      <trkpt lat="43.66473" lon="3.78774">
        <ele>73.364517</ele>
        <time>2020-06-28T10:09:18Z</time>
      </trkpt>
      <trkpt lat="43.66471" lon="3.78773">
        <ele>73.449463</ele>
        <time>2020-06-28T10:09:20Z</time>
      </trkpt>
      <trkpt lat="43.66469" lon="3.78773">
        <ele>73.504128</ele>
        <time>2020-06-28T10:09:22Z</time>
      </trkpt>
      <trkpt lat="43.66466" lon="3.78771">
        <ele>73.573181</ele>
        <time>2020-06-28T10:09:24Z</time>
      </trkpt>
      <trkpt lat="43.66462" lon="3.7877">
        <ele>73.628113</ele>
        <time>2020-06-28T10:09:26Z</time>
      </trkpt>
      <trkpt lat="43.66458" lon="3.7877">
        <ele>73.705177</ele>
        <time>2020-06-28T10:09:28Z</time>
      </trkpt>
      <trkpt lat="43.66457" lon="3.78768">
        <ele>73.798599</ele>
        <time>2020-06-28T10:09:30Z</time>
      </trkpt>
      <trkpt lat="43.66457" lon="3.78765">
        <ele>73.887756</ele>
        <time>2020-06-28T10:09:32Z</time>
      </trkpt>
      <trkpt lat="43.66458" lon="3.78761">
        <ele>73.988869</ele>
        <time>2020-06-28T10:09:34Z</time>
      </trkpt>
      <trkpt lat="43.66458" lon="3.78759">
        <ele>74.114349</ele>
        <time>2020-06-28T10:09:36Z</time>
      </trkpt>
      <trkpt lat="43.66455" lon="3.78759">
        <ele>74.278587</ele>
        <time>2020-06-28T10:09:38Z</time>
      </trkpt>
      <trkpt lat="43.66451" lon="3.78759">
        <ele>74.433777</ele>
        <time>2020-06-28T10:09:40Z</time>
      </trkpt>
      <trkpt lat="43.66448" lon="3.78755">
        <ele>74.500465</ele>
        <time>2020-06-28T10:09:42Z</time>
      </trkpt>
      <trkpt lat="43.66434" lon="3.78759">
        <ele>75.113365</ele>
        <time>2020-06-28T10:11:24Z</time>
      </trkpt>
      <trkpt lat="43.66432" lon="3.78762">
        <ele>75.096764</ele>
        <time>2020-06-28T10:11:28Z</time>
      </trkpt>
      <trkpt lat="43.66431" lon="3.78767">
        <ele>75.021568</ele>
        <time>2020-06-28T10:11:30Z</time>
      </trkpt>
      <trkpt lat="43.66428" lon="3.78772">
        <ele>74.956299</ele>
        <time>2020-06-28T10:11:32Z</time>
      </trkpt>
      <trkpt lat="43.66426" lon="3.78779">
        <ele>74.762939</ele>
        <time>2020-06-28T10:11:34Z</time>
      </trkpt>
      <trkpt lat="43.66425" lon="3.78786">
        <ele>74.466393</ele>
        <time>2020-06-28T10:11:36Z</time>
      </trkpt>
      <trkpt lat="43.66423" lon="3.78794">
        <ele>74.127357</ele>
        <time>2020-06-28T10:11:38Z</time>
      </trkpt>
      <trkpt lat="43.66422" lon="3.78801">
        <ele>73.732094</ele>
        <time>2020-06-28T10:11:40Z</time>
      </trkpt>
      <trkpt lat="43.66419" lon="3.78808">
        <ele>73.539795</ele>
        <time>2020-06-28T10:11:42Z</time>
      </trkpt>
      <trkpt lat="43.66417" lon="3.78816">
        <ele>73.135826</ele>
        <time>2020-06-28T10:11:44Z</time>
      </trkpt>
      <trkpt lat="43.66415" lon="3.78823">
        <ele>72.658852</ele>
        <time>2020-06-28T10:11:46Z</time>
      </trkpt>
      <trkpt lat="43.66412" lon="3.78829">
        <ele>72.192627</ele>
        <time>2020-06-28T10:11:48Z</time>
      </trkpt>
      <trkpt lat="43.66409" lon="3.78836">
        <ele>71.967415</ele>
        <time>2020-06-28T10:11:50Z</time>
      </trkpt>
      <trkpt lat="43.66406" lon="3.78844">
        <ele>71.650307</ele>
        <time>2020-06-28T10:11:52Z</time>
      </trkpt>
      <trkpt lat="43.66403" lon="3.78853">
        <ele>71.489525</ele>
        <time>2020-06-28T10:11:54Z</time>
      </trkpt>
      <trkpt lat="43.664" lon="3.78863">
        <ele>71.434044</ele>
        <time>2020-06-28T10:11:56Z</time>
      </trkpt>
      <trkpt lat="43.66396" lon="3.78872">
        <ele>71.390221</ele>
        <time>2020-06-28T10:11:58Z</time>
      </trkpt>
      <trkpt lat="43.66393" lon="3.7888">
        <ele>71.334259</ele>
        <time>2020-06-28T10:12:00Z</time>
      </trkpt>
      <trkpt lat="43.6639" lon="3.78889">
        <ele>71.300636</ele>
        <time>2020-06-28T10:12:02Z</time>
      </trkpt>
      <trkpt lat="43.66386" lon="3.78896">
        <ele>71.217758</ele>
        <time>2020-06-28T10:12:04Z</time>
      </trkpt>
      <trkpt lat="43.66383" lon="3.78903">
        <ele>71.121452</ele>
        <time>2020-06-28T10:12:06Z</time>
      </trkpt>
      <trkpt lat="43.6638" lon="3.78911">
        <ele>71.045914</ele>
        <time>2020-06-28T10:12:08Z</time>
      </trkpt>
      <trkpt lat="43.66376" lon="3.7892">
        <ele>71.018242</ele>
        <time>2020-06-28T10:12:10Z</time>
      </trkpt>
      <trkpt lat="43.66371" lon="3.78927">
        <ele>71.00975</ele>
        <time>2020-06-28T10:12:12Z</time>
      </trkpt>
      <trkpt lat="43.66366" lon="3.78932">
        <ele>71.00975</ele>
        <time>2020-06-28T10:12:14Z</time>
      </trkpt>
      <trkpt lat="43.66361" lon="3.78938">
        <ele>71.013588</ele>
        <time>2020-06-28T10:12:16Z</time>
      </trkpt>
      <trkpt lat="43.66357" lon="3.78945">
        <ele>71.037445</ele>
        <time>2020-06-28T10:12:18Z</time>
      </trkpt>
      <trkpt lat="43.66351" lon="3.7895">
        <ele>71.059959</ele>
        <time>2020-06-28T10:12:20Z</time>
      </trkpt>
      <trkpt lat="43.66345" lon="3.78955">
        <ele>71.065056</ele>
        <time>2020-06-28T10:12:22Z</time>
      </trkpt>
      <trkpt lat="43.66338" lon="3.78959">
        <ele>71.063866</ele>
        <time>2020-06-28T10:12:24Z</time>
      </trkpt>
      <trkpt lat="43.66333" lon="3.78965">
        <ele>71.049248</ele>
        <time>2020-06-28T10:12:26Z</time>
      </trkpt>
      <trkpt lat="43.66327" lon="3.78969">
        <ele>71.027107</ele>
        <time>2020-06-28T10:12:28Z</time>
      </trkpt>
      <trkpt lat="43.66321" lon="3.78975">
        <ele>71.009621</ele>
        <time>2020-06-28T10:12:30Z</time>
      </trkpt>
      <trkpt lat="43.66314" lon="3.78981">
        <ele>71.000381</ele>
        <time>2020-06-28T10:12:32Z</time>
      </trkpt>
      <trkpt lat="43.66308" lon="3.78984">
        <ele>71</ele>
        <time>2020-06-28T10:12:34Z</time>
      </trkpt>
      <trkpt lat="43.66301" lon="3.78985">
        <ele>71</ele>
        <time>2020-06-28T10:12:36Z</time>
      </trkpt>
      <trkpt lat="43.66293" lon="3.78986">
        <ele>71</ele>
        <time>2020-06-28T10:12:38Z</time>
      </trkpt>
      <trkpt lat="43.66285" lon="3.78986">
        <ele>71</ele>
        <time>2020-06-28T10:12:40Z</time>
      </trkpt>
      <trkpt lat="43.66277" lon="3.78984">
        <ele>71</ele>
        <time>2020-06-28T10:12:42Z</time>
      </trkpt>
      <trkpt lat="43.66269" lon="3.78985">
        <ele>71</ele>
        <time>2020-06-28T10:12:44Z</time>
      </trkpt>
      <trkpt lat="43.66261" lon="3.78985">
        <ele>71</ele>
        <time>2020-06-28T10:12:46Z</time>
      </trkpt>
      <trkpt lat="43.66253" lon="3.78987">
        <ele>71</ele>
        <time>2020-06-28T10:12:48Z</time>
      </trkpt>
      <trkpt lat="43.66245" lon="3.78987">
        <ele>71</ele>
        <time>2020-06-28T10:12:50Z</time>
      </trkpt>
      <trkpt lat="43.66238" lon="3.78984">
        <ele>71</ele>
        <time>2020-06-28T10:12:52Z</time>
      </trkpt>
      <trkpt lat="43.66232" lon="3.78981">
        <ele>71.000252</ele>
        <time>2020-06-28T10:12:54Z</time>
      </trkpt>
      <trkpt lat="43.66225" lon="3.78978">
        <ele>71.015709</ele>
        <time>2020-06-28T10:12:56Z</time>
      </trkpt>
      <trkpt lat="43.66218" lon="3.78974">
        <ele>71.05262</ele>
        <time>2020-06-28T10:12:58Z</time>
      </trkpt>
      <trkpt lat="43.66211" lon="3.78969">
        <ele>71.11721</ele>
        <time>2020-06-28T10:13:00Z</time>
      </trkpt>
      <trkpt lat="43.66206" lon="3.78964">
        <ele>71.198647</ele>
        <time>2020-06-28T10:13:02Z</time>
      </trkpt>
      <trkpt lat="43.662" lon="3.78959">
        <ele>71.295219</ele>
        <time>2020-06-28T10:13:04Z</time>
      </trkpt>
      <trkpt lat="43.66195" lon="3.78956">
        <ele>71.401024</ele>
        <time>2020-06-28T10:13:06Z</time>
      </trkpt>
      <trkpt lat="43.66188" lon="3.78954">
        <ele>71.519005</ele>
        <time>2020-06-28T10:13:08Z</time>
      </trkpt>
      <trkpt lat="43.6618" lon="3.78952">
        <ele>71.579826</ele>
        <time>2020-06-28T10:13:10Z</time>
      </trkpt>
      <trkpt lat="43.66172" lon="3.78951">
        <ele>71.645195</ele>
        <time>2020-06-28T10:13:12Z</time>
      </trkpt>
      <trkpt lat="43.66165" lon="3.78952">
        <ele>71.790672</ele>
        <time>2020-06-28T10:13:14Z</time>
      </trkpt>
      <trkpt lat="43.66157" lon="3.78956">
        <ele>71.940865</ele>
        <time>2020-06-28T10:13:16Z</time>
      </trkpt>
      <trkpt lat="43.66151" lon="3.78961">
        <ele>72.028442</ele>
        <time>2020-06-28T10:13:18Z</time>
      </trkpt>
      <trkpt lat="43.66144" lon="3.78967">
        <ele>72.046104</ele>
        <time>2020-06-28T10:13:20Z</time>
      </trkpt>
      <trkpt lat="43.66138" lon="3.78975">
        <ele>72.033936</ele>
        <time>2020-06-28T10:13:22Z</time>
      </trkpt>
      <trkpt lat="43.66133" lon="3.78984">
        <ele>71.956703</ele>
        <time>2020-06-28T10:13:24Z</time>
      </trkpt>
      <trkpt lat="43.66129" lon="3.78994">
        <ele>71.859535</ele>
        <time>2020-06-28T10:13:26Z</time>
      </trkpt>
      <trkpt lat="43.66126" lon="3.79005">
        <ele>71.741859</ele>
        <time>2020-06-28T10:13:28Z</time>
      </trkpt>
      <trkpt lat="43.66123" lon="3.79017">
        <ele>71.676353</ele>
        <time>2020-06-28T10:13:30Z</time>
      </trkpt>
      <trkpt lat="43.66119" lon="3.79029">
        <ele>71.533119</ele>
        <time>2020-06-28T10:13:32Z</time>
      </trkpt>
      <trkpt lat="43.66115" lon="3.7904">
        <ele>71.347412</ele>
        <time>2020-06-28T10:13:34Z</time>
      </trkpt>
      <trkpt lat="43.66107" lon="3.79048">
        <ele>71.168129</ele>
        <time>2020-06-28T10:13:36Z</time>
      </trkpt>
      <trkpt lat="43.66098" lon="3.79051">
        <ele>71.041748</ele>
        <time>2020-06-28T10:13:38Z</time>
      </trkpt>
      <trkpt lat="43.66089" lon="3.79052">
        <ele>71.01416</ele>
        <time>2020-06-28T10:13:40Z</time>
      </trkpt>
      <trkpt lat="43.66081" lon="3.79053">
        <ele>71</ele>
        <time>2020-06-28T10:13:42Z</time>
      </trkpt>
      <trkpt lat="43.66073" lon="3.79049">
        <ele>71</ele>
        <time>2020-06-28T10:13:44Z</time>
      </trkpt>
      <trkpt lat="43.66066" lon="3.79042">
        <ele>71</ele>
        <time>2020-06-28T10:13:46Z</time>
      </trkpt>
      <trkpt lat="43.66058" lon="3.79037">
        <ele>71</ele>
        <time>2020-06-28T10:13:48Z</time>
      </trkpt>
      <trkpt lat="43.66055" lon="3.79035">
        <ele>71</ele>
        <time>2020-06-28T10:13:50Z</time>
      </trkpt>
      <trkpt lat="43.66042" lon="3.79038">
        <ele>71</ele>
        <time>2020-06-28T10:14:02Z</time>
      </trkpt>
      <trkpt lat="43.6604" lon="3.79041">
        <ele>71</ele>
        <time>2020-06-28T10:14:06Z</time>
      </trkpt>
      <trkpt lat="43.6604" lon="3.79045">
        <ele>71</ele>
        <time>2020-06-28T10:14:08Z</time>
      </trkpt>
      <trkpt lat="43.6604" lon="3.79048">
        <ele>71</ele>
        <time>2020-06-28T10:14:10Z</time>
      </trkpt>
      <trkpt lat="43.66041" lon="3.79049">
        <ele>71</ele>
        <time>2020-06-28T10:14:12Z</time>
      </trkpt>
      <trkpt lat="43.66029" lon="3.79047">
        <ele>70.996819</ele>
        <time>2020-06-28T10:14:54Z</time>
      </trkpt>
      <trkpt lat="43.66027" lon="3.79046">
        <ele>70.991112</ele>
        <time>2020-06-28T10:14:58Z</time>
      </trkpt>
      <trkpt lat="43.66025" lon="3.79046">
        <ele>70.983002</ele>
        <time>2020-06-28T10:15:00Z</time>
      </trkpt>
      <trkpt lat="43.66022" lon="3.79046">
        <ele>70.974289</ele>
        <time>2020-06-28T10:15:02Z</time>
      </trkpt>
      <trkpt lat="43.6602" lon="3.79047">
        <ele>70.966324</ele>
        <time>2020-06-28T10:15:04Z</time>
      </trkpt>
      <trkpt lat="43.66021" lon="3.7906">
        <ele>70.895981</ele>
        <time>2020-06-28T10:16:06Z</time>
      </trkpt>
      <trkpt lat="43.66023" lon="3.79062">
        <ele>70.896294</ele>
        <time>2020-06-28T10:16:10Z</time>
      </trkpt>
      <trkpt lat="43.66024" lon="3.79063">
        <ele>70.900719</ele>
        <time>2020-06-28T10:16:12Z</time>
      </trkpt>
      <trkpt lat="43.66029" lon="3.79075">
        <ele>70.925606</ele>
        <time>2020-06-28T10:16:20Z</time>
      </trkpt>
      <trkpt lat="43.66034" lon="3.79079">
        <ele>70.931496</ele>
        <time>2020-06-28T10:16:24Z</time>
      </trkpt>
      <trkpt lat="43.66038" lon="3.79082">
        <ele>70.936928</ele>
        <time>2020-06-28T10:16:26Z</time>
      </trkpt>
      <trkpt lat="43.66039" lon="3.79086">
        <ele>70.956367</ele>
        <time>2020-06-28T10:16:28Z</time>
      </trkpt>
      <trkpt lat="43.66042" lon="3.79093">
        <ele>70.977654</ele>
        <time>2020-06-28T10:16:30Z</time>
      </trkpt>
      <trkpt lat="43.66044" lon="3.79099">
        <ele>70.996277</ele>
        <time>2020-06-28T10:16:32Z</time>
      </trkpt>
      <trkpt lat="43.66046" lon="3.79105">
        <ele>71</ele>
        <time>2020-06-28T10:16:34Z</time>
      </trkpt>
      <trkpt lat="43.66048" lon="3.79111">
        <ele>71</ele>
        <time>2020-06-28T10:16:36Z</time>
      </trkpt>
      <trkpt lat="43.66049" lon="3.79115">
        <ele>71</ele>
        <time>2020-06-28T10:16:38Z</time>
      </trkpt>
      <trkpt lat="43.66051" lon="3.7912">
        <ele>71</ele>
        <time>2020-06-28T10:16:40Z</time>
      </trkpt>
      <trkpt lat="43.66051" lon="3.79124">
        <ele>71</ele>
        <time>2020-06-28T10:16:42Z</time>
      </trkpt>
      <trkpt lat="43.6605" lon="3.7913">
        <ele>71</ele>
        <time>2020-06-28T10:16:44Z</time>
      </trkpt>
      <trkpt lat="43.66051" lon="3.79135">
        <ele>71</ele>
        <time>2020-06-28T10:16:46Z</time>
      </trkpt>
      <trkpt lat="43.66052" lon="3.7914">
        <ele>71</ele>
        <time>2020-06-28T10:16:48Z</time>
      </trkpt>
      <trkpt lat="43.66053" lon="3.79145">
        <ele>71</ele>
        <time>2020-06-28T10:16:50Z</time>
      </trkpt>
      <trkpt lat="43.66055" lon="3.7915">
        <ele>71</ele>
        <time>2020-06-28T10:16:52Z</time>
      </trkpt>
      <trkpt lat="43.66056" lon="3.79154">
        <ele>71</ele>
        <time>2020-06-28T10:16:54Z</time>
      </trkpt>
      <trkpt lat="43.66057" lon="3.79159">
        <ele>71</ele>
        <time>2020-06-28T10:16:56Z</time>
      </trkpt>
      <trkpt lat="43.66057" lon="3.79163">
        <ele>71</ele>
        <time>2020-06-28T10:16:58Z</time>
      </trkpt>
      <trkpt lat="43.66058" lon="3.79167">
        <ele>71</ele>
        <time>2020-06-28T10:17:00Z</time>
      </trkpt>
      <trkpt lat="43.66058" lon="3.79172">
        <ele>71</ele>
        <time>2020-06-28T10:17:02Z</time>
      </trkpt>
      <trkpt lat="43.66058" lon="3.79177">
        <ele>71.0047</ele>
        <time>2020-06-28T10:17:04Z</time>
      </trkpt>
      <trkpt lat="43.66058" lon="3.79182">
        <ele>71.017036</ele>
        <time>2020-06-28T10:17:06Z</time>
      </trkpt>
      <trkpt lat="43.66057" lon="3.79186">
        <ele>71.036469</ele>
        <time>2020-06-28T10:17:08Z</time>
      </trkpt>
      <trkpt lat="43.66057" lon="3.79191">
        <ele>71.047623</ele>
        <time>2020-06-28T10:17:10Z</time>
      </trkpt>
      <trkpt lat="43.66056" lon="3.79196">
        <ele>71.070862</ele>
        <time>2020-06-28T10:17:12Z</time>
      </trkpt>
      <trkpt lat="43.66055" lon="3.79201">
        <ele>71.083092</ele>
        <time>2020-06-28T10:17:14Z</time>
      </trkpt>
      <trkpt lat="43.66053" lon="3.79206">
        <ele>71.106697</ele>
        <time>2020-06-28T10:17:16Z</time>
      </trkpt>
      <trkpt lat="43.66052" lon="3.79212">
        <ele>71.11808</ele>
        <time>2020-06-28T10:17:18Z</time>
      </trkpt>
      <trkpt lat="43.6605" lon="3.79218">
        <ele>71.128372</ele>
        <time>2020-06-28T10:17:20Z</time>
      </trkpt>
      <trkpt lat="43.66048" lon="3.79224">
        <ele>71.142021</ele>
        <time>2020-06-28T10:17:22Z</time>
      </trkpt>
      <trkpt lat="43.66046" lon="3.79229">
        <ele>71.147163</ele>
        <time>2020-06-28T10:17:24Z</time>
      </trkpt>
      <trkpt lat="43.66044" lon="3.79235">
        <ele>71.147163</ele>
        <time>2020-06-28T10:17:26Z</time>
      </trkpt>
      <trkpt lat="43.66044" lon="3.7924">
        <ele>71.147522</ele>
        <time>2020-06-28T10:17:28Z</time>
      </trkpt>
      <trkpt lat="43.66042" lon="3.79245">
        <ele>71.149635</ele>
        <time>2020-06-28T10:17:30Z</time>
      </trkpt>
      <trkpt lat="43.66042" lon="3.79251">
        <ele>71.229301</ele>
        <time>2020-06-28T10:17:32Z</time>
      </trkpt>
      <trkpt lat="43.66041" lon="3.79256">
        <ele>71.382439</ele>
        <time>2020-06-28T10:17:34Z</time>
      </trkpt>
      <trkpt lat="43.6604" lon="3.79261">
        <ele>71.610359</ele>
        <time>2020-06-28T10:17:36Z</time>
      </trkpt>
      <trkpt lat="43.6604" lon="3.79266">
        <ele>71.71685</ele>
        <time>2020-06-28T10:17:38Z</time>
      </trkpt>
      <trkpt lat="43.66038" lon="3.79271">
        <ele>71.926476</ele>
        <time>2020-06-28T10:17:40Z</time>
      </trkpt>
      <trkpt lat="43.66035" lon="3.79276">
        <ele>72.166359</ele>
        <time>2020-06-28T10:17:42Z</time>
      </trkpt>
      <trkpt lat="43.66032" lon="3.7928">
        <ele>72.404472</ele>
        <time>2020-06-28T10:17:44Z</time>
      </trkpt>
      <trkpt lat="43.66029" lon="3.79285">
        <ele>72.525124</ele>
        <time>2020-06-28T10:17:46Z</time>
      </trkpt>
      <trkpt lat="43.66027" lon="3.7929">
        <ele>72.761284</ele>
        <time>2020-06-28T10:17:48Z</time>
      </trkpt>
      <trkpt lat="43.66024" lon="3.79293">
        <ele>73.032661</ele>
        <time>2020-06-28T10:17:50Z</time>
      </trkpt>
      <trkpt lat="43.66022" lon="3.79297">
        <ele>73.310303</ele>
        <time>2020-06-28T10:17:52Z</time>
      </trkpt>
      <trkpt lat="43.66019" lon="3.79301">
        <ele>73.57666</ele>
        <time>2020-06-28T10:17:54Z</time>
      </trkpt>
      <trkpt lat="43.66017" lon="3.79305">
        <ele>73.784584</ele>
        <time>2020-06-28T10:17:56Z</time>
      </trkpt>
      <trkpt lat="43.66016" lon="3.7931">
        <ele>73.986244</ele>
        <time>2020-06-28T10:17:58Z</time>
      </trkpt>
      <trkpt lat="43.66016" lon="3.79316">
        <ele>74.25782</ele>
        <time>2020-06-28T10:18:00Z</time>
      </trkpt>
      <trkpt lat="43.66017" lon="3.79322">
        <ele>74.434105</ele>
        <time>2020-06-28T10:18:02Z</time>
      </trkpt>
      <trkpt lat="43.66018" lon="3.79328">
        <ele>74.907074</ele>
        <time>2020-06-28T10:18:04Z</time>
      </trkpt>
      <trkpt lat="43.6602" lon="3.79332">
        <ele>75.508156</ele>
        <time>2020-06-28T10:18:06Z</time>
      </trkpt>
      <trkpt lat="43.66021" lon="3.79334">
        <ele>76.110634</ele>
        <time>2020-06-28T10:18:08Z</time>
      </trkpt>
      <trkpt lat="43.66026" lon="3.79344">
        <ele>76.956505</ele>
        <time>2020-06-28T10:19:54Z</time>
      </trkpt>
      <trkpt lat="43.66025" lon="3.79348">
        <ele>77.125641</ele>
        <time>2020-06-28T10:19:58Z</time>
      </trkpt>
      <trkpt lat="43.66024" lon="3.79353">
        <ele>77.503029</ele>
        <time>2020-06-28T10:20:00Z</time>
      </trkpt>
      <trkpt lat="43.66024" lon="3.79358">
        <ele>77.953377</ele>
        <time>2020-06-28T10:20:02Z</time>
      </trkpt>
      <trkpt lat="43.66021" lon="3.79361">
        <ele>78.415253</ele>
        <time>2020-06-28T10:20:04Z</time>
      </trkpt>
      <trkpt lat="43.66018" lon="3.7936">
        <ele>78.645988</ele>
        <time>2020-06-28T10:20:06Z</time>
      </trkpt>
      <trkpt lat="43.66015" lon="3.79357">
        <ele>79.075439</ele>
        <time>2020-06-28T10:20:08Z</time>
      </trkpt>
      <trkpt lat="43.6601" lon="3.79356">
        <ele>79.351257</ele>
        <time>2020-06-28T10:20:10Z</time>
      </trkpt>
      <trkpt lat="43.66005" lon="3.79355">
        <ele>79.508728</ele>
        <time>2020-06-28T10:20:12Z</time>
      </trkpt>
      <trkpt lat="43.66001" lon="3.79356">
        <ele>79.578461</ele>
        <time>2020-06-28T10:20:14Z</time>
      </trkpt>
      <trkpt lat="43.65997" lon="3.79355">
        <ele>79.613213</ele>
        <time>2020-06-28T10:20:16Z</time>
      </trkpt>
      <trkpt lat="43.65993" lon="3.79353">
        <ele>79.67028</ele>
        <time>2020-06-28T10:20:18Z</time>
      </trkpt>
      <trkpt lat="43.65989" lon="3.79352">
        <ele>79.779991</ele>
        <time>2020-06-28T10:20:20Z</time>
      </trkpt>
      <trkpt lat="43.65984" lon="3.7935">
        <ele>79.826012</ele>
        <time>2020-06-28T10:20:22Z</time>
      </trkpt>
      <trkpt lat="43.65979" lon="3.79348">
        <ele>79.859497</ele>
        <time>2020-06-28T10:20:24Z</time>
      </trkpt>
      <trkpt lat="43.65973" lon="3.79345">
        <ele>79.866402</ele>
        <time>2020-06-28T10:20:26Z</time>
      </trkpt>
      <trkpt lat="43.65968" lon="3.79343">
        <ele>79.847267</ele>
        <time>2020-06-28T10:20:28Z</time>
      </trkpt>
      <trkpt lat="43.65963" lon="3.7934">
        <ele>79.770927</ele>
        <time>2020-06-28T10:20:30Z</time>
      </trkpt>
      <trkpt lat="43.65957" lon="3.79338">
        <ele>79.664169</ele>
        <time>2020-06-28T10:20:32Z</time>
      </trkpt>
      <trkpt lat="43.6595" lon="3.79338">
        <ele>79.478073</ele>
        <time>2020-06-28T10:20:34Z</time>
      </trkpt>
      <trkpt lat="43.65943" lon="3.79338">
        <ele>79.296112</ele>
        <time>2020-06-28T10:20:36Z</time>
      </trkpt>
      <trkpt lat="43.65937" lon="3.79336">
        <ele>79.133461</ele>
        <time>2020-06-28T10:20:38Z</time>
      </trkpt>
      <trkpt lat="43.6593" lon="3.79334">
        <ele>79.0625</ele>
        <time>2020-06-28T10:20:40Z</time>
      </trkpt>
      <trkpt lat="43.65923" lon="3.79335">
        <ele>78.957031</ele>
        <time>2020-06-28T10:20:42Z</time>
      </trkpt>
      <trkpt lat="43.65917" lon="3.79338">
        <ele>78.867836</ele>
        <time>2020-06-28T10:20:44Z</time>
      </trkpt>
      <trkpt lat="43.65912" lon="3.7934">
        <ele>78.867188</ele>
        <time>2020-06-28T10:20:46Z</time>
      </trkpt>
      <trkpt lat="43.65908" lon="3.79343">
        <ele>78.902344</ele>
        <time>2020-06-28T10:20:48Z</time>
      </trkpt>
      <trkpt lat="43.65902" lon="3.79348">
        <ele>79.103516</ele>
        <time>2020-06-28T10:20:50Z</time>
      </trkpt>
      <trkpt lat="43.65898" lon="3.79353">
        <ele>79.446617</ele>
        <time>2020-06-28T10:20:52Z</time>
      </trkpt>
      <trkpt lat="43.65896" lon="3.79357">
        <ele>79.861977</ele>
        <time>2020-06-28T10:20:54Z</time>
      </trkpt>
      <trkpt lat="43.65891" lon="3.7936">
        <ele>80.162209</ele>
        <time>2020-06-28T10:20:56Z</time>
      </trkpt>
      <trkpt lat="43.65883" lon="3.7936">
        <ele>80.429237</ele>
        <time>2020-06-28T10:20:58Z</time>
      </trkpt>
      <trkpt lat="43.65875" lon="3.79364">
        <ele>80.707283</ele>
        <time>2020-06-28T10:21:00Z</time>
      </trkpt>
      <trkpt lat="43.6587" lon="3.7937">
        <ele>81.362526</ele>
        <time>2020-06-28T10:21:02Z</time>
      </trkpt>
      <trkpt lat="43.65865" lon="3.79376">
        <ele>81.987785</ele>
        <time>2020-06-28T10:21:04Z</time>
      </trkpt>
      <trkpt lat="43.65861" lon="3.79382">
        <ele>82.70755</ele>
        <time>2020-06-28T10:21:06Z</time>
      </trkpt>
      <trkpt lat="43.65856" lon="3.79387">
        <ele>83.430641</ele>
        <time>2020-06-28T10:21:08Z</time>
      </trkpt>
      <trkpt lat="43.6585" lon="3.79392">
        <ele>84.205269</ele>
        <time>2020-06-28T10:21:10Z</time>
      </trkpt>
      <trkpt lat="43.65847" lon="3.79399">
        <ele>84.945122</ele>
        <time>2020-06-28T10:21:12Z</time>
      </trkpt>
      <trkpt lat="43.65844" lon="3.79407">
        <ele>85.290665</ele>
        <time>2020-06-28T10:21:14Z</time>
      </trkpt>
      <trkpt lat="43.65841" lon="3.79415">
        <ele>85.645348</ele>
        <time>2020-06-28T10:21:16Z</time>
      </trkpt>
      <trkpt lat="43.65836" lon="3.79421">
        <ele>86.010368</ele>
        <time>2020-06-28T10:21:18Z</time>
      </trkpt>
      <trkpt lat="43.65831" lon="3.79424">
        <ele>86.48246</ele>
        <time>2020-06-28T10:21:20Z</time>
      </trkpt>
      <trkpt lat="43.65826" lon="3.79428">
        <ele>87.798607</ele>
        <time>2020-06-28T10:21:22Z</time>
      </trkpt>
      <trkpt lat="43.65822" lon="3.7943">
        <ele>89.113586</ele>
        <time>2020-06-28T10:21:24Z</time>
      </trkpt>
      <trkpt lat="43.65817" lon="3.79432">
        <ele>89.113586</ele>
        <time>2020-06-28T10:21:26Z</time>
      </trkpt>
      <trkpt lat="43.65812" lon="3.79431">
        <ele>89.755928</ele>
        <time>2020-06-28T10:21:28Z</time>
      </trkpt>
      <trkpt lat="43.65809" lon="3.79422">
        <ele>90.713417</ele>
        <time>2020-06-28T10:21:30Z</time>
      </trkpt>
      <trkpt lat="43.65802" lon="3.79415">
        <ele>91.089592</ele>
        <time>2020-06-28T10:21:32Z</time>
      </trkpt>
      <trkpt lat="43.65798" lon="3.79408">
        <ele>91.596519</ele>
        <time>2020-06-28T10:21:34Z</time>
      </trkpt>
      <trkpt lat="43.65792" lon="3.79402">
        <ele>91.688148</ele>
        <time>2020-06-28T10:21:36Z</time>
      </trkpt>
      <trkpt lat="43.65785" lon="3.79396">
        <ele>91.797852</ele>
        <time>2020-06-28T10:21:38Z</time>
      </trkpt>
      <trkpt lat="43.65779" lon="3.79391">
        <ele>91.645912</ele>
        <time>2020-06-28T10:21:40Z</time>
      </trkpt>
      <trkpt lat="43.65774" lon="3.79384">
        <ele>91.48568</ele>
        <time>2020-06-28T10:21:42Z</time>
      </trkpt>
      <trkpt lat="43.65769" lon="3.79375">
        <ele>91.416748</ele>
        <time>2020-06-28T10:21:44Z</time>
      </trkpt>
      <trkpt lat="43.65764" lon="3.79366">
        <ele>91.234215</ele>
        <time>2020-06-28T10:21:46Z</time>
      </trkpt>
      <trkpt lat="43.65759" lon="3.79356">
        <ele>90.898834</ele>
        <time>2020-06-28T10:21:48Z</time>
      </trkpt>
      <trkpt lat="43.65751" lon="3.7935">
        <ele>90.675392</ele>
        <time>2020-06-28T10:21:50Z</time>
      </trkpt>
      <trkpt lat="43.65746" lon="3.79345">
        <ele>90.339485</ele>
        <time>2020-06-28T10:21:52Z</time>
      </trkpt>
      <trkpt lat="43.65741" lon="3.7934">
        <ele>90.227837</ele>
        <time>2020-06-28T10:21:54Z</time>
      </trkpt>
      <trkpt lat="43.65738" lon="3.79334">
        <ele>90.219902</ele>
        <time>2020-06-28T10:21:56Z</time>
      </trkpt>
      <trkpt lat="43.65735" lon="3.79327">
        <ele>90.170784</ele>
        <time>2020-06-28T10:21:58Z</time>
      </trkpt>
      <trkpt lat="43.65728" lon="3.79322">
        <ele>90.170784</ele>
        <time>2020-06-28T10:22:00Z</time>
      </trkpt>
      <trkpt lat="43.65722" lon="3.79321">
        <ele>90.146118</ele>
        <time>2020-06-28T10:22:02Z</time>
      </trkpt>
      <trkpt lat="43.65716" lon="3.79321">
        <ele>90.160423</ele>
        <time>2020-06-28T10:22:04Z</time>
      </trkpt>
      <trkpt lat="43.65711" lon="3.7932">
        <ele>90.339775</ele>
        <time>2020-06-28T10:22:06Z</time>
      </trkpt>
      <trkpt lat="43.65706" lon="3.79314">
        <ele>90.780266</ele>
        <time>2020-06-28T10:22:08Z</time>
      </trkpt>
      <trkpt lat="43.65699" lon="3.7931">
        <ele>91.395111</ele>
        <time>2020-06-28T10:22:10Z</time>
      </trkpt>
      <trkpt lat="43.65693" lon="3.79308">
        <ele>91.723518</ele>
        <time>2020-06-28T10:22:12Z</time>
      </trkpt>
      <trkpt lat="43.65688" lon="3.79304">
        <ele>91.937073</ele>
        <time>2020-06-28T10:22:14Z</time>
      </trkpt>
      <trkpt lat="43.65681" lon="3.793">
        <ele>92.19577</ele>
        <time>2020-06-28T10:22:16Z</time>
      </trkpt>
      <trkpt lat="43.65675" lon="3.79297">
        <ele>92.329536</ele>
        <time>2020-06-28T10:22:18Z</time>
      </trkpt>
      <trkpt lat="43.65672" lon="3.79296">
        <ele>92.469391</ele>
        <time>2020-06-28T10:22:20Z</time>
      </trkpt>
      <trkpt lat="43.65669" lon="3.79296">
        <ele>92.834877</ele>
        <time>2020-06-28T10:22:22Z</time>
      </trkpt>
      <trkpt lat="43.65664" lon="3.79291">
        <ele>93.234978</ele>
        <time>2020-06-28T10:22:24Z</time>
      </trkpt>
      <trkpt lat="43.6566" lon="3.79285">
        <ele>93.591888</ele>
        <time>2020-06-28T10:22:26Z</time>
      </trkpt>
      <trkpt lat="43.65654" lon="3.79283">
        <ele>93.734222</ele>
        <time>2020-06-28T10:22:28Z</time>
      </trkpt>
      <trkpt lat="43.65649" lon="3.79281">
        <ele>93.864586</ele>
        <time>2020-06-28T10:22:30Z</time>
      </trkpt>
      <trkpt lat="43.65646" lon="3.79273">
        <ele>93.932106</ele>
        <time>2020-06-28T10:22:32Z</time>
      </trkpt>
      <trkpt lat="43.65645" lon="3.79266">
        <ele>93.801735</ele>
        <time>2020-06-28T10:22:34Z</time>
      </trkpt>
      <trkpt lat="43.65645" lon="3.79259">
        <ele>93.659996</ele>
        <time>2020-06-28T10:22:36Z</time>
      </trkpt>
      <trkpt lat="43.65641" lon="3.79256">
        <ele>93.489769</ele>
        <time>2020-06-28T10:22:38Z</time>
      </trkpt>
      <trkpt lat="43.65636" lon="3.79252">
        <ele>92.782379</ele>
        <time>2020-06-28T10:22:40Z</time>
      </trkpt>
      <trkpt lat="43.6563" lon="3.79247">
        <ele>92.037689</ele>
        <time>2020-06-28T10:22:42Z</time>
      </trkpt>
      <trkpt lat="43.65624" lon="3.79244">
        <ele>91.56826</ele>
        <time>2020-06-28T10:22:44Z</time>
      </trkpt>
      <trkpt lat="43.65617" lon="3.79237">
        <ele>91.426369</ele>
        <time>2020-06-28T10:22:46Z</time>
      </trkpt>
      <trkpt lat="43.6561" lon="3.79232">
        <ele>91.34613</ele>
        <time>2020-06-28T10:22:48Z</time>
      </trkpt>
      <trkpt lat="43.65601" lon="3.79228">
        <ele>91.244301</ele>
        <time>2020-06-28T10:22:50Z</time>
      </trkpt>
      <trkpt lat="43.65594" lon="3.79223">
        <ele>91.206818</ele>
        <time>2020-06-28T10:22:52Z</time>
      </trkpt>
      <trkpt lat="43.65591" lon="3.79218">
        <ele>91.144203</ele>
        <time>2020-06-28T10:22:54Z</time>
      </trkpt>
      <trkpt lat="43.65585" lon="3.79214">
        <ele>91.102959</ele>
        <time>2020-06-28T10:22:56Z</time>
      </trkpt>
      <trkpt lat="43.6558" lon="3.79209">
        <ele>90.940247</ele>
        <time>2020-06-28T10:22:58Z</time>
      </trkpt>
      <trkpt lat="43.65573" lon="3.79201">
        <ele>90.729034</ele>
        <time>2020-06-28T10:23:00Z</time>
      </trkpt>
      <trkpt lat="43.65568" lon="3.79197">
        <ele>90.334343</ele>
        <time>2020-06-28T10:23:02Z</time>
      </trkpt>
      <trkpt lat="43.65564" lon="3.7919">
        <ele>89.906853</ele>
        <time>2020-06-28T10:23:04Z</time>
      </trkpt>
      <trkpt lat="43.65559" lon="3.79181">
        <ele>89.702415</ele>
        <time>2020-06-28T10:23:06Z</time>
      </trkpt>
      <trkpt lat="43.65554" lon="3.79175">
        <ele>89.129829</ele>
        <time>2020-06-28T10:23:08Z</time>
      </trkpt>
      <trkpt lat="43.65549" lon="3.79172">
        <ele>88.277794</ele>
        <time>2020-06-28T10:23:10Z</time>
      </trkpt>
      <trkpt lat="43.65544" lon="3.79168">
        <ele>87.36367</ele>
        <time>2020-06-28T10:23:12Z</time>
      </trkpt>
      <trkpt lat="43.65537" lon="3.79163">
        <ele>86.61454</ele>
        <time>2020-06-28T10:23:14Z</time>
      </trkpt>
      <trkpt lat="43.65529" lon="3.79158">
        <ele>86.192726</ele>
        <time>2020-06-28T10:23:16Z</time>
      </trkpt>
      <trkpt lat="43.65524" lon="3.7915">
        <ele>85.975014</ele>
        <time>2020-06-28T10:23:18Z</time>
      </trkpt>
      <trkpt lat="43.65523" lon="3.79143">
        <ele>85.513062</ele>
        <time>2020-06-28T10:23:20Z</time>
      </trkpt>
      <trkpt lat="43.65519" lon="3.79138">
        <ele>85.11097</ele>
        <time>2020-06-28T10:23:22Z</time>
      </trkpt>
      <trkpt lat="43.65513" lon="3.79129">
        <ele>84.087669</ele>
        <time>2020-06-28T10:23:24Z</time>
      </trkpt>
      <trkpt lat="43.65503" lon="3.79128">
        <ele>82.865028</ele>
        <time>2020-06-28T10:23:26Z</time>
      </trkpt>
      <trkpt lat="43.65493" lon="3.7913">
        <ele>82.865028</ele>
        <time>2020-06-28T10:23:28Z</time>
      </trkpt>
      <trkpt lat="43.65484" lon="3.79132">
        <ele>82.152283</ele>
        <time>2020-06-28T10:23:30Z</time>
      </trkpt>
      <trkpt lat="43.65476" lon="3.79131">
        <ele>82.077736</ele>
        <time>2020-06-28T10:23:32Z</time>
      </trkpt>
      <trkpt lat="43.65468" lon="3.79128">
        <ele>82.127312</ele>
        <time>2020-06-28T10:23:34Z</time>
      </trkpt>
      <trkpt lat="43.65461" lon="3.79126">
        <ele>82.405281</ele>
        <time>2020-06-28T10:23:36Z</time>
      </trkpt>
      <trkpt lat="43.65455" lon="3.79125">
        <ele>82.462639</ele>
        <time>2020-06-28T10:23:38Z</time>
      </trkpt>
      <trkpt lat="43.65452" lon="3.79129">
        <ele>82.513008</ele>
        <time>2020-06-28T10:23:40Z</time>
      </trkpt>
      <trkpt lat="43.65449" lon="3.79131">
        <ele>82.588867</ele>
        <time>2020-06-28T10:23:42Z</time>
      </trkpt>
      <trkpt lat="43.65444" lon="3.7913">
        <ele>82.637856</ele>
        <time>2020-06-28T10:23:44Z</time>
      </trkpt>
      <trkpt lat="43.65438" lon="3.79128">
        <ele>82.830811</ele>
        <time>2020-06-28T10:23:46Z</time>
      </trkpt>
      <trkpt lat="43.65431" lon="3.79126">
        <ele>83.142906</ele>
        <time>2020-06-28T10:23:48Z</time>
      </trkpt>
      <trkpt lat="43.65425" lon="3.79124">
        <ele>83.301842</ele>
        <time>2020-06-28T10:23:50Z</time>
      </trkpt>
      <trkpt lat="43.65418" lon="3.79121">
        <ele>83.301842</ele>
        <time>2020-06-28T10:23:52Z</time>
      </trkpt>
      <trkpt lat="43.6541" lon="3.79122">
        <ele>83.301842</ele>
        <time>2020-06-28T10:23:54Z</time>
      </trkpt>
      <trkpt lat="43.65403" lon="3.7912">
        <ele>83.163414</ele>
        <time>2020-06-28T10:23:56Z</time>
      </trkpt>
      <trkpt lat="43.65395" lon="3.79118">
        <ele>82.928047</ele>
        <time>2020-06-28T10:23:58Z</time>
      </trkpt>
      <trkpt lat="43.65387" lon="3.79112">
        <ele>82.758652</ele>
        <time>2020-06-28T10:24:00Z</time>
      </trkpt>
      <trkpt lat="43.65378" lon="3.79111">
        <ele>82.292458</ele>
        <time>2020-06-28T10:24:02Z</time>
      </trkpt>
      <trkpt lat="43.65369" lon="3.79109">
        <ele>81.54924</ele>
        <time>2020-06-28T10:24:04Z</time>
      </trkpt>
      <trkpt lat="43.6536" lon="3.79105">
        <ele>81.142136</ele>
        <time>2020-06-28T10:24:06Z</time>
      </trkpt>
      <trkpt lat="43.6535" lon="3.79099">
        <ele>80.760345</ele>
        <time>2020-06-28T10:24:08Z</time>
      </trkpt>
      <trkpt lat="43.65341" lon="3.79098">
        <ele>79.889656</ele>
        <time>2020-06-28T10:24:10Z</time>
      </trkpt>
      <trkpt lat="43.65334" lon="3.79096">
        <ele>78.82251</ele>
        <time>2020-06-28T10:24:12Z</time>
      </trkpt>
      <trkpt lat="43.65326" lon="3.79095">
        <ele>77.721039</ele>
        <time>2020-06-28T10:24:14Z</time>
      </trkpt>
      <trkpt lat="43.65318" lon="3.79094">
        <ele>76.793999</ele>
        <time>2020-06-28T10:24:16Z</time>
      </trkpt>
      <trkpt lat="43.65311" lon="3.79098">
        <ele>76.333885</ele>
        <time>2020-06-28T10:24:18Z</time>
      </trkpt>
      <trkpt lat="43.65305" lon="3.79102">
        <ele>76.203835</ele>
        <time>2020-06-28T10:24:20Z</time>
      </trkpt>
      <trkpt lat="43.65299" lon="3.79105">
        <ele>76.203835</ele>
        <time>2020-06-28T10:24:22Z</time>
      </trkpt>
      <trkpt lat="43.6529" lon="3.79108">
        <ele>76.203835</ele>
        <time>2020-06-28T10:24:24Z</time>
      </trkpt>
      <trkpt lat="43.6528" lon="3.7911">
        <ele>76.369812</ele>
        <time>2020-06-28T10:24:26Z</time>
      </trkpt>
      <trkpt lat="43.6527" lon="3.79111">
        <ele>76.537811</ele>
        <time>2020-06-28T10:24:28Z</time>
      </trkpt>
      <trkpt lat="43.65261" lon="3.79111">
        <ele>76.737396</ele>
        <time>2020-06-28T10:24:30Z</time>
      </trkpt>
      <trkpt lat="43.65253" lon="3.79103">
        <ele>77.016602</ele>
        <time>2020-06-28T10:24:32Z</time>
      </trkpt>
      <trkpt lat="43.65244" lon="3.79092">
        <ele>76.801025</ele>
        <time>2020-06-28T10:24:34Z</time>
      </trkpt>
      <trkpt lat="43.65233" lon="3.79083">
        <ele>76.367348</ele>
        <time>2020-06-28T10:24:36Z</time>
      </trkpt>
      <trkpt lat="43.65222" lon="3.7908">
        <ele>75.929115</ele>
        <time>2020-06-28T10:24:38Z</time>
      </trkpt>
      <trkpt lat="43.65213" lon="3.79076">
        <ele>75.346352</ele>
        <time>2020-06-28T10:24:40Z</time>
      </trkpt>
      <trkpt lat="43.65205" lon="3.79074">
        <ele>74.490967</ele>
        <time>2020-06-28T10:24:42Z</time>
      </trkpt>
      <trkpt lat="43.65199" lon="3.79068">
        <ele>72.79583</ele>
        <time>2020-06-28T10:24:44Z</time>
      </trkpt>
      <trkpt lat="43.65197" lon="3.7906">
        <ele>71.349785</ele>
        <time>2020-06-28T10:24:46Z</time>
      </trkpt>
      <trkpt lat="43.65192" lon="3.79054">
        <ele>70.173698</ele>
        <time>2020-06-28T10:24:48Z</time>
      </trkpt>
      <trkpt lat="43.65184" lon="3.79053">
        <ele>69.708298</ele>
        <time>2020-06-28T10:24:50Z</time>
      </trkpt>
      <trkpt lat="43.65176" lon="3.79054">
        <ele>69.21447</ele>
        <time>2020-06-28T10:24:52Z</time>
      </trkpt>
      <trkpt lat="43.65168" lon="3.79054">
        <ele>68.259117</ele>
        <time>2020-06-28T10:24:54Z</time>
      </trkpt>
      <trkpt lat="43.65159" lon="3.79054">
        <ele>68.259117</ele>
        <time>2020-06-28T10:24:56Z</time>
      </trkpt>
      <trkpt lat="43.65151" lon="3.79054">
        <ele>67.889793</ele>
        <time>2020-06-28T10:24:58Z</time>
      </trkpt>
      <trkpt lat="43.65142" lon="3.79053">
        <ele>67.604134</ele>
        <time>2020-06-28T10:25:00Z</time>
      </trkpt>
      <trkpt lat="43.65135" lon="3.79054">
        <ele>67.239044</ele>
        <time>2020-06-28T10:25:02Z</time>
      </trkpt>
      <trkpt lat="43.65128" lon="3.79054">
        <ele>67.0839</ele>
        <time>2020-06-28T10:25:04Z</time>
      </trkpt>
      <trkpt lat="43.65122" lon="3.79057">
        <ele>66.928711</ele>
        <time>2020-06-28T10:25:06Z</time>
      </trkpt>
      <trkpt lat="43.65115" lon="3.79061">
        <ele>66.917633</ele>
        <time>2020-06-28T10:25:08Z</time>
      </trkpt>
      <trkpt lat="43.65109" lon="3.79065">
        <ele>66.951851</ele>
        <time>2020-06-28T10:25:10Z</time>
      </trkpt>
      <trkpt lat="43.65104" lon="3.79069">
        <ele>67.102577</ele>
        <time>2020-06-28T10:25:12Z</time>
      </trkpt>
      <trkpt lat="43.65098" lon="3.79073">
        <ele>67.317467</ele>
        <time>2020-06-28T10:25:14Z</time>
      </trkpt>
      <trkpt lat="43.65092" lon="3.79077">
        <ele>67.505226</ele>
        <time>2020-06-28T10:25:16Z</time>
      </trkpt>
      <trkpt lat="43.65086" lon="3.79081">
        <ele>67.633652</ele>
        <time>2020-06-28T10:25:18Z</time>
      </trkpt>
      <trkpt lat="43.65081" lon="3.79083">
        <ele>67.714005</ele>
        <time>2020-06-28T10:25:20Z</time>
      </trkpt>
      <trkpt lat="43.65079" lon="3.79083">
        <ele>67.726891</ele>
        <time>2020-06-28T10:25:22Z</time>
      </trkpt>
      <trkpt lat="43.65076" lon="3.79082">
        <ele>67.726891</ele>
        <time>2020-06-28T10:25:24Z</time>
      </trkpt>
      <trkpt lat="43.65072" lon="3.79081">
        <ele>67.711998</ele>
        <time>2020-06-28T10:25:26Z</time>
      </trkpt>
      <trkpt lat="43.6507" lon="3.79073">
        <ele>67.609261</ele>
        <time>2020-06-28T10:25:28Z</time>
      </trkpt>
      <trkpt lat="43.65075" lon="3.79063">
        <ele>67.424721</ele>
        <time>2020-06-28T10:25:30Z</time>
      </trkpt>
      <trkpt lat="43.65083" lon="3.79055">
        <ele>67.158028</ele>
        <time>2020-06-28T10:25:32Z</time>
      </trkpt>
      <trkpt lat="43.6509" lon="3.79043">
        <ele>66.840004</ele>
        <time>2020-06-28T10:25:34Z</time>
      </trkpt>
      <trkpt lat="43.65096" lon="3.7903">
        <ele>66.480095</ele>
        <time>2020-06-28T10:25:36Z</time>
      </trkpt>
      <trkpt lat="43.65098" lon="3.79014">
        <ele>66.023064</ele>
        <time>2020-06-28T10:25:38Z</time>
      </trkpt>
      <trkpt lat="43.65098" lon="3.78999">
        <ele>65.855705</ele>
        <time>2020-06-28T10:25:40Z</time>
      </trkpt>
      <trkpt lat="43.65096" lon="3.78985">
        <ele>65.855705</ele>
        <time>2020-06-28T10:25:42Z</time>
      </trkpt>
      <trkpt lat="43.65093" lon="3.78973">
        <ele>65.872902</ele>
        <time>2020-06-28T10:25:44Z</time>
      </trkpt>
      <trkpt lat="43.65089" lon="3.78961">
        <ele>65.915771</ele>
        <time>2020-06-28T10:25:46Z</time>
      </trkpt>
      <trkpt lat="43.65086" lon="3.7895">
        <ele>66.247887</ele>
        <time>2020-06-28T10:25:48Z</time>
      </trkpt>
      <trkpt lat="43.65083" lon="3.78938">
        <ele>66.79953</ele>
        <time>2020-06-28T10:25:50Z</time>
      </trkpt>
      <trkpt lat="43.65078" lon="3.78926">
        <ele>68.571571</ele>
        <time>2020-06-28T10:25:52Z</time>
      </trkpt>
      <trkpt lat="43.65074" lon="3.78915">
        <ele>69.643959</ele>
        <time>2020-06-28T10:25:54Z</time>
      </trkpt>
      <trkpt lat="43.65071" lon="3.78904">
        <ele>72.202202</ele>
        <time>2020-06-28T10:25:56Z</time>
      </trkpt>
      <trkpt lat="43.65065" lon="3.78899">
        <ele>74.791466</ele>
        <time>2020-06-28T10:25:58Z</time>
      </trkpt>
      <trkpt lat="43.65058" lon="3.78908">
        <ele>76.073143</ele>
        <time>2020-06-28T10:26:00Z</time>
      </trkpt>
      <trkpt lat="43.6505" lon="3.78916">
        <ele>77.222633</ele>
        <time>2020-06-28T10:26:02Z</time>
      </trkpt>
      <trkpt lat="43.65043" lon="3.78921">
        <ele>79.037689</ele>
        <time>2020-06-28T10:26:04Z</time>
      </trkpt>
      <trkpt lat="43.6504" lon="3.78926">
        <ele>80.094482</ele>
        <time>2020-06-28T10:26:06Z</time>
      </trkpt>
      <trkpt lat="43.65038" lon="3.78931">
        <ele>80.394493</ele>
        <time>2020-06-28T10:26:08Z</time>
      </trkpt>
      <trkpt lat="43.65034" lon="3.78936">
        <ele>80.394493</ele>
        <time>2020-06-28T10:26:10Z</time>
      </trkpt>
      <trkpt lat="43.65029" lon="3.78941">
        <ele>80.194939</ele>
        <time>2020-06-28T10:26:12Z</time>
      </trkpt>
      <trkpt lat="43.65025" lon="3.78944">
        <ele>79.847237</ele>
        <time>2020-06-28T10:26:14Z</time>
      </trkpt>
      <trkpt lat="43.65021" lon="3.78947">
        <ele>79.582664</ele>
        <time>2020-06-28T10:26:16Z</time>
      </trkpt>
      <trkpt lat="43.65015" lon="3.78951">
        <ele>79.523964</ele>
        <time>2020-06-28T10:26:18Z</time>
      </trkpt>
      <trkpt lat="43.65009" lon="3.78956">
        <ele>79.468758</ele>
        <time>2020-06-28T10:26:20Z</time>
      </trkpt>
      <trkpt lat="43.65004" lon="3.7896">
        <ele>79.447289</ele>
        <time>2020-06-28T10:26:22Z</time>
      </trkpt>
      <trkpt lat="43.64999" lon="3.78965">
        <ele>79.426628</ele>
        <time>2020-06-28T10:26:24Z</time>
      </trkpt>
      <trkpt lat="43.64993" lon="3.7897">
        <ele>79.404884</ele>
        <time>2020-06-28T10:26:26Z</time>
      </trkpt>
      <trkpt lat="43.64987" lon="3.78975">
        <ele>79.241852</ele>
        <time>2020-06-28T10:26:28Z</time>
      </trkpt>
      <trkpt lat="43.64981" lon="3.78979">
        <ele>79.182281</ele>
        <time>2020-06-28T10:26:30Z</time>
      </trkpt>
      <trkpt lat="43.64974" lon="3.78983">
        <ele>79.182281</ele>
        <time>2020-06-28T10:26:32Z</time>
      </trkpt>
      <trkpt lat="43.64968" lon="3.78989">
        <ele>79.182281</ele>
        <time>2020-06-28T10:26:34Z</time>
      </trkpt>
      <trkpt lat="43.64962" lon="3.78994">
        <ele>79.199249</ele>
        <time>2020-06-28T10:26:36Z</time>
      </trkpt>
      <trkpt lat="43.64956" lon="3.78999">
        <ele>79.28347</ele>
        <time>2020-06-28T10:26:38Z</time>
      </trkpt>
      <trkpt lat="43.64951" lon="3.79003">
        <ele>79.360306</ele>
        <time>2020-06-28T10:26:40Z</time>
      </trkpt>
      <trkpt lat="43.64949" lon="3.79004">
        <ele>79.403297</ele>
        <time>2020-06-28T10:26:42Z</time>
      </trkpt>
      <trkpt lat="43.65065" lon="3.78923">
        <ele>63.9</ele>
        <time>2020-06-28T07:55:13Z</time>
        <extensions>
          <visugpx:TrkExtension xmlns:visugpx="https://www.visugpx.com/editgpx/">
            <visugpx:node>1</visugpx:node>
            </visugpx:TrkExtension>
        </extensions>
      </trkpt>
    </trkseg>
  </trk>
</gpx>